<?xml version="1.0" encoding="UTF-8" standalone="no" ?>
<gpx xmlns="http://www.topografix.com/GPX/1/1" xmlns:xsi="http://www.w3.org/2001/XMLSchema-instance" xsi:schemaLocation="http://www.topografix.com/GPX/1/1 http://www.topografix.com/GPX/1/1/gpx.xsd" version="1.1" creator="VisuGPX - https://www.visugpx.com">
  <metadata>
    <name>VTT à St Bonnet le château</name>
    <desc><![CDATA[Parcourt de 66 km légèrement écourté]]></desc>
  </metadata>
  <trk>
    <name><![CDATA[VTT 11-11-2011]]></name>
    <trkseg>
      <trkpt lat="45.42292" lon="4.06995">
        <ele>820.14</ele>
        <time>2011-11-11T07:35:15Z</time>
      </trkpt>
      <trkpt lat="45.42291" lon="4.06994">
        <ele>820.62</ele>
        <time>2011-11-11T07:35:19Z</time>
      </trkpt>
      <trkpt lat="45.42291" lon="4.06993">
        <ele>822.06</ele>
        <time>2011-11-11T07:35:39Z</time>
      </trkpt>
      <trkpt lat="45.42292" lon="4.06993">
        <ele>822.55</ele>
        <time>2011-11-11T07:36:06Z</time>
      </trkpt>
      <trkpt lat="45.42287" lon="4.06986">
        <ele>818.7</ele>
        <time>2011-11-11T07:37:18Z</time>
      </trkpt>
      <trkpt lat="45.42286" lon="4.06977">
        <ele>819.18</ele>
        <time>2011-11-11T07:37:28Z</time>
      </trkpt>
      <trkpt lat="45.42287" lon="4.06974">
        <ele>820.62</ele>
        <time>2011-11-11T07:37:33Z</time>
      </trkpt>
      <trkpt lat="45.42315" lon="4.06981">
        <ele>822.55</ele>
        <time>2011-11-11T07:37:45Z</time>
      </trkpt>
      <trkpt lat="45.42349" lon="4.06987">
        <ele>823.99</ele>
        <time>2011-11-11T07:37:58Z</time>
      </trkpt>
      <trkpt lat="45.42379" lon="4.06988">
        <ele>825.43</ele>
        <time>2011-11-11T07:38:09Z</time>
      </trkpt>
      <trkpt lat="45.42412" lon="4.06989">
        <ele>825.43</ele>
        <time>2011-11-11T07:38:20Z</time>
      </trkpt>
      <trkpt lat="45.42447" lon="4.06999">
        <ele>827.35</ele>
        <time>2011-11-11T07:38:30Z</time>
      </trkpt>
      <trkpt lat="45.42451" lon="4.07008">
        <ele>827.35</ele>
        <time>2011-11-11T07:38:32Z</time>
      </trkpt>
      <trkpt lat="45.42453" lon="4.07014">
        <ele>827.83</ele>
        <time>2011-11-11T07:38:33Z</time>
      </trkpt>
      <trkpt lat="45.42474" lon="4.07113">
        <ele>827.35</ele>
        <time>2011-11-11T07:38:48Z</time>
      </trkpt>
      <trkpt lat="45.4248" lon="4.07142">
        <ele>825.91</ele>
        <time>2011-11-11T07:38:52Z</time>
      </trkpt>
      <trkpt lat="45.42481" lon="4.07147">
        <ele>825.43</ele>
        <time>2011-11-11T07:38:53Z</time>
      </trkpt>
      <trkpt lat="45.42481" lon="4.07152">
        <ele>824.95</ele>
        <time>2011-11-11T07:38:54Z</time>
      </trkpt>
      <trkpt lat="45.4248" lon="4.07157">
        <ele>824.95</ele>
        <time>2011-11-11T07:38:55Z</time>
      </trkpt>
      <trkpt lat="45.42478" lon="4.07161">
        <ele>824.47</ele>
        <time>2011-11-11T07:38:56Z</time>
      </trkpt>
      <trkpt lat="45.42475" lon="4.07165">
        <ele>824.95</ele>
        <time>2011-11-11T07:38:57Z</time>
      </trkpt>
      <trkpt lat="45.42441" lon="4.07232">
        <ele>821.58</ele>
        <time>2011-11-11T07:39:07Z</time>
      </trkpt>
      <trkpt lat="45.42386" lon="4.07325">
        <ele>818.22</ele>
        <time>2011-11-11T07:39:19Z</time>
      </trkpt>
      <trkpt lat="45.4236" lon="4.07373">
        <ele>815.82</ele>
        <time>2011-11-11T07:39:25Z</time>
      </trkpt>
      <trkpt lat="45.42355" lon="4.0738">
        <ele>815.34</ele>
        <time>2011-11-11T07:39:26Z</time>
      </trkpt>
      <trkpt lat="45.42349" lon="4.07386">
        <ele>815.34</ele>
        <time>2011-11-11T07:39:27Z</time>
      </trkpt>
      <trkpt lat="45.42344" lon="4.07391">
        <ele>814.85</ele>
        <time>2011-11-11T07:39:28Z</time>
      </trkpt>
      <trkpt lat="45.4234" lon="4.07396">
        <ele>814.37</ele>
        <time>2011-11-11T07:39:29Z</time>
      </trkpt>
      <trkpt lat="45.42335" lon="4.07401">
        <ele>814.37</ele>
        <time>2011-11-11T07:39:30Z</time>
      </trkpt>
      <trkpt lat="45.42331" lon="4.07406">
        <ele>813.41</ele>
        <time>2011-11-11T07:39:31Z</time>
      </trkpt>
      <trkpt lat="45.42328" lon="4.07413">
        <ele>812.93</ele>
        <time>2011-11-11T07:39:32Z</time>
      </trkpt>
      <trkpt lat="45.42326" lon="4.0742">
        <ele>812.45</ele>
        <time>2011-11-11T07:39:33Z</time>
      </trkpt>
      <trkpt lat="45.42324" lon="4.07428">
        <ele>811.49</ele>
        <time>2011-11-11T07:39:34Z</time>
      </trkpt>
      <trkpt lat="45.42322" lon="4.07436">
        <ele>811.01</ele>
        <time>2011-11-11T07:39:35Z</time>
      </trkpt>
      <trkpt lat="45.42309" lon="4.07487">
        <ele>809.09</ele>
        <time>2011-11-11T07:39:40Z</time>
      </trkpt>
      <trkpt lat="45.42304" lon="4.07497">
        <ele>808.61</ele>
        <time>2011-11-11T07:39:41Z</time>
      </trkpt>
      <trkpt lat="45.4229" lon="4.07525">
        <ele>805.24</ele>
        <time>2011-11-11T07:39:44Z</time>
      </trkpt>
      <trkpt lat="45.42287" lon="4.07534">
        <ele>804.28</ele>
        <time>2011-11-11T07:39:45Z</time>
      </trkpt>
      <trkpt lat="45.42284" lon="4.07546">
        <ele>802.36</ele>
        <time>2011-11-11T07:39:47Z</time>
      </trkpt>
      <trkpt lat="45.42283" lon="4.07554">
        <ele>801.88</ele>
        <time>2011-11-11T07:39:48Z</time>
      </trkpt>
      <trkpt lat="45.42278" lon="4.07585">
        <ele>800.44</ele>
        <time>2011-11-11T07:39:52Z</time>
      </trkpt>
      <trkpt lat="45.42274" lon="4.0759">
        <ele>799.95</ele>
        <time>2011-11-11T07:39:53Z</time>
      </trkpt>
      <trkpt lat="45.42268" lon="4.07592">
        <ele>798.99</ele>
        <time>2011-11-11T07:39:54Z</time>
      </trkpt>
      <trkpt lat="45.42261" lon="4.07594">
        <ele>798.03</ele>
        <time>2011-11-11T07:39:55Z</time>
      </trkpt>
      <trkpt lat="45.42254" lon="4.07597">
        <ele>797.07</ele>
        <time>2011-11-11T07:39:56Z</time>
      </trkpt>
      <trkpt lat="45.42246" lon="4.07602">
        <ele>796.11</ele>
        <time>2011-11-11T07:39:57Z</time>
      </trkpt>
      <trkpt lat="45.42196" lon="4.07647">
        <ele>789.86</ele>
        <time>2011-11-11T07:40:03Z</time>
      </trkpt>
      <trkpt lat="45.42189" lon="4.07659">
        <ele>788.9</ele>
        <time>2011-11-11T07:40:04Z</time>
      </trkpt>
      <trkpt lat="45.42175" lon="4.07695">
        <ele>786.02</ele>
        <time>2011-11-11T07:40:07Z</time>
      </trkpt>
      <trkpt lat="45.4216" lon="4.07737">
        <ele>782.65</ele>
        <time>2011-11-11T07:40:11Z</time>
      </trkpt>
      <trkpt lat="45.42157" lon="4.07742">
        <ele>781.69</ele>
        <time>2011-11-11T07:40:12Z</time>
      </trkpt>
      <trkpt lat="45.42155" lon="4.07746">
        <ele>781.21</ele>
        <time>2011-11-11T07:40:13Z</time>
      </trkpt>
      <trkpt lat="45.42153" lon="4.07751">
        <ele>780.25</ele>
        <time>2011-11-11T07:40:14Z</time>
      </trkpt>
      <trkpt lat="45.42149" lon="4.07758">
        <ele>778.81</ele>
        <time>2011-11-11T07:40:15Z</time>
      </trkpt>
      <trkpt lat="45.42144" lon="4.07766">
        <ele>777.36</ele>
        <time>2011-11-11T07:40:16Z</time>
      </trkpt>
      <trkpt lat="45.42137" lon="4.07774">
        <ele>775.92</ele>
        <time>2011-11-11T07:40:17Z</time>
      </trkpt>
      <trkpt lat="45.4213" lon="4.07781">
        <ele>774</ele>
        <time>2011-11-11T07:40:18Z</time>
      </trkpt>
      <trkpt lat="45.42108" lon="4.07808">
        <ele>768.23</ele>
        <time>2011-11-11T07:40:22Z</time>
      </trkpt>
      <trkpt lat="45.42099" lon="4.0782">
        <ele>765.83</ele>
        <time>2011-11-11T07:40:24Z</time>
      </trkpt>
      <trkpt lat="45.42096" lon="4.07827">
        <ele>764.39</ele>
        <time>2011-11-11T07:40:25Z</time>
      </trkpt>
      <trkpt lat="45.42093" lon="4.07835">
        <ele>762.94</ele>
        <time>2011-11-11T07:40:26Z</time>
      </trkpt>
      <trkpt lat="45.4209" lon="4.07843">
        <ele>761.5</ele>
        <time>2011-11-11T07:40:27Z</time>
      </trkpt>
      <trkpt lat="45.42085" lon="4.07864">
        <ele>757.66</ele>
        <time>2011-11-11T07:40:33Z</time>
      </trkpt>
      <trkpt lat="45.42091" lon="4.07867">
        <ele>756.69</ele>
        <time>2011-11-11T07:40:37Z</time>
      </trkpt>
      <trkpt lat="45.42096" lon="4.07866">
        <ele>756.21</ele>
        <time>2011-11-11T07:40:40Z</time>
      </trkpt>
      <trkpt lat="45.42101" lon="4.0787">
        <ele>757.18</ele>
        <time>2011-11-11T07:40:44Z</time>
      </trkpt>
      <trkpt lat="45.42102" lon="4.07873">
        <ele>757.66</ele>
        <time>2011-11-11T07:40:46Z</time>
      </trkpt>
      <trkpt lat="45.42107" lon="4.07889">
        <ele>762.46</ele>
        <time>2011-11-11T07:40:54Z</time>
      </trkpt>
      <trkpt lat="45.42109" lon="4.07896">
        <ele>764.39</ele>
        <time>2011-11-11T07:40:58Z</time>
      </trkpt>
      <trkpt lat="45.42111" lon="4.07905">
        <ele>766.31</ele>
        <time>2011-11-11T07:41:02Z</time>
      </trkpt>
      <trkpt lat="45.4211" lon="4.07933">
        <ele>774</ele>
        <time>2011-11-11T07:41:15Z</time>
      </trkpt>
      <trkpt lat="45.42109" lon="4.07941">
        <ele>775.44</ele>
        <time>2011-11-11T07:41:19Z</time>
      </trkpt>
      <trkpt lat="45.42108" lon="4.07947">
        <ele>775.44</ele>
        <time>2011-11-11T07:41:22Z</time>
      </trkpt>
      <trkpt lat="45.42102" lon="4.07953">
        <ele>776.88</ele>
        <time>2011-11-11T07:41:28Z</time>
      </trkpt>
      <trkpt lat="45.42095" lon="4.0796">
        <ele>777.84</ele>
        <time>2011-11-11T07:41:34Z</time>
      </trkpt>
      <trkpt lat="45.42073" lon="4.07976">
        <ele>785.05</ele>
        <time>2011-11-11T07:41:48Z</time>
      </trkpt>
      <trkpt lat="45.42051" lon="4.07981">
        <ele>786.5</ele>
        <time>2011-11-11T07:42:01Z</time>
      </trkpt>
      <trkpt lat="45.42024" lon="4.07976">
        <ele>789.86</ele>
        <time>2011-11-11T07:42:16Z</time>
      </trkpt>
      <trkpt lat="45.42019" lon="4.07974">
        <ele>790.82</ele>
        <time>2011-11-11T07:42:19Z</time>
      </trkpt>
      <trkpt lat="45.41992" lon="4.07967">
        <ele>794.67</ele>
        <time>2011-11-11T07:42:36Z</time>
      </trkpt>
      <trkpt lat="45.41978" lon="4.07966">
        <ele>796.59</ele>
        <time>2011-11-11T07:42:45Z</time>
      </trkpt>
      <trkpt lat="45.41969" lon="4.0797">
        <ele>798.99</ele>
        <time>2011-11-11T07:42:52Z</time>
      </trkpt>
      <trkpt lat="45.41966" lon="4.07971">
        <ele>799.47</ele>
        <time>2011-11-11T07:42:54Z</time>
      </trkpt>
      <trkpt lat="45.41965" lon="4.07979">
        <ele>800.44</ele>
        <time>2011-11-11T07:42:58Z</time>
      </trkpt>
      <trkpt lat="45.41967" lon="4.07995">
        <ele>802.36</ele>
        <time>2011-11-11T07:43:06Z</time>
      </trkpt>
      <trkpt lat="45.41971" lon="4.0801">
        <ele>804.28</ele>
        <time>2011-11-11T07:43:13Z</time>
      </trkpt>
      <trkpt lat="45.41973" lon="4.08013">
        <ele>805.24</ele>
        <time>2011-11-11T07:43:15Z</time>
      </trkpt>
      <trkpt lat="45.41973" lon="4.08017">
        <ele>806.2</ele>
        <time>2011-11-11T07:43:17Z</time>
      </trkpt>
      <trkpt lat="45.41975" lon="4.08025">
        <ele>807.64</ele>
        <time>2011-11-11T07:43:21Z</time>
      </trkpt>
      <trkpt lat="45.41976" lon="4.08041">
        <ele>808.61</ele>
        <time>2011-11-11T07:43:29Z</time>
      </trkpt>
      <trkpt lat="45.41981" lon="4.08047">
        <ele>809.09</ele>
        <time>2011-11-11T07:43:32Z</time>
      </trkpt>
      <trkpt lat="45.41981" lon="4.08058">
        <ele>809.57</ele>
        <time>2011-11-11T07:43:37Z</time>
      </trkpt>
      <trkpt lat="45.41984" lon="4.08064">
        <ele>810.53</ele>
        <time>2011-11-11T07:43:40Z</time>
      </trkpt>
      <trkpt lat="45.41987" lon="4.08083">
        <ele>812.93</ele>
        <time>2011-11-11T07:43:51Z</time>
      </trkpt>
      <trkpt lat="45.41992" lon="4.08107">
        <ele>815.34</ele>
        <time>2011-11-11T07:44:04Z</time>
      </trkpt>
      <trkpt lat="45.41991" lon="4.08115">
        <ele>816.3</ele>
        <time>2011-11-11T07:44:09Z</time>
      </trkpt>
      <trkpt lat="45.41993" lon="4.08122">
        <ele>817.74</ele>
        <time>2011-11-11T07:44:13Z</time>
      </trkpt>
      <trkpt lat="45.41995" lon="4.08146">
        <ele>821.1</ele>
        <time>2011-11-11T07:44:26Z</time>
      </trkpt>
      <trkpt lat="45.41995" lon="4.08155">
        <ele>823.99</ele>
        <time>2011-11-11T07:44:31Z</time>
      </trkpt>
      <trkpt lat="45.41993" lon="4.08165">
        <ele>824.95</ele>
        <time>2011-11-11T07:44:45Z</time>
      </trkpt>
      <trkpt lat="45.41992" lon="4.08165">
        <ele>824.47</ele>
        <time>2011-11-11T07:44:57Z</time>
      </trkpt>
      <trkpt lat="45.41991" lon="4.08165">
        <ele>823.99</ele>
        <time>2011-11-11T07:45:02Z</time>
      </trkpt>
      <trkpt lat="45.41986" lon="4.08167">
        <ele>823.99</ele>
        <time>2011-11-11T07:45:06Z</time>
      </trkpt>
      <trkpt lat="45.41982" lon="4.0817">
        <ele>823.99</ele>
        <time>2011-11-11T07:45:09Z</time>
      </trkpt>
      <trkpt lat="45.41972" lon="4.08172">
        <ele>823.51</ele>
        <time>2011-11-11T07:45:16Z</time>
      </trkpt>
      <trkpt lat="45.41967" lon="4.08174">
        <ele>823.03</ele>
        <time>2011-11-11T07:45:20Z</time>
      </trkpt>
      <trkpt lat="45.41938" lon="4.08179">
        <ele>823.51</ele>
        <time>2011-11-11T07:45:35Z</time>
      </trkpt>
      <trkpt lat="45.41909" lon="4.08184">
        <ele>824.47</ele>
        <time>2011-11-11T07:45:49Z</time>
      </trkpt>
      <trkpt lat="45.41876" lon="4.08182">
        <ele>823.51</ele>
        <time>2011-11-11T07:46:01Z</time>
      </trkpt>
      <trkpt lat="45.41844" lon="4.08164">
        <ele>821.1</ele>
        <time>2011-11-11T07:46:11Z</time>
      </trkpt>
      <trkpt lat="45.41812" lon="4.08134">
        <ele>818.7</ele>
        <time>2011-11-11T07:46:24Z</time>
      </trkpt>
      <trkpt lat="45.41808" lon="4.0813">
        <ele>818.22</ele>
        <time>2011-11-11T07:46:28Z</time>
      </trkpt>
      <trkpt lat="45.41806" lon="4.08131">
        <ele>818.22</ele>
        <time>2011-11-11T07:46:38Z</time>
      </trkpt>
      <trkpt lat="45.41807" lon="4.08132">
        <ele>818.22</ele>
        <time>2011-11-11T07:46:50Z</time>
      </trkpt>
      <trkpt lat="45.41808" lon="4.08133">
        <ele>818.7</ele>
        <time>2011-11-11T07:46:51Z</time>
      </trkpt>
      <trkpt lat="45.41809" lon="4.08134">
        <ele>818.7</ele>
        <time>2011-11-11T07:46:52Z</time>
      </trkpt>
      <trkpt lat="45.4181" lon="4.08134">
        <ele>818.7</ele>
        <time>2011-11-11T07:46:53Z</time>
      </trkpt>
      <trkpt lat="45.41812" lon="4.08135">
        <ele>819.18</ele>
        <time>2011-11-11T07:46:54Z</time>
      </trkpt>
      <trkpt lat="45.41814" lon="4.08136">
        <ele>819.18</ele>
        <time>2011-11-11T07:46:55Z</time>
      </trkpt>
      <trkpt lat="45.41815" lon="4.08137">
        <ele>819.18</ele>
        <time>2011-11-11T07:46:56Z</time>
      </trkpt>
      <trkpt lat="45.41821" lon="4.08143">
        <ele>819.66</ele>
        <time>2011-11-11T07:47:05Z</time>
      </trkpt>
      <trkpt lat="45.41822" lon="4.08144">
        <ele>820.14</ele>
        <time>2011-11-11T07:47:06Z</time>
      </trkpt>
      <trkpt lat="45.41824" lon="4.08145">
        <ele>820.14</ele>
        <time>2011-11-11T07:47:07Z</time>
      </trkpt>
      <trkpt lat="45.41826" lon="4.08146">
        <ele>820.14</ele>
        <time>2011-11-11T07:47:09Z</time>
      </trkpt>
      <trkpt lat="45.41828" lon="4.08147">
        <ele>820.62</ele>
        <time>2011-11-11T07:47:10Z</time>
      </trkpt>
      <trkpt lat="45.41829" lon="4.08149">
        <ele>820.62</ele>
        <time>2011-11-11T07:47:11Z</time>
      </trkpt>
      <trkpt lat="45.4183" lon="4.08151">
        <ele>821.1</ele>
        <time>2011-11-11T07:47:12Z</time>
      </trkpt>
      <trkpt lat="45.41831" lon="4.08152">
        <ele>821.58</ele>
        <time>2011-11-11T07:47:13Z</time>
      </trkpt>
      <trkpt lat="45.41833" lon="4.08153">
        <ele>822.06</ele>
        <time>2011-11-11T07:47:14Z</time>
      </trkpt>
      <trkpt lat="45.41853" lon="4.08171">
        <ele>823.03</ele>
        <time>2011-11-11T07:47:24Z</time>
      </trkpt>
      <trkpt lat="45.41881" lon="4.08184">
        <ele>823.99</ele>
        <time>2011-11-11T07:47:36Z</time>
      </trkpt>
      <trkpt lat="45.41922" lon="4.08181">
        <ele>823.99</ele>
        <time>2011-11-11T07:47:50Z</time>
      </trkpt>
      <trkpt lat="45.41961" lon="4.08175">
        <ele>823.03</ele>
        <time>2011-11-11T07:48:01Z</time>
      </trkpt>
      <trkpt lat="45.41967" lon="4.08172">
        <ele>823.03</ele>
        <time>2011-11-11T07:48:04Z</time>
      </trkpt>
      <trkpt lat="45.4197" lon="4.08171">
        <ele>823.03</ele>
        <time>2011-11-11T07:48:05Z</time>
      </trkpt>
      <trkpt lat="45.41973" lon="4.08171">
        <ele>823.03</ele>
        <time>2011-11-11T07:48:06Z</time>
      </trkpt>
      <trkpt lat="45.41977" lon="4.0817">
        <ele>823.03</ele>
        <time>2011-11-11T07:48:07Z</time>
      </trkpt>
      <trkpt lat="45.41981" lon="4.08169">
        <ele>823.03</ele>
        <time>2011-11-11T07:48:08Z</time>
      </trkpt>
      <trkpt lat="45.41992" lon="4.08167">
        <ele>822.55</ele>
        <time>2011-11-11T07:48:12Z</time>
      </trkpt>
      <trkpt lat="45.41993" lon="4.0817">
        <ele>822.06</ele>
        <time>2011-11-11T07:48:13Z</time>
      </trkpt>
      <trkpt lat="45.41995" lon="4.08174">
        <ele>822.06</ele>
        <time>2011-11-11T07:48:14Z</time>
      </trkpt>
      <trkpt lat="45.41995" lon="4.08178">
        <ele>821.58</ele>
        <time>2011-11-11T07:48:15Z</time>
      </trkpt>
      <trkpt lat="45.41996" lon="4.08184">
        <ele>821.1</ele>
        <time>2011-11-11T07:48:16Z</time>
      </trkpt>
      <trkpt lat="45.41997" lon="4.0819">
        <ele>820.14</ele>
        <time>2011-11-11T07:48:17Z</time>
      </trkpt>
      <trkpt lat="45.41998" lon="4.08197">
        <ele>819.66</ele>
        <time>2011-11-11T07:48:18Z</time>
      </trkpt>
      <trkpt lat="45.42" lon="4.08206">
        <ele>818.7</ele>
        <time>2011-11-11T07:48:19Z</time>
      </trkpt>
      <trkpt lat="45.42002" lon="4.08215">
        <ele>817.74</ele>
        <time>2011-11-11T07:48:20Z</time>
      </trkpt>
      <trkpt lat="45.42027" lon="4.08323">
        <ele>810.05</ele>
        <time>2011-11-11T07:48:30Z</time>
      </trkpt>
      <trkpt lat="45.42028" lon="4.08346">
        <ele>808.13</ele>
        <time>2011-11-11T07:48:33Z</time>
      </trkpt>
      <trkpt lat="45.42032" lon="4.08383">
        <ele>802.84</ele>
        <time>2011-11-11T07:48:39Z</time>
      </trkpt>
      <trkpt lat="45.42035" lon="4.08399">
        <ele>801.4</ele>
        <time>2011-11-11T07:48:41Z</time>
      </trkpt>
      <trkpt lat="45.42036" lon="4.08464">
        <ele>794.19</ele>
        <time>2011-11-11T07:48:48Z</time>
      </trkpt>
      <trkpt lat="45.42036" lon="4.08492">
        <ele>790.82</ele>
        <time>2011-11-11T07:48:50Z</time>
      </trkpt>
      <trkpt lat="45.42038" lon="4.08541">
        <ele>786.02</ele>
        <time>2011-11-11T07:48:54Z</time>
      </trkpt>
      <trkpt lat="45.4204" lon="4.08548">
        <ele>785.05</ele>
        <time>2011-11-11T07:48:55Z</time>
      </trkpt>
      <trkpt lat="45.42042" lon="4.08553">
        <ele>784.57</ele>
        <time>2011-11-11T07:48:56Z</time>
      </trkpt>
      <trkpt lat="45.42045" lon="4.08558">
        <ele>784.09</ele>
        <time>2011-11-11T07:48:57Z</time>
      </trkpt>
      <trkpt lat="45.42032" lon="4.08571">
        <ele>780.73</ele>
        <time>2011-11-11T07:49:03Z</time>
      </trkpt>
      <trkpt lat="45.42027" lon="4.08585">
        <ele>777.84</ele>
        <time>2011-11-11T07:49:09Z</time>
      </trkpt>
      <trkpt lat="45.42034" lon="4.08599">
        <ele>775.92</ele>
        <time>2011-11-11T07:49:12Z</time>
      </trkpt>
      <trkpt lat="45.42036" lon="4.08607">
        <ele>775.44</ele>
        <time>2011-11-11T07:49:13Z</time>
      </trkpt>
      <trkpt lat="45.42039" lon="4.08614">
        <ele>775.44</ele>
        <time>2011-11-11T07:49:14Z</time>
      </trkpt>
      <trkpt lat="45.42041" lon="4.08623">
        <ele>774.96</ele>
        <time>2011-11-11T07:49:15Z</time>
      </trkpt>
      <trkpt lat="45.42043" lon="4.08631">
        <ele>774.96</ele>
        <time>2011-11-11T07:49:16Z</time>
      </trkpt>
      <trkpt lat="45.42045" lon="4.08639">
        <ele>774.48</ele>
        <time>2011-11-11T07:49:17Z</time>
      </trkpt>
      <trkpt lat="45.42046" lon="4.08648">
        <ele>774</ele>
        <time>2011-11-11T07:49:18Z</time>
      </trkpt>
      <trkpt lat="45.4208" lon="4.08786">
        <ele>768.71</ele>
        <time>2011-11-11T07:49:32Z</time>
      </trkpt>
      <trkpt lat="45.4209" lon="4.08835">
        <ele>769.19</ele>
        <time>2011-11-11T07:49:37Z</time>
      </trkpt>
      <trkpt lat="45.42092" lon="4.08842">
        <ele>769.19</ele>
        <time>2011-11-11T07:49:38Z</time>
      </trkpt>
      <trkpt lat="45.42095" lon="4.08849">
        <ele>769.19</ele>
        <time>2011-11-11T07:49:39Z</time>
      </trkpt>
      <trkpt lat="45.42098" lon="4.08855">
        <ele>769.19</ele>
        <time>2011-11-11T07:49:40Z</time>
      </trkpt>
      <trkpt lat="45.421" lon="4.08861">
        <ele>769.19</ele>
        <time>2011-11-11T07:49:41Z</time>
      </trkpt>
      <trkpt lat="45.42104" lon="4.08868">
        <ele>768.71</ele>
        <time>2011-11-11T07:49:42Z</time>
      </trkpt>
      <trkpt lat="45.42108" lon="4.08874">
        <ele>768.23</ele>
        <time>2011-11-11T07:49:43Z</time>
      </trkpt>
      <trkpt lat="45.42112" lon="4.0888">
        <ele>768.23</ele>
        <time>2011-11-11T07:49:44Z</time>
      </trkpt>
      <trkpt lat="45.42151" lon="4.08933">
        <ele>761.02</ele>
        <time>2011-11-11T07:49:51Z</time>
      </trkpt>
      <trkpt lat="45.4218" lon="4.08952">
        <ele>756.69</ele>
        <time>2011-11-11T07:49:54Z</time>
      </trkpt>
      <trkpt lat="45.42191" lon="4.08956">
        <ele>755.25</ele>
        <time>2011-11-11T07:49:55Z</time>
      </trkpt>
      <trkpt lat="45.42202" lon="4.08959">
        <ele>754.29</ele>
        <time>2011-11-11T07:49:56Z</time>
      </trkpt>
      <trkpt lat="45.42213" lon="4.08964">
        <ele>752.85</ele>
        <time>2011-11-11T07:49:57Z</time>
      </trkpt>
      <trkpt lat="45.42223" lon="4.0897">
        <ele>752.37</ele>
        <time>2011-11-11T07:49:58Z</time>
      </trkpt>
      <trkpt lat="45.42233" lon="4.08978">
        <ele>751.41</ele>
        <time>2011-11-11T07:49:59Z</time>
      </trkpt>
      <trkpt lat="45.42241" lon="4.08987">
        <ele>750.45</ele>
        <time>2011-11-11T07:50:00Z</time>
      </trkpt>
      <trkpt lat="45.42248" lon="4.08997">
        <ele>749.97</ele>
        <time>2011-11-11T07:50:01Z</time>
      </trkpt>
      <trkpt lat="45.42255" lon="4.09008">
        <ele>749</ele>
        <time>2011-11-11T07:50:02Z</time>
      </trkpt>
      <trkpt lat="45.42321" lon="4.0913">
        <ele>740.35</ele>
        <time>2011-11-11T07:50:12Z</time>
      </trkpt>
      <trkpt lat="45.42335" lon="4.09153">
        <ele>738.91</ele>
        <time>2011-11-11T07:50:14Z</time>
      </trkpt>
      <trkpt lat="45.4234" lon="4.09165">
        <ele>737.95</ele>
        <time>2011-11-11T07:50:15Z</time>
      </trkpt>
      <trkpt lat="45.42349" lon="4.0919">
        <ele>736.03</ele>
        <time>2011-11-11T07:50:17Z</time>
      </trkpt>
      <trkpt lat="45.42352" lon="4.09202">
        <ele>735.07</ele>
        <time>2011-11-11T07:50:18Z</time>
      </trkpt>
      <trkpt lat="45.42354" lon="4.09216">
        <ele>734.1</ele>
        <time>2011-11-11T07:50:19Z</time>
      </trkpt>
      <trkpt lat="45.42375" lon="4.09365">
        <ele>723.05</ele>
        <time>2011-11-11T07:50:28Z</time>
      </trkpt>
      <trkpt lat="45.42378" lon="4.09449">
        <ele>717.76</ele>
        <time>2011-11-11T07:50:33Z</time>
      </trkpt>
      <trkpt lat="45.4238" lon="4.09465">
        <ele>716.32</ele>
        <time>2011-11-11T07:50:34Z</time>
      </trkpt>
      <trkpt lat="45.4239" lon="4.0951">
        <ele>712.47</ele>
        <time>2011-11-11T07:50:39Z</time>
      </trkpt>
      <trkpt lat="45.4239" lon="4.09514">
        <ele>712.47</ele>
        <time>2011-11-11T07:50:41Z</time>
      </trkpt>
      <trkpt lat="45.4239" lon="4.09511">
        <ele>711.99</ele>
        <time>2011-11-11T07:50:48Z</time>
      </trkpt>
      <trkpt lat="45.4239" lon="4.0951">
        <ele>711.51</ele>
        <time>2011-11-11T07:50:50Z</time>
      </trkpt>
      <trkpt lat="45.42389" lon="4.09508">
        <ele>711.51</ele>
        <time>2011-11-11T07:50:51Z</time>
      </trkpt>
      <trkpt lat="45.42389" lon="4.09506">
        <ele>711.51</ele>
        <time>2011-11-11T07:50:52Z</time>
      </trkpt>
      <trkpt lat="45.42388" lon="4.09504">
        <ele>711.51</ele>
        <time>2011-11-11T07:50:53Z</time>
      </trkpt>
      <trkpt lat="45.42387" lon="4.09502">
        <ele>711.51</ele>
        <time>2011-11-11T07:50:54Z</time>
      </trkpt>
      <trkpt lat="45.42387" lon="4.095">
        <ele>711.99</ele>
        <time>2011-11-11T07:50:55Z</time>
      </trkpt>
      <trkpt lat="45.42386" lon="4.09497">
        <ele>711.99</ele>
        <time>2011-11-11T07:50:56Z</time>
      </trkpt>
      <trkpt lat="45.42386" lon="4.09495">
        <ele>711.99</ele>
        <time>2011-11-11T07:50:57Z</time>
      </trkpt>
      <trkpt lat="45.42387" lon="4.09492">
        <ele>711.99</ele>
        <time>2011-11-11T07:50:58Z</time>
      </trkpt>
      <trkpt lat="45.42387" lon="4.09489">
        <ele>712.47</ele>
        <time>2011-11-11T07:50:59Z</time>
      </trkpt>
      <trkpt lat="45.42389" lon="4.09486">
        <ele>712.47</ele>
        <time>2011-11-11T07:51:00Z</time>
      </trkpt>
      <trkpt lat="45.4239" lon="4.09483">
        <ele>712.47</ele>
        <time>2011-11-11T07:51:01Z</time>
      </trkpt>
      <trkpt lat="45.42392" lon="4.0948">
        <ele>712.47</ele>
        <time>2011-11-11T07:51:02Z</time>
      </trkpt>
      <trkpt lat="45.42394" lon="4.09477">
        <ele>712.95</ele>
        <time>2011-11-11T07:51:03Z</time>
      </trkpt>
      <trkpt lat="45.42395" lon="4.09473">
        <ele>712.95</ele>
        <time>2011-11-11T07:51:04Z</time>
      </trkpt>
      <trkpt lat="45.42397" lon="4.0947">
        <ele>712.95</ele>
        <time>2011-11-11T07:51:05Z</time>
      </trkpt>
      <trkpt lat="45.4242" lon="4.0942">
        <ele>716.32</ele>
        <time>2011-11-11T07:51:19Z</time>
      </trkpt>
      <trkpt lat="45.42443" lon="4.09364">
        <ele>719.2</ele>
        <time>2011-11-11T07:51:35Z</time>
      </trkpt>
      <trkpt lat="45.42455" lon="4.09322">
        <ele>723.05</ele>
        <time>2011-11-11T07:51:48Z</time>
      </trkpt>
      <trkpt lat="45.4247" lon="4.09281">
        <ele>723.53</ele>
        <time>2011-11-11T07:52:02Z</time>
      </trkpt>
      <trkpt lat="45.42474" lon="4.09273">
        <ele>724.01</ele>
        <time>2011-11-11T07:52:05Z</time>
      </trkpt>
      <trkpt lat="45.42475" lon="4.09271">
        <ele>724.49</ele>
        <time>2011-11-11T07:52:06Z</time>
      </trkpt>
      <trkpt lat="45.42481" lon="4.09248">
        <ele>727.86</ele>
        <time>2011-11-11T07:52:15Z</time>
      </trkpt>
      <trkpt lat="45.42481" lon="4.09246">
        <ele>728.34</ele>
        <time>2011-11-11T07:52:16Z</time>
      </trkpt>
      <trkpt lat="45.42482" lon="4.09243">
        <ele>728.82</ele>
        <time>2011-11-11T07:52:17Z</time>
      </trkpt>
      <trkpt lat="45.42483" lon="4.09241">
        <ele>729.3</ele>
        <time>2011-11-11T07:52:18Z</time>
      </trkpt>
      <trkpt lat="45.42484" lon="4.0924">
        <ele>729.78</ele>
        <time>2011-11-11T07:52:19Z</time>
      </trkpt>
      <trkpt lat="45.42485" lon="4.09238">
        <ele>730.26</ele>
        <time>2011-11-11T07:52:20Z</time>
      </trkpt>
      <trkpt lat="45.42487" lon="4.09236">
        <ele>730.26</ele>
        <time>2011-11-11T07:52:21Z</time>
      </trkpt>
      <trkpt lat="45.42504" lon="4.09205">
        <ele>732.66</ele>
        <time>2011-11-11T07:52:35Z</time>
      </trkpt>
      <trkpt lat="45.4252" lon="4.09171">
        <ele>732.18</ele>
        <time>2011-11-11T07:52:49Z</time>
      </trkpt>
      <trkpt lat="45.42523" lon="4.09162">
        <ele>732.18</ele>
        <time>2011-11-11T07:52:52Z</time>
      </trkpt>
      <trkpt lat="45.42524" lon="4.09159">
        <ele>732.18</ele>
        <time>2011-11-11T07:52:53Z</time>
      </trkpt>
      <trkpt lat="45.42525" lon="4.09156">
        <ele>732.18</ele>
        <time>2011-11-11T07:52:54Z</time>
      </trkpt>
      <trkpt lat="45.42526" lon="4.09153">
        <ele>732.18</ele>
        <time>2011-11-11T07:52:55Z</time>
      </trkpt>
      <trkpt lat="45.42526" lon="4.0915">
        <ele>732.18</ele>
        <time>2011-11-11T07:52:56Z</time>
      </trkpt>
      <trkpt lat="45.42527" lon="4.09147">
        <ele>732.18</ele>
        <time>2011-11-11T07:52:57Z</time>
      </trkpt>
      <trkpt lat="45.42527" lon="4.09144">
        <ele>732.18</ele>
        <time>2011-11-11T07:52:58Z</time>
      </trkpt>
      <trkpt lat="45.42528" lon="4.09141">
        <ele>731.7</ele>
        <time>2011-11-11T07:52:59Z</time>
      </trkpt>
      <trkpt lat="45.42528" lon="4.09137">
        <ele>731.7</ele>
        <time>2011-11-11T07:53:00Z</time>
      </trkpt>
      <trkpt lat="45.42533" lon="4.09087">
        <ele>733.14</ele>
        <time>2011-11-11T07:53:12Z</time>
      </trkpt>
      <trkpt lat="45.42532" lon="4.09075">
        <ele>732.66</ele>
        <time>2011-11-11T07:53:15Z</time>
      </trkpt>
      <trkpt lat="45.42532" lon="4.09071">
        <ele>732.66</ele>
        <time>2011-11-11T07:53:16Z</time>
      </trkpt>
      <trkpt lat="45.42532" lon="4.09067">
        <ele>732.66</ele>
        <time>2011-11-11T07:53:17Z</time>
      </trkpt>
      <trkpt lat="45.42531" lon="4.09063">
        <ele>732.18</ele>
        <time>2011-11-11T07:53:18Z</time>
      </trkpt>
      <trkpt lat="45.42531" lon="4.09059">
        <ele>732.18</ele>
        <time>2011-11-11T07:53:19Z</time>
      </trkpt>
      <trkpt lat="45.42517" lon="4.09008">
        <ele>729.78</ele>
        <time>2011-11-11T07:53:31Z</time>
      </trkpt>
      <trkpt lat="45.42518" lon="4.09003">
        <ele>729.78</ele>
        <time>2011-11-11T07:53:32Z</time>
      </trkpt>
      <trkpt lat="45.4252" lon="4.08999">
        <ele>730.26</ele>
        <time>2011-11-11T07:53:33Z</time>
      </trkpt>
      <trkpt lat="45.42521" lon="4.08994">
        <ele>730.74</ele>
        <time>2011-11-11T07:53:34Z</time>
      </trkpt>
      <trkpt lat="45.42522" lon="4.08988">
        <ele>731.22</ele>
        <time>2011-11-11T07:53:35Z</time>
      </trkpt>
      <trkpt lat="45.42523" lon="4.08983">
        <ele>731.7</ele>
        <time>2011-11-11T07:53:36Z</time>
      </trkpt>
      <trkpt lat="45.42523" lon="4.08977">
        <ele>731.22</ele>
        <time>2011-11-11T07:53:37Z</time>
      </trkpt>
      <trkpt lat="45.42521" lon="4.08971">
        <ele>731.22</ele>
        <time>2011-11-11T07:53:38Z</time>
      </trkpt>
      <trkpt lat="45.42519" lon="4.08964">
        <ele>731.22</ele>
        <time>2011-11-11T07:53:39Z</time>
      </trkpt>
      <trkpt lat="45.42517" lon="4.08951">
        <ele>731.7</ele>
        <time>2011-11-11T07:53:41Z</time>
      </trkpt>
      <trkpt lat="45.42516" lon="4.08945">
        <ele>731.7</ele>
        <time>2011-11-11T07:53:42Z</time>
      </trkpt>
      <trkpt lat="45.42516" lon="4.08939">
        <ele>731.7</ele>
        <time>2011-11-11T07:53:43Z</time>
      </trkpt>
      <trkpt lat="45.42516" lon="4.08933">
        <ele>731.7</ele>
        <time>2011-11-11T07:53:44Z</time>
      </trkpt>
      <trkpt lat="45.42514" lon="4.08925">
        <ele>731.7</ele>
        <time>2011-11-11T07:53:45Z</time>
      </trkpt>
      <trkpt lat="45.4251" lon="4.08913">
        <ele>732.18</ele>
        <time>2011-11-11T07:53:47Z</time>
      </trkpt>
      <trkpt lat="45.42511" lon="4.08908">
        <ele>732.66</ele>
        <time>2011-11-11T07:53:48Z</time>
      </trkpt>
      <trkpt lat="45.42513" lon="4.08903">
        <ele>733.14</ele>
        <time>2011-11-11T07:53:49Z</time>
      </trkpt>
      <trkpt lat="45.42523" lon="4.08861">
        <ele>733.14</ele>
        <time>2011-11-11T07:53:59Z</time>
      </trkpt>
      <trkpt lat="45.42529" lon="4.08829">
        <ele>730.26</ele>
        <time>2011-11-11T07:54:06Z</time>
      </trkpt>
      <trkpt lat="45.42529" lon="4.08824">
        <ele>729.3</ele>
        <time>2011-11-11T07:54:07Z</time>
      </trkpt>
      <trkpt lat="45.42528" lon="4.08819">
        <ele>728.82</ele>
        <time>2011-11-11T07:54:08Z</time>
      </trkpt>
      <trkpt lat="45.42529" lon="4.08815">
        <ele>727.86</ele>
        <time>2011-11-11T07:54:09Z</time>
      </trkpt>
      <trkpt lat="45.42528" lon="4.0881">
        <ele>727.37</ele>
        <time>2011-11-11T07:54:10Z</time>
      </trkpt>
      <trkpt lat="45.42526" lon="4.08806">
        <ele>726.89</ele>
        <time>2011-11-11T07:54:11Z</time>
      </trkpt>
      <trkpt lat="45.42525" lon="4.08802">
        <ele>725.93</ele>
        <time>2011-11-11T07:54:12Z</time>
      </trkpt>
      <trkpt lat="45.4252" lon="4.08764">
        <ele>720.65</ele>
        <time>2011-11-11T07:54:21Z</time>
      </trkpt>
      <trkpt lat="45.42519" lon="4.08761">
        <ele>720.65</ele>
        <time>2011-11-11T07:54:22Z</time>
      </trkpt>
      <trkpt lat="45.42518" lon="4.08757">
        <ele>720.65</ele>
        <time>2011-11-11T07:54:23Z</time>
      </trkpt>
      <trkpt lat="45.42518" lon="4.08729">
        <ele>720.65</ele>
        <time>2011-11-11T07:54:28Z</time>
      </trkpt>
      <trkpt lat="45.42517" lon="4.08715">
        <ele>720.65</ele>
        <time>2011-11-11T07:54:30Z</time>
      </trkpt>
      <trkpt lat="45.42514" lon="4.08695">
        <ele>720.65</ele>
        <time>2011-11-11T07:54:33Z</time>
      </trkpt>
      <trkpt lat="45.42514" lon="4.08689">
        <ele>720.65</ele>
        <time>2011-11-11T07:54:34Z</time>
      </trkpt>
      <trkpt lat="45.42514" lon="4.08667">
        <ele>722.57</ele>
        <time>2011-11-11T07:54:38Z</time>
      </trkpt>
      <trkpt lat="45.42516" lon="4.08664">
        <ele>723.05</ele>
        <time>2011-11-11T07:54:39Z</time>
      </trkpt>
      <trkpt lat="45.4252" lon="4.08663">
        <ele>724.01</ele>
        <time>2011-11-11T07:54:40Z</time>
      </trkpt>
      <trkpt lat="45.42524" lon="4.08664">
        <ele>724.49</ele>
        <time>2011-11-11T07:54:41Z</time>
      </trkpt>
      <trkpt lat="45.42528" lon="4.08665">
        <ele>724.49</ele>
        <time>2011-11-11T07:54:42Z</time>
      </trkpt>
      <trkpt lat="45.42534" lon="4.08667">
        <ele>724.49</ele>
        <time>2011-11-11T07:54:43Z</time>
      </trkpt>
      <trkpt lat="45.42603" lon="4.08685">
        <ele>720.65</ele>
        <time>2011-11-11T07:54:52Z</time>
      </trkpt>
      <trkpt lat="45.42611" lon="4.08685">
        <ele>719.68</ele>
        <time>2011-11-11T07:54:53Z</time>
      </trkpt>
      <trkpt lat="45.42618" lon="4.08682">
        <ele>718.72</ele>
        <time>2011-11-11T07:54:54Z</time>
      </trkpt>
      <trkpt lat="45.42625" lon="4.08676">
        <ele>717.76</ele>
        <time>2011-11-11T07:54:55Z</time>
      </trkpt>
      <trkpt lat="45.42631" lon="4.08672">
        <ele>716.8</ele>
        <time>2011-11-11T07:54:56Z</time>
      </trkpt>
      <trkpt lat="45.42637" lon="4.0867">
        <ele>716.32</ele>
        <time>2011-11-11T07:54:57Z</time>
      </trkpt>
      <trkpt lat="45.42642" lon="4.08672">
        <ele>716.32</ele>
        <time>2011-11-11T07:54:58Z</time>
      </trkpt>
      <trkpt lat="45.42647" lon="4.08675">
        <ele>715.84</ele>
        <time>2011-11-11T07:54:59Z</time>
      </trkpt>
      <trkpt lat="45.42652" lon="4.0868">
        <ele>715.84</ele>
        <time>2011-11-11T07:55:00Z</time>
      </trkpt>
      <trkpt lat="45.42657" lon="4.08684">
        <ele>716.32</ele>
        <time>2011-11-11T07:55:01Z</time>
      </trkpt>
      <trkpt lat="45.42662" lon="4.08687">
        <ele>716.32</ele>
        <time>2011-11-11T07:55:02Z</time>
      </trkpt>
      <trkpt lat="45.42667" lon="4.08689">
        <ele>716.32</ele>
        <time>2011-11-11T07:55:03Z</time>
      </trkpt>
      <trkpt lat="45.42671" lon="4.08689">
        <ele>716.32</ele>
        <time>2011-11-11T07:55:04Z</time>
      </trkpt>
      <trkpt lat="45.42675" lon="4.08689">
        <ele>716.32</ele>
        <time>2011-11-11T07:55:05Z</time>
      </trkpt>
      <trkpt lat="45.42678" lon="4.08687">
        <ele>716.8</ele>
        <time>2011-11-11T07:55:06Z</time>
      </trkpt>
      <trkpt lat="45.42702" lon="4.08677">
        <ele>721.61</ele>
        <time>2011-11-11T07:55:15Z</time>
      </trkpt>
      <trkpt lat="45.42733" lon="4.087">
        <ele>726.89</ele>
        <time>2011-11-11T07:55:26Z</time>
      </trkpt>
      <trkpt lat="45.42756" lon="4.08762">
        <ele>731.22</ele>
        <time>2011-11-11T07:55:39Z</time>
      </trkpt>
      <trkpt lat="45.42771" lon="4.08779">
        <ele>735.07</ele>
        <time>2011-11-11T07:55:48Z</time>
      </trkpt>
      <trkpt lat="45.42789" lon="4.08791">
        <ele>738.43</ele>
        <time>2011-11-11T07:55:58Z</time>
      </trkpt>
      <trkpt lat="45.42811" lon="4.08812">
        <ele>741.79</ele>
        <time>2011-11-11T07:56:10Z</time>
      </trkpt>
      <trkpt lat="45.42845" lon="4.08819">
        <ele>741.79</ele>
        <time>2011-11-11T07:56:22Z</time>
      </trkpt>
      <trkpt lat="45.42873" lon="4.08802">
        <ele>738.91</ele>
        <time>2011-11-11T07:56:35Z</time>
      </trkpt>
      <trkpt lat="45.42891" lon="4.08791">
        <ele>739.87</ele>
        <time>2011-11-11T07:56:45Z</time>
      </trkpt>
      <trkpt lat="45.42901" lon="4.08785">
        <ele>741.31</ele>
        <time>2011-11-11T07:56:52Z</time>
      </trkpt>
      <trkpt lat="45.42903" lon="4.08783">
        <ele>741.31</ele>
        <time>2011-11-11T07:56:53Z</time>
      </trkpt>
      <trkpt lat="45.42905" lon="4.08782">
        <ele>741.79</ele>
        <time>2011-11-11T07:56:54Z</time>
      </trkpt>
      <trkpt lat="45.42912" lon="4.0878">
        <ele>743.72</ele>
        <time>2011-11-11T07:56:58Z</time>
      </trkpt>
      <trkpt lat="45.42914" lon="4.08779">
        <ele>744.2</ele>
        <time>2011-11-11T07:56:59Z</time>
      </trkpt>
      <trkpt lat="45.42918" lon="4.08779">
        <ele>746.12</ele>
        <time>2011-11-11T07:57:01Z</time>
      </trkpt>
      <trkpt lat="45.4292" lon="4.08778">
        <ele>746.12</ele>
        <time>2011-11-11T07:57:02Z</time>
      </trkpt>
      <trkpt lat="45.42941" lon="4.08761">
        <ele>746.6</ele>
        <time>2011-11-11T07:57:11Z</time>
      </trkpt>
      <trkpt lat="45.42944" lon="4.08759">
        <ele>746.6</ele>
        <time>2011-11-11T07:57:12Z</time>
      </trkpt>
      <trkpt lat="45.42975" lon="4.08731">
        <ele>748.52</ele>
        <time>2011-11-11T07:57:26Z</time>
      </trkpt>
      <trkpt lat="45.43004" lon="4.08724">
        <ele>750.93</ele>
        <time>2011-11-11T07:57:37Z</time>
      </trkpt>
      <trkpt lat="45.4302" lon="4.08721">
        <ele>751.41</ele>
        <time>2011-11-11T07:57:44Z</time>
      </trkpt>
      <trkpt lat="45.4304" lon="4.0872">
        <ele>753.33</ele>
        <time>2011-11-11T07:57:53Z</time>
      </trkpt>
      <trkpt lat="45.43041" lon="4.0872">
        <ele>753.81</ele>
        <time>2011-11-11T07:57:54Z</time>
      </trkpt>
      <trkpt lat="45.43053" lon="4.08716">
        <ele>755.25</ele>
        <time>2011-11-11T07:58:04Z</time>
      </trkpt>
      <trkpt lat="45.43063" lon="4.08707">
        <ele>754.77</ele>
        <time>2011-11-11T07:58:13Z</time>
      </trkpt>
      <trkpt lat="45.43061" lon="4.08707">
        <ele>754.77</ele>
        <time>2011-11-11T07:58:16Z</time>
      </trkpt>
      <trkpt lat="45.43061" lon="4.08708">
        <ele>754.29</ele>
        <time>2011-11-11T07:58:17Z</time>
      </trkpt>
      <trkpt lat="45.4305" lon="4.08716">
        <ele>755.73</ele>
        <time>2011-11-11T07:58:25Z</time>
      </trkpt>
      <trkpt lat="45.43048" lon="4.08717">
        <ele>755.25</ele>
        <time>2011-11-11T07:58:26Z</time>
      </trkpt>
      <trkpt lat="45.43047" lon="4.08718">
        <ele>755.25</ele>
        <time>2011-11-11T07:58:27Z</time>
      </trkpt>
      <trkpt lat="45.43012" lon="4.08719">
        <ele>751.89</ele>
        <time>2011-11-11T07:58:36Z</time>
      </trkpt>
      <trkpt lat="45.4299" lon="4.08726">
        <ele>750.93</ele>
        <time>2011-11-11T07:58:42Z</time>
      </trkpt>
      <trkpt lat="45.42986" lon="4.0873">
        <ele>750.93</ele>
        <time>2011-11-11T07:58:43Z</time>
      </trkpt>
      <trkpt lat="45.42972" lon="4.08743">
        <ele>749.97</ele>
        <time>2011-11-11T07:58:46Z</time>
      </trkpt>
      <trkpt lat="45.42968" lon="4.08748">
        <ele>749.97</ele>
        <time>2011-11-11T07:58:47Z</time>
      </trkpt>
      <trkpt lat="45.42964" lon="4.08752">
        <ele>749.49</ele>
        <time>2011-11-11T07:58:48Z</time>
      </trkpt>
      <trkpt lat="45.42955" lon="4.08759">
        <ele>749.49</ele>
        <time>2011-11-11T07:58:50Z</time>
      </trkpt>
      <trkpt lat="45.42919" lon="4.08781">
        <ele>745.16</ele>
        <time>2011-11-11T07:59:00Z</time>
      </trkpt>
      <trkpt lat="45.42914" lon="4.08784">
        <ele>744.68</ele>
        <time>2011-11-11T07:59:01Z</time>
      </trkpt>
      <trkpt lat="45.42844" lon="4.08817">
        <ele>734.1</ele>
        <time>2011-11-11T07:59:12Z</time>
      </trkpt>
      <trkpt lat="45.42838" lon="4.08818">
        <ele>733.62</ele>
        <time>2011-11-11T07:59:13Z</time>
      </trkpt>
      <trkpt lat="45.42833" lon="4.08817">
        <ele>732.66</ele>
        <time>2011-11-11T07:59:14Z</time>
      </trkpt>
      <trkpt lat="45.42822" lon="4.08812">
        <ele>731.22</ele>
        <time>2011-11-11T07:59:16Z</time>
      </trkpt>
      <trkpt lat="45.4279" lon="4.08789">
        <ele>728.82</ele>
        <time>2011-11-11T07:59:26Z</time>
      </trkpt>
      <trkpt lat="45.42766" lon="4.08773">
        <ele>725.45</ele>
        <time>2011-11-11T07:59:34Z</time>
      </trkpt>
      <trkpt lat="45.42765" lon="4.08773">
        <ele>725.45</ele>
        <time>2011-11-11T07:59:35Z</time>
      </trkpt>
      <trkpt lat="45.42764" lon="4.08774">
        <ele>724.97</ele>
        <time>2011-11-11T07:59:36Z</time>
      </trkpt>
      <trkpt lat="45.42764" lon="4.08776">
        <ele>724.97</ele>
        <time>2011-11-11T07:59:37Z</time>
      </trkpt>
      <trkpt lat="45.42764" lon="4.0878">
        <ele>724.97</ele>
        <time>2011-11-11T07:59:38Z</time>
      </trkpt>
      <trkpt lat="45.42764" lon="4.08785">
        <ele>724.49</ele>
        <time>2011-11-11T07:59:39Z</time>
      </trkpt>
      <trkpt lat="45.42769" lon="4.08825">
        <ele>723.53</ele>
        <time>2011-11-11T07:59:47Z</time>
      </trkpt>
      <trkpt lat="45.42771" lon="4.0883">
        <ele>723.05</ele>
        <time>2011-11-11T07:59:48Z</time>
      </trkpt>
      <trkpt lat="45.42792" lon="4.08866">
        <ele>722.57</ele>
        <time>2011-11-11T07:59:55Z</time>
      </trkpt>
      <trkpt lat="45.42808" lon="4.08884">
        <ele>720.65</ele>
        <time>2011-11-11T07:59:59Z</time>
      </trkpt>
      <trkpt lat="45.42811" lon="4.08892">
        <ele>719.68</ele>
        <time>2011-11-11T08:00:00Z</time>
      </trkpt>
      <trkpt lat="45.42831" lon="4.08923">
        <ele>713.44</ele>
        <time>2011-11-11T08:00:07Z</time>
      </trkpt>
      <trkpt lat="45.4284" lon="4.08933">
        <ele>711.03</ele>
        <time>2011-11-11T08:00:09Z</time>
      </trkpt>
      <trkpt lat="45.42843" lon="4.08941">
        <ele>709.59</ele>
        <time>2011-11-11T08:00:10Z</time>
      </trkpt>
      <trkpt lat="45.42855" lon="4.08965">
        <ele>703.82</ele>
        <time>2011-11-11T08:00:14Z</time>
      </trkpt>
      <trkpt lat="45.42858" lon="4.08967">
        <ele>702.38</ele>
        <time>2011-11-11T08:00:15Z</time>
      </trkpt>
      <trkpt lat="45.42861" lon="4.08968">
        <ele>701.42</ele>
        <time>2011-11-11T08:00:16Z</time>
      </trkpt>
      <trkpt lat="45.42864" lon="4.08968">
        <ele>699.98</ele>
        <time>2011-11-11T08:00:17Z</time>
      </trkpt>
      <trkpt lat="45.42867" lon="4.08967">
        <ele>699.02</ele>
        <time>2011-11-11T08:00:18Z</time>
      </trkpt>
      <trkpt lat="45.4287" lon="4.08968">
        <ele>697.57</ele>
        <time>2011-11-11T08:00:19Z</time>
      </trkpt>
      <trkpt lat="45.42873" lon="4.08971">
        <ele>696.61</ele>
        <time>2011-11-11T08:00:20Z</time>
      </trkpt>
      <trkpt lat="45.42876" lon="4.08975">
        <ele>695.17</ele>
        <time>2011-11-11T08:00:21Z</time>
      </trkpt>
      <trkpt lat="45.42879" lon="4.0898">
        <ele>694.21</ele>
        <time>2011-11-11T08:00:22Z</time>
      </trkpt>
      <trkpt lat="45.42883" lon="4.08983">
        <ele>693.25</ele>
        <time>2011-11-11T08:00:23Z</time>
      </trkpt>
      <trkpt lat="45.42886" lon="4.08987">
        <ele>692.29</ele>
        <time>2011-11-11T08:00:24Z</time>
      </trkpt>
      <trkpt lat="45.42893" lon="4.08989">
        <ele>689.88</ele>
        <time>2011-11-11T08:00:26Z</time>
      </trkpt>
      <trkpt lat="45.42897" lon="4.08987">
        <ele>688.92</ele>
        <time>2011-11-11T08:00:27Z</time>
      </trkpt>
      <trkpt lat="45.42901" lon="4.08986">
        <ele>687.96</ele>
        <time>2011-11-11T08:00:28Z</time>
      </trkpt>
      <trkpt lat="45.42905" lon="4.08984">
        <ele>686.52</ele>
        <time>2011-11-11T08:00:29Z</time>
      </trkpt>
      <trkpt lat="45.42909" lon="4.08982">
        <ele>686.04</ele>
        <time>2011-11-11T08:00:30Z</time>
      </trkpt>
      <trkpt lat="45.42936" lon="4.08993">
        <ele>684.12</ele>
        <time>2011-11-11T08:00:39Z</time>
      </trkpt>
      <trkpt lat="45.42975" lon="4.09007">
        <ele>685.08</ele>
        <time>2011-11-11T08:00:48Z</time>
      </trkpt>
      <trkpt lat="45.43005" lon="4.09004">
        <ele>685.08</ele>
        <time>2011-11-11T08:00:56Z</time>
      </trkpt>
      <trkpt lat="45.43009" lon="4.09007">
        <ele>685.56</ele>
        <time>2011-11-11T08:00:57Z</time>
      </trkpt>
      <trkpt lat="45.43013" lon="4.09022">
        <ele>686.04</ele>
        <time>2011-11-11T08:01:00Z</time>
      </trkpt>
      <trkpt lat="45.43015" lon="4.09028">
        <ele>686.04</ele>
        <time>2011-11-11T08:01:01Z</time>
      </trkpt>
      <trkpt lat="45.4302" lon="4.09064">
        <ele>687.96</ele>
        <time>2011-11-11T08:01:07Z</time>
      </trkpt>
      <trkpt lat="45.43028" lon="4.09086">
        <ele>689.88</ele>
        <time>2011-11-11T08:01:12Z</time>
      </trkpt>
      <trkpt lat="45.43029" lon="4.09087">
        <ele>690.36</ele>
        <time>2011-11-11T08:01:13Z</time>
      </trkpt>
      <trkpt lat="45.43031" lon="4.09087">
        <ele>691.33</ele>
        <time>2011-11-11T08:01:14Z</time>
      </trkpt>
      <trkpt lat="45.43034" lon="4.09086">
        <ele>691.33</ele>
        <time>2011-11-11T08:01:15Z</time>
      </trkpt>
      <trkpt lat="45.43038" lon="4.09087">
        <ele>691.33</ele>
        <time>2011-11-11T08:01:16Z</time>
      </trkpt>
      <trkpt lat="45.43042" lon="4.09088">
        <ele>691.33</ele>
        <time>2011-11-11T08:01:17Z</time>
      </trkpt>
      <trkpt lat="45.43045" lon="4.0909">
        <ele>691.81</ele>
        <time>2011-11-11T08:01:18Z</time>
      </trkpt>
      <trkpt lat="45.43048" lon="4.09092">
        <ele>692.29</ele>
        <time>2011-11-11T08:01:19Z</time>
      </trkpt>
      <trkpt lat="45.43069" lon="4.09103">
        <ele>696.61</ele>
        <time>2011-11-11T08:01:27Z</time>
      </trkpt>
      <trkpt lat="45.43071" lon="4.09104">
        <ele>696.61</ele>
        <time>2011-11-11T08:01:28Z</time>
      </trkpt>
      <trkpt lat="45.43073" lon="4.09104">
        <ele>696.61</ele>
        <time>2011-11-11T08:01:29Z</time>
      </trkpt>
      <trkpt lat="45.43075" lon="4.09104">
        <ele>696.61</ele>
        <time>2011-11-11T08:01:30Z</time>
      </trkpt>
      <trkpt lat="45.43078" lon="4.09105">
        <ele>696.61</ele>
        <time>2011-11-11T08:01:31Z</time>
      </trkpt>
      <trkpt lat="45.43081" lon="4.09106">
        <ele>696.61</ele>
        <time>2011-11-11T08:01:32Z</time>
      </trkpt>
      <trkpt lat="45.43122" lon="4.09117">
        <ele>698.05</ele>
        <time>2011-11-11T08:01:44Z</time>
      </trkpt>
      <trkpt lat="45.43167" lon="4.0913">
        <ele>701.42</ele>
        <time>2011-11-11T08:01:57Z</time>
      </trkpt>
      <trkpt lat="45.432" lon="4.09139">
        <ele>703.34</ele>
        <time>2011-11-11T08:02:09Z</time>
      </trkpt>
      <trkpt lat="45.43234" lon="4.09145">
        <ele>699.5</ele>
        <time>2011-11-11T08:02:18Z</time>
      </trkpt>
      <trkpt lat="45.43247" lon="4.09143">
        <ele>698.05</ele>
        <time>2011-11-11T08:02:20Z</time>
      </trkpt>
      <trkpt lat="45.43255" lon="4.09145">
        <ele>697.09</ele>
        <time>2011-11-11T08:02:21Z</time>
      </trkpt>
      <trkpt lat="45.43272" lon="4.0915">
        <ele>695.65</ele>
        <time>2011-11-11T08:02:23Z</time>
      </trkpt>
      <trkpt lat="45.4328" lon="4.09157">
        <ele>694.21</ele>
        <time>2011-11-11T08:02:24Z</time>
      </trkpt>
      <trkpt lat="45.43288" lon="4.09165">
        <ele>693.25</ele>
        <time>2011-11-11T08:02:25Z</time>
      </trkpt>
      <trkpt lat="45.43294" lon="4.09175">
        <ele>692.29</ele>
        <time>2011-11-11T08:02:26Z</time>
      </trkpt>
      <trkpt lat="45.43299" lon="4.09187">
        <ele>691.81</ele>
        <time>2011-11-11T08:02:27Z</time>
      </trkpt>
      <trkpt lat="45.43303" lon="4.09198">
        <ele>690.84</ele>
        <time>2011-11-11T08:02:28Z</time>
      </trkpt>
      <trkpt lat="45.43317" lon="4.09228">
        <ele>689.88</ele>
        <time>2011-11-11T08:02:31Z</time>
      </trkpt>
      <trkpt lat="45.43343" lon="4.09268">
        <ele>689.4</ele>
        <time>2011-11-11T08:02:36Z</time>
      </trkpt>
      <trkpt lat="45.43355" lon="4.09289">
        <ele>688.92</ele>
        <time>2011-11-11T08:02:40Z</time>
      </trkpt>
      <trkpt lat="45.43358" lon="4.09288">
        <ele>688.92</ele>
        <time>2011-11-11T08:02:41Z</time>
      </trkpt>
      <trkpt lat="45.43361" lon="4.09285">
        <ele>688.92</ele>
        <time>2011-11-11T08:02:42Z</time>
      </trkpt>
      <trkpt lat="45.43363" lon="4.09281">
        <ele>688.92</ele>
        <time>2011-11-11T08:02:43Z</time>
      </trkpt>
      <trkpt lat="45.43364" lon="4.09276">
        <ele>688.92</ele>
        <time>2011-11-11T08:02:44Z</time>
      </trkpt>
      <trkpt lat="45.43365" lon="4.0927">
        <ele>688.44</ele>
        <time>2011-11-11T08:02:45Z</time>
      </trkpt>
      <trkpt lat="45.43365" lon="4.09263">
        <ele>688.44</ele>
        <time>2011-11-11T08:02:46Z</time>
      </trkpt>
      <trkpt lat="45.43365" lon="4.0925">
        <ele>687.96</ele>
        <time>2011-11-11T08:02:48Z</time>
      </trkpt>
      <trkpt lat="45.43366" lon="4.09236">
        <ele>687.48</ele>
        <time>2011-11-11T08:02:50Z</time>
      </trkpt>
      <trkpt lat="45.43367" lon="4.0923">
        <ele>687</ele>
        <time>2011-11-11T08:02:51Z</time>
      </trkpt>
      <trkpt lat="45.43369" lon="4.09225">
        <ele>686.04</ele>
        <time>2011-11-11T08:02:52Z</time>
      </trkpt>
      <trkpt lat="45.43372" lon="4.09219">
        <ele>685.56</ele>
        <time>2011-11-11T08:02:53Z</time>
      </trkpt>
      <trkpt lat="45.43376" lon="4.09213">
        <ele>684.6</ele>
        <time>2011-11-11T08:02:54Z</time>
      </trkpt>
      <trkpt lat="45.43379" lon="4.09208">
        <ele>683.63</ele>
        <time>2011-11-11T08:02:55Z</time>
      </trkpt>
      <trkpt lat="45.43382" lon="4.09202">
        <ele>682.67</ele>
        <time>2011-11-11T08:02:56Z</time>
      </trkpt>
      <trkpt lat="45.43391" lon="4.09184">
        <ele>680.27</ele>
        <time>2011-11-11T08:02:59Z</time>
      </trkpt>
      <trkpt lat="45.43393" lon="4.09179">
        <ele>679.31</ele>
        <time>2011-11-11T08:03:00Z</time>
      </trkpt>
      <trkpt lat="45.43403" lon="4.09154">
        <ele>675.46</ele>
        <time>2011-11-11T08:03:04Z</time>
      </trkpt>
      <trkpt lat="45.43406" lon="4.09148">
        <ele>674.5</ele>
        <time>2011-11-11T08:03:05Z</time>
      </trkpt>
      <trkpt lat="45.43421" lon="4.09123">
        <ele>670.66</ele>
        <time>2011-11-11T08:03:09Z</time>
      </trkpt>
      <trkpt lat="45.43424" lon="4.09116">
        <ele>669.7</ele>
        <time>2011-11-11T08:03:10Z</time>
      </trkpt>
      <trkpt lat="45.43427" lon="4.0911">
        <ele>668.73</ele>
        <time>2011-11-11T08:03:11Z</time>
      </trkpt>
      <trkpt lat="45.43431" lon="4.09105">
        <ele>668.25</ele>
        <time>2011-11-11T08:03:12Z</time>
      </trkpt>
      <trkpt lat="45.43434" lon="4.09099">
        <ele>667.29</ele>
        <time>2011-11-11T08:03:13Z</time>
      </trkpt>
      <trkpt lat="45.43439" lon="4.09086">
        <ele>665.37</ele>
        <time>2011-11-11T08:03:15Z</time>
      </trkpt>
      <trkpt lat="45.43439" lon="4.0908">
        <ele>664.41</ele>
        <time>2011-11-11T08:03:16Z</time>
      </trkpt>
      <trkpt lat="45.4344" lon="4.09052">
        <ele>658.64</ele>
        <time>2011-11-11T08:03:21Z</time>
      </trkpt>
      <trkpt lat="45.43437" lon="4.09027">
        <ele>652.39</ele>
        <time>2011-11-11T08:03:26Z</time>
      </trkpt>
      <trkpt lat="45.43441" lon="4.09019">
        <ele>646.14</ele>
        <time>2011-11-11T08:03:32Z</time>
      </trkpt>
      <trkpt lat="45.43448" lon="4.09011">
        <ele>639.41</ele>
        <time>2011-11-11T08:03:44Z</time>
      </trkpt>
      <trkpt lat="45.4345" lon="4.09006">
        <ele>638.45</ele>
        <time>2011-11-11T08:03:49Z</time>
      </trkpt>
      <trkpt lat="45.43445" lon="4.08995">
        <ele>644.22</ele>
        <time>2011-11-11T08:03:52Z</time>
      </trkpt>
      <trkpt lat="45.43443" lon="4.08991">
        <ele>646.62</ele>
        <time>2011-11-11T08:03:53Z</time>
      </trkpt>
      <trkpt lat="45.43444" lon="4.08989">
        <ele>649.03</ele>
        <time>2011-11-11T08:03:54Z</time>
      </trkpt>
      <trkpt lat="45.43445" lon="4.08988">
        <ele>650.47</ele>
        <time>2011-11-11T08:03:55Z</time>
      </trkpt>
      <trkpt lat="45.43445" lon="4.08987">
        <ele>651.43</ele>
        <time>2011-11-11T08:03:56Z</time>
      </trkpt>
      <trkpt lat="45.4345" lon="4.08979">
        <ele>654.8</ele>
        <time>2011-11-11T08:04:02Z</time>
      </trkpt>
      <trkpt lat="45.43451" lon="4.08977">
        <ele>655.28</ele>
        <time>2011-11-11T08:04:03Z</time>
      </trkpt>
      <trkpt lat="45.43458" lon="4.08966">
        <ele>657.68</ele>
        <time>2011-11-11T08:04:12Z</time>
      </trkpt>
      <trkpt lat="45.4346" lon="4.08965">
        <ele>657.68</ele>
        <time>2011-11-11T08:04:13Z</time>
      </trkpt>
      <trkpt lat="45.43461" lon="4.08963">
        <ele>658.16</ele>
        <time>2011-11-11T08:04:14Z</time>
      </trkpt>
      <trkpt lat="45.43464" lon="4.08955">
        <ele>659.12</ele>
        <time>2011-11-11T08:04:18Z</time>
      </trkpt>
      <trkpt lat="45.43465" lon="4.08954">
        <ele>659.6</ele>
        <time>2011-11-11T08:04:19Z</time>
      </trkpt>
      <trkpt lat="45.43467" lon="4.08952">
        <ele>659.6</ele>
        <time>2011-11-11T08:04:20Z</time>
      </trkpt>
      <trkpt lat="45.43467" lon="4.0895">
        <ele>660.56</ele>
        <time>2011-11-11T08:04:21Z</time>
      </trkpt>
      <trkpt lat="45.43468" lon="4.08948">
        <ele>660.56</ele>
        <time>2011-11-11T08:04:22Z</time>
      </trkpt>
      <trkpt lat="45.43474" lon="4.08935">
        <ele>658.64</ele>
        <time>2011-11-11T08:04:32Z</time>
      </trkpt>
      <trkpt lat="45.43474" lon="4.08932">
        <ele>658.16</ele>
        <time>2011-11-11T08:04:34Z</time>
      </trkpt>
      <trkpt lat="45.43476" lon="4.08928">
        <ele>657.68</ele>
        <time>2011-11-11T08:04:36Z</time>
      </trkpt>
      <trkpt lat="45.43478" lon="4.08925">
        <ele>657.68</ele>
        <time>2011-11-11T08:04:37Z</time>
      </trkpt>
      <trkpt lat="45.43499" lon="4.08911">
        <ele>665.37</ele>
        <time>2011-11-11T08:04:48Z</time>
      </trkpt>
      <trkpt lat="45.43513" lon="4.08901">
        <ele>673.06</ele>
        <time>2011-11-11T08:04:59Z</time>
      </trkpt>
      <trkpt lat="45.43514" lon="4.089">
        <ele>674.02</ele>
        <time>2011-11-11T08:05:00Z</time>
      </trkpt>
      <trkpt lat="45.43515" lon="4.08899">
        <ele>674.5</ele>
        <time>2011-11-11T08:05:01Z</time>
      </trkpt>
      <trkpt lat="45.43518" lon="4.08898">
        <ele>675.94</ele>
        <time>2011-11-11T08:05:02Z</time>
      </trkpt>
      <trkpt lat="45.43519" lon="4.08897">
        <ele>675.94</ele>
        <time>2011-11-11T08:05:03Z</time>
      </trkpt>
      <trkpt lat="45.43521" lon="4.08896">
        <ele>676.91</ele>
        <time>2011-11-11T08:05:04Z</time>
      </trkpt>
      <trkpt lat="45.43523" lon="4.08893">
        <ele>677.39</ele>
        <time>2011-11-11T08:05:06Z</time>
      </trkpt>
      <trkpt lat="45.43524" lon="4.08891">
        <ele>677.87</ele>
        <time>2011-11-11T08:05:07Z</time>
      </trkpt>
      <trkpt lat="45.43525" lon="4.0889">
        <ele>677.87</ele>
        <time>2011-11-11T08:05:08Z</time>
      </trkpt>
      <trkpt lat="45.43527" lon="4.08887">
        <ele>679.31</ele>
        <time>2011-11-11T08:05:10Z</time>
      </trkpt>
      <trkpt lat="45.43529" lon="4.08886">
        <ele>679.79</ele>
        <time>2011-11-11T08:05:11Z</time>
      </trkpt>
      <trkpt lat="45.43531" lon="4.08886">
        <ele>680.27</ele>
        <time>2011-11-11T08:05:12Z</time>
      </trkpt>
      <trkpt lat="45.43533" lon="4.08885">
        <ele>680.27</ele>
        <time>2011-11-11T08:05:13Z</time>
      </trkpt>
      <trkpt lat="45.43534" lon="4.08884">
        <ele>680.75</ele>
        <time>2011-11-11T08:05:14Z</time>
      </trkpt>
      <trkpt lat="45.43536" lon="4.08883">
        <ele>680.75</ele>
        <time>2011-11-11T08:05:15Z</time>
      </trkpt>
      <trkpt lat="45.43537" lon="4.08882">
        <ele>680.75</ele>
        <time>2011-11-11T08:05:16Z</time>
      </trkpt>
      <trkpt lat="45.43539" lon="4.08878">
        <ele>681.23</ele>
        <time>2011-11-11T08:05:22Z</time>
      </trkpt>
      <trkpt lat="45.43546" lon="4.08873">
        <ele>683.63</ele>
        <time>2011-11-11T08:05:31Z</time>
      </trkpt>
      <trkpt lat="45.43551" lon="4.08871">
        <ele>686.04</ele>
        <time>2011-11-11T08:05:35Z</time>
      </trkpt>
      <trkpt lat="45.43553" lon="4.08871">
        <ele>687</ele>
        <time>2011-11-11T08:05:36Z</time>
      </trkpt>
      <trkpt lat="45.43565" lon="4.08875">
        <ele>690.84</ele>
        <time>2011-11-11T08:05:45Z</time>
      </trkpt>
      <trkpt lat="45.43572" lon="4.08882">
        <ele>694.21</ele>
        <time>2011-11-11T08:05:53Z</time>
      </trkpt>
      <trkpt lat="45.43572" lon="4.08884">
        <ele>694.21</ele>
        <time>2011-11-11T08:05:54Z</time>
      </trkpt>
      <trkpt lat="45.43574" lon="4.08886">
        <ele>695.17</ele>
        <time>2011-11-11T08:05:56Z</time>
      </trkpt>
      <trkpt lat="45.43578" lon="4.08883">
        <ele>695.65</ele>
        <time>2011-11-11T08:06:05Z</time>
      </trkpt>
      <trkpt lat="45.43579" lon="4.08882">
        <ele>695.17</ele>
        <time>2011-11-11T08:06:06Z</time>
      </trkpt>
      <trkpt lat="45.43579" lon="4.0888">
        <ele>695.17</ele>
        <time>2011-11-11T08:06:07Z</time>
      </trkpt>
      <trkpt lat="45.4358" lon="4.08879">
        <ele>695.17</ele>
        <time>2011-11-11T08:06:08Z</time>
      </trkpt>
      <trkpt lat="45.43581" lon="4.08878">
        <ele>695.17</ele>
        <time>2011-11-11T08:06:09Z</time>
      </trkpt>
      <trkpt lat="45.43583" lon="4.08877">
        <ele>695.17</ele>
        <time>2011-11-11T08:06:10Z</time>
      </trkpt>
      <trkpt lat="45.43587" lon="4.08872">
        <ele>695.65</ele>
        <time>2011-11-11T08:06:14Z</time>
      </trkpt>
      <trkpt lat="45.43588" lon="4.08873">
        <ele>696.13</ele>
        <time>2011-11-11T08:06:15Z</time>
      </trkpt>
      <trkpt lat="45.43589" lon="4.08874">
        <ele>696.13</ele>
        <time>2011-11-11T08:06:16Z</time>
      </trkpt>
      <trkpt lat="45.4359" lon="4.08875">
        <ele>696.13</ele>
        <time>2011-11-11T08:06:17Z</time>
      </trkpt>
      <trkpt lat="45.4359" lon="4.08877">
        <ele>696.61</ele>
        <time>2011-11-11T08:06:18Z</time>
      </trkpt>
      <trkpt lat="45.43593" lon="4.08903">
        <ele>699.02</ele>
        <time>2011-11-11T08:06:30Z</time>
      </trkpt>
      <trkpt lat="45.43611" lon="4.08918">
        <ele>701.9</ele>
        <time>2011-11-11T08:06:44Z</time>
      </trkpt>
      <trkpt lat="45.4363" lon="4.08931">
        <ele>704.78</ele>
        <time>2011-11-11T08:06:56Z</time>
      </trkpt>
      <trkpt lat="45.43641" lon="4.08937">
        <ele>706.71</ele>
        <time>2011-11-11T08:07:03Z</time>
      </trkpt>
      <trkpt lat="45.43642" lon="4.08938">
        <ele>706.71</ele>
        <time>2011-11-11T08:07:04Z</time>
      </trkpt>
      <trkpt lat="45.43659" lon="4.08966">
        <ele>709.59</ele>
        <time>2011-11-11T08:07:19Z</time>
      </trkpt>
      <trkpt lat="45.43678" lon="4.08984">
        <ele>711.51</ele>
        <time>2011-11-11T08:07:33Z</time>
      </trkpt>
      <trkpt lat="45.43688" lon="4.0899">
        <ele>712.95</ele>
        <time>2011-11-11T08:07:40Z</time>
      </trkpt>
      <trkpt lat="45.4369" lon="4.0899">
        <ele>713.44</ele>
        <time>2011-11-11T08:07:41Z</time>
      </trkpt>
      <trkpt lat="45.43691" lon="4.08991">
        <ele>713.44</ele>
        <time>2011-11-11T08:07:42Z</time>
      </trkpt>
      <trkpt lat="45.43692" lon="4.08991">
        <ele>713.44</ele>
        <time>2011-11-11T08:07:43Z</time>
      </trkpt>
      <trkpt lat="45.43693" lon="4.08991">
        <ele>713.44</ele>
        <time>2011-11-11T08:07:44Z</time>
      </trkpt>
      <trkpt lat="45.43695" lon="4.08991">
        <ele>713.44</ele>
        <time>2011-11-11T08:07:45Z</time>
      </trkpt>
      <trkpt lat="45.43696" lon="4.08992">
        <ele>713.44</ele>
        <time>2011-11-11T08:07:46Z</time>
      </trkpt>
      <trkpt lat="45.43719" lon="4.08998">
        <ele>717.28</ele>
        <time>2011-11-11T08:08:00Z</time>
      </trkpt>
      <trkpt lat="45.43743" lon="4.09004">
        <ele>721.13</ele>
        <time>2011-11-11T08:08:13Z</time>
      </trkpt>
      <trkpt lat="45.43744" lon="4.09004">
        <ele>721.13</ele>
        <time>2011-11-11T08:08:14Z</time>
      </trkpt>
      <trkpt lat="45.43746" lon="4.09005">
        <ele>721.61</ele>
        <time>2011-11-11T08:08:15Z</time>
      </trkpt>
      <trkpt lat="45.43772" lon="4.09025">
        <ele>725.45</ele>
        <time>2011-11-11T08:08:31Z</time>
      </trkpt>
      <trkpt lat="45.43777" lon="4.0903">
        <ele>725.93</ele>
        <time>2011-11-11T08:08:34Z</time>
      </trkpt>
      <trkpt lat="45.43778" lon="4.09031">
        <ele>726.41</ele>
        <time>2011-11-11T08:08:35Z</time>
      </trkpt>
      <trkpt lat="45.4378" lon="4.09032">
        <ele>726.89</ele>
        <time>2011-11-11T08:08:36Z</time>
      </trkpt>
      <trkpt lat="45.43782" lon="4.09034">
        <ele>726.89</ele>
        <time>2011-11-11T08:08:37Z</time>
      </trkpt>
      <trkpt lat="45.43783" lon="4.09036">
        <ele>727.37</ele>
        <time>2011-11-11T08:08:38Z</time>
      </trkpt>
      <trkpt lat="45.43784" lon="4.09038">
        <ele>727.37</ele>
        <time>2011-11-11T08:08:39Z</time>
      </trkpt>
      <trkpt lat="45.43785" lon="4.09042">
        <ele>727.37</ele>
        <time>2011-11-11T08:08:40Z</time>
      </trkpt>
      <trkpt lat="45.43785" lon="4.09045">
        <ele>727.37</ele>
        <time>2011-11-11T08:08:41Z</time>
      </trkpt>
      <trkpt lat="45.43784" lon="4.09049">
        <ele>727.37</ele>
        <time>2011-11-11T08:08:42Z</time>
      </trkpt>
      <trkpt lat="45.43784" lon="4.09053">
        <ele>727.37</ele>
        <time>2011-11-11T08:08:43Z</time>
      </trkpt>
      <trkpt lat="45.43783" lon="4.09058">
        <ele>726.89</ele>
        <time>2011-11-11T08:08:44Z</time>
      </trkpt>
      <trkpt lat="45.43787" lon="4.09087">
        <ele>725.93</ele>
        <time>2011-11-11T08:08:50Z</time>
      </trkpt>
      <trkpt lat="45.43797" lon="4.09138">
        <ele>724.01</ele>
        <time>2011-11-11T08:08:58Z</time>
      </trkpt>
      <trkpt lat="45.43798" lon="4.09145">
        <ele>723.53</ele>
        <time>2011-11-11T08:08:59Z</time>
      </trkpt>
      <trkpt lat="45.43801" lon="4.09171">
        <ele>722.09</ele>
        <time>2011-11-11T08:09:03Z</time>
      </trkpt>
      <trkpt lat="45.43801" lon="4.09177">
        <ele>722.09</ele>
        <time>2011-11-11T08:09:10Z</time>
      </trkpt>
      <trkpt lat="45.43796" lon="4.09176">
        <ele>721.61</ele>
        <time>2011-11-11T08:09:15Z</time>
      </trkpt>
      <trkpt lat="45.43784" lon="4.09195">
        <ele>718.72</ele>
        <time>2011-11-11T08:09:24Z</time>
      </trkpt>
      <trkpt lat="45.43784" lon="4.09199">
        <ele>718.24</ele>
        <time>2011-11-11T08:09:25Z</time>
      </trkpt>
      <trkpt lat="45.43783" lon="4.09222">
        <ele>715.84</ele>
        <time>2011-11-11T08:09:32Z</time>
      </trkpt>
      <trkpt lat="45.43789" lon="4.09234">
        <ele>714.4</ele>
        <time>2011-11-11T08:09:36Z</time>
      </trkpt>
      <trkpt lat="45.43793" lon="4.09237">
        <ele>713.44</ele>
        <time>2011-11-11T08:09:37Z</time>
      </trkpt>
      <trkpt lat="45.43797" lon="4.09238">
        <ele>713.44</ele>
        <time>2011-11-11T08:09:38Z</time>
      </trkpt>
      <trkpt lat="45.43801" lon="4.0924">
        <ele>712.95</ele>
        <time>2011-11-11T08:09:39Z</time>
      </trkpt>
      <trkpt lat="45.43805" lon="4.09242">
        <ele>712.47</ele>
        <time>2011-11-11T08:09:40Z</time>
      </trkpt>
      <trkpt lat="45.43807" lon="4.09244">
        <ele>712.47</ele>
        <time>2011-11-11T08:09:41Z</time>
      </trkpt>
      <trkpt lat="45.43809" lon="4.09246">
        <ele>712.47</ele>
        <time>2011-11-11T08:09:42Z</time>
      </trkpt>
      <trkpt lat="45.43809" lon="4.0925">
        <ele>711.99</ele>
        <time>2011-11-11T08:09:43Z</time>
      </trkpt>
      <trkpt lat="45.43808" lon="4.09254">
        <ele>711.51</ele>
        <time>2011-11-11T08:09:44Z</time>
      </trkpt>
      <trkpt lat="45.43807" lon="4.09259">
        <ele>711.51</ele>
        <time>2011-11-11T08:09:45Z</time>
      </trkpt>
      <trkpt lat="45.43805" lon="4.09263">
        <ele>711.03</ele>
        <time>2011-11-11T08:09:46Z</time>
      </trkpt>
      <trkpt lat="45.43804" lon="4.09267">
        <ele>710.07</ele>
        <time>2011-11-11T08:09:47Z</time>
      </trkpt>
      <trkpt lat="45.43803" lon="4.09274">
        <ele>709.11</ele>
        <time>2011-11-11T08:09:48Z</time>
      </trkpt>
      <trkpt lat="45.43802" lon="4.0928">
        <ele>708.15</ele>
        <time>2011-11-11T08:09:49Z</time>
      </trkpt>
      <trkpt lat="45.43799" lon="4.09362">
        <ele>699.98</ele>
        <time>2011-11-11T08:09:59Z</time>
      </trkpt>
      <trkpt lat="45.43798" lon="4.09389">
        <ele>697.57</ele>
        <time>2011-11-11T08:10:03Z</time>
      </trkpt>
      <trkpt lat="45.43797" lon="4.09396">
        <ele>697.09</ele>
        <time>2011-11-11T08:10:04Z</time>
      </trkpt>
      <trkpt lat="45.43796" lon="4.09412">
        <ele>696.13</ele>
        <time>2011-11-11T08:10:06Z</time>
      </trkpt>
      <trkpt lat="45.43797" lon="4.09437">
        <ele>693.73</ele>
        <time>2011-11-11T08:10:09Z</time>
      </trkpt>
      <trkpt lat="45.43804" lon="4.0947">
        <ele>690.84</ele>
        <time>2011-11-11T08:10:13Z</time>
      </trkpt>
      <trkpt lat="45.43807" lon="4.09478">
        <ele>689.88</ele>
        <time>2011-11-11T08:10:14Z</time>
      </trkpt>
      <trkpt lat="45.43835" lon="4.09566">
        <ele>680.27</ele>
        <time>2011-11-11T08:10:24Z</time>
      </trkpt>
      <trkpt lat="45.4384" lon="4.09599">
        <ele>678.35</ele>
        <time>2011-11-11T08:10:27Z</time>
      </trkpt>
      <trkpt lat="45.43841" lon="4.09611">
        <ele>677.39</ele>
        <time>2011-11-11T08:10:28Z</time>
      </trkpt>
      <trkpt lat="45.4384" lon="4.09624">
        <ele>676.91</ele>
        <time>2011-11-11T08:10:29Z</time>
      </trkpt>
      <trkpt lat="45.43833" lon="4.09689">
        <ele>673.06</ele>
        <time>2011-11-11T08:10:34Z</time>
      </trkpt>
      <trkpt lat="45.43832" lon="4.097">
        <ele>672.1</ele>
        <time>2011-11-11T08:10:35Z</time>
      </trkpt>
      <trkpt lat="45.43824" lon="4.09798">
        <ele>666.33</ele>
        <time>2011-11-11T08:10:44Z</time>
      </trkpt>
      <trkpt lat="45.43821" lon="4.09817">
        <ele>664.89</ele>
        <time>2011-11-11T08:10:46Z</time>
      </trkpt>
      <trkpt lat="45.43819" lon="4.09826">
        <ele>663.93</ele>
        <time>2011-11-11T08:10:47Z</time>
      </trkpt>
      <trkpt lat="45.43818" lon="4.09849">
        <ele>662.01</ele>
        <time>2011-11-11T08:10:49Z</time>
      </trkpt>
      <trkpt lat="45.43817" lon="4.09859">
        <ele>661.04</ele>
        <time>2011-11-11T08:10:50Z</time>
      </trkpt>
      <trkpt lat="45.43817" lon="4.09867">
        <ele>659.12</ele>
        <time>2011-11-11T08:10:51Z</time>
      </trkpt>
      <trkpt lat="45.43819" lon="4.09873">
        <ele>657.68</ele>
        <time>2011-11-11T08:10:52Z</time>
      </trkpt>
      <trkpt lat="45.43822" lon="4.09879">
        <ele>656.72</ele>
        <time>2011-11-11T08:10:53Z</time>
      </trkpt>
      <trkpt lat="45.43826" lon="4.09884">
        <ele>655.28</ele>
        <time>2011-11-11T08:10:54Z</time>
      </trkpt>
      <trkpt lat="45.43831" lon="4.0989">
        <ele>654.31</ele>
        <time>2011-11-11T08:10:55Z</time>
      </trkpt>
      <trkpt lat="45.43846" lon="4.09907">
        <ele>650.95</ele>
        <time>2011-11-11T08:10:58Z</time>
      </trkpt>
      <trkpt lat="45.43851" lon="4.09914">
        <ele>649.51</ele>
        <time>2011-11-11T08:10:59Z</time>
      </trkpt>
      <trkpt lat="45.43854" lon="4.09921">
        <ele>648.07</ele>
        <time>2011-11-11T08:11:00Z</time>
      </trkpt>
      <trkpt lat="45.43857" lon="4.09927">
        <ele>647.1</ele>
        <time>2011-11-11T08:11:01Z</time>
      </trkpt>
      <trkpt lat="45.4386" lon="4.09931">
        <ele>645.66</ele>
        <time>2011-11-11T08:11:02Z</time>
      </trkpt>
      <trkpt lat="45.43864" lon="4.09933">
        <ele>644.7</ele>
        <time>2011-11-11T08:11:03Z</time>
      </trkpt>
      <trkpt lat="45.43869" lon="4.09934">
        <ele>643.74</ele>
        <time>2011-11-11T08:11:04Z</time>
      </trkpt>
      <trkpt lat="45.43875" lon="4.09933">
        <ele>642.78</ele>
        <time>2011-11-11T08:11:05Z</time>
      </trkpt>
      <trkpt lat="45.43881" lon="4.09932">
        <ele>641.82</ele>
        <time>2011-11-11T08:11:06Z</time>
      </trkpt>
      <trkpt lat="45.43899" lon="4.0993">
        <ele>639.41</ele>
        <time>2011-11-11T08:11:09Z</time>
      </trkpt>
      <trkpt lat="45.43906" lon="4.09934">
        <ele>638.45</ele>
        <time>2011-11-11T08:11:10Z</time>
      </trkpt>
      <trkpt lat="45.43911" lon="4.09938">
        <ele>637.97</ele>
        <time>2011-11-11T08:11:11Z</time>
      </trkpt>
      <trkpt lat="45.43915" lon="4.09942">
        <ele>637.01</ele>
        <time>2011-11-11T08:11:12Z</time>
      </trkpt>
      <trkpt lat="45.4392" lon="4.09948">
        <ele>637.01</ele>
        <time>2011-11-11T08:11:13Z</time>
      </trkpt>
      <trkpt lat="45.43928" lon="4.09957">
        <ele>636.53</ele>
        <time>2011-11-11T08:11:15Z</time>
      </trkpt>
      <trkpt lat="45.4393" lon="4.09962">
        <ele>636.05</ele>
        <time>2011-11-11T08:11:16Z</time>
      </trkpt>
      <trkpt lat="45.43932" lon="4.09991">
        <ele>637.01</ele>
        <time>2011-11-11T08:11:24Z</time>
      </trkpt>
      <trkpt lat="45.43931" lon="4.09993">
        <ele>637.01</ele>
        <time>2011-11-11T08:11:25Z</time>
      </trkpt>
      <trkpt lat="45.43929" lon="4.09996">
        <ele>637.49</ele>
        <time>2011-11-11T08:11:26Z</time>
      </trkpt>
      <trkpt lat="45.43929" lon="4.09999">
        <ele>637.49</ele>
        <time>2011-11-11T08:11:27Z</time>
      </trkpt>
      <trkpt lat="45.43928" lon="4.10002">
        <ele>637.97</ele>
        <time>2011-11-11T08:11:28Z</time>
      </trkpt>
      <trkpt lat="45.43928" lon="4.10005">
        <ele>637.97</ele>
        <time>2011-11-11T08:11:29Z</time>
      </trkpt>
      <trkpt lat="45.43927" lon="4.10008">
        <ele>638.45</ele>
        <time>2011-11-11T08:11:30Z</time>
      </trkpt>
      <trkpt lat="45.43927" lon="4.10011">
        <ele>638.45</ele>
        <time>2011-11-11T08:11:31Z</time>
      </trkpt>
      <trkpt lat="45.43927" lon="4.10014">
        <ele>638.93</ele>
        <time>2011-11-11T08:11:32Z</time>
      </trkpt>
      <trkpt lat="45.43921" lon="4.10031">
        <ele>641.34</ele>
        <time>2011-11-11T08:11:40Z</time>
      </trkpt>
      <trkpt lat="45.43921" lon="4.10033">
        <ele>641.82</ele>
        <time>2011-11-11T08:11:41Z</time>
      </trkpt>
      <trkpt lat="45.4392" lon="4.10035">
        <ele>641.34</ele>
        <time>2011-11-11T08:11:42Z</time>
      </trkpt>
      <trkpt lat="45.4392" lon="4.10037">
        <ele>641.34</ele>
        <time>2011-11-11T08:11:43Z</time>
      </trkpt>
      <trkpt lat="45.4392" lon="4.10039">
        <ele>641.34</ele>
        <time>2011-11-11T08:11:44Z</time>
      </trkpt>
      <trkpt lat="45.4392" lon="4.10041">
        <ele>641.34</ele>
        <time>2011-11-11T08:11:45Z</time>
      </trkpt>
      <trkpt lat="45.43921" lon="4.10044">
        <ele>641.34</ele>
        <time>2011-11-11T08:11:46Z</time>
      </trkpt>
      <trkpt lat="45.43921" lon="4.10046">
        <ele>641.82</ele>
        <time>2011-11-11T08:11:47Z</time>
      </trkpt>
      <trkpt lat="45.43921" lon="4.10056">
        <ele>643.74</ele>
        <time>2011-11-11T08:11:50Z</time>
      </trkpt>
      <trkpt lat="45.43923" lon="4.10058">
        <ele>644.7</ele>
        <time>2011-11-11T08:11:51Z</time>
      </trkpt>
      <trkpt lat="45.43924" lon="4.10061">
        <ele>645.18</ele>
        <time>2011-11-11T08:11:52Z</time>
      </trkpt>
      <trkpt lat="45.43927" lon="4.10065">
        <ele>645.66</ele>
        <time>2011-11-11T08:11:55Z</time>
      </trkpt>
      <trkpt lat="45.43927" lon="4.10067">
        <ele>646.14</ele>
        <time>2011-11-11T08:11:56Z</time>
      </trkpt>
      <trkpt lat="45.43928" lon="4.1007">
        <ele>646.62</ele>
        <time>2011-11-11T08:11:57Z</time>
      </trkpt>
      <trkpt lat="45.43928" lon="4.10071">
        <ele>647.1</ele>
        <time>2011-11-11T08:11:58Z</time>
      </trkpt>
      <trkpt lat="45.43929" lon="4.10073">
        <ele>647.59</ele>
        <time>2011-11-11T08:11:59Z</time>
      </trkpt>
      <trkpt lat="45.4393" lon="4.10074">
        <ele>648.07</ele>
        <time>2011-11-11T08:12:00Z</time>
      </trkpt>
      <trkpt lat="45.43931" lon="4.10076">
        <ele>648.07</ele>
        <time>2011-11-11T08:12:01Z</time>
      </trkpt>
      <trkpt lat="45.43933" lon="4.10077">
        <ele>648.07</ele>
        <time>2011-11-11T08:12:02Z</time>
      </trkpt>
      <trkpt lat="45.43934" lon="4.10078">
        <ele>648.55</ele>
        <time>2011-11-11T08:12:03Z</time>
      </trkpt>
      <trkpt lat="45.43948" lon="4.10097">
        <ele>651.91</ele>
        <time>2011-11-11T08:12:14Z</time>
      </trkpt>
      <trkpt lat="45.43961" lon="4.10116">
        <ele>655.28</ele>
        <time>2011-11-11T08:12:25Z</time>
      </trkpt>
      <trkpt lat="45.43981" lon="4.10144">
        <ele>656.72</ele>
        <time>2011-11-11T08:12:39Z</time>
      </trkpt>
      <trkpt lat="45.43993" lon="4.10159">
        <ele>657.2</ele>
        <time>2011-11-11T08:12:46Z</time>
      </trkpt>
      <trkpt lat="45.43995" lon="4.10162">
        <ele>657.2</ele>
        <time>2011-11-11T08:12:47Z</time>
      </trkpt>
      <trkpt lat="45.43996" lon="4.10164">
        <ele>657.2</ele>
        <time>2011-11-11T08:12:48Z</time>
      </trkpt>
      <trkpt lat="45.43998" lon="4.10166">
        <ele>657.2</ele>
        <time>2011-11-11T08:12:49Z</time>
      </trkpt>
      <trkpt lat="45.44" lon="4.10168">
        <ele>657.68</ele>
        <time>2011-11-11T08:12:50Z</time>
      </trkpt>
      <trkpt lat="45.44001" lon="4.1017">
        <ele>658.16</ele>
        <time>2011-11-11T08:12:51Z</time>
      </trkpt>
      <trkpt lat="45.44003" lon="4.10172">
        <ele>658.16</ele>
        <time>2011-11-11T08:12:52Z</time>
      </trkpt>
      <trkpt lat="45.44026" lon="4.10207">
        <ele>658.64</ele>
        <time>2011-11-11T08:13:07Z</time>
      </trkpt>
      <trkpt lat="45.44047" lon="4.10242">
        <ele>660.08</ele>
        <time>2011-11-11T08:13:20Z</time>
      </trkpt>
      <trkpt lat="45.44069" lon="4.1028">
        <ele>662.49</ele>
        <time>2011-11-11T08:13:34Z</time>
      </trkpt>
      <trkpt lat="45.44086" lon="4.10306">
        <ele>665.37</ele>
        <time>2011-11-11T08:13:45Z</time>
      </trkpt>
      <trkpt lat="45.44108" lon="4.10323">
        <ele>667.77</ele>
        <time>2011-11-11T08:13:56Z</time>
      </trkpt>
      <trkpt lat="45.44138" lon="4.10337">
        <ele>670.18</ele>
        <time>2011-11-11T08:14:09Z</time>
      </trkpt>
      <trkpt lat="45.44148" lon="4.10343">
        <ele>671.14</ele>
        <time>2011-11-11T08:14:14Z</time>
      </trkpt>
      <trkpt lat="45.4415" lon="4.10345">
        <ele>671.62</ele>
        <time>2011-11-11T08:14:15Z</time>
      </trkpt>
      <trkpt lat="45.44153" lon="4.10345">
        <ele>671.62</ele>
        <time>2011-11-11T08:14:16Z</time>
      </trkpt>
      <trkpt lat="45.44183" lon="4.10357">
        <ele>674.02</ele>
        <time>2011-11-11T08:14:29Z</time>
      </trkpt>
      <trkpt lat="45.44196" lon="4.10374">
        <ele>672.58</ele>
        <time>2011-11-11T08:14:35Z</time>
      </trkpt>
      <trkpt lat="45.44197" lon="4.10381">
        <ele>672.1</ele>
        <time>2011-11-11T08:14:36Z</time>
      </trkpt>
      <trkpt lat="45.44198" lon="4.10389">
        <ele>672.1</ele>
        <time>2011-11-11T08:14:37Z</time>
      </trkpt>
      <trkpt lat="45.44204" lon="4.10477">
        <ele>668.73</ele>
        <time>2011-11-11T08:14:47Z</time>
      </trkpt>
      <trkpt lat="45.44206" lon="4.10485">
        <ele>668.25</ele>
        <time>2011-11-11T08:14:48Z</time>
      </trkpt>
      <trkpt lat="45.44209" lon="4.10491">
        <ele>668.25</ele>
        <time>2011-11-11T08:14:49Z</time>
      </trkpt>
      <trkpt lat="45.44214" lon="4.10495">
        <ele>667.77</ele>
        <time>2011-11-11T08:14:50Z</time>
      </trkpt>
      <trkpt lat="45.44217" lon="4.10498">
        <ele>668.25</ele>
        <time>2011-11-11T08:14:51Z</time>
      </trkpt>
      <trkpt lat="45.44225" lon="4.10504">
        <ele>668.73</ele>
        <time>2011-11-11T08:14:54Z</time>
      </trkpt>
      <trkpt lat="45.44225" lon="4.10506">
        <ele>669.22</ele>
        <time>2011-11-11T08:14:56Z</time>
      </trkpt>
      <trkpt lat="45.44224" lon="4.10507">
        <ele>669.22</ele>
        <time>2011-11-11T08:14:57Z</time>
      </trkpt>
      <trkpt lat="45.44223" lon="4.10509">
        <ele>669.7</ele>
        <time>2011-11-11T08:14:58Z</time>
      </trkpt>
      <trkpt lat="45.44222" lon="4.10511">
        <ele>669.7</ele>
        <time>2011-11-11T08:14:59Z</time>
      </trkpt>
      <trkpt lat="45.44222" lon="4.10515">
        <ele>669.7</ele>
        <time>2011-11-11T08:15:00Z</time>
      </trkpt>
      <trkpt lat="45.44222" lon="4.10518">
        <ele>669.7</ele>
        <time>2011-11-11T08:15:01Z</time>
      </trkpt>
      <trkpt lat="45.44222" lon="4.10522">
        <ele>670.18</ele>
        <time>2011-11-11T08:15:02Z</time>
      </trkpt>
      <trkpt lat="45.44221" lon="4.10525">
        <ele>670.18</ele>
        <time>2011-11-11T08:15:03Z</time>
      </trkpt>
      <trkpt lat="45.44221" lon="4.10529">
        <ele>670.18</ele>
        <time>2011-11-11T08:15:04Z</time>
      </trkpt>
      <trkpt lat="45.44221" lon="4.10533">
        <ele>670.18</ele>
        <time>2011-11-11T08:15:05Z</time>
      </trkpt>
      <trkpt lat="45.44224" lon="4.10554">
        <ele>669.22</ele>
        <time>2011-11-11T08:15:10Z</time>
      </trkpt>
      <trkpt lat="45.44226" lon="4.10557">
        <ele>669.22</ele>
        <time>2011-11-11T08:15:11Z</time>
      </trkpt>
      <trkpt lat="45.44229" lon="4.10559">
        <ele>669.22</ele>
        <time>2011-11-11T08:15:12Z</time>
      </trkpt>
      <trkpt lat="45.44231" lon="4.10558">
        <ele>669.7</ele>
        <time>2011-11-11T08:15:13Z</time>
      </trkpt>
      <trkpt lat="45.44234" lon="4.10556">
        <ele>669.7</ele>
        <time>2011-11-11T08:15:14Z</time>
      </trkpt>
      <trkpt lat="45.44236" lon="4.10556">
        <ele>670.18</ele>
        <time>2011-11-11T08:15:15Z</time>
      </trkpt>
      <trkpt lat="45.44238" lon="4.10556">
        <ele>670.18</ele>
        <time>2011-11-11T08:15:16Z</time>
      </trkpt>
      <trkpt lat="45.4424" lon="4.10557">
        <ele>670.66</ele>
        <time>2011-11-11T08:15:17Z</time>
      </trkpt>
      <trkpt lat="45.44241" lon="4.10559">
        <ele>670.66</ele>
        <time>2011-11-11T08:15:18Z</time>
      </trkpt>
      <trkpt lat="45.44242" lon="4.10561">
        <ele>670.66</ele>
        <time>2011-11-11T08:15:19Z</time>
      </trkpt>
      <trkpt lat="45.44243" lon="4.10564">
        <ele>670.66</ele>
        <time>2011-11-11T08:15:20Z</time>
      </trkpt>
      <trkpt lat="45.44244" lon="4.10567">
        <ele>670.18</ele>
        <time>2011-11-11T08:15:21Z</time>
      </trkpt>
      <trkpt lat="45.44252" lon="4.10596">
        <ele>668.25</ele>
        <time>2011-11-11T08:15:28Z</time>
      </trkpt>
      <trkpt lat="45.44254" lon="4.10601">
        <ele>667.77</ele>
        <time>2011-11-11T08:15:29Z</time>
      </trkpt>
      <trkpt lat="45.44263" lon="4.10622">
        <ele>667.29</ele>
        <time>2011-11-11T08:15:33Z</time>
      </trkpt>
      <trkpt lat="45.44277" lon="4.10673">
        <ele>664.89</ele>
        <time>2011-11-11T08:15:44Z</time>
      </trkpt>
      <trkpt lat="45.44283" lon="4.10694">
        <ele>663.93</ele>
        <time>2011-11-11T08:15:48Z</time>
      </trkpt>
      <trkpt lat="45.44299" lon="4.10723">
        <ele>661.52</ele>
        <time>2011-11-11T08:15:54Z</time>
      </trkpt>
      <trkpt lat="45.44303" lon="4.10724">
        <ele>661.52</ele>
        <time>2011-11-11T08:15:55Z</time>
      </trkpt>
      <trkpt lat="45.44307" lon="4.10725">
        <ele>661.52</ele>
        <time>2011-11-11T08:15:56Z</time>
      </trkpt>
      <trkpt lat="45.44311" lon="4.10723">
        <ele>661.04</ele>
        <time>2011-11-11T08:15:57Z</time>
      </trkpt>
      <trkpt lat="45.44314" lon="4.10722">
        <ele>660.56</ele>
        <time>2011-11-11T08:15:58Z</time>
      </trkpt>
      <trkpt lat="45.44318" lon="4.1072">
        <ele>660.08</ele>
        <time>2011-11-11T08:15:59Z</time>
      </trkpt>
      <trkpt lat="45.44321" lon="4.10718">
        <ele>659.6</ele>
        <time>2011-11-11T08:16:00Z</time>
      </trkpt>
      <trkpt lat="45.44323" lon="4.10715">
        <ele>659.6</ele>
        <time>2011-11-11T08:16:01Z</time>
      </trkpt>
      <trkpt lat="45.44326" lon="4.10714">
        <ele>659.12</ele>
        <time>2011-11-11T08:16:02Z</time>
      </trkpt>
      <trkpt lat="45.44328" lon="4.10713">
        <ele>658.64</ele>
        <time>2011-11-11T08:16:03Z</time>
      </trkpt>
      <trkpt lat="45.4435" lon="4.10708">
        <ele>656.72</ele>
        <time>2011-11-11T08:16:10Z</time>
      </trkpt>
      <trkpt lat="45.44367" lon="4.10717">
        <ele>655.76</ele>
        <time>2011-11-11T08:16:14Z</time>
      </trkpt>
      <trkpt lat="45.44382" lon="4.10734">
        <ele>654.31</ele>
        <time>2011-11-11T08:16:18Z</time>
      </trkpt>
      <trkpt lat="45.44385" lon="4.10738">
        <ele>654.31</ele>
        <time>2011-11-11T08:16:19Z</time>
      </trkpt>
      <trkpt lat="45.44387" lon="4.10742">
        <ele>654.8</ele>
        <time>2011-11-11T08:16:20Z</time>
      </trkpt>
      <trkpt lat="45.4439" lon="4.10746">
        <ele>654.8</ele>
        <time>2011-11-11T08:16:21Z</time>
      </trkpt>
      <trkpt lat="45.44393" lon="4.1075">
        <ele>655.28</ele>
        <time>2011-11-11T08:16:22Z</time>
      </trkpt>
      <trkpt lat="45.44395" lon="4.10754">
        <ele>655.76</ele>
        <time>2011-11-11T08:16:23Z</time>
      </trkpt>
      <trkpt lat="45.44398" lon="4.10758">
        <ele>656.24</ele>
        <time>2011-11-11T08:16:24Z</time>
      </trkpt>
      <trkpt lat="45.444" lon="4.1076">
        <ele>656.72</ele>
        <time>2011-11-11T08:16:25Z</time>
      </trkpt>
      <trkpt lat="45.44402" lon="4.10762">
        <ele>657.2</ele>
        <time>2011-11-11T08:16:26Z</time>
      </trkpt>
      <trkpt lat="45.44403" lon="4.10764">
        <ele>657.68</ele>
        <time>2011-11-11T08:16:27Z</time>
      </trkpt>
      <trkpt lat="45.44405" lon="4.10767">
        <ele>658.16</ele>
        <time>2011-11-11T08:16:28Z</time>
      </trkpt>
      <trkpt lat="45.44407" lon="4.10769">
        <ele>658.64</ele>
        <time>2011-11-11T08:16:29Z</time>
      </trkpt>
      <trkpt lat="45.44409" lon="4.10771">
        <ele>658.64</ele>
        <time>2011-11-11T08:16:30Z</time>
      </trkpt>
      <trkpt lat="45.44416" lon="4.10776">
        <ele>658.16</ele>
        <time>2011-11-11T08:16:33Z</time>
      </trkpt>
      <trkpt lat="45.44435" lon="4.10779">
        <ele>659.6</ele>
        <time>2011-11-11T08:16:43Z</time>
      </trkpt>
      <trkpt lat="45.44454" lon="4.10784">
        <ele>662.01</ele>
        <time>2011-11-11T08:16:54Z</time>
      </trkpt>
      <trkpt lat="45.44476" lon="4.10788">
        <ele>665.37</ele>
        <time>2011-11-11T08:17:05Z</time>
      </trkpt>
      <trkpt lat="45.44502" lon="4.10795">
        <ele>668.73</ele>
        <time>2011-11-11T08:17:18Z</time>
      </trkpt>
      <trkpt lat="45.44527" lon="4.10801">
        <ele>671.14</ele>
        <time>2011-11-11T08:17:30Z</time>
      </trkpt>
      <trkpt lat="45.44558" lon="4.10797">
        <ele>673.06</ele>
        <time>2011-11-11T08:17:43Z</time>
      </trkpt>
      <trkpt lat="45.44591" lon="4.10785">
        <ele>674.5</ele>
        <time>2011-11-11T08:17:57Z</time>
      </trkpt>
      <trkpt lat="45.44606" lon="4.10781">
        <ele>674.5</ele>
        <time>2011-11-11T08:18:03Z</time>
      </trkpt>
      <trkpt lat="45.44608" lon="4.10784">
        <ele>674.5</ele>
        <time>2011-11-11T08:18:04Z</time>
      </trkpt>
      <trkpt lat="45.44609" lon="4.10787">
        <ele>674.5</ele>
        <time>2011-11-11T08:18:05Z</time>
      </trkpt>
      <trkpt lat="45.44609" lon="4.10791">
        <ele>674.02</ele>
        <time>2011-11-11T08:18:06Z</time>
      </trkpt>
      <trkpt lat="45.4461" lon="4.10795">
        <ele>673.54</ele>
        <time>2011-11-11T08:18:07Z</time>
      </trkpt>
      <trkpt lat="45.44616" lon="4.10882">
        <ele>670.66</ele>
        <time>2011-11-11T08:18:18Z</time>
      </trkpt>
      <trkpt lat="45.4462" lon="4.10926">
        <ele>669.22</ele>
        <time>2011-11-11T08:18:23Z</time>
      </trkpt>
      <trkpt lat="45.44622" lon="4.1093">
        <ele>669.22</ele>
        <time>2011-11-11T08:18:24Z</time>
      </trkpt>
      <trkpt lat="45.44625" lon="4.10931">
        <ele>669.22</ele>
        <time>2011-11-11T08:18:25Z</time>
      </trkpt>
      <trkpt lat="45.44628" lon="4.1093">
        <ele>669.22</ele>
        <time>2011-11-11T08:18:26Z</time>
      </trkpt>
      <trkpt lat="45.44629" lon="4.10926">
        <ele>669.22</ele>
        <time>2011-11-11T08:18:27Z</time>
      </trkpt>
      <trkpt lat="45.4463" lon="4.10923">
        <ele>668.73</ele>
        <time>2011-11-11T08:18:28Z</time>
      </trkpt>
      <trkpt lat="45.4463" lon="4.1092">
        <ele>668.73</ele>
        <time>2011-11-11T08:18:29Z</time>
      </trkpt>
      <trkpt lat="45.44631" lon="4.10917">
        <ele>668.25</ele>
        <time>2011-11-11T08:18:30Z</time>
      </trkpt>
      <trkpt lat="45.44632" lon="4.10914">
        <ele>668.25</ele>
        <time>2011-11-11T08:18:31Z</time>
      </trkpt>
      <trkpt lat="45.44645" lon="4.10865">
        <ele>668.25</ele>
        <time>2011-11-11T08:18:44Z</time>
      </trkpt>
      <trkpt lat="45.44656" lon="4.10809">
        <ele>671.14</ele>
        <time>2011-11-11T08:18:59Z</time>
      </trkpt>
      <trkpt lat="45.4467" lon="4.10759">
        <ele>673.54</ele>
        <time>2011-11-11T08:19:12Z</time>
      </trkpt>
      <trkpt lat="45.44681" lon="4.10729">
        <ele>675.46</ele>
        <time>2011-11-11T08:19:21Z</time>
      </trkpt>
      <trkpt lat="45.447" lon="4.10692">
        <ele>674.5</ele>
        <time>2011-11-11T08:19:32Z</time>
      </trkpt>
      <trkpt lat="45.4471" lon="4.10648">
        <ele>676.42</ele>
        <time>2011-11-11T08:19:43Z</time>
      </trkpt>
      <trkpt lat="45.44733" lon="4.10591">
        <ele>678.83</ele>
        <time>2011-11-11T08:19:58Z</time>
      </trkpt>
      <trkpt lat="45.44762" lon="4.10556">
        <ele>678.83</ele>
        <time>2011-11-11T08:20:08Z</time>
      </trkpt>
      <trkpt lat="45.44791" lon="4.10534">
        <ele>684.12</ele>
        <time>2011-11-11T08:20:20Z</time>
      </trkpt>
      <trkpt lat="45.44817" lon="4.10536">
        <ele>684.12</ele>
        <time>2011-11-11T08:20:31Z</time>
      </trkpt>
      <trkpt lat="45.44848" lon="4.10577">
        <ele>680.27</ele>
        <time>2011-11-11T08:20:42Z</time>
      </trkpt>
      <trkpt lat="45.44852" lon="4.10582">
        <ele>679.79</ele>
        <time>2011-11-11T08:20:43Z</time>
      </trkpt>
      <trkpt lat="45.44856" lon="4.10587">
        <ele>679.31</ele>
        <time>2011-11-11T08:20:44Z</time>
      </trkpt>
      <trkpt lat="45.4491" lon="4.10654">
        <ele>673.06</ele>
        <time>2011-11-11T08:20:55Z</time>
      </trkpt>
      <trkpt lat="45.44971" lon="4.10731">
        <ele>665.37</ele>
        <time>2011-11-11T08:21:05Z</time>
      </trkpt>
      <trkpt lat="45.44984" lon="4.10747">
        <ele>663.45</ele>
        <time>2011-11-11T08:21:07Z</time>
      </trkpt>
      <trkpt lat="45.45041" lon="4.10821">
        <ele>658.16</ele>
        <time>2011-11-11T08:21:16Z</time>
      </trkpt>
      <trkpt lat="45.45047" lon="4.10825">
        <ele>657.68</ele>
        <time>2011-11-11T08:21:17Z</time>
      </trkpt>
      <trkpt lat="45.45053" lon="4.10826">
        <ele>657.2</ele>
        <time>2011-11-11T08:21:18Z</time>
      </trkpt>
      <trkpt lat="45.45059" lon="4.10828">
        <ele>656.24</ele>
        <time>2011-11-11T08:21:19Z</time>
      </trkpt>
      <trkpt lat="45.45066" lon="4.10833">
        <ele>655.76</ele>
        <time>2011-11-11T08:21:20Z</time>
      </trkpt>
      <trkpt lat="45.45072" lon="4.10839">
        <ele>655.28</ele>
        <time>2011-11-11T08:21:21Z</time>
      </trkpt>
      <trkpt lat="45.45079" lon="4.10846">
        <ele>654.8</ele>
        <time>2011-11-11T08:21:22Z</time>
      </trkpt>
      <trkpt lat="45.45085" lon="4.10854">
        <ele>653.83</ele>
        <time>2011-11-11T08:21:23Z</time>
      </trkpt>
      <trkpt lat="45.45091" lon="4.10862">
        <ele>653.35</ele>
        <time>2011-11-11T08:21:24Z</time>
      </trkpt>
      <trkpt lat="45.45097" lon="4.1087">
        <ele>652.39</ele>
        <time>2011-11-11T08:21:25Z</time>
      </trkpt>
      <trkpt lat="45.45104" lon="4.10876">
        <ele>651.43</ele>
        <time>2011-11-11T08:21:26Z</time>
      </trkpt>
      <trkpt lat="45.45117" lon="4.10886">
        <ele>649.99</ele>
        <time>2011-11-11T08:21:28Z</time>
      </trkpt>
      <trkpt lat="45.45136" lon="4.10896">
        <ele>647.59</ele>
        <time>2011-11-11T08:21:31Z</time>
      </trkpt>
      <trkpt lat="45.45142" lon="4.10896">
        <ele>647.1</ele>
        <time>2011-11-11T08:21:32Z</time>
      </trkpt>
      <trkpt lat="45.4515" lon="4.10895">
        <ele>646.62</ele>
        <time>2011-11-11T08:21:33Z</time>
      </trkpt>
      <trkpt lat="45.45198" lon="4.10893">
        <ele>641.82</ele>
        <time>2011-11-11T08:21:39Z</time>
      </trkpt>
      <trkpt lat="45.45207" lon="4.10894">
        <ele>640.86</ele>
        <time>2011-11-11T08:21:40Z</time>
      </trkpt>
      <trkpt lat="45.45215" lon="4.10896">
        <ele>640.38</ele>
        <time>2011-11-11T08:21:41Z</time>
      </trkpt>
      <trkpt lat="45.45259" lon="4.10909">
        <ele>636.53</ele>
        <time>2011-11-11T08:21:46Z</time>
      </trkpt>
      <trkpt lat="45.45336" lon="4.10944">
        <ele>629.32</ele>
        <time>2011-11-11T08:21:55Z</time>
      </trkpt>
      <trkpt lat="45.45352" lon="4.10957">
        <ele>627.88</ele>
        <time>2011-11-11T08:21:57Z</time>
      </trkpt>
      <trkpt lat="45.45359" lon="4.10965">
        <ele>626.92</ele>
        <time>2011-11-11T08:21:58Z</time>
      </trkpt>
      <trkpt lat="45.45366" lon="4.10974">
        <ele>625.96</ele>
        <time>2011-11-11T08:21:59Z</time>
      </trkpt>
      <trkpt lat="45.45374" lon="4.10982">
        <ele>624.51</ele>
        <time>2011-11-11T08:22:00Z</time>
      </trkpt>
      <trkpt lat="45.45382" lon="4.10989">
        <ele>623.55</ele>
        <time>2011-11-11T08:22:01Z</time>
      </trkpt>
      <trkpt lat="45.45419" lon="4.11037">
        <ele>617.3</ele>
        <time>2011-11-11T08:22:07Z</time>
      </trkpt>
      <trkpt lat="45.45423" lon="4.11046">
        <ele>616.34</ele>
        <time>2011-11-11T08:22:08Z</time>
      </trkpt>
      <trkpt lat="45.45426" lon="4.11057">
        <ele>615.38</ele>
        <time>2011-11-11T08:22:09Z</time>
      </trkpt>
      <trkpt lat="45.45436" lon="4.11089">
        <ele>612.98</ele>
        <time>2011-11-11T08:22:12Z</time>
      </trkpt>
      <trkpt lat="45.45439" lon="4.11098">
        <ele>612.02</ele>
        <time>2011-11-11T08:22:13Z</time>
      </trkpt>
      <trkpt lat="45.45443" lon="4.11106">
        <ele>611.54</ele>
        <time>2011-11-11T08:22:14Z</time>
      </trkpt>
      <trkpt lat="45.45447" lon="4.11113">
        <ele>611.06</ele>
        <time>2011-11-11T08:22:15Z</time>
      </trkpt>
      <trkpt lat="45.45453" lon="4.11117">
        <ele>610.57</ele>
        <time>2011-11-11T08:22:16Z</time>
      </trkpt>
      <trkpt lat="45.45461" lon="4.1112">
        <ele>610.09</ele>
        <time>2011-11-11T08:22:17Z</time>
      </trkpt>
      <trkpt lat="45.45469" lon="4.11121">
        <ele>609.61</ele>
        <time>2011-11-11T08:22:18Z</time>
      </trkpt>
      <trkpt lat="45.45477" lon="4.11118">
        <ele>609.13</ele>
        <time>2011-11-11T08:22:19Z</time>
      </trkpt>
      <trkpt lat="45.45484" lon="4.11113">
        <ele>608.17</ele>
        <time>2011-11-11T08:22:20Z</time>
      </trkpt>
      <trkpt lat="45.4549" lon="4.11105">
        <ele>607.69</ele>
        <time>2011-11-11T08:22:21Z</time>
      </trkpt>
      <trkpt lat="45.45494" lon="4.11097">
        <ele>606.73</ele>
        <time>2011-11-11T08:22:22Z</time>
      </trkpt>
      <trkpt lat="45.455" lon="4.11082">
        <ele>605.77</ele>
        <time>2011-11-11T08:22:24Z</time>
      </trkpt>
      <trkpt lat="45.45503" lon="4.11074">
        <ele>604.81</ele>
        <time>2011-11-11T08:22:25Z</time>
      </trkpt>
      <trkpt lat="45.45506" lon="4.11067">
        <ele>604.33</ele>
        <time>2011-11-11T08:22:26Z</time>
      </trkpt>
      <trkpt lat="45.45509" lon="4.11062">
        <ele>603.85</ele>
        <time>2011-11-11T08:22:27Z</time>
      </trkpt>
      <trkpt lat="45.45513" lon="4.11057">
        <ele>603.85</ele>
        <time>2011-11-11T08:22:28Z</time>
      </trkpt>
      <trkpt lat="45.45516" lon="4.11052">
        <ele>603.36</ele>
        <time>2011-11-11T08:22:29Z</time>
      </trkpt>
      <trkpt lat="45.45535" lon="4.11014">
        <ele>603.36</ele>
        <time>2011-11-11T08:22:39Z</time>
      </trkpt>
      <trkpt lat="45.45536" lon="4.11012">
        <ele>603.85</ele>
        <time>2011-11-11T08:22:40Z</time>
      </trkpt>
      <trkpt lat="45.45553" lon="4.10988">
        <ele>609.61</ele>
        <time>2011-11-11T08:22:51Z</time>
      </trkpt>
      <trkpt lat="45.4557" lon="4.10963">
        <ele>613.46</ele>
        <time>2011-11-11T08:23:02Z</time>
      </trkpt>
      <trkpt lat="45.45589" lon="4.10925">
        <ele>614.9</ele>
        <time>2011-11-11T08:23:15Z</time>
      </trkpt>
      <trkpt lat="45.45604" lon="4.10892">
        <ele>618.75</ele>
        <time>2011-11-11T08:23:27Z</time>
      </trkpt>
      <trkpt lat="45.4561" lon="4.10881">
        <ele>621.15</ele>
        <time>2011-11-11T08:23:32Z</time>
      </trkpt>
      <trkpt lat="45.4561" lon="4.10878">
        <ele>621.63</ele>
        <time>2011-11-11T08:23:33Z</time>
      </trkpt>
      <trkpt lat="45.45627" lon="4.10839">
        <ele>624.99</ele>
        <time>2011-11-11T08:23:48Z</time>
      </trkpt>
      <trkpt lat="45.45633" lon="4.10821">
        <ele>626.92</ele>
        <time>2011-11-11T08:23:55Z</time>
      </trkpt>
      <trkpt lat="45.45634" lon="4.10819">
        <ele>626.44</ele>
        <time>2011-11-11T08:23:56Z</time>
      </trkpt>
      <trkpt lat="45.45635" lon="4.10816">
        <ele>626.44</ele>
        <time>2011-11-11T08:23:57Z</time>
      </trkpt>
      <trkpt lat="45.45639" lon="4.10785">
        <ele>627.88</ele>
        <time>2011-11-11T08:24:09Z</time>
      </trkpt>
      <trkpt lat="45.45639" lon="4.10779">
        <ele>629.32</ele>
        <time>2011-11-11T08:24:11Z</time>
      </trkpt>
      <trkpt lat="45.45639" lon="4.10777">
        <ele>629.8</ele>
        <time>2011-11-11T08:24:12Z</time>
      </trkpt>
      <trkpt lat="45.45638" lon="4.10775">
        <ele>630.28</ele>
        <time>2011-11-11T08:24:13Z</time>
      </trkpt>
      <trkpt lat="45.45638" lon="4.10772">
        <ele>630.76</ele>
        <time>2011-11-11T08:24:14Z</time>
      </trkpt>
      <trkpt lat="45.45638" lon="4.1077">
        <ele>631.24</ele>
        <time>2011-11-11T08:24:15Z</time>
      </trkpt>
      <trkpt lat="45.45637" lon="4.10767">
        <ele>631.72</ele>
        <time>2011-11-11T08:24:16Z</time>
      </trkpt>
      <trkpt lat="45.45637" lon="4.10764">
        <ele>632.2</ele>
        <time>2011-11-11T08:24:17Z</time>
      </trkpt>
      <trkpt lat="45.45636" lon="4.10735">
        <ele>633.65</ele>
        <time>2011-11-11T08:24:28Z</time>
      </trkpt>
      <trkpt lat="45.45635" lon="4.10733">
        <ele>633.65</ele>
        <time>2011-11-11T08:24:29Z</time>
      </trkpt>
      <trkpt lat="45.45633" lon="4.10724">
        <ele>633.65</ele>
        <time>2011-11-11T08:24:34Z</time>
      </trkpt>
      <trkpt lat="45.45634" lon="4.10721">
        <ele>633.17</ele>
        <time>2011-11-11T08:24:35Z</time>
      </trkpt>
      <trkpt lat="45.45634" lon="4.10718">
        <ele>633.17</ele>
        <time>2011-11-11T08:24:36Z</time>
      </trkpt>
      <trkpt lat="45.45634" lon="4.10715">
        <ele>633.17</ele>
        <time>2011-11-11T08:24:37Z</time>
      </trkpt>
      <trkpt lat="45.45634" lon="4.10713">
        <ele>633.17</ele>
        <time>2011-11-11T08:24:38Z</time>
      </trkpt>
      <trkpt lat="45.45634" lon="4.10711">
        <ele>633.17</ele>
        <time>2011-11-11T08:24:39Z</time>
      </trkpt>
      <trkpt lat="45.45634" lon="4.10708">
        <ele>632.68</ele>
        <time>2011-11-11T08:24:40Z</time>
      </trkpt>
      <trkpt lat="45.45634" lon="4.10705">
        <ele>632.68</ele>
        <time>2011-11-11T08:24:41Z</time>
      </trkpt>
      <trkpt lat="45.45634" lon="4.10702">
        <ele>632.2</ele>
        <time>2011-11-11T08:24:42Z</time>
      </trkpt>
      <trkpt lat="45.45635" lon="4.10699">
        <ele>632.2</ele>
        <time>2011-11-11T08:24:43Z</time>
      </trkpt>
      <trkpt lat="45.45638" lon="4.10692">
        <ele>631.24</ele>
        <time>2011-11-11T08:24:47Z</time>
      </trkpt>
      <trkpt lat="45.4564" lon="4.10691">
        <ele>630.76</ele>
        <time>2011-11-11T08:24:48Z</time>
      </trkpt>
      <trkpt lat="45.45641" lon="4.10691">
        <ele>630.76</ele>
        <time>2011-11-11T08:24:49Z</time>
      </trkpt>
      <trkpt lat="45.45643" lon="4.1069">
        <ele>630.76</ele>
        <time>2011-11-11T08:24:50Z</time>
      </trkpt>
      <trkpt lat="45.45645" lon="4.10689">
        <ele>630.76</ele>
        <time>2011-11-11T08:24:51Z</time>
      </trkpt>
      <trkpt lat="45.45646" lon="4.10687">
        <ele>630.76</ele>
        <time>2011-11-11T08:24:52Z</time>
      </trkpt>
      <trkpt lat="45.45673" lon="4.10669">
        <ele>631.24</ele>
        <time>2011-11-11T08:25:05Z</time>
      </trkpt>
      <trkpt lat="45.45708" lon="4.10659">
        <ele>639.41</ele>
        <time>2011-11-11T08:25:20Z</time>
      </trkpt>
      <trkpt lat="45.45749" lon="4.10667">
        <ele>642.78</ele>
        <time>2011-11-11T08:25:33Z</time>
      </trkpt>
      <trkpt lat="45.45782" lon="4.10676">
        <ele>643.74</ele>
        <time>2011-11-11T08:25:45Z</time>
      </trkpt>
      <trkpt lat="45.45794" lon="4.10656">
        <ele>645.18</ele>
        <time>2011-11-11T08:25:53Z</time>
      </trkpt>
      <trkpt lat="45.45792" lon="4.10653">
        <ele>645.66</ele>
        <time>2011-11-11T08:25:54Z</time>
      </trkpt>
      <trkpt lat="45.45789" lon="4.10651">
        <ele>645.66</ele>
        <time>2011-11-11T08:25:55Z</time>
      </trkpt>
      <trkpt lat="45.45751" lon="4.10617">
        <ele>647.1</ele>
        <time>2011-11-11T08:26:09Z</time>
      </trkpt>
      <trkpt lat="45.45707" lon="4.10593">
        <ele>647.59</ele>
        <time>2011-11-11T08:26:22Z</time>
      </trkpt>
      <trkpt lat="45.45668" lon="4.10582">
        <ele>649.03</ele>
        <time>2011-11-11T08:26:33Z</time>
      </trkpt>
      <trkpt lat="45.45625" lon="4.10577">
        <ele>649.99</ele>
        <time>2011-11-11T08:26:45Z</time>
      </trkpt>
      <trkpt lat="45.45573" lon="4.10571">
        <ele>649.99</ele>
        <time>2011-11-11T08:27:00Z</time>
      </trkpt>
      <trkpt lat="45.45531" lon="4.10558">
        <ele>651.91</ele>
        <time>2011-11-11T08:27:12Z</time>
      </trkpt>
      <trkpt lat="45.45507" lon="4.10545">
        <ele>654.31</ele>
        <time>2011-11-11T08:27:19Z</time>
      </trkpt>
      <trkpt lat="45.45463" lon="4.10508">
        <ele>656.72</ele>
        <time>2011-11-11T08:27:32Z</time>
      </trkpt>
      <trkpt lat="45.45423" lon="4.10452">
        <ele>658.16</ele>
        <time>2011-11-11T08:27:47Z</time>
      </trkpt>
      <trkpt lat="45.45411" lon="4.10431">
        <ele>657.68</ele>
        <time>2011-11-11T08:27:52Z</time>
      </trkpt>
      <trkpt lat="45.45394" lon="4.10385">
        <ele>655.28</ele>
        <time>2011-11-11T08:28:02Z</time>
      </trkpt>
      <trkpt lat="45.45382" lon="4.1034">
        <ele>651.43</ele>
        <time>2011-11-11T08:28:11Z</time>
      </trkpt>
      <trkpt lat="45.45371" lon="4.10262">
        <ele>647.59</ele>
        <time>2011-11-11T08:28:25Z</time>
      </trkpt>
      <trkpt lat="45.45369" lon="4.10245">
        <ele>646.62</ele>
        <time>2011-11-11T08:28:28Z</time>
      </trkpt>
      <trkpt lat="45.45371" lon="4.10178">
        <ele>644.7</ele>
        <time>2011-11-11T08:28:40Z</time>
      </trkpt>
      <trkpt lat="45.45377" lon="4.10131">
        <ele>641.34</ele>
        <time>2011-11-11T08:28:49Z</time>
      </trkpt>
      <trkpt lat="45.45388" lon="4.10072">
        <ele>644.7</ele>
        <time>2011-11-11T08:29:01Z</time>
      </trkpt>
      <trkpt lat="45.45392" lon="4.1002">
        <ele>647.59</ele>
        <time>2011-11-11T08:29:11Z</time>
      </trkpt>
      <trkpt lat="45.45393" lon="4.0997">
        <ele>649.03</ele>
        <time>2011-11-11T08:29:21Z</time>
      </trkpt>
      <trkpt lat="45.45389" lon="4.09915">
        <ele>651.91</ele>
        <time>2011-11-11T08:29:32Z</time>
      </trkpt>
      <trkpt lat="45.45374" lon="4.09846">
        <ele>659.12</ele>
        <time>2011-11-11T08:29:45Z</time>
      </trkpt>
      <trkpt lat="45.45361" lon="4.09783">
        <ele>664.41</ele>
        <time>2011-11-11T08:29:58Z</time>
      </trkpt>
      <trkpt lat="45.45347" lon="4.09724">
        <ele>668.25</ele>
        <time>2011-11-11T08:30:10Z</time>
      </trkpt>
      <trkpt lat="45.45336" lon="4.09671">
        <ele>670.18</ele>
        <time>2011-11-11T08:30:21Z</time>
      </trkpt>
      <trkpt lat="45.45324" lon="4.09609">
        <ele>671.14</ele>
        <time>2011-11-11T08:30:33Z</time>
      </trkpt>
      <trkpt lat="45.45313" lon="4.09556">
        <ele>672.58</ele>
        <time>2011-11-11T08:30:44Z</time>
      </trkpt>
      <trkpt lat="45.45303" lon="4.09502">
        <ele>671.62</ele>
        <time>2011-11-11T08:30:55Z</time>
      </trkpt>
      <trkpt lat="45.45292" lon="4.0945">
        <ele>674.02</ele>
        <time>2011-11-11T08:31:06Z</time>
      </trkpt>
      <trkpt lat="45.45279" lon="4.09391">
        <ele>674.5</ele>
        <time>2011-11-11T08:31:19Z</time>
      </trkpt>
      <trkpt lat="45.45263" lon="4.09329">
        <ele>678.35</ele>
        <time>2011-11-11T08:31:31Z</time>
      </trkpt>
      <trkpt lat="45.45245" lon="4.09259">
        <ele>682.67</ele>
        <time>2011-11-11T08:31:45Z</time>
      </trkpt>
      <trkpt lat="45.45225" lon="4.09181">
        <ele>686.52</ele>
        <time>2011-11-11T08:32:01Z</time>
      </trkpt>
      <trkpt lat="45.45208" lon="4.09105">
        <ele>687</ele>
        <time>2011-11-11T08:32:16Z</time>
      </trkpt>
      <trkpt lat="45.45197" lon="4.09038">
        <ele>689.88</ele>
        <time>2011-11-11T08:32:30Z</time>
      </trkpt>
      <trkpt lat="45.45193" lon="4.08975">
        <ele>690.36</ele>
        <time>2011-11-11T08:32:42Z</time>
      </trkpt>
      <trkpt lat="45.45193" lon="4.08955">
        <ele>690.36</ele>
        <time>2011-11-11T08:32:46Z</time>
      </trkpt>
      <trkpt lat="45.45193" lon="4.08937">
        <ele>687.96</ele>
        <time>2011-11-11T08:32:50Z</time>
      </trkpt>
      <trkpt lat="45.45197" lon="4.08891">
        <ele>685.56</ele>
        <time>2011-11-11T08:33:01Z</time>
      </trkpt>
      <trkpt lat="45.45201" lon="4.08839">
        <ele>687</ele>
        <time>2011-11-11T08:33:11Z</time>
      </trkpt>
      <trkpt lat="45.45205" lon="4.0878">
        <ele>685.56</ele>
        <time>2011-11-11T08:33:23Z</time>
      </trkpt>
      <trkpt lat="45.45205" lon="4.087">
        <ele>686.52</ele>
        <time>2011-11-11T08:33:38Z</time>
      </trkpt>
      <trkpt lat="45.45201" lon="4.08637">
        <ele>687.48</ele>
        <time>2011-11-11T08:33:51Z</time>
      </trkpt>
      <trkpt lat="45.452" lon="4.08628">
        <ele>687.96</ele>
        <time>2011-11-11T08:33:53Z</time>
      </trkpt>
      <trkpt lat="45.45199" lon="4.08623">
        <ele>687.96</ele>
        <time>2011-11-11T08:33:54Z</time>
      </trkpt>
      <trkpt lat="45.45187" lon="4.08567">
        <ele>693.25</ele>
        <time>2011-11-11T08:34:06Z</time>
      </trkpt>
      <trkpt lat="45.45172" lon="4.08512">
        <ele>699.5</ele>
        <time>2011-11-11T08:34:18Z</time>
      </trkpt>
      <trkpt lat="45.45156" lon="4.0844">
        <ele>700.94</ele>
        <time>2011-11-11T08:34:33Z</time>
      </trkpt>
      <trkpt lat="45.4515" lon="4.08373">
        <ele>700.46</ele>
        <time>2011-11-11T08:34:46Z</time>
      </trkpt>
      <trkpt lat="45.45149" lon="4.08322">
        <ele>698.53</ele>
        <time>2011-11-11T08:34:57Z</time>
      </trkpt>
      <trkpt lat="45.45159" lon="4.08273">
        <ele>699.02</ele>
        <time>2011-11-11T08:35:08Z</time>
      </trkpt>
      <trkpt lat="45.45191" lon="4.08158">
        <ele>706.23</ele>
        <time>2011-11-11T08:35:33Z</time>
      </trkpt>
      <trkpt lat="45.45199" lon="4.08138">
        <ele>706.71</ele>
        <time>2011-11-11T08:35:38Z</time>
      </trkpt>
      <trkpt lat="45.452" lon="4.08134">
        <ele>706.71</ele>
        <time>2011-11-11T08:35:39Z</time>
      </trkpt>
      <trkpt lat="45.45202" lon="4.0813">
        <ele>706.71</ele>
        <time>2011-11-11T08:35:40Z</time>
      </trkpt>
      <trkpt lat="45.45232" lon="4.08063">
        <ele>709.59</ele>
        <time>2011-11-11T08:35:55Z</time>
      </trkpt>
      <trkpt lat="45.45267" lon="4.08003">
        <ele>712.95</ele>
        <time>2011-11-11T08:36:10Z</time>
      </trkpt>
      <trkpt lat="45.45267" lon="4.07999">
        <ele>712.95</ele>
        <time>2011-11-11T08:36:11Z</time>
      </trkpt>
      <trkpt lat="45.45266" lon="4.07997">
        <ele>712.95</ele>
        <time>2011-11-11T08:36:12Z</time>
      </trkpt>
      <trkpt lat="45.45263" lon="4.07996">
        <ele>712.95</ele>
        <time>2011-11-11T08:36:13Z</time>
      </trkpt>
      <trkpt lat="45.45261" lon="4.07995">
        <ele>712.95</ele>
        <time>2011-11-11T08:36:14Z</time>
      </trkpt>
      <trkpt lat="45.45259" lon="4.07994">
        <ele>713.44</ele>
        <time>2011-11-11T08:36:15Z</time>
      </trkpt>
      <trkpt lat="45.45243" lon="4.07986">
        <ele>715.84</ele>
        <time>2011-11-11T08:36:22Z</time>
      </trkpt>
      <trkpt lat="45.45241" lon="4.07988">
        <ele>715.84</ele>
        <time>2011-11-11T08:36:23Z</time>
      </trkpt>
      <trkpt lat="45.45215" lon="4.08014">
        <ele>718.72</ele>
        <time>2011-11-11T08:36:37Z</time>
      </trkpt>
      <trkpt lat="45.45205" lon="4.08024">
        <ele>720.16</ele>
        <time>2011-11-11T08:36:44Z</time>
      </trkpt>
      <trkpt lat="45.45203" lon="4.08025">
        <ele>720.16</ele>
        <time>2011-11-11T08:36:45Z</time>
      </trkpt>
      <trkpt lat="45.45198" lon="4.08029">
        <ele>720.16</ele>
        <time>2011-11-11T08:36:48Z</time>
      </trkpt>
      <trkpt lat="45.45195" lon="4.08035">
        <ele>720.16</ele>
        <time>2011-11-11T08:36:59Z</time>
      </trkpt>
      <trkpt lat="45.45195" lon="4.08035">
        <ele>719.68</ele>
        <time>2011-11-11T08:41:47Z</time>
      </trkpt>
      <trkpt lat="45.45195" lon="4.08035">
        <ele>719.2</ele>
        <time>2011-11-11T08:43:14Z</time>
      </trkpt>
      <trkpt lat="45.45197" lon="4.08031">
        <ele>719.68</ele>
        <time>2011-11-11T08:44:33Z</time>
      </trkpt>
      <trkpt lat="45.45198" lon="4.0803">
        <ele>719.2</ele>
        <time>2011-11-11T08:44:34Z</time>
      </trkpt>
      <trkpt lat="45.45209" lon="4.08021">
        <ele>719.2</ele>
        <time>2011-11-11T08:44:43Z</time>
      </trkpt>
      <trkpt lat="45.45214" lon="4.08016">
        <ele>718.72</ele>
        <time>2011-11-11T08:44:50Z</time>
      </trkpt>
      <trkpt lat="45.45223" lon="4.08011">
        <ele>718.24</ele>
        <time>2011-11-11T08:44:58Z</time>
      </trkpt>
      <trkpt lat="45.45224" lon="4.0801">
        <ele>717.76</ele>
        <time>2011-11-11T08:44:59Z</time>
      </trkpt>
      <trkpt lat="45.45225" lon="4.08008">
        <ele>717.76</ele>
        <time>2011-11-11T08:45:00Z</time>
      </trkpt>
      <trkpt lat="45.45233" lon="4.08002">
        <ele>716.32</ele>
        <time>2011-11-11T08:45:07Z</time>
      </trkpt>
      <trkpt lat="45.45235" lon="4.08002">
        <ele>716.32</ele>
        <time>2011-11-11T08:45:08Z</time>
      </trkpt>
      <trkpt lat="45.45248" lon="4.08001">
        <ele>716.32</ele>
        <time>2011-11-11T08:45:15Z</time>
      </trkpt>
      <trkpt lat="45.45249" lon="4.08003">
        <ele>716.32</ele>
        <time>2011-11-11T08:45:16Z</time>
      </trkpt>
      <trkpt lat="45.45251" lon="4.08004">
        <ele>716.32</ele>
        <time>2011-11-11T08:45:17Z</time>
      </trkpt>
      <trkpt lat="45.45252" lon="4.08006">
        <ele>716.32</ele>
        <time>2011-11-11T08:45:18Z</time>
      </trkpt>
      <trkpt lat="45.45253" lon="4.08006">
        <ele>716.32</ele>
        <time>2011-11-11T08:45:19Z</time>
      </trkpt>
      <trkpt lat="45.45255" lon="4.08007">
        <ele>716.32</ele>
        <time>2011-11-11T08:45:20Z</time>
      </trkpt>
      <trkpt lat="45.45259" lon="4.08007">
        <ele>716.32</ele>
        <time>2011-11-11T08:45:23Z</time>
      </trkpt>
      <trkpt lat="45.45261" lon="4.08005">
        <ele>715.36</ele>
        <time>2011-11-11T08:45:24Z</time>
      </trkpt>
      <trkpt lat="45.45277" lon="4.07988">
        <ele>712.95</ele>
        <time>2011-11-11T08:45:34Z</time>
      </trkpt>
      <trkpt lat="45.45304" lon="4.07963">
        <ele>713.92</ele>
        <time>2011-11-11T08:45:46Z</time>
      </trkpt>
      <trkpt lat="45.45338" lon="4.07933">
        <ele>713.44</ele>
        <time>2011-11-11T08:45:58Z</time>
      </trkpt>
      <trkpt lat="45.45385" lon="4.07908">
        <ele>712.95</ele>
        <time>2011-11-11T08:46:12Z</time>
      </trkpt>
      <trkpt lat="45.45431" lon="4.07897">
        <ele>713.92</ele>
        <time>2011-11-11T08:46:24Z</time>
      </trkpt>
      <trkpt lat="45.45443" lon="4.07897">
        <ele>713.92</ele>
        <time>2011-11-11T08:46:27Z</time>
      </trkpt>
      <trkpt lat="45.45447" lon="4.07897">
        <ele>714.4</ele>
        <time>2011-11-11T08:46:28Z</time>
      </trkpt>
      <trkpt lat="45.45451" lon="4.07896">
        <ele>714.4</ele>
        <time>2011-11-11T08:46:29Z</time>
      </trkpt>
      <trkpt lat="45.45455" lon="4.07895">
        <ele>714.4</ele>
        <time>2011-11-11T08:46:30Z</time>
      </trkpt>
      <trkpt lat="45.45459" lon="4.07895">
        <ele>714.4</ele>
        <time>2011-11-11T08:46:31Z</time>
      </trkpt>
      <trkpt lat="45.45479" lon="4.07897">
        <ele>714.4</ele>
        <time>2011-11-11T08:46:36Z</time>
      </trkpt>
      <trkpt lat="45.45483" lon="4.07898">
        <ele>714.4</ele>
        <time>2011-11-11T08:46:37Z</time>
      </trkpt>
      <trkpt lat="45.45508" lon="4.07903">
        <ele>714.88</ele>
        <time>2011-11-11T08:46:43Z</time>
      </trkpt>
      <trkpt lat="45.45512" lon="4.07905">
        <ele>714.4</ele>
        <time>2011-11-11T08:46:44Z</time>
      </trkpt>
      <trkpt lat="45.4557" lon="4.07935">
        <ele>716.32</ele>
        <time>2011-11-11T08:46:57Z</time>
      </trkpt>
      <trkpt lat="45.45574" lon="4.07938">
        <ele>716.32</ele>
        <time>2011-11-11T08:46:58Z</time>
      </trkpt>
      <trkpt lat="45.45624" lon="4.07983">
        <ele>717.28</ele>
        <time>2011-11-11T08:47:11Z</time>
      </trkpt>
      <trkpt lat="45.45671" lon="4.08053">
        <ele>716.8</ele>
        <time>2011-11-11T08:47:26Z</time>
      </trkpt>
      <trkpt lat="45.45677" lon="4.08064">
        <ele>717.28</ele>
        <time>2011-11-11T08:47:28Z</time>
      </trkpt>
      <trkpt lat="45.4568" lon="4.08069">
        <ele>717.28</ele>
        <time>2011-11-11T08:47:29Z</time>
      </trkpt>
      <trkpt lat="45.45721" lon="4.08141">
        <ele>719.2</ele>
        <time>2011-11-11T08:47:44Z</time>
      </trkpt>
      <trkpt lat="45.4575" lon="4.08186">
        <ele>719.68</ele>
        <time>2011-11-11T08:47:56Z</time>
      </trkpt>
      <trkpt lat="45.4577" lon="4.0821">
        <ele>720.65</ele>
        <time>2011-11-11T08:48:03Z</time>
      </trkpt>
      <trkpt lat="45.45797" lon="4.08233">
        <ele>719.68</ele>
        <time>2011-11-11T08:48:12Z</time>
      </trkpt>
      <trkpt lat="45.45838" lon="4.08261">
        <ele>719.68</ele>
        <time>2011-11-11T08:48:23Z</time>
      </trkpt>
      <trkpt lat="45.45846" lon="4.08266">
        <ele>720.16</ele>
        <time>2011-11-11T08:48:25Z</time>
      </trkpt>
      <trkpt lat="45.45851" lon="4.08268">
        <ele>720.16</ele>
        <time>2011-11-11T08:48:26Z</time>
      </trkpt>
      <trkpt lat="45.45855" lon="4.08269">
        <ele>720.16</ele>
        <time>2011-11-11T08:48:27Z</time>
      </trkpt>
      <trkpt lat="45.45867" lon="4.08274">
        <ele>720.16</ele>
        <time>2011-11-11T08:48:30Z</time>
      </trkpt>
      <trkpt lat="45.45872" lon="4.08277">
        <ele>720.65</ele>
        <time>2011-11-11T08:48:31Z</time>
      </trkpt>
      <trkpt lat="45.45893" lon="4.08284">
        <ele>721.61</ele>
        <time>2011-11-11T08:48:36Z</time>
      </trkpt>
      <trkpt lat="45.45936" lon="4.08292">
        <ele>722.57</ele>
        <time>2011-11-11T08:48:47Z</time>
      </trkpt>
      <trkpt lat="45.4597" lon="4.08288">
        <ele>722.57</ele>
        <time>2011-11-11T08:48:57Z</time>
      </trkpt>
      <trkpt lat="45.46013" lon="4.0828">
        <ele>724.01</ele>
        <time>2011-11-11T08:49:08Z</time>
      </trkpt>
      <trkpt lat="45.46056" lon="4.08265">
        <ele>725.93</ele>
        <time>2011-11-11T08:49:19Z</time>
      </trkpt>
      <trkpt lat="45.46086" lon="4.0825">
        <ele>727.86</ele>
        <time>2011-11-11T08:49:26Z</time>
      </trkpt>
      <trkpt lat="45.4609" lon="4.08248">
        <ele>727.86</ele>
        <time>2011-11-11T08:49:27Z</time>
      </trkpt>
      <trkpt lat="45.46141" lon="4.0822">
        <ele>729.3</ele>
        <time>2011-11-11T08:49:40Z</time>
      </trkpt>
      <trkpt lat="45.46188" lon="4.08194">
        <ele>730.74</ele>
        <time>2011-11-11T08:49:53Z</time>
      </trkpt>
      <trkpt lat="45.46244" lon="4.08164">
        <ele>733.14</ele>
        <time>2011-11-11T08:50:08Z</time>
      </trkpt>
      <trkpt lat="45.46267" lon="4.0815">
        <ele>734.1</ele>
        <time>2011-11-11T08:50:15Z</time>
      </trkpt>
      <trkpt lat="45.4627" lon="4.08151">
        <ele>734.1</ele>
        <time>2011-11-11T08:50:16Z</time>
      </trkpt>
      <trkpt lat="45.46272" lon="4.08154">
        <ele>734.58</ele>
        <time>2011-11-11T08:50:17Z</time>
      </trkpt>
      <trkpt lat="45.46274" lon="4.08157">
        <ele>734.58</ele>
        <time>2011-11-11T08:50:18Z</time>
      </trkpt>
      <trkpt lat="45.46276" lon="4.08162">
        <ele>734.58</ele>
        <time>2011-11-11T08:50:19Z</time>
      </trkpt>
      <trkpt lat="45.46278" lon="4.08168">
        <ele>734.1</ele>
        <time>2011-11-11T08:50:20Z</time>
      </trkpt>
      <trkpt lat="45.46278" lon="4.08175">
        <ele>733.62</ele>
        <time>2011-11-11T08:50:21Z</time>
      </trkpt>
      <trkpt lat="45.46277" lon="4.08183">
        <ele>732.66</ele>
        <time>2011-11-11T08:50:22Z</time>
      </trkpt>
      <trkpt lat="45.46276" lon="4.08191">
        <ele>732.18</ele>
        <time>2011-11-11T08:50:23Z</time>
      </trkpt>
      <trkpt lat="45.46271" lon="4.08217">
        <ele>729.78</ele>
        <time>2011-11-11T08:50:26Z</time>
      </trkpt>
      <trkpt lat="45.46271" lon="4.08224">
        <ele>729.3</ele>
        <time>2011-11-11T08:50:27Z</time>
      </trkpt>
      <trkpt lat="45.46274" lon="4.08231">
        <ele>728.34</ele>
        <time>2011-11-11T08:50:28Z</time>
      </trkpt>
      <trkpt lat="45.46278" lon="4.08237">
        <ele>727.86</ele>
        <time>2011-11-11T08:50:29Z</time>
      </trkpt>
      <trkpt lat="45.46281" lon="4.08244">
        <ele>727.37</ele>
        <time>2011-11-11T08:50:30Z</time>
      </trkpt>
      <trkpt lat="45.46285" lon="4.08252">
        <ele>726.41</ele>
        <time>2011-11-11T08:50:31Z</time>
      </trkpt>
      <trkpt lat="45.46297" lon="4.08283">
        <ele>724.01</ele>
        <time>2011-11-11T08:50:35Z</time>
      </trkpt>
      <trkpt lat="45.46297" lon="4.08292">
        <ele>723.53</ele>
        <time>2011-11-11T08:50:36Z</time>
      </trkpt>
      <trkpt lat="45.46295" lon="4.08299">
        <ele>723.05</ele>
        <time>2011-11-11T08:50:37Z</time>
      </trkpt>
      <trkpt lat="45.46292" lon="4.08306">
        <ele>722.57</ele>
        <time>2011-11-11T08:50:38Z</time>
      </trkpt>
      <trkpt lat="45.46289" lon="4.08313">
        <ele>721.61</ele>
        <time>2011-11-11T08:50:39Z</time>
      </trkpt>
      <trkpt lat="45.46288" lon="4.08321">
        <ele>721.13</ele>
        <time>2011-11-11T08:50:40Z</time>
      </trkpt>
      <trkpt lat="45.46287" lon="4.08327">
        <ele>720.65</ele>
        <time>2011-11-11T08:50:41Z</time>
      </trkpt>
      <trkpt lat="45.46286" lon="4.08335">
        <ele>720.16</ele>
        <time>2011-11-11T08:50:42Z</time>
      </trkpt>
      <trkpt lat="45.46284" lon="4.08342">
        <ele>719.68</ele>
        <time>2011-11-11T08:50:43Z</time>
      </trkpt>
      <trkpt lat="45.46283" lon="4.08349">
        <ele>719.2</ele>
        <time>2011-11-11T08:50:44Z</time>
      </trkpt>
      <trkpt lat="45.46282" lon="4.08357">
        <ele>718.24</ele>
        <time>2011-11-11T08:50:45Z</time>
      </trkpt>
      <trkpt lat="45.46281" lon="4.08365">
        <ele>717.76</ele>
        <time>2011-11-11T08:50:46Z</time>
      </trkpt>
      <trkpt lat="45.46281" lon="4.08374">
        <ele>717.28</ele>
        <time>2011-11-11T08:50:47Z</time>
      </trkpt>
      <trkpt lat="45.46281" lon="4.08408">
        <ele>714.88</ele>
        <time>2011-11-11T08:50:51Z</time>
      </trkpt>
      <trkpt lat="45.46279" lon="4.08424">
        <ele>713.92</ele>
        <time>2011-11-11T08:50:53Z</time>
      </trkpt>
      <trkpt lat="45.46271" lon="4.08465">
        <ele>711.51</ele>
        <time>2011-11-11T08:50:58Z</time>
      </trkpt>
      <trkpt lat="45.4627" lon="4.08474">
        <ele>711.03</ele>
        <time>2011-11-11T08:50:59Z</time>
      </trkpt>
      <trkpt lat="45.4627" lon="4.08482">
        <ele>710.07</ele>
        <time>2011-11-11T08:51:00Z</time>
      </trkpt>
      <trkpt lat="45.4627" lon="4.08491">
        <ele>709.59</ele>
        <time>2011-11-11T08:51:01Z</time>
      </trkpt>
      <trkpt lat="45.4627" lon="4.08501">
        <ele>709.11</ele>
        <time>2011-11-11T08:51:02Z</time>
      </trkpt>
      <trkpt lat="45.46267" lon="4.0853">
        <ele>707.19</ele>
        <time>2011-11-11T08:51:05Z</time>
      </trkpt>
      <trkpt lat="45.46266" lon="4.0854">
        <ele>706.71</ele>
        <time>2011-11-11T08:51:06Z</time>
      </trkpt>
      <trkpt lat="45.46265" lon="4.0855">
        <ele>705.75</ele>
        <time>2011-11-11T08:51:07Z</time>
      </trkpt>
      <trkpt lat="45.46262" lon="4.08581">
        <ele>703.34</ele>
        <time>2011-11-11T08:51:11Z</time>
      </trkpt>
      <trkpt lat="45.46259" lon="4.08587">
        <ele>702.38</ele>
        <time>2011-11-11T08:51:12Z</time>
      </trkpt>
      <trkpt lat="45.46255" lon="4.08592">
        <ele>701.9</ele>
        <time>2011-11-11T08:51:13Z</time>
      </trkpt>
      <trkpt lat="45.46245" lon="4.08603">
        <ele>700.46</ele>
        <time>2011-11-11T08:51:15Z</time>
      </trkpt>
      <trkpt lat="45.46241" lon="4.0861">
        <ele>699.98</ele>
        <time>2011-11-11T08:51:16Z</time>
      </trkpt>
      <trkpt lat="45.46237" lon="4.08617">
        <ele>699.02</ele>
        <time>2011-11-11T08:51:17Z</time>
      </trkpt>
      <trkpt lat="45.46234" lon="4.08626">
        <ele>698.53</ele>
        <time>2011-11-11T08:51:18Z</time>
      </trkpt>
      <trkpt lat="45.46232" lon="4.08636">
        <ele>697.57</ele>
        <time>2011-11-11T08:51:19Z</time>
      </trkpt>
      <trkpt lat="45.46218" lon="4.087">
        <ele>693.73</ele>
        <time>2011-11-11T08:51:25Z</time>
      </trkpt>
      <trkpt lat="45.46216" lon="4.08711">
        <ele>693.25</ele>
        <time>2011-11-11T08:51:26Z</time>
      </trkpt>
      <trkpt lat="45.46214" lon="4.08721">
        <ele>692.77</ele>
        <time>2011-11-11T08:51:27Z</time>
      </trkpt>
      <trkpt lat="45.46213" lon="4.08732">
        <ele>692.77</ele>
        <time>2011-11-11T08:51:28Z</time>
      </trkpt>
      <trkpt lat="45.46212" lon="4.08742">
        <ele>692.29</ele>
        <time>2011-11-11T08:51:29Z</time>
      </trkpt>
      <trkpt lat="45.46211" lon="4.08766">
        <ele>691.33</ele>
        <time>2011-11-11T08:51:32Z</time>
      </trkpt>
      <trkpt lat="45.46207" lon="4.08788">
        <ele>689.4</ele>
        <time>2011-11-11T08:51:35Z</time>
      </trkpt>
      <trkpt lat="45.46206" lon="4.08795">
        <ele>689.4</ele>
        <time>2011-11-11T08:51:36Z</time>
      </trkpt>
      <trkpt lat="45.46206" lon="4.08812">
        <ele>688.44</ele>
        <time>2011-11-11T08:51:38Z</time>
      </trkpt>
      <trkpt lat="45.46207" lon="4.08821">
        <ele>687.96</ele>
        <time>2011-11-11T08:51:39Z</time>
      </trkpt>
      <trkpt lat="45.46211" lon="4.08829">
        <ele>687.48</ele>
        <time>2011-11-11T08:51:40Z</time>
      </trkpt>
      <trkpt lat="45.46216" lon="4.08837">
        <ele>687</ele>
        <time>2011-11-11T08:51:41Z</time>
      </trkpt>
      <trkpt lat="45.46222" lon="4.08844">
        <ele>687</ele>
        <time>2011-11-11T08:51:42Z</time>
      </trkpt>
      <trkpt lat="45.46228" lon="4.08849">
        <ele>686.52</ele>
        <time>2011-11-11T08:51:43Z</time>
      </trkpt>
      <trkpt lat="45.46234" lon="4.08853">
        <ele>686.04</ele>
        <time>2011-11-11T08:51:44Z</time>
      </trkpt>
      <trkpt lat="45.46242" lon="4.08856">
        <ele>686.04</ele>
        <time>2011-11-11T08:51:45Z</time>
      </trkpt>
      <trkpt lat="45.46249" lon="4.08857">
        <ele>685.56</ele>
        <time>2011-11-11T08:51:46Z</time>
      </trkpt>
      <trkpt lat="45.46255" lon="4.08859">
        <ele>685.08</ele>
        <time>2011-11-11T08:51:47Z</time>
      </trkpt>
      <trkpt lat="45.46262" lon="4.08863">
        <ele>684.6</ele>
        <time>2011-11-11T08:51:48Z</time>
      </trkpt>
      <trkpt lat="45.46269" lon="4.08869">
        <ele>684.12</ele>
        <time>2011-11-11T08:51:49Z</time>
      </trkpt>
      <trkpt lat="45.46315" lon="4.08918">
        <ele>677.87</ele>
        <time>2011-11-11T08:51:56Z</time>
      </trkpt>
      <trkpt lat="45.46333" lon="4.08938">
        <ele>675.46</ele>
        <time>2011-11-11T08:52:00Z</time>
      </trkpt>
      <trkpt lat="45.46337" lon="4.0894">
        <ele>674.98</ele>
        <time>2011-11-11T08:52:01Z</time>
      </trkpt>
      <trkpt lat="45.46343" lon="4.0894">
        <ele>674.5</ele>
        <time>2011-11-11T08:52:02Z</time>
      </trkpt>
      <trkpt lat="45.46351" lon="4.08939">
        <ele>673.54</ele>
        <time>2011-11-11T08:52:03Z</time>
      </trkpt>
      <trkpt lat="45.4636" lon="4.08937">
        <ele>672.1</ele>
        <time>2011-11-11T08:52:04Z</time>
      </trkpt>
      <trkpt lat="45.4637" lon="4.08935">
        <ele>670.18</ele>
        <time>2011-11-11T08:52:05Z</time>
      </trkpt>
      <trkpt lat="45.46401" lon="4.08928">
        <ele>662.97</ele>
        <time>2011-11-11T08:52:09Z</time>
      </trkpt>
      <trkpt lat="45.46407" lon="4.08925">
        <ele>661.52</ele>
        <time>2011-11-11T08:52:10Z</time>
      </trkpt>
      <trkpt lat="45.46411" lon="4.0892">
        <ele>660.08</ele>
        <time>2011-11-11T08:52:11Z</time>
      </trkpt>
      <trkpt lat="45.46414" lon="4.08912">
        <ele>658.64</ele>
        <time>2011-11-11T08:52:12Z</time>
      </trkpt>
      <trkpt lat="45.46415" lon="4.08904">
        <ele>657.2</ele>
        <time>2011-11-11T08:52:13Z</time>
      </trkpt>
      <trkpt lat="45.46416" lon="4.08896">
        <ele>655.76</ele>
        <time>2011-11-11T08:52:14Z</time>
      </trkpt>
      <trkpt lat="45.46418" lon="4.08887">
        <ele>654.8</ele>
        <time>2011-11-11T08:52:15Z</time>
      </trkpt>
      <trkpt lat="45.4642" lon="4.08879">
        <ele>653.35</ele>
        <time>2011-11-11T08:52:16Z</time>
      </trkpt>
      <trkpt lat="45.46423" lon="4.0887">
        <ele>652.39</ele>
        <time>2011-11-11T08:52:17Z</time>
      </trkpt>
      <trkpt lat="45.46428" lon="4.08862">
        <ele>651.43</ele>
        <time>2011-11-11T08:52:18Z</time>
      </trkpt>
      <trkpt lat="45.46435" lon="4.08856">
        <ele>650.95</ele>
        <time>2011-11-11T08:52:19Z</time>
      </trkpt>
      <trkpt lat="45.46443" lon="4.08852">
        <ele>649.99</ele>
        <time>2011-11-11T08:52:20Z</time>
      </trkpt>
      <trkpt lat="45.46451" lon="4.08851">
        <ele>649.51</ele>
        <time>2011-11-11T08:52:21Z</time>
      </trkpt>
      <trkpt lat="45.4646" lon="4.08853">
        <ele>648.55</ele>
        <time>2011-11-11T08:52:22Z</time>
      </trkpt>
      <trkpt lat="45.46469" lon="4.08856">
        <ele>647.59</ele>
        <time>2011-11-11T08:52:23Z</time>
      </trkpt>
      <trkpt lat="45.46478" lon="4.0886">
        <ele>646.62</ele>
        <time>2011-11-11T08:52:24Z</time>
      </trkpt>
      <trkpt lat="45.46487" lon="4.08863">
        <ele>645.18</ele>
        <time>2011-11-11T08:52:25Z</time>
      </trkpt>
      <trkpt lat="45.46532" lon="4.08875">
        <ele>642.3</ele>
        <time>2011-11-11T08:52:30Z</time>
      </trkpt>
      <trkpt lat="45.4654" lon="4.08879">
        <ele>641.82</ele>
        <time>2011-11-11T08:52:31Z</time>
      </trkpt>
      <trkpt lat="45.46593" lon="4.08921">
        <ele>639.41</ele>
        <time>2011-11-11T08:52:41Z</time>
      </trkpt>
      <trkpt lat="45.46595" lon="4.08925">
        <ele>639.41</ele>
        <time>2011-11-11T08:52:42Z</time>
      </trkpt>
      <trkpt lat="45.46597" lon="4.08929">
        <ele>639.41</ele>
        <time>2011-11-11T08:52:43Z</time>
      </trkpt>
      <trkpt lat="45.46598" lon="4.08933">
        <ele>639.41</ele>
        <time>2011-11-11T08:52:44Z</time>
      </trkpt>
      <trkpt lat="45.46599" lon="4.08938">
        <ele>639.41</ele>
        <time>2011-11-11T08:52:45Z</time>
      </trkpt>
      <trkpt lat="45.466" lon="4.08942">
        <ele>639.41</ele>
        <time>2011-11-11T08:52:46Z</time>
      </trkpt>
      <trkpt lat="45.466" lon="4.08947">
        <ele>639.41</ele>
        <time>2011-11-11T08:52:47Z</time>
      </trkpt>
      <trkpt lat="45.466" lon="4.08952">
        <ele>639.41</ele>
        <time>2011-11-11T08:52:48Z</time>
      </trkpt>
      <trkpt lat="45.466" lon="4.08956">
        <ele>639.41</ele>
        <time>2011-11-11T08:52:49Z</time>
      </trkpt>
      <trkpt lat="45.466" lon="4.0896">
        <ele>639.41</ele>
        <time>2011-11-11T08:52:50Z</time>
      </trkpt>
      <trkpt lat="45.46601" lon="4.08964">
        <ele>639.41</ele>
        <time>2011-11-11T08:52:51Z</time>
      </trkpt>
      <trkpt lat="45.46602" lon="4.08968">
        <ele>639.41</ele>
        <time>2011-11-11T08:52:52Z</time>
      </trkpt>
      <trkpt lat="45.46603" lon="4.08972">
        <ele>639.41</ele>
        <time>2011-11-11T08:52:53Z</time>
      </trkpt>
      <trkpt lat="45.46616" lon="4.0902">
        <ele>639.89</ele>
        <time>2011-11-11T08:53:04Z</time>
      </trkpt>
      <trkpt lat="45.46618" lon="4.09034">
        <ele>639.41</ele>
        <time>2011-11-11T08:53:06Z</time>
      </trkpt>
      <trkpt lat="45.46621" lon="4.0904">
        <ele>638.93</ele>
        <time>2011-11-11T08:53:07Z</time>
      </trkpt>
      <trkpt lat="45.46625" lon="4.09046">
        <ele>638.45</ele>
        <time>2011-11-11T08:53:08Z</time>
      </trkpt>
      <trkpt lat="45.4663" lon="4.0905">
        <ele>637.97</ele>
        <time>2011-11-11T08:53:09Z</time>
      </trkpt>
      <trkpt lat="45.46634" lon="4.09052">
        <ele>637.49</ele>
        <time>2011-11-11T08:53:10Z</time>
      </trkpt>
      <trkpt lat="45.46638" lon="4.09054">
        <ele>637.49</ele>
        <time>2011-11-11T08:53:11Z</time>
      </trkpt>
      <trkpt lat="45.46642" lon="4.09055">
        <ele>637.97</ele>
        <time>2011-11-11T08:53:12Z</time>
      </trkpt>
      <trkpt lat="45.46647" lon="4.09055">
        <ele>638.45</ele>
        <time>2011-11-11T08:53:13Z</time>
      </trkpt>
      <trkpt lat="45.4665" lon="4.09052">
        <ele>639.41</ele>
        <time>2011-11-11T08:53:14Z</time>
      </trkpt>
      <trkpt lat="45.46654" lon="4.0905">
        <ele>640.38</ele>
        <time>2011-11-11T08:53:15Z</time>
      </trkpt>
      <trkpt lat="45.46658" lon="4.09048">
        <ele>640.86</ele>
        <time>2011-11-11T08:53:16Z</time>
      </trkpt>
      <trkpt lat="45.46662" lon="4.09046">
        <ele>641.82</ele>
        <time>2011-11-11T08:53:17Z</time>
      </trkpt>
      <trkpt lat="45.46676" lon="4.09041">
        <ele>642.78</ele>
        <time>2011-11-11T08:53:20Z</time>
      </trkpt>
      <trkpt lat="45.4673" lon="4.09036">
        <ele>643.74</ele>
        <time>2011-11-11T08:53:33Z</time>
      </trkpt>
      <trkpt lat="45.46734" lon="4.09034">
        <ele>643.74</ele>
        <time>2011-11-11T08:53:34Z</time>
      </trkpt>
      <trkpt lat="45.46738" lon="4.09031">
        <ele>643.26</ele>
        <time>2011-11-11T08:53:35Z</time>
      </trkpt>
      <trkpt lat="45.46747" lon="4.09025">
        <ele>642.3</ele>
        <time>2011-11-11T08:53:37Z</time>
      </trkpt>
      <trkpt lat="45.46755" lon="4.09018">
        <ele>641.82</ele>
        <time>2011-11-11T08:53:39Z</time>
      </trkpt>
      <trkpt lat="45.46764" lon="4.09012">
        <ele>640.38</ele>
        <time>2011-11-11T08:53:41Z</time>
      </trkpt>
      <trkpt lat="45.46805" lon="4.08968">
        <ele>636.53</ele>
        <time>2011-11-11T08:53:48Z</time>
      </trkpt>
      <trkpt lat="45.46811" lon="4.08958">
        <ele>635.57</ele>
        <time>2011-11-11T08:53:49Z</time>
      </trkpt>
      <trkpt lat="45.46816" lon="4.08948">
        <ele>634.61</ele>
        <time>2011-11-11T08:53:50Z</time>
      </trkpt>
      <trkpt lat="45.46819" lon="4.08937">
        <ele>633.65</ele>
        <time>2011-11-11T08:53:51Z</time>
      </trkpt>
      <trkpt lat="45.46823" lon="4.08926">
        <ele>633.17</ele>
        <time>2011-11-11T08:53:52Z</time>
      </trkpt>
      <trkpt lat="45.46825" lon="4.08914">
        <ele>632.68</ele>
        <time>2011-11-11T08:53:53Z</time>
      </trkpt>
      <trkpt lat="45.46826" lon="4.08902">
        <ele>632.2</ele>
        <time>2011-11-11T08:53:54Z</time>
      </trkpt>
      <trkpt lat="45.46828" lon="4.0889">
        <ele>631.24</ele>
        <time>2011-11-11T08:53:55Z</time>
      </trkpt>
      <trkpt lat="45.46838" lon="4.08847">
        <ele>629.32</ele>
        <time>2011-11-11T08:53:59Z</time>
      </trkpt>
      <trkpt lat="45.46849" lon="4.08759">
        <ele>625.47</ele>
        <time>2011-11-11T08:54:07Z</time>
      </trkpt>
      <trkpt lat="45.46848" lon="4.08748">
        <ele>624.99</ele>
        <time>2011-11-11T08:54:08Z</time>
      </trkpt>
      <trkpt lat="45.46845" lon="4.08719">
        <ele>624.03</ele>
        <time>2011-11-11T08:54:11Z</time>
      </trkpt>
      <trkpt lat="45.46843" lon="4.08703">
        <ele>623.55</ele>
        <time>2011-11-11T08:54:13Z</time>
      </trkpt>
      <trkpt lat="45.46843" lon="4.08695">
        <ele>623.07</ele>
        <time>2011-11-11T08:54:14Z</time>
      </trkpt>
      <trkpt lat="45.46845" lon="4.08688">
        <ele>623.07</ele>
        <time>2011-11-11T08:54:15Z</time>
      </trkpt>
      <trkpt lat="45.46849" lon="4.08682">
        <ele>623.07</ele>
        <time>2011-11-11T08:54:16Z</time>
      </trkpt>
      <trkpt lat="45.46853" lon="4.08678">
        <ele>623.07</ele>
        <time>2011-11-11T08:54:17Z</time>
      </trkpt>
      <trkpt lat="45.46858" lon="4.08674">
        <ele>622.59</ele>
        <time>2011-11-11T08:54:18Z</time>
      </trkpt>
      <trkpt lat="45.46864" lon="4.08671">
        <ele>622.59</ele>
        <time>2011-11-11T08:54:19Z</time>
      </trkpt>
      <trkpt lat="45.4688" lon="4.0866">
        <ele>622.59</ele>
        <time>2011-11-11T08:54:22Z</time>
      </trkpt>
      <trkpt lat="45.46904" lon="4.08644">
        <ele>621.15</ele>
        <time>2011-11-11T08:54:26Z</time>
      </trkpt>
      <trkpt lat="45.46909" lon="4.08639">
        <ele>620.67</ele>
        <time>2011-11-11T08:54:27Z</time>
      </trkpt>
      <trkpt lat="45.46917" lon="4.08628">
        <ele>620.19</ele>
        <time>2011-11-11T08:54:29Z</time>
      </trkpt>
      <trkpt lat="45.4692" lon="4.08622">
        <ele>619.71</ele>
        <time>2011-11-11T08:54:30Z</time>
      </trkpt>
      <trkpt lat="45.46933" lon="4.08596">
        <ele>618.75</ele>
        <time>2011-11-11T08:54:34Z</time>
      </trkpt>
      <trkpt lat="45.46935" lon="4.08589">
        <ele>618.75</ele>
        <time>2011-11-11T08:54:35Z</time>
      </trkpt>
      <trkpt lat="45.46935" lon="4.08583">
        <ele>618.26</ele>
        <time>2011-11-11T08:54:36Z</time>
      </trkpt>
      <trkpt lat="45.46933" lon="4.08579">
        <ele>617.78</ele>
        <time>2011-11-11T08:54:37Z</time>
      </trkpt>
      <trkpt lat="45.46933" lon="4.08574">
        <ele>617.78</ele>
        <time>2011-11-11T08:54:38Z</time>
      </trkpt>
      <trkpt lat="45.46933" lon="4.08568">
        <ele>616.82</ele>
        <time>2011-11-11T08:54:39Z</time>
      </trkpt>
      <trkpt lat="45.46932" lon="4.08562">
        <ele>616.34</ele>
        <time>2011-11-11T08:54:40Z</time>
      </trkpt>
      <trkpt lat="45.46932" lon="4.08556">
        <ele>615.86</ele>
        <time>2011-11-11T08:54:41Z</time>
      </trkpt>
      <trkpt lat="45.46932" lon="4.0855">
        <ele>615.38</ele>
        <time>2011-11-11T08:54:42Z</time>
      </trkpt>
      <trkpt lat="45.46934" lon="4.08546">
        <ele>614.9</ele>
        <time>2011-11-11T08:54:43Z</time>
      </trkpt>
      <trkpt lat="45.46935" lon="4.08543">
        <ele>614.42</ele>
        <time>2011-11-11T08:54:44Z</time>
      </trkpt>
      <trkpt lat="45.46937" lon="4.08542">
        <ele>613.94</ele>
        <time>2011-11-11T08:54:45Z</time>
      </trkpt>
      <trkpt lat="45.46938" lon="4.08544">
        <ele>612.98</ele>
        <time>2011-11-11T08:54:46Z</time>
      </trkpt>
      <trkpt lat="45.4694" lon="4.08548">
        <ele>612.5</ele>
        <time>2011-11-11T08:54:47Z</time>
      </trkpt>
      <trkpt lat="45.46945" lon="4.08553">
        <ele>612.02</ele>
        <time>2011-11-11T08:54:48Z</time>
      </trkpt>
      <trkpt lat="45.46951" lon="4.08559">
        <ele>611.06</ele>
        <time>2011-11-11T08:54:49Z</time>
      </trkpt>
      <trkpt lat="45.46958" lon="4.08564">
        <ele>610.09</ele>
        <time>2011-11-11T08:54:50Z</time>
      </trkpt>
      <trkpt lat="45.47005" lon="4.08586">
        <ele>606.73</ele>
        <time>2011-11-11T08:54:58Z</time>
      </trkpt>
      <trkpt lat="45.47022" lon="4.08605">
        <ele>608.65</ele>
        <time>2011-11-11T08:55:08Z</time>
      </trkpt>
      <trkpt lat="45.47037" lon="4.08638">
        <ele>611.54</ele>
        <time>2011-11-11T08:55:19Z</time>
      </trkpt>
      <trkpt lat="45.47038" lon="4.0864">
        <ele>612.02</ele>
        <time>2011-11-11T08:55:20Z</time>
      </trkpt>
      <trkpt lat="45.4704" lon="4.08642">
        <ele>612.02</ele>
        <time>2011-11-11T08:55:21Z</time>
      </trkpt>
      <trkpt lat="45.47042" lon="4.08643">
        <ele>612.5</ele>
        <time>2011-11-11T08:55:22Z</time>
      </trkpt>
      <trkpt lat="45.47044" lon="4.08644">
        <ele>612.5</ele>
        <time>2011-11-11T08:55:23Z</time>
      </trkpt>
      <trkpt lat="45.47046" lon="4.08644">
        <ele>612.98</ele>
        <time>2011-11-11T08:55:24Z</time>
      </trkpt>
      <trkpt lat="45.47048" lon="4.08645">
        <ele>613.46</ele>
        <time>2011-11-11T08:55:25Z</time>
      </trkpt>
      <trkpt lat="45.47072" lon="4.08655">
        <ele>616.82</ele>
        <time>2011-11-11T08:55:38Z</time>
      </trkpt>
      <trkpt lat="45.47088" lon="4.08664">
        <ele>620.19</ele>
        <time>2011-11-11T08:55:49Z</time>
      </trkpt>
      <trkpt lat="45.47107" lon="4.08676">
        <ele>623.07</ele>
        <time>2011-11-11T08:56:02Z</time>
      </trkpt>
      <trkpt lat="45.47122" lon="4.08689">
        <ele>626.92</ele>
        <time>2011-11-11T08:56:14Z</time>
      </trkpt>
      <trkpt lat="45.47123" lon="4.0869">
        <ele>626.92</ele>
        <time>2011-11-11T08:56:15Z</time>
      </trkpt>
      <trkpt lat="45.47125" lon="4.08691">
        <ele>627.4</ele>
        <time>2011-11-11T08:56:16Z</time>
      </trkpt>
      <trkpt lat="45.47126" lon="4.08692">
        <ele>627.4</ele>
        <time>2011-11-11T08:56:17Z</time>
      </trkpt>
      <trkpt lat="45.47128" lon="4.08693">
        <ele>627.88</ele>
        <time>2011-11-11T08:56:18Z</time>
      </trkpt>
      <trkpt lat="45.47129" lon="4.08695">
        <ele>627.88</ele>
        <time>2011-11-11T08:56:19Z</time>
      </trkpt>
      <trkpt lat="45.47143" lon="4.08714">
        <ele>631.72</ele>
        <time>2011-11-11T08:56:33Z</time>
      </trkpt>
      <trkpt lat="45.47147" lon="4.08719">
        <ele>632.2</ele>
        <time>2011-11-11T08:56:37Z</time>
      </trkpt>
      <trkpt lat="45.47147" lon="4.08721">
        <ele>632.68</ele>
        <time>2011-11-11T08:56:38Z</time>
      </trkpt>
      <trkpt lat="45.47147" lon="4.08723">
        <ele>632.68</ele>
        <time>2011-11-11T08:56:39Z</time>
      </trkpt>
      <trkpt lat="45.47149" lon="4.08724">
        <ele>632.68</ele>
        <time>2011-11-11T08:56:40Z</time>
      </trkpt>
      <trkpt lat="45.47154" lon="4.08731">
        <ele>634.13</ele>
        <time>2011-11-11T08:56:46Z</time>
      </trkpt>
      <trkpt lat="45.47155" lon="4.08732">
        <ele>634.13</ele>
        <time>2011-11-11T08:56:47Z</time>
      </trkpt>
      <trkpt lat="45.47156" lon="4.08733">
        <ele>634.13</ele>
        <time>2011-11-11T08:56:48Z</time>
      </trkpt>
      <trkpt lat="45.47159" lon="4.08733">
        <ele>634.61</ele>
        <time>2011-11-11T08:56:50Z</time>
      </trkpt>
      <trkpt lat="45.4716" lon="4.08733">
        <ele>634.61</ele>
        <time>2011-11-11T08:56:51Z</time>
      </trkpt>
      <trkpt lat="45.47162" lon="4.08732">
        <ele>635.09</ele>
        <time>2011-11-11T08:56:52Z</time>
      </trkpt>
      <trkpt lat="45.47163" lon="4.08731">
        <ele>635.09</ele>
        <time>2011-11-11T08:56:53Z</time>
      </trkpt>
      <trkpt lat="45.47164" lon="4.0873">
        <ele>635.09</ele>
        <time>2011-11-11T08:56:54Z</time>
      </trkpt>
      <trkpt lat="45.47166" lon="4.08729">
        <ele>635.09</ele>
        <time>2011-11-11T08:56:55Z</time>
      </trkpt>
      <trkpt lat="45.47167" lon="4.08728">
        <ele>635.57</ele>
        <time>2011-11-11T08:56:56Z</time>
      </trkpt>
      <trkpt lat="45.47168" lon="4.08727">
        <ele>635.57</ele>
        <time>2011-11-11T08:56:57Z</time>
      </trkpt>
      <trkpt lat="45.4717" lon="4.08726">
        <ele>636.05</ele>
        <time>2011-11-11T08:56:58Z</time>
      </trkpt>
      <trkpt lat="45.47172" lon="4.08725">
        <ele>636.05</ele>
        <time>2011-11-11T08:57:00Z</time>
      </trkpt>
      <trkpt lat="45.47182" lon="4.08722">
        <ele>636.53</ele>
        <time>2011-11-11T08:57:09Z</time>
      </trkpt>
      <trkpt lat="45.47184" lon="4.08721">
        <ele>636.53</ele>
        <time>2011-11-11T08:57:11Z</time>
      </trkpt>
      <trkpt lat="45.47185" lon="4.0872">
        <ele>636.53</ele>
        <time>2011-11-11T08:57:12Z</time>
      </trkpt>
      <trkpt lat="45.47187" lon="4.08719">
        <ele>636.53</ele>
        <time>2011-11-11T08:57:13Z</time>
      </trkpt>
      <trkpt lat="45.47188" lon="4.08719">
        <ele>637.01</ele>
        <time>2011-11-11T08:57:14Z</time>
      </trkpt>
      <trkpt lat="45.47189" lon="4.08719">
        <ele>637.49</ele>
        <time>2011-11-11T08:57:15Z</time>
      </trkpt>
      <trkpt lat="45.47191" lon="4.08719">
        <ele>637.97</ele>
        <time>2011-11-11T08:57:16Z</time>
      </trkpt>
      <trkpt lat="45.47192" lon="4.0872">
        <ele>637.97</ele>
        <time>2011-11-11T08:57:17Z</time>
      </trkpt>
      <trkpt lat="45.47194" lon="4.08721">
        <ele>638.45</ele>
        <time>2011-11-11T08:57:18Z</time>
      </trkpt>
      <trkpt lat="45.47214" lon="4.08727">
        <ele>641.34</ele>
        <time>2011-11-11T08:57:31Z</time>
      </trkpt>
      <trkpt lat="45.47226" lon="4.08731">
        <ele>642.78</ele>
        <time>2011-11-11T08:57:37Z</time>
      </trkpt>
      <trkpt lat="45.47228" lon="4.08732">
        <ele>642.78</ele>
        <time>2011-11-11T08:57:38Z</time>
      </trkpt>
      <trkpt lat="45.47262" lon="4.08742">
        <ele>646.62</ele>
        <time>2011-11-11T08:57:55Z</time>
      </trkpt>
      <trkpt lat="45.47294" lon="4.08745">
        <ele>648.55</ele>
        <time>2011-11-11T08:58:11Z</time>
      </trkpt>
      <trkpt lat="45.47311" lon="4.08744">
        <ele>646.62</ele>
        <time>2011-11-11T08:58:22Z</time>
      </trkpt>
      <trkpt lat="45.47313" lon="4.08743">
        <ele>646.14</ele>
        <time>2011-11-11T08:58:23Z</time>
      </trkpt>
      <trkpt lat="45.47337" lon="4.08723">
        <ele>645.66</ele>
        <time>2011-11-11T08:58:37Z</time>
      </trkpt>
      <trkpt lat="45.47365" lon="4.08696">
        <ele>647.1</ele>
        <time>2011-11-11T08:58:50Z</time>
      </trkpt>
      <trkpt lat="45.47396" lon="4.08677">
        <ele>648.07</ele>
        <time>2011-11-11T08:58:58Z</time>
      </trkpt>
      <trkpt lat="45.474" lon="4.08673">
        <ele>648.07</ele>
        <time>2011-11-11T08:58:59Z</time>
      </trkpt>
      <trkpt lat="45.47404" lon="4.08667">
        <ele>647.59</ele>
        <time>2011-11-11T08:59:00Z</time>
      </trkpt>
      <trkpt lat="45.47407" lon="4.0866">
        <ele>647.1</ele>
        <time>2011-11-11T08:59:01Z</time>
      </trkpt>
      <trkpt lat="45.47408" lon="4.08652">
        <ele>647.1</ele>
        <time>2011-11-11T08:59:02Z</time>
      </trkpt>
      <trkpt lat="45.47408" lon="4.08643">
        <ele>646.62</ele>
        <time>2011-11-11T08:59:03Z</time>
      </trkpt>
      <trkpt lat="45.47407" lon="4.08635">
        <ele>646.62</ele>
        <time>2011-11-11T08:59:04Z</time>
      </trkpt>
      <trkpt lat="45.47405" lon="4.08627">
        <ele>646.14</ele>
        <time>2011-11-11T08:59:05Z</time>
      </trkpt>
      <trkpt lat="45.47393" lon="4.08569">
        <ele>645.66</ele>
        <time>2011-11-11T08:59:13Z</time>
      </trkpt>
      <trkpt lat="45.47388" lon="4.08514">
        <ele>647.59</ele>
        <time>2011-11-11T08:59:23Z</time>
      </trkpt>
      <trkpt lat="45.4739" lon="4.08511">
        <ele>647.59</ele>
        <time>2011-11-11T08:59:24Z</time>
      </trkpt>
      <trkpt lat="45.47392" lon="4.08509">
        <ele>647.59</ele>
        <time>2011-11-11T08:59:25Z</time>
      </trkpt>
      <trkpt lat="45.47394" lon="4.08506">
        <ele>647.59</ele>
        <time>2011-11-11T08:59:26Z</time>
      </trkpt>
      <trkpt lat="45.47397" lon="4.08502">
        <ele>647.59</ele>
        <time>2011-11-11T08:59:27Z</time>
      </trkpt>
      <trkpt lat="45.47398" lon="4.08497">
        <ele>647.59</ele>
        <time>2011-11-11T08:59:28Z</time>
      </trkpt>
      <trkpt lat="45.47398" lon="4.08491">
        <ele>647.59</ele>
        <time>2011-11-11T08:59:29Z</time>
      </trkpt>
      <trkpt lat="45.47398" lon="4.08484">
        <ele>647.59</ele>
        <time>2011-11-11T08:59:30Z</time>
      </trkpt>
      <trkpt lat="45.47398" lon="4.08477">
        <ele>647.1</ele>
        <time>2011-11-11T08:59:31Z</time>
      </trkpt>
      <trkpt lat="45.47395" lon="4.08388">
        <ele>649.99</ele>
        <time>2011-11-11T08:59:45Z</time>
      </trkpt>
      <trkpt lat="45.47396" lon="4.08368">
        <ele>650.95</ele>
        <time>2011-11-11T08:59:49Z</time>
      </trkpt>
      <trkpt lat="45.47398" lon="4.08364">
        <ele>650.95</ele>
        <time>2011-11-11T08:59:50Z</time>
      </trkpt>
      <trkpt lat="45.47401" lon="4.0836">
        <ele>650.95</ele>
        <time>2011-11-11T08:59:51Z</time>
      </trkpt>
      <trkpt lat="45.47412" lon="4.08346">
        <ele>650.47</ele>
        <time>2011-11-11T08:59:54Z</time>
      </trkpt>
      <trkpt lat="45.47418" lon="4.08334">
        <ele>649.99</ele>
        <time>2011-11-11T08:59:56Z</time>
      </trkpt>
      <trkpt lat="45.47422" lon="4.08327">
        <ele>649.51</ele>
        <time>2011-11-11T08:59:57Z</time>
      </trkpt>
      <trkpt lat="45.47425" lon="4.08319">
        <ele>648.55</ele>
        <time>2011-11-11T08:59:58Z</time>
      </trkpt>
      <trkpt lat="45.4743" lon="4.08312">
        <ele>647.59</ele>
        <time>2011-11-11T08:59:59Z</time>
      </trkpt>
      <trkpt lat="45.47435" lon="4.08304">
        <ele>646.62</ele>
        <time>2011-11-11T09:00:00Z</time>
      </trkpt>
      <trkpt lat="45.47451" lon="4.08278">
        <ele>644.22</ele>
        <time>2011-11-11T09:00:03Z</time>
      </trkpt>
      <trkpt lat="45.47457" lon="4.08269">
        <ele>643.74</ele>
        <time>2011-11-11T09:00:04Z</time>
      </trkpt>
      <trkpt lat="45.47462" lon="4.08259">
        <ele>643.26</ele>
        <time>2011-11-11T09:00:05Z</time>
      </trkpt>
      <trkpt lat="45.47467" lon="4.08249">
        <ele>642.78</ele>
        <time>2011-11-11T09:00:06Z</time>
      </trkpt>
      <trkpt lat="45.47471" lon="4.0824">
        <ele>642.78</ele>
        <time>2011-11-11T09:00:07Z</time>
      </trkpt>
      <trkpt lat="45.47475" lon="4.0823">
        <ele>642.3</ele>
        <time>2011-11-11T09:00:08Z</time>
      </trkpt>
      <trkpt lat="45.47494" lon="4.08174">
        <ele>641.82</ele>
        <time>2011-11-11T09:00:17Z</time>
      </trkpt>
      <trkpt lat="45.47495" lon="4.08168">
        <ele>642.3</ele>
        <time>2011-11-11T09:00:18Z</time>
      </trkpt>
      <trkpt lat="45.47496" lon="4.08162">
        <ele>642.78</ele>
        <time>2011-11-11T09:00:19Z</time>
      </trkpt>
      <trkpt lat="45.47498" lon="4.08155">
        <ele>642.3</ele>
        <time>2011-11-11T09:00:20Z</time>
      </trkpt>
      <trkpt lat="45.475" lon="4.08149">
        <ele>642.3</ele>
        <time>2011-11-11T09:00:21Z</time>
      </trkpt>
      <trkpt lat="45.47538" lon="4.08058">
        <ele>638.45</ele>
        <time>2011-11-11T09:00:34Z</time>
      </trkpt>
      <trkpt lat="45.47541" lon="4.08048">
        <ele>637.97</ele>
        <time>2011-11-11T09:00:35Z</time>
      </trkpt>
      <trkpt lat="45.47542" lon="4.08038">
        <ele>637.01</ele>
        <time>2011-11-11T09:00:36Z</time>
      </trkpt>
      <trkpt lat="45.47541" lon="4.08028">
        <ele>636.53</ele>
        <time>2011-11-11T09:00:37Z</time>
      </trkpt>
      <trkpt lat="45.47539" lon="4.08019">
        <ele>636.05</ele>
        <time>2011-11-11T09:00:38Z</time>
      </trkpt>
      <trkpt lat="45.47536" lon="4.08011">
        <ele>635.57</ele>
        <time>2011-11-11T09:00:39Z</time>
      </trkpt>
      <trkpt lat="45.47532" lon="4.08004">
        <ele>635.09</ele>
        <time>2011-11-11T09:00:40Z</time>
      </trkpt>
      <trkpt lat="45.47529" lon="4.07997">
        <ele>635.09</ele>
        <time>2011-11-11T09:00:41Z</time>
      </trkpt>
      <trkpt lat="45.47526" lon="4.0799">
        <ele>635.09</ele>
        <time>2011-11-11T09:00:42Z</time>
      </trkpt>
      <trkpt lat="45.47523" lon="4.07984">
        <ele>635.09</ele>
        <time>2011-11-11T09:00:43Z</time>
      </trkpt>
      <trkpt lat="45.47521" lon="4.07977">
        <ele>635.57</ele>
        <time>2011-11-11T09:00:44Z</time>
      </trkpt>
      <trkpt lat="45.47521" lon="4.07971">
        <ele>635.57</ele>
        <time>2011-11-11T09:00:45Z</time>
      </trkpt>
      <trkpt lat="45.47521" lon="4.07965">
        <ele>636.05</ele>
        <time>2011-11-11T09:00:46Z</time>
      </trkpt>
      <trkpt lat="45.47522" lon="4.0796">
        <ele>636.05</ele>
        <time>2011-11-11T09:00:47Z</time>
      </trkpt>
      <trkpt lat="45.47522" lon="4.07955">
        <ele>636.53</ele>
        <time>2011-11-11T09:00:48Z</time>
      </trkpt>
      <trkpt lat="45.47522" lon="4.07951">
        <ele>637.01</ele>
        <time>2011-11-11T09:00:49Z</time>
      </trkpt>
      <trkpt lat="45.47522" lon="4.07947">
        <ele>637.49</ele>
        <time>2011-11-11T09:00:50Z</time>
      </trkpt>
      <trkpt lat="45.47522" lon="4.07943">
        <ele>637.97</ele>
        <time>2011-11-11T09:00:51Z</time>
      </trkpt>
      <trkpt lat="45.47522" lon="4.07941">
        <ele>637.97</ele>
        <time>2011-11-11T09:00:52Z</time>
      </trkpt>
      <trkpt lat="45.47522" lon="4.07938">
        <ele>638.45</ele>
        <time>2011-11-11T09:00:53Z</time>
      </trkpt>
      <trkpt lat="45.47523" lon="4.07934">
        <ele>638.45</ele>
        <time>2011-11-11T09:00:54Z</time>
      </trkpt>
      <trkpt lat="45.47523" lon="4.07931">
        <ele>638.93</ele>
        <time>2011-11-11T09:00:55Z</time>
      </trkpt>
      <trkpt lat="45.4753" lon="4.07868">
        <ele>641.82</ele>
        <time>2011-11-11T09:01:11Z</time>
      </trkpt>
      <trkpt lat="45.47536" lon="4.07828">
        <ele>642.78</ele>
        <time>2011-11-11T09:01:22Z</time>
      </trkpt>
      <trkpt lat="45.47545" lon="4.07785">
        <ele>646.62</ele>
        <time>2011-11-11T09:01:34Z</time>
      </trkpt>
      <trkpt lat="45.47555" lon="4.07727">
        <ele>648.55</ele>
        <time>2011-11-11T09:01:47Z</time>
      </trkpt>
      <trkpt lat="45.47566" lon="4.07674">
        <ele>651.43</ele>
        <time>2011-11-11T09:02:00Z</time>
      </trkpt>
      <trkpt lat="45.47561" lon="4.0763">
        <ele>654.31</ele>
        <time>2011-11-11T09:02:12Z</time>
      </trkpt>
      <trkpt lat="45.47554" lon="4.07601">
        <ele>656.72</ele>
        <time>2011-11-11T09:02:24Z</time>
      </trkpt>
      <trkpt lat="45.47568" lon="4.07562">
        <ele>659.6</ele>
        <time>2011-11-11T09:02:38Z</time>
      </trkpt>
      <trkpt lat="45.47583" lon="4.07509">
        <ele>663.93</ele>
        <time>2011-11-11T09:02:54Z</time>
      </trkpt>
      <trkpt lat="45.47591" lon="4.07482">
        <ele>662.49</ele>
        <time>2011-11-11T09:03:01Z</time>
      </trkpt>
      <trkpt lat="45.4759" lon="4.07476">
        <ele>662.49</ele>
        <time>2011-11-11T09:03:02Z</time>
      </trkpt>
      <trkpt lat="45.4759" lon="4.07469">
        <ele>662.01</ele>
        <time>2011-11-11T09:03:03Z</time>
      </trkpt>
      <trkpt lat="45.47589" lon="4.07464">
        <ele>662.49</ele>
        <time>2011-11-11T09:03:04Z</time>
      </trkpt>
      <trkpt lat="45.47589" lon="4.07458">
        <ele>662.49</ele>
        <time>2011-11-11T09:03:05Z</time>
      </trkpt>
      <trkpt lat="45.47589" lon="4.07451">
        <ele>662.97</ele>
        <time>2011-11-11T09:03:07Z</time>
      </trkpt>
      <trkpt lat="45.4759" lon="4.07448">
        <ele>662.49</ele>
        <time>2011-11-11T09:03:08Z</time>
      </trkpt>
      <trkpt lat="45.4759" lon="4.07446">
        <ele>662.49</ele>
        <time>2011-11-11T09:03:09Z</time>
      </trkpt>
      <trkpt lat="45.4759" lon="4.07403">
        <ele>663.93</ele>
        <time>2011-11-11T09:03:22Z</time>
      </trkpt>
      <trkpt lat="45.47587" lon="4.07378">
        <ele>666.81</ele>
        <time>2011-11-11T09:03:33Z</time>
      </trkpt>
      <trkpt lat="45.47586" lon="4.07374">
        <ele>667.29</ele>
        <time>2011-11-11T09:03:35Z</time>
      </trkpt>
      <trkpt lat="45.47584" lon="4.0737">
        <ele>667.77</ele>
        <time>2011-11-11T09:03:37Z</time>
      </trkpt>
      <trkpt lat="45.47583" lon="4.07368">
        <ele>668.25</ele>
        <time>2011-11-11T09:03:38Z</time>
      </trkpt>
      <trkpt lat="45.47582" lon="4.07366">
        <ele>668.73</ele>
        <time>2011-11-11T09:03:39Z</time>
      </trkpt>
      <trkpt lat="45.47582" lon="4.07364">
        <ele>668.73</ele>
        <time>2011-11-11T09:03:40Z</time>
      </trkpt>
      <trkpt lat="45.47581" lon="4.07362">
        <ele>669.22</ele>
        <time>2011-11-11T09:03:41Z</time>
      </trkpt>
      <trkpt lat="45.4758" lon="4.0736">
        <ele>669.22</ele>
        <time>2011-11-11T09:03:42Z</time>
      </trkpt>
      <trkpt lat="45.47579" lon="4.07356">
        <ele>670.18</ele>
        <time>2011-11-11T09:03:44Z</time>
      </trkpt>
      <trkpt lat="45.47578" lon="4.07353">
        <ele>670.18</ele>
        <time>2011-11-11T09:03:45Z</time>
      </trkpt>
      <trkpt lat="45.47576" lon="4.07348">
        <ele>670.66</ele>
        <time>2011-11-11T09:03:47Z</time>
      </trkpt>
      <trkpt lat="45.47576" lon="4.07344">
        <ele>670.66</ele>
        <time>2011-11-11T09:03:48Z</time>
      </trkpt>
      <trkpt lat="45.47575" lon="4.0734">
        <ele>670.66</ele>
        <time>2011-11-11T09:03:49Z</time>
      </trkpt>
      <trkpt lat="45.47576" lon="4.07336">
        <ele>670.66</ele>
        <time>2011-11-11T09:03:50Z</time>
      </trkpt>
      <trkpt lat="45.47577" lon="4.07332">
        <ele>670.66</ele>
        <time>2011-11-11T09:03:51Z</time>
      </trkpt>
      <trkpt lat="45.47578" lon="4.07329">
        <ele>670.66</ele>
        <time>2011-11-11T09:03:52Z</time>
      </trkpt>
      <trkpt lat="45.4758" lon="4.07326">
        <ele>670.66</ele>
        <time>2011-11-11T09:03:53Z</time>
      </trkpt>
      <trkpt lat="45.47581" lon="4.07323">
        <ele>670.66</ele>
        <time>2011-11-11T09:03:54Z</time>
      </trkpt>
      <trkpt lat="45.47583" lon="4.07321">
        <ele>670.66</ele>
        <time>2011-11-11T09:03:55Z</time>
      </trkpt>
      <trkpt lat="45.47584" lon="4.07318">
        <ele>671.14</ele>
        <time>2011-11-11T09:03:56Z</time>
      </trkpt>
      <trkpt lat="45.47586" lon="4.07315">
        <ele>670.66</ele>
        <time>2011-11-11T09:03:57Z</time>
      </trkpt>
      <trkpt lat="45.47587" lon="4.07313">
        <ele>670.66</ele>
        <time>2011-11-11T09:03:58Z</time>
      </trkpt>
      <trkpt lat="45.47588" lon="4.07311">
        <ele>670.18</ele>
        <time>2011-11-11T09:03:59Z</time>
      </trkpt>
      <trkpt lat="45.47589" lon="4.07309">
        <ele>670.18</ele>
        <time>2011-11-11T09:04:00Z</time>
      </trkpt>
      <trkpt lat="45.47591" lon="4.07307">
        <ele>670.18</ele>
        <time>2011-11-11T09:04:01Z</time>
      </trkpt>
      <trkpt lat="45.47606" lon="4.073">
        <ele>671.14</ele>
        <time>2011-11-11T09:04:09Z</time>
      </trkpt>
      <trkpt lat="45.47625" lon="4.07323">
        <ele>670.18</ele>
        <time>2011-11-11T09:04:16Z</time>
      </trkpt>
      <trkpt lat="45.4763" lon="4.07328">
        <ele>669.7</ele>
        <time>2011-11-11T09:04:17Z</time>
      </trkpt>
      <trkpt lat="45.47641" lon="4.07336">
        <ele>668.73</ele>
        <time>2011-11-11T09:04:19Z</time>
      </trkpt>
      <trkpt lat="45.47647" lon="4.07339">
        <ele>668.25</ele>
        <time>2011-11-11T09:04:20Z</time>
      </trkpt>
      <trkpt lat="45.47654" lon="4.0734">
        <ele>668.25</ele>
        <time>2011-11-11T09:04:21Z</time>
      </trkpt>
      <trkpt lat="45.4766" lon="4.07341">
        <ele>667.77</ele>
        <time>2011-11-11T09:04:22Z</time>
      </trkpt>
      <trkpt lat="45.47666" lon="4.07339">
        <ele>667.77</ele>
        <time>2011-11-11T09:04:23Z</time>
      </trkpt>
      <trkpt lat="45.47671" lon="4.07335">
        <ele>667.29</ele>
        <time>2011-11-11T09:04:24Z</time>
      </trkpt>
      <trkpt lat="45.47677" lon="4.07332">
        <ele>667.29</ele>
        <time>2011-11-11T09:04:25Z</time>
      </trkpt>
      <trkpt lat="45.47682" lon="4.07328">
        <ele>666.81</ele>
        <time>2011-11-11T09:04:26Z</time>
      </trkpt>
      <trkpt lat="45.47692" lon="4.07318">
        <ele>665.85</ele>
        <time>2011-11-11T09:04:28Z</time>
      </trkpt>
      <trkpt lat="45.47697" lon="4.07312">
        <ele>665.37</ele>
        <time>2011-11-11T09:04:29Z</time>
      </trkpt>
      <trkpt lat="45.477" lon="4.07305">
        <ele>664.89</ele>
        <time>2011-11-11T09:04:30Z</time>
      </trkpt>
      <trkpt lat="45.47703" lon="4.07297">
        <ele>664.41</ele>
        <time>2011-11-11T09:04:31Z</time>
      </trkpt>
      <trkpt lat="45.47706" lon="4.0729">
        <ele>663.93</ele>
        <time>2011-11-11T09:04:32Z</time>
      </trkpt>
      <trkpt lat="45.47726" lon="4.07246">
        <ele>661.04</ele>
        <time>2011-11-11T09:04:38Z</time>
      </trkpt>
      <trkpt lat="45.47728" lon="4.07238">
        <ele>660.56</ele>
        <time>2011-11-11T09:04:39Z</time>
      </trkpt>
      <trkpt lat="45.47728" lon="4.07229">
        <ele>659.6</ele>
        <time>2011-11-11T09:04:40Z</time>
      </trkpt>
      <trkpt lat="45.47726" lon="4.0722">
        <ele>659.12</ele>
        <time>2011-11-11T09:04:41Z</time>
      </trkpt>
      <trkpt lat="45.47722" lon="4.07213">
        <ele>658.64</ele>
        <time>2011-11-11T09:04:42Z</time>
      </trkpt>
      <trkpt lat="45.47719" lon="4.07206">
        <ele>658.16</ele>
        <time>2011-11-11T09:04:43Z</time>
      </trkpt>
      <trkpt lat="45.47718" lon="4.07199">
        <ele>658.16</ele>
        <time>2011-11-11T09:04:44Z</time>
      </trkpt>
      <trkpt lat="45.47718" lon="4.07194">
        <ele>658.16</ele>
        <time>2011-11-11T09:04:45Z</time>
      </trkpt>
      <trkpt lat="45.47717" lon="4.07188">
        <ele>657.68</ele>
        <time>2011-11-11T09:04:46Z</time>
      </trkpt>
      <trkpt lat="45.47718" lon="4.07182">
        <ele>657.68</ele>
        <time>2011-11-11T09:04:47Z</time>
      </trkpt>
      <trkpt lat="45.47718" lon="4.07177">
        <ele>657.68</ele>
        <time>2011-11-11T09:04:48Z</time>
      </trkpt>
      <trkpt lat="45.47719" lon="4.07173">
        <ele>657.2</ele>
        <time>2011-11-11T09:04:49Z</time>
      </trkpt>
      <trkpt lat="45.4772" lon="4.0717">
        <ele>657.2</ele>
        <time>2011-11-11T09:04:50Z</time>
      </trkpt>
      <trkpt lat="45.47723" lon="4.0716">
        <ele>657.2</ele>
        <time>2011-11-11T09:05:01Z</time>
      </trkpt>
      <trkpt lat="45.47726" lon="4.07158">
        <ele>657.2</ele>
        <time>2011-11-11T09:05:10Z</time>
      </trkpt>
      <trkpt lat="45.4773" lon="4.07156">
        <ele>656.72</ele>
        <time>2011-11-11T09:05:13Z</time>
      </trkpt>
      <trkpt lat="45.47731" lon="4.07156">
        <ele>657.2</ele>
        <time>2011-11-11T09:05:14Z</time>
      </trkpt>
      <trkpt lat="45.47734" lon="4.07156">
        <ele>657.68</ele>
        <time>2011-11-11T09:05:15Z</time>
      </trkpt>
      <trkpt lat="45.47736" lon="4.07156">
        <ele>658.64</ele>
        <time>2011-11-11T09:05:16Z</time>
      </trkpt>
      <trkpt lat="45.47739" lon="4.07157">
        <ele>658.64</ele>
        <time>2011-11-11T09:05:17Z</time>
      </trkpt>
      <trkpt lat="45.47742" lon="4.07158">
        <ele>659.6</ele>
        <time>2011-11-11T09:05:18Z</time>
      </trkpt>
      <trkpt lat="45.47743" lon="4.07159">
        <ele>660.08</ele>
        <time>2011-11-11T09:05:19Z</time>
      </trkpt>
      <trkpt lat="45.47745" lon="4.07161">
        <ele>660.08</ele>
        <time>2011-11-11T09:05:20Z</time>
      </trkpt>
      <trkpt lat="45.47747" lon="4.07162">
        <ele>660.08</ele>
        <time>2011-11-11T09:05:21Z</time>
      </trkpt>
      <trkpt lat="45.47748" lon="4.07164">
        <ele>660.56</ele>
        <time>2011-11-11T09:05:22Z</time>
      </trkpt>
      <trkpt lat="45.47772" lon="4.07198">
        <ele>658.16</ele>
        <time>2011-11-11T09:05:34Z</time>
      </trkpt>
      <trkpt lat="45.4779" lon="4.0724">
        <ele>655.28</ele>
        <time>2011-11-11T09:05:45Z</time>
      </trkpt>
      <trkpt lat="45.47797" lon="4.07293">
        <ele>656.24</ele>
        <time>2011-11-11T09:05:57Z</time>
      </trkpt>
      <trkpt lat="45.47801" lon="4.07345">
        <ele>658.16</ele>
        <time>2011-11-11T09:06:10Z</time>
      </trkpt>
      <trkpt lat="45.4781" lon="4.07389">
        <ele>659.6</ele>
        <time>2011-11-11T09:06:22Z</time>
      </trkpt>
      <trkpt lat="45.47828" lon="4.07436">
        <ele>661.04</ele>
        <time>2011-11-11T09:06:36Z</time>
      </trkpt>
      <trkpt lat="45.47836" lon="4.07475">
        <ele>663.93</ele>
        <time>2011-11-11T09:06:49Z</time>
      </trkpt>
      <trkpt lat="45.47848" lon="4.07507">
        <ele>667.77</ele>
        <time>2011-11-11T09:07:00Z</time>
      </trkpt>
      <trkpt lat="45.47849" lon="4.07509">
        <ele>667.77</ele>
        <time>2011-11-11T09:07:01Z</time>
      </trkpt>
      <trkpt lat="45.4785" lon="4.07512">
        <ele>667.77</ele>
        <time>2011-11-11T09:07:02Z</time>
      </trkpt>
      <trkpt lat="45.47852" lon="4.07516">
        <ele>667.77</ele>
        <time>2011-11-11T09:07:03Z</time>
      </trkpt>
      <trkpt lat="45.47875" lon="4.07574">
        <ele>667.29</ele>
        <time>2011-11-11T09:07:17Z</time>
      </trkpt>
      <trkpt lat="45.47888" lon="4.07616">
        <ele>669.7</ele>
        <time>2011-11-11T09:07:28Z</time>
      </trkpt>
      <trkpt lat="45.47907" lon="4.07673">
        <ele>673.54</ele>
        <time>2011-11-11T09:07:44Z</time>
      </trkpt>
      <trkpt lat="45.47923" lon="4.07718">
        <ele>674.98</ele>
        <time>2011-11-11T09:07:57Z</time>
      </trkpt>
      <trkpt lat="45.4794" lon="4.07762">
        <ele>676.91</ele>
        <time>2011-11-11T09:08:10Z</time>
      </trkpt>
      <trkpt lat="45.47952" lon="4.07806">
        <ele>680.27</ele>
        <time>2011-11-11T09:08:21Z</time>
      </trkpt>
      <trkpt lat="45.47956" lon="4.07858">
        <ele>683.15</ele>
        <time>2011-11-11T09:08:34Z</time>
      </trkpt>
      <trkpt lat="45.4797" lon="4.07909">
        <ele>684.6</ele>
        <time>2011-11-11T09:08:47Z</time>
      </trkpt>
      <trkpt lat="45.47992" lon="4.07961">
        <ele>685.08</ele>
        <time>2011-11-11T09:09:01Z</time>
      </trkpt>
      <trkpt lat="45.48013" lon="4.07985">
        <ele>684.12</ele>
        <time>2011-11-11T09:09:08Z</time>
      </trkpt>
      <trkpt lat="45.48017" lon="4.07987">
        <ele>684.12</ele>
        <time>2011-11-11T09:09:09Z</time>
      </trkpt>
      <trkpt lat="45.48045" lon="4.07999">
        <ele>683.63</ele>
        <time>2011-11-11T09:09:16Z</time>
      </trkpt>
      <trkpt lat="45.48049" lon="4.08">
        <ele>683.63</ele>
        <time>2011-11-11T09:09:17Z</time>
      </trkpt>
      <trkpt lat="45.48114" lon="4.08014">
        <ele>681.71</ele>
        <time>2011-11-11T09:09:32Z</time>
      </trkpt>
      <trkpt lat="45.48155" lon="4.08034">
        <ele>681.71</ele>
        <time>2011-11-11T09:09:43Z</time>
      </trkpt>
      <trkpt lat="45.48179" lon="4.08064">
        <ele>680.27</ele>
        <time>2011-11-11T09:09:49Z</time>
      </trkpt>
      <trkpt lat="45.48185" lon="4.08067">
        <ele>679.79</ele>
        <time>2011-11-11T09:09:50Z</time>
      </trkpt>
      <trkpt lat="45.48192" lon="4.08069">
        <ele>679.31</ele>
        <time>2011-11-11T09:09:51Z</time>
      </trkpt>
      <trkpt lat="45.48199" lon="4.0807">
        <ele>678.83</ele>
        <time>2011-11-11T09:09:52Z</time>
      </trkpt>
      <trkpt lat="45.48206" lon="4.08069">
        <ele>677.87</ele>
        <time>2011-11-11T09:09:53Z</time>
      </trkpt>
      <trkpt lat="45.48214" lon="4.08068">
        <ele>677.87</ele>
        <time>2011-11-11T09:09:54Z</time>
      </trkpt>
      <trkpt lat="45.48322" lon="4.08039">
        <ele>669.22</ele>
        <time>2011-11-11T09:10:06Z</time>
      </trkpt>
      <trkpt lat="45.48337" lon="4.08034">
        <ele>668.25</ele>
        <time>2011-11-11T09:10:08Z</time>
      </trkpt>
      <trkpt lat="45.48343" lon="4.0803">
        <ele>667.77</ele>
        <time>2011-11-11T09:10:09Z</time>
      </trkpt>
      <trkpt lat="45.48348" lon="4.08024">
        <ele>667.29</ele>
        <time>2011-11-11T09:10:10Z</time>
      </trkpt>
      <trkpt lat="45.48352" lon="4.08016">
        <ele>666.81</ele>
        <time>2011-11-11T09:10:11Z</time>
      </trkpt>
      <trkpt lat="45.48354" lon="4.0801">
        <ele>666.81</ele>
        <time>2011-11-11T09:10:12Z</time>
      </trkpt>
      <trkpt lat="45.48356" lon="4.08005">
        <ele>666.81</ele>
        <time>2011-11-11T09:10:13Z</time>
      </trkpt>
      <trkpt lat="45.48381" lon="4.07959">
        <ele>670.66</ele>
        <time>2011-11-11T09:10:25Z</time>
      </trkpt>
      <trkpt lat="45.48418" lon="4.07926">
        <ele>670.66</ele>
        <time>2011-11-11T09:10:35Z</time>
      </trkpt>
      <trkpt lat="45.48422" lon="4.0792">
        <ele>670.18</ele>
        <time>2011-11-11T09:10:36Z</time>
      </trkpt>
      <trkpt lat="45.48427" lon="4.07914">
        <ele>670.18</ele>
        <time>2011-11-11T09:10:37Z</time>
      </trkpt>
      <trkpt lat="45.48438" lon="4.07896">
        <ele>669.22</ele>
        <time>2011-11-11T09:10:40Z</time>
      </trkpt>
      <trkpt lat="45.48444" lon="4.07884">
        <ele>667.77</ele>
        <time>2011-11-11T09:10:42Z</time>
      </trkpt>
      <trkpt lat="45.48448" lon="4.07881">
        <ele>667.29</ele>
        <time>2011-11-11T09:10:43Z</time>
      </trkpt>
      <trkpt lat="45.48453" lon="4.07878">
        <ele>666.81</ele>
        <time>2011-11-11T09:10:44Z</time>
      </trkpt>
      <trkpt lat="45.48458" lon="4.07875">
        <ele>665.85</ele>
        <time>2011-11-11T09:10:45Z</time>
      </trkpt>
      <trkpt lat="45.48463" lon="4.07871">
        <ele>665.37</ele>
        <time>2011-11-11T09:10:46Z</time>
      </trkpt>
      <trkpt lat="45.48466" lon="4.07867">
        <ele>665.37</ele>
        <time>2011-11-11T09:10:47Z</time>
      </trkpt>
      <trkpt lat="45.48469" lon="4.07863">
        <ele>664.89</ele>
        <time>2011-11-11T09:10:48Z</time>
      </trkpt>
      <trkpt lat="45.48471" lon="4.0786">
        <ele>664.89</ele>
        <time>2011-11-11T09:10:49Z</time>
      </trkpt>
      <trkpt lat="45.48473" lon="4.07856">
        <ele>664.89</ele>
        <time>2011-11-11T09:10:50Z</time>
      </trkpt>
      <trkpt lat="45.48474" lon="4.07853">
        <ele>664.89</ele>
        <time>2011-11-11T09:10:51Z</time>
      </trkpt>
      <trkpt lat="45.48487" lon="4.07818">
        <ele>669.22</ele>
        <time>2011-11-11T09:11:03Z</time>
      </trkpt>
      <trkpt lat="45.48508" lon="4.07796">
        <ele>673.06</ele>
        <time>2011-11-11T09:11:14Z</time>
      </trkpt>
      <trkpt lat="45.48537" lon="4.07775">
        <ele>676.42</ele>
        <time>2011-11-11T09:11:27Z</time>
      </trkpt>
      <trkpt lat="45.48566" lon="4.0776">
        <ele>679.79</ele>
        <time>2011-11-11T09:11:40Z</time>
      </trkpt>
      <trkpt lat="45.48586" lon="4.07716">
        <ele>685.56</ele>
        <time>2011-11-11T09:11:55Z</time>
      </trkpt>
      <trkpt lat="45.48604" lon="4.0765">
        <ele>686.04</ele>
        <time>2011-11-11T09:12:09Z</time>
      </trkpt>
      <trkpt lat="45.48624" lon="4.07587">
        <ele>687.48</ele>
        <time>2011-11-11T09:12:24Z</time>
      </trkpt>
      <trkpt lat="45.48637" lon="4.0758">
        <ele>687</ele>
        <time>2011-11-11T09:12:27Z</time>
      </trkpt>
      <trkpt lat="45.48642" lon="4.07579">
        <ele>686.52</ele>
        <time>2011-11-11T09:12:28Z</time>
      </trkpt>
      <trkpt lat="45.48647" lon="4.0758">
        <ele>686.52</ele>
        <time>2011-11-11T09:12:29Z</time>
      </trkpt>
      <trkpt lat="45.48653" lon="4.07582">
        <ele>686.04</ele>
        <time>2011-11-11T09:12:30Z</time>
      </trkpt>
      <trkpt lat="45.48658" lon="4.07585">
        <ele>685.56</ele>
        <time>2011-11-11T09:12:31Z</time>
      </trkpt>
      <trkpt lat="45.48664" lon="4.07589">
        <ele>685.08</ele>
        <time>2011-11-11T09:12:32Z</time>
      </trkpt>
      <trkpt lat="45.48708" lon="4.07617">
        <ele>680.27</ele>
        <time>2011-11-11T09:12:38Z</time>
      </trkpt>
      <trkpt lat="45.48749" lon="4.07635">
        <ele>677.39</ele>
        <time>2011-11-11T09:12:43Z</time>
      </trkpt>
      <trkpt lat="45.48755" lon="4.07643">
        <ele>676.42</ele>
        <time>2011-11-11T09:12:44Z</time>
      </trkpt>
      <trkpt lat="45.4876" lon="4.07653">
        <ele>675.94</ele>
        <time>2011-11-11T09:12:45Z</time>
      </trkpt>
      <trkpt lat="45.48763" lon="4.07664">
        <ele>674.98</ele>
        <time>2011-11-11T09:12:46Z</time>
      </trkpt>
      <trkpt lat="45.48765" lon="4.07676">
        <ele>674.5</ele>
        <time>2011-11-11T09:12:47Z</time>
      </trkpt>
      <trkpt lat="45.48772" lon="4.07711">
        <ele>671.62</ele>
        <time>2011-11-11T09:12:50Z</time>
      </trkpt>
      <trkpt lat="45.48773" lon="4.07722">
        <ele>671.14</ele>
        <time>2011-11-11T09:12:51Z</time>
      </trkpt>
      <trkpt lat="45.48779" lon="4.07798">
        <ele>667.77</ele>
        <time>2011-11-11T09:12:58Z</time>
      </trkpt>
      <trkpt lat="45.48781" lon="4.07807">
        <ele>667.77</ele>
        <time>2011-11-11T09:12:59Z</time>
      </trkpt>
      <trkpt lat="45.48784" lon="4.07815">
        <ele>667.77</ele>
        <time>2011-11-11T09:13:00Z</time>
      </trkpt>
      <trkpt lat="45.48794" lon="4.07837">
        <ele>667.77</ele>
        <time>2011-11-11T09:13:03Z</time>
      </trkpt>
      <trkpt lat="45.4881" lon="4.07866">
        <ele>667.29</ele>
        <time>2011-11-11T09:13:07Z</time>
      </trkpt>
      <trkpt lat="45.48815" lon="4.07881">
        <ele>666.81</ele>
        <time>2011-11-11T09:13:09Z</time>
      </trkpt>
      <trkpt lat="45.48836" lon="4.07964">
        <ele>668.25</ele>
        <time>2011-11-11T09:13:20Z</time>
      </trkpt>
      <trkpt lat="45.48838" lon="4.07969">
        <ele>668.73</ele>
        <time>2011-11-11T09:13:21Z</time>
      </trkpt>
      <trkpt lat="45.48844" lon="4.07987">
        <ele>669.22</ele>
        <time>2011-11-11T09:13:24Z</time>
      </trkpt>
      <trkpt lat="45.48853" lon="4.08005">
        <ele>669.22</ele>
        <time>2011-11-11T09:13:27Z</time>
      </trkpt>
      <trkpt lat="45.489" lon="4.08073">
        <ele>665.85</ele>
        <time>2011-11-11T09:13:39Z</time>
      </trkpt>
      <trkpt lat="45.48906" lon="4.08085">
        <ele>665.85</ele>
        <time>2011-11-11T09:13:41Z</time>
      </trkpt>
      <trkpt lat="45.48909" lon="4.08092">
        <ele>665.37</ele>
        <time>2011-11-11T09:13:42Z</time>
      </trkpt>
      <trkpt lat="45.48911" lon="4.08099">
        <ele>665.37</ele>
        <time>2011-11-11T09:13:43Z</time>
      </trkpt>
      <trkpt lat="45.48911" lon="4.08106">
        <ele>664.89</ele>
        <time>2011-11-11T09:13:44Z</time>
      </trkpt>
      <trkpt lat="45.48912" lon="4.08111">
        <ele>664.89</ele>
        <time>2011-11-11T09:13:45Z</time>
      </trkpt>
      <trkpt lat="45.48922" lon="4.08187">
        <ele>662.97</ele>
        <time>2011-11-11T09:13:56Z</time>
      </trkpt>
      <trkpt lat="45.48938" lon="4.08323">
        <ele>661.52</ele>
        <time>2011-11-11T09:14:09Z</time>
      </trkpt>
      <trkpt lat="45.4894" lon="4.08341">
        <ele>661.52</ele>
        <time>2011-11-11T09:14:11Z</time>
      </trkpt>
      <trkpt lat="45.48939" lon="4.08349">
        <ele>661.52</ele>
        <time>2011-11-11T09:14:12Z</time>
      </trkpt>
      <trkpt lat="45.48938" lon="4.08358">
        <ele>661.04</ele>
        <time>2011-11-11T09:14:13Z</time>
      </trkpt>
      <trkpt lat="45.48936" lon="4.08366">
        <ele>660.56</ele>
        <time>2011-11-11T09:14:14Z</time>
      </trkpt>
      <trkpt lat="45.48934" lon="4.08375">
        <ele>660.08</ele>
        <time>2011-11-11T09:14:15Z</time>
      </trkpt>
      <trkpt lat="45.48932" lon="4.08383">
        <ele>660.08</ele>
        <time>2011-11-11T09:14:16Z</time>
      </trkpt>
      <trkpt lat="45.48918" lon="4.08417">
        <ele>658.16</ele>
        <time>2011-11-11T09:14:20Z</time>
      </trkpt>
      <trkpt lat="45.48914" lon="4.08425">
        <ele>657.68</ele>
        <time>2011-11-11T09:14:21Z</time>
      </trkpt>
      <trkpt lat="45.48871" lon="4.08496">
        <ele>651.91</ele>
        <time>2011-11-11T09:14:30Z</time>
      </trkpt>
      <trkpt lat="45.4887" lon="4.08505">
        <ele>650.95</ele>
        <time>2011-11-11T09:14:31Z</time>
      </trkpt>
      <trkpt lat="45.4887" lon="4.08515">
        <ele>649.99</ele>
        <time>2011-11-11T09:14:32Z</time>
      </trkpt>
      <trkpt lat="45.48872" lon="4.08526">
        <ele>649.03</ele>
        <time>2011-11-11T09:14:33Z</time>
      </trkpt>
      <trkpt lat="45.48874" lon="4.08536">
        <ele>648.07</ele>
        <time>2011-11-11T09:14:34Z</time>
      </trkpt>
      <trkpt lat="45.48893" lon="4.08649">
        <ele>642.3</ele>
        <time>2011-11-11T09:14:45Z</time>
      </trkpt>
      <trkpt lat="45.489" lon="4.08708">
        <ele>639.41</ele>
        <time>2011-11-11T09:14:51Z</time>
      </trkpt>
      <trkpt lat="45.4891" lon="4.08746">
        <ele>637.01</ele>
        <time>2011-11-11T09:14:55Z</time>
      </trkpt>
      <trkpt lat="45.48913" lon="4.08755">
        <ele>636.53</ele>
        <time>2011-11-11T09:14:56Z</time>
      </trkpt>
      <trkpt lat="45.48956" lon="4.08831">
        <ele>630.76</ele>
        <time>2011-11-11T09:15:05Z</time>
      </trkpt>
      <trkpt lat="45.48984" lon="4.08878">
        <ele>628.36</ele>
        <time>2011-11-11T09:15:11Z</time>
      </trkpt>
      <trkpt lat="45.49008" lon="4.08902">
        <ele>626.44</ele>
        <time>2011-11-11T09:15:15Z</time>
      </trkpt>
      <trkpt lat="45.49014" lon="4.08906">
        <ele>625.96</ele>
        <time>2011-11-11T09:15:16Z</time>
      </trkpt>
      <trkpt lat="45.4902" lon="4.08908">
        <ele>625.47</ele>
        <time>2011-11-11T09:15:17Z</time>
      </trkpt>
      <trkpt lat="45.49066" lon="4.08918">
        <ele>623.07</ele>
        <time>2011-11-11T09:15:26Z</time>
      </trkpt>
      <trkpt lat="45.4907" lon="4.08919">
        <ele>623.07</ele>
        <time>2011-11-11T09:15:27Z</time>
      </trkpt>
      <trkpt lat="45.49105" lon="4.08918">
        <ele>620.67</ele>
        <time>2011-11-11T09:15:37Z</time>
      </trkpt>
      <trkpt lat="45.49126" lon="4.08914">
        <ele>619.71</ele>
        <time>2011-11-11T09:15:45Z</time>
      </trkpt>
      <trkpt lat="45.49141" lon="4.08931">
        <ele>620.67</ele>
        <time>2011-11-11T09:15:53Z</time>
      </trkpt>
      <trkpt lat="45.49142" lon="4.08934">
        <ele>620.67</ele>
        <time>2011-11-11T09:15:54Z</time>
      </trkpt>
      <trkpt lat="45.49142" lon="4.08938">
        <ele>621.15</ele>
        <time>2011-11-11T09:15:55Z</time>
      </trkpt>
      <trkpt lat="45.49143" lon="4.08941">
        <ele>621.15</ele>
        <time>2011-11-11T09:15:56Z</time>
      </trkpt>
      <trkpt lat="45.49143" lon="4.08944">
        <ele>621.15</ele>
        <time>2011-11-11T09:15:57Z</time>
      </trkpt>
      <trkpt lat="45.49144" lon="4.0896">
        <ele>622.59</ele>
        <time>2011-11-11T09:16:03Z</time>
      </trkpt>
      <trkpt lat="45.49144" lon="4.08963">
        <ele>622.59</ele>
        <time>2011-11-11T09:16:04Z</time>
      </trkpt>
      <trkpt lat="45.49146" lon="4.08984">
        <ele>622.59</ele>
        <time>2011-11-11T09:16:11Z</time>
      </trkpt>
      <trkpt lat="45.49147" lon="4.08987">
        <ele>623.07</ele>
        <time>2011-11-11T09:16:12Z</time>
      </trkpt>
      <trkpt lat="45.49148" lon="4.0899">
        <ele>623.07</ele>
        <time>2011-11-11T09:16:13Z</time>
      </trkpt>
      <trkpt lat="45.49149" lon="4.08993">
        <ele>623.07</ele>
        <time>2011-11-11T09:16:14Z</time>
      </trkpt>
      <trkpt lat="45.4915" lon="4.08997">
        <ele>622.59</ele>
        <time>2011-11-11T09:16:15Z</time>
      </trkpt>
      <trkpt lat="45.49162" lon="4.09015">
        <ele>621.63</ele>
        <time>2011-11-11T09:16:20Z</time>
      </trkpt>
      <trkpt lat="45.49176" lon="4.09035">
        <ele>620.19</ele>
        <time>2011-11-11T09:16:24Z</time>
      </trkpt>
      <trkpt lat="45.49182" lon="4.09049">
        <ele>619.23</ele>
        <time>2011-11-11T09:16:26Z</time>
      </trkpt>
      <trkpt lat="45.49184" lon="4.09057">
        <ele>618.75</ele>
        <time>2011-11-11T09:16:27Z</time>
      </trkpt>
      <trkpt lat="45.49185" lon="4.09064">
        <ele>618.26</ele>
        <time>2011-11-11T09:16:28Z</time>
      </trkpt>
      <trkpt lat="45.49187" lon="4.09069">
        <ele>618.26</ele>
        <time>2011-11-11T09:16:29Z</time>
      </trkpt>
      <trkpt lat="45.49189" lon="4.09073">
        <ele>617.78</ele>
        <time>2011-11-11T09:16:30Z</time>
      </trkpt>
      <trkpt lat="45.49191" lon="4.09078">
        <ele>617.78</ele>
        <time>2011-11-11T09:16:31Z</time>
      </trkpt>
      <trkpt lat="45.49192" lon="4.09082">
        <ele>617.78</ele>
        <time>2011-11-11T09:16:32Z</time>
      </trkpt>
      <trkpt lat="45.49194" lon="4.09086">
        <ele>618.26</ele>
        <time>2011-11-11T09:16:33Z</time>
      </trkpt>
      <trkpt lat="45.49196" lon="4.09091">
        <ele>618.26</ele>
        <time>2011-11-11T09:16:34Z</time>
      </trkpt>
      <trkpt lat="45.49198" lon="4.09095">
        <ele>618.26</ele>
        <time>2011-11-11T09:16:35Z</time>
      </trkpt>
      <trkpt lat="45.49223" lon="4.09107">
        <ele>620.67</ele>
        <time>2011-11-11T09:16:44Z</time>
      </trkpt>
      <trkpt lat="45.49254" lon="4.09088">
        <ele>623.07</ele>
        <time>2011-11-11T09:16:55Z</time>
      </trkpt>
      <trkpt lat="45.4928" lon="4.0906">
        <ele>624.03</ele>
        <time>2011-11-11T09:17:06Z</time>
      </trkpt>
      <trkpt lat="45.49324" lon="4.09017">
        <ele>618.26</ele>
        <time>2011-11-11T09:17:18Z</time>
      </trkpt>
      <trkpt lat="45.49334" lon="4.0901">
        <ele>616.34</ele>
        <time>2011-11-11T09:17:20Z</time>
      </trkpt>
      <trkpt lat="45.49344" lon="4.09005">
        <ele>614.9</ele>
        <time>2011-11-11T09:17:22Z</time>
      </trkpt>
      <trkpt lat="45.49355" lon="4.09001">
        <ele>613.46</ele>
        <time>2011-11-11T09:17:24Z</time>
      </trkpt>
      <trkpt lat="45.49359" lon="4.08998">
        <ele>612.5</ele>
        <time>2011-11-11T09:17:25Z</time>
      </trkpt>
      <trkpt lat="45.49365" lon="4.08996">
        <ele>612.02</ele>
        <time>2011-11-11T09:17:26Z</time>
      </trkpt>
      <trkpt lat="45.49392" lon="4.08992">
        <ele>609.61</ele>
        <time>2011-11-11T09:17:31Z</time>
      </trkpt>
      <trkpt lat="45.49396" lon="4.0899">
        <ele>608.65</ele>
        <time>2011-11-11T09:17:32Z</time>
      </trkpt>
      <trkpt lat="45.49418" lon="4.08981">
        <ele>601.92</ele>
        <time>2011-11-11T09:17:41Z</time>
      </trkpt>
      <trkpt lat="45.4942" lon="4.08976">
        <ele>600.96</ele>
        <time>2011-11-11T09:17:42Z</time>
      </trkpt>
      <trkpt lat="45.49421" lon="4.08969">
        <ele>600</ele>
        <time>2011-11-11T09:17:43Z</time>
      </trkpt>
      <trkpt lat="45.49422" lon="4.08962">
        <ele>599.04</ele>
        <time>2011-11-11T09:17:44Z</time>
      </trkpt>
      <trkpt lat="45.49422" lon="4.08954">
        <ele>597.6</ele>
        <time>2011-11-11T09:17:45Z</time>
      </trkpt>
      <trkpt lat="45.49422" lon="4.08946">
        <ele>596.64</ele>
        <time>2011-11-11T09:17:46Z</time>
      </trkpt>
      <trkpt lat="45.49422" lon="4.08939">
        <ele>595.67</ele>
        <time>2011-11-11T09:17:47Z</time>
      </trkpt>
      <trkpt lat="45.49431" lon="4.08904">
        <ele>595.67</ele>
        <time>2011-11-11T09:17:56Z</time>
      </trkpt>
      <trkpt lat="45.49434" lon="4.08899">
        <ele>596.64</ele>
        <time>2011-11-11T09:17:58Z</time>
      </trkpt>
      <trkpt lat="45.49436" lon="4.08897">
        <ele>597.12</ele>
        <time>2011-11-11T09:17:59Z</time>
      </trkpt>
      <trkpt lat="45.49452" lon="4.08867">
        <ele>601.44</ele>
        <time>2011-11-11T09:18:09Z</time>
      </trkpt>
      <trkpt lat="45.49465" lon="4.08842">
        <ele>606.25</ele>
        <time>2011-11-11T09:18:19Z</time>
      </trkpt>
      <trkpt lat="45.49466" lon="4.0884">
        <ele>607.21</ele>
        <time>2011-11-11T09:18:20Z</time>
      </trkpt>
      <trkpt lat="45.49468" lon="4.08837">
        <ele>607.21</ele>
        <time>2011-11-11T09:18:21Z</time>
      </trkpt>
      <trkpt lat="45.4947" lon="4.08833">
        <ele>607.69</ele>
        <time>2011-11-11T09:18:22Z</time>
      </trkpt>
      <trkpt lat="45.49471" lon="4.0883">
        <ele>607.69</ele>
        <time>2011-11-11T09:18:23Z</time>
      </trkpt>
      <trkpt lat="45.49474" lon="4.08827">
        <ele>608.17</ele>
        <time>2011-11-11T09:18:24Z</time>
      </trkpt>
      <trkpt lat="45.49476" lon="4.08824">
        <ele>607.69</ele>
        <time>2011-11-11T09:18:25Z</time>
      </trkpt>
      <trkpt lat="45.49478" lon="4.08823">
        <ele>607.69</ele>
        <time>2011-11-11T09:18:26Z</time>
      </trkpt>
      <trkpt lat="45.49481" lon="4.0882">
        <ele>608.17</ele>
        <time>2011-11-11T09:18:27Z</time>
      </trkpt>
      <trkpt lat="45.49482" lon="4.08818">
        <ele>607.69</ele>
        <time>2011-11-11T09:18:28Z</time>
      </trkpt>
      <trkpt lat="45.49484" lon="4.08816">
        <ele>608.17</ele>
        <time>2011-11-11T09:18:29Z</time>
      </trkpt>
      <trkpt lat="45.49486" lon="4.08814">
        <ele>608.65</ele>
        <time>2011-11-11T09:18:30Z</time>
      </trkpt>
      <trkpt lat="45.49488" lon="4.08812">
        <ele>608.65</ele>
        <time>2011-11-11T09:18:31Z</time>
      </trkpt>
      <trkpt lat="45.4949" lon="4.0881">
        <ele>609.13</ele>
        <time>2011-11-11T09:18:32Z</time>
      </trkpt>
      <trkpt lat="45.49491" lon="4.08808">
        <ele>609.13</ele>
        <time>2011-11-11T09:18:33Z</time>
      </trkpt>
      <trkpt lat="45.49493" lon="4.08805">
        <ele>609.13</ele>
        <time>2011-11-11T09:18:34Z</time>
      </trkpt>
      <trkpt lat="45.49495" lon="4.08802">
        <ele>609.13</ele>
        <time>2011-11-11T09:18:35Z</time>
      </trkpt>
      <trkpt lat="45.49497" lon="4.088">
        <ele>609.61</ele>
        <time>2011-11-11T09:18:36Z</time>
      </trkpt>
      <trkpt lat="45.49498" lon="4.08797">
        <ele>609.61</ele>
        <time>2011-11-11T09:18:37Z</time>
      </trkpt>
      <trkpt lat="45.49499" lon="4.08795">
        <ele>609.61</ele>
        <time>2011-11-11T09:18:38Z</time>
      </trkpt>
      <trkpt lat="45.49501" lon="4.08792">
        <ele>609.61</ele>
        <time>2011-11-11T09:18:39Z</time>
      </trkpt>
      <trkpt lat="45.49511" lon="4.08775">
        <ele>611.06</ele>
        <time>2011-11-11T09:18:46Z</time>
      </trkpt>
      <trkpt lat="45.49513" lon="4.08772">
        <ele>610.57</ele>
        <time>2011-11-11T09:18:47Z</time>
      </trkpt>
      <trkpt lat="45.49515" lon="4.08769">
        <ele>611.06</ele>
        <time>2011-11-11T09:18:48Z</time>
      </trkpt>
      <trkpt lat="45.49517" lon="4.08766">
        <ele>611.06</ele>
        <time>2011-11-11T09:18:49Z</time>
      </trkpt>
      <trkpt lat="45.49519" lon="4.08764">
        <ele>611.54</ele>
        <time>2011-11-11T09:18:50Z</time>
      </trkpt>
      <trkpt lat="45.49521" lon="4.08761">
        <ele>611.54</ele>
        <time>2011-11-11T09:18:51Z</time>
      </trkpt>
      <trkpt lat="45.49548" lon="4.0874">
        <ele>616.82</ele>
        <time>2011-11-11T09:19:03Z</time>
      </trkpt>
      <trkpt lat="45.49566" lon="4.08712">
        <ele>621.15</ele>
        <time>2011-11-11T09:19:15Z</time>
      </trkpt>
      <trkpt lat="45.49581" lon="4.08695">
        <ele>622.11</ele>
        <time>2011-11-11T09:19:25Z</time>
      </trkpt>
      <trkpt lat="45.49621" lon="4.08696">
        <ele>622.59</ele>
        <time>2011-11-11T09:19:37Z</time>
      </trkpt>
      <trkpt lat="45.49625" lon="4.08694">
        <ele>622.11</ele>
        <time>2011-11-11T09:19:38Z</time>
      </trkpt>
      <trkpt lat="45.49628" lon="4.08689">
        <ele>622.11</ele>
        <time>2011-11-11T09:19:39Z</time>
      </trkpt>
      <trkpt lat="45.49631" lon="4.08684">
        <ele>621.63</ele>
        <time>2011-11-11T09:19:40Z</time>
      </trkpt>
      <trkpt lat="45.49634" lon="4.08677">
        <ele>621.15</ele>
        <time>2011-11-11T09:19:41Z</time>
      </trkpt>
      <trkpt lat="45.49636" lon="4.0867">
        <ele>620.67</ele>
        <time>2011-11-11T09:19:42Z</time>
      </trkpt>
      <trkpt lat="45.49638" lon="4.08662">
        <ele>620.67</ele>
        <time>2011-11-11T09:19:43Z</time>
      </trkpt>
      <trkpt lat="45.4964" lon="4.08654">
        <ele>620.19</ele>
        <time>2011-11-11T09:19:44Z</time>
      </trkpt>
      <trkpt lat="45.49644" lon="4.08638">
        <ele>619.71</ele>
        <time>2011-11-11T09:19:46Z</time>
      </trkpt>
      <trkpt lat="45.49646" lon="4.0863">
        <ele>619.71</ele>
        <time>2011-11-11T09:19:47Z</time>
      </trkpt>
      <trkpt lat="45.49649" lon="4.08608">
        <ele>619.23</ele>
        <time>2011-11-11T09:19:50Z</time>
      </trkpt>
      <trkpt lat="45.49651" lon="4.08575">
        <ele>618.26</ele>
        <time>2011-11-11T09:19:55Z</time>
      </trkpt>
      <trkpt lat="45.49652" lon="4.08562">
        <ele>616.82</ele>
        <time>2011-11-11T09:19:57Z</time>
      </trkpt>
      <trkpt lat="45.49651" lon="4.08556">
        <ele>616.34</ele>
        <time>2011-11-11T09:19:58Z</time>
      </trkpt>
      <trkpt lat="45.49638" lon="4.0851">
        <ele>612.98</ele>
        <time>2011-11-11T09:20:04Z</time>
      </trkpt>
      <trkpt lat="45.49626" lon="4.08478">
        <ele>609.61</ele>
        <time>2011-11-11T09:20:08Z</time>
      </trkpt>
      <trkpt lat="45.49624" lon="4.0847">
        <ele>608.65</ele>
        <time>2011-11-11T09:20:09Z</time>
      </trkpt>
      <trkpt lat="45.49623" lon="4.08463">
        <ele>607.69</ele>
        <time>2011-11-11T09:20:10Z</time>
      </trkpt>
      <trkpt lat="45.49624" lon="4.08457">
        <ele>606.73</ele>
        <time>2011-11-11T09:20:11Z</time>
      </trkpt>
      <trkpt lat="45.49627" lon="4.08452">
        <ele>605.77</ele>
        <time>2011-11-11T09:20:12Z</time>
      </trkpt>
      <trkpt lat="45.49631" lon="4.08448">
        <ele>604.81</ele>
        <time>2011-11-11T09:20:13Z</time>
      </trkpt>
      <trkpt lat="45.49637" lon="4.08444">
        <ele>603.85</ele>
        <time>2011-11-11T09:20:14Z</time>
      </trkpt>
      <trkpt lat="45.49689" lon="4.08409">
        <ele>594.71</ele>
        <time>2011-11-11T09:20:23Z</time>
      </trkpt>
      <trkpt lat="45.49698" lon="4.08403">
        <ele>592.79</ele>
        <time>2011-11-11T09:20:25Z</time>
      </trkpt>
      <trkpt lat="45.49704" lon="4.084">
        <ele>592.31</ele>
        <time>2011-11-11T09:20:26Z</time>
      </trkpt>
      <trkpt lat="45.49709" lon="4.08396">
        <ele>591.35</ele>
        <time>2011-11-11T09:20:27Z</time>
      </trkpt>
      <trkpt lat="45.49721" lon="4.08387">
        <ele>589.43</ele>
        <time>2011-11-11T09:20:29Z</time>
      </trkpt>
      <trkpt lat="45.49726" lon="4.08385">
        <ele>588.46</ele>
        <time>2011-11-11T09:20:30Z</time>
      </trkpt>
      <trkpt lat="45.4973" lon="4.08386">
        <ele>587.5</ele>
        <time>2011-11-11T09:20:31Z</time>
      </trkpt>
      <trkpt lat="45.49734" lon="4.08388">
        <ele>586.54</ele>
        <time>2011-11-11T09:20:32Z</time>
      </trkpt>
      <trkpt lat="45.49738" lon="4.08392">
        <ele>585.58</ele>
        <time>2011-11-11T09:20:33Z</time>
      </trkpt>
      <trkpt lat="45.49743" lon="4.08397">
        <ele>585.1</ele>
        <time>2011-11-11T09:20:34Z</time>
      </trkpt>
      <trkpt lat="45.49748" lon="4.08403">
        <ele>584.14</ele>
        <time>2011-11-11T09:20:35Z</time>
      </trkpt>
      <trkpt lat="45.49753" lon="4.08409">
        <ele>583.18</ele>
        <time>2011-11-11T09:20:36Z</time>
      </trkpt>
      <trkpt lat="45.49772" lon="4.08447">
        <ele>577.41</ele>
        <time>2011-11-11T09:20:42Z</time>
      </trkpt>
      <trkpt lat="45.49774" lon="4.08454">
        <ele>576.45</ele>
        <time>2011-11-11T09:20:43Z</time>
      </trkpt>
      <trkpt lat="45.49776" lon="4.08462">
        <ele>575.49</ele>
        <time>2011-11-11T09:20:44Z</time>
      </trkpt>
      <trkpt lat="45.4978" lon="4.08492">
        <ele>571.64</ele>
        <time>2011-11-11T09:20:48Z</time>
      </trkpt>
      <trkpt lat="45.49782" lon="4.08514">
        <ele>568.76</ele>
        <time>2011-11-11T09:20:51Z</time>
      </trkpt>
      <trkpt lat="45.49785" lon="4.08526">
        <ele>567.32</ele>
        <time>2011-11-11T09:20:53Z</time>
      </trkpt>
      <trkpt lat="45.49786" lon="4.08531">
        <ele>566.83</ele>
        <time>2011-11-11T09:20:54Z</time>
      </trkpt>
      <trkpt lat="45.49789" lon="4.08546">
        <ele>564.91</ele>
        <time>2011-11-11T09:20:57Z</time>
      </trkpt>
      <trkpt lat="45.49796" lon="4.08586">
        <ele>559.62</ele>
        <time>2011-11-11T09:21:05Z</time>
      </trkpt>
      <trkpt lat="45.49797" lon="4.0859">
        <ele>559.14</ele>
        <time>2011-11-11T09:21:06Z</time>
      </trkpt>
      <trkpt lat="45.49798" lon="4.08594">
        <ele>558.66</ele>
        <time>2011-11-11T09:21:07Z</time>
      </trkpt>
      <trkpt lat="45.49799" lon="4.08596">
        <ele>557.7</ele>
        <time>2011-11-11T09:21:08Z</time>
      </trkpt>
      <trkpt lat="45.498" lon="4.08597">
        <ele>557.22</ele>
        <time>2011-11-11T09:21:09Z</time>
      </trkpt>
      <trkpt lat="45.49802" lon="4.08596">
        <ele>555.78</ele>
        <time>2011-11-11T09:21:10Z</time>
      </trkpt>
      <trkpt lat="45.49805" lon="4.08594">
        <ele>554.82</ele>
        <time>2011-11-11T09:21:11Z</time>
      </trkpt>
      <trkpt lat="45.49807" lon="4.08591">
        <ele>553.86</ele>
        <time>2011-11-11T09:21:12Z</time>
      </trkpt>
      <trkpt lat="45.49809" lon="4.08588">
        <ele>552.9</ele>
        <time>2011-11-11T09:21:13Z</time>
      </trkpt>
      <trkpt lat="45.49812" lon="4.08585">
        <ele>551.93</ele>
        <time>2011-11-11T09:21:14Z</time>
      </trkpt>
      <trkpt lat="45.49815" lon="4.08581">
        <ele>550.49</ele>
        <time>2011-11-11T09:21:15Z</time>
      </trkpt>
      <trkpt lat="45.49818" lon="4.08577">
        <ele>549.05</ele>
        <time>2011-11-11T09:21:16Z</time>
      </trkpt>
      <trkpt lat="45.49824" lon="4.08567">
        <ele>546.65</ele>
        <time>2011-11-11T09:21:18Z</time>
      </trkpt>
      <trkpt lat="45.49827" lon="4.08561">
        <ele>546.65</ele>
        <time>2011-11-11T09:21:19Z</time>
      </trkpt>
      <trkpt lat="45.49829" lon="4.08554">
        <ele>546.65</ele>
        <time>2011-11-11T09:21:20Z</time>
      </trkpt>
      <trkpt lat="45.49833" lon="4.08538">
        <ele>546.17</ele>
        <time>2011-11-11T09:21:23Z</time>
      </trkpt>
      <trkpt lat="45.49834" lon="4.08531">
        <ele>545.69</ele>
        <time>2011-11-11T09:21:24Z</time>
      </trkpt>
      <trkpt lat="45.49836" lon="4.08525">
        <ele>544.72</ele>
        <time>2011-11-11T09:21:25Z</time>
      </trkpt>
      <trkpt lat="45.49837" lon="4.08518">
        <ele>544.24</ele>
        <time>2011-11-11T09:21:26Z</time>
      </trkpt>
      <trkpt lat="45.49837" lon="4.08512">
        <ele>543.76</ele>
        <time>2011-11-11T09:21:27Z</time>
      </trkpt>
      <trkpt lat="45.49837" lon="4.08506">
        <ele>543.28</ele>
        <time>2011-11-11T09:21:28Z</time>
      </trkpt>
      <trkpt lat="45.49837" lon="4.08501">
        <ele>542.8</ele>
        <time>2011-11-11T09:21:29Z</time>
      </trkpt>
      <trkpt lat="45.49838" lon="4.08496">
        <ele>542.32</ele>
        <time>2011-11-11T09:21:30Z</time>
      </trkpt>
      <trkpt lat="45.49839" lon="4.08492">
        <ele>541.84</ele>
        <time>2011-11-11T09:21:31Z</time>
      </trkpt>
      <trkpt lat="45.49839" lon="4.08488">
        <ele>540.88</ele>
        <time>2011-11-11T09:21:32Z</time>
      </trkpt>
      <trkpt lat="45.49839" lon="4.08486">
        <ele>539.92</ele>
        <time>2011-11-11T09:21:33Z</time>
      </trkpt>
      <trkpt lat="45.49839" lon="4.08481">
        <ele>538.96</ele>
        <time>2011-11-11T09:21:34Z</time>
      </trkpt>
      <trkpt lat="45.49841" lon="4.0848">
        <ele>537.99</ele>
        <time>2011-11-11T09:21:35Z</time>
      </trkpt>
      <trkpt lat="45.49843" lon="4.08481">
        <ele>537.03</ele>
        <time>2011-11-11T09:21:36Z</time>
      </trkpt>
      <trkpt lat="45.49845" lon="4.08483">
        <ele>535.59</ele>
        <time>2011-11-11T09:21:37Z</time>
      </trkpt>
      <trkpt lat="45.49847" lon="4.08485">
        <ele>534.63</ele>
        <time>2011-11-11T09:21:38Z</time>
      </trkpt>
      <trkpt lat="45.49849" lon="4.08488">
        <ele>533.67</ele>
        <time>2011-11-11T09:21:39Z</time>
      </trkpt>
      <trkpt lat="45.4985" lon="4.08492">
        <ele>532.71</ele>
        <time>2011-11-11T09:21:40Z</time>
      </trkpt>
      <trkpt lat="45.49877" lon="4.08535">
        <ele>518.29</ele>
        <time>2011-11-11T09:21:50Z</time>
      </trkpt>
      <trkpt lat="45.49889" lon="4.08558">
        <ele>514.44</ele>
        <time>2011-11-11T09:21:54Z</time>
      </trkpt>
      <trkpt lat="45.49892" lon="4.08564">
        <ele>513.48</ele>
        <time>2011-11-11T09:21:55Z</time>
      </trkpt>
      <trkpt lat="45.49893" lon="4.08572">
        <ele>513</ele>
        <time>2011-11-11T09:21:56Z</time>
      </trkpt>
      <trkpt lat="45.49894" lon="4.0858">
        <ele>512.04</ele>
        <time>2011-11-11T09:21:57Z</time>
      </trkpt>
      <trkpt lat="45.49892" lon="4.08587">
        <ele>511.56</ele>
        <time>2011-11-11T09:21:58Z</time>
      </trkpt>
      <trkpt lat="45.49891" lon="4.08594">
        <ele>511.08</ele>
        <time>2011-11-11T09:21:59Z</time>
      </trkpt>
      <trkpt lat="45.49887" lon="4.08608">
        <ele>511.56</ele>
        <time>2011-11-11T09:22:02Z</time>
      </trkpt>
      <trkpt lat="45.49886" lon="4.08611">
        <ele>512.04</ele>
        <time>2011-11-11T09:22:03Z</time>
      </trkpt>
      <trkpt lat="45.49885" lon="4.08614">
        <ele>513</ele>
        <time>2011-11-11T09:22:04Z</time>
      </trkpt>
      <trkpt lat="45.49884" lon="4.08618">
        <ele>513.48</ele>
        <time>2011-11-11T09:22:05Z</time>
      </trkpt>
      <trkpt lat="45.49882" lon="4.08631">
        <ele>516.37</ele>
        <time>2011-11-11T09:22:17Z</time>
      </trkpt>
      <trkpt lat="45.49882" lon="4.08634">
        <ele>517.33</ele>
        <time>2011-11-11T09:22:22Z</time>
      </trkpt>
      <trkpt lat="45.49881" lon="4.08642">
        <ele>518.77</ele>
        <time>2011-11-11T09:22:28Z</time>
      </trkpt>
      <trkpt lat="45.49881" lon="4.08644">
        <ele>519.25</ele>
        <time>2011-11-11T09:22:29Z</time>
      </trkpt>
      <trkpt lat="45.4988" lon="4.08659">
        <ele>520.21</ele>
        <time>2011-11-11T09:22:38Z</time>
      </trkpt>
      <trkpt lat="45.49882" lon="4.08666">
        <ele>524.54</ele>
        <time>2011-11-11T09:22:51Z</time>
      </trkpt>
      <trkpt lat="45.49883" lon="4.08667">
        <ele>525.02</ele>
        <time>2011-11-11T09:22:52Z</time>
      </trkpt>
      <trkpt lat="45.49889" lon="4.08684">
        <ele>526.46</ele>
        <time>2011-11-11T09:23:02Z</time>
      </trkpt>
      <trkpt lat="45.49892" lon="4.08688">
        <ele>525.98</ele>
        <time>2011-11-11T09:23:05Z</time>
      </trkpt>
      <trkpt lat="45.49897" lon="4.08692">
        <ele>525.5</ele>
        <time>2011-11-11T09:23:09Z</time>
      </trkpt>
      <trkpt lat="45.49898" lon="4.08694">
        <ele>525.02</ele>
        <time>2011-11-11T09:23:10Z</time>
      </trkpt>
      <trkpt lat="45.49899" lon="4.08695">
        <ele>525.02</ele>
        <time>2011-11-11T09:23:11Z</time>
      </trkpt>
      <trkpt lat="45.49899" lon="4.08699">
        <ele>524.54</ele>
        <time>2011-11-11T09:23:14Z</time>
      </trkpt>
      <trkpt lat="45.49899" lon="4.08702">
        <ele>524.54</ele>
        <time>2011-11-11T09:23:15Z</time>
      </trkpt>
      <trkpt lat="45.499" lon="4.08704">
        <ele>525.02</ele>
        <time>2011-11-11T09:23:16Z</time>
      </trkpt>
      <trkpt lat="45.49904" lon="4.0872">
        <ele>528.38</ele>
        <time>2011-11-11T09:23:21Z</time>
      </trkpt>
      <trkpt lat="45.4991" lon="4.08732">
        <ele>528.86</ele>
        <time>2011-11-11T09:23:28Z</time>
      </trkpt>
      <trkpt lat="45.49914" lon="4.08734">
        <ele>528.86</ele>
        <time>2011-11-11T09:23:33Z</time>
      </trkpt>
      <trkpt lat="45.49921" lon="4.0873">
        <ele>527.42</ele>
        <time>2011-11-11T09:23:44Z</time>
      </trkpt>
      <trkpt lat="45.49928" lon="4.08726">
        <ele>527.9</ele>
        <time>2011-11-11T09:23:55Z</time>
      </trkpt>
      <trkpt lat="45.49938" lon="4.08723">
        <ele>529.34</ele>
        <time>2011-11-11T09:24:09Z</time>
      </trkpt>
      <trkpt lat="45.49945" lon="4.08722">
        <ele>533.19</ele>
        <time>2011-11-11T09:24:19Z</time>
      </trkpt>
      <trkpt lat="45.49947" lon="4.08713">
        <ele>536.07</ele>
        <time>2011-11-11T09:24:30Z</time>
      </trkpt>
      <trkpt lat="45.49947" lon="4.08698">
        <ele>544.72</ele>
        <time>2011-11-11T09:24:41Z</time>
      </trkpt>
      <trkpt lat="45.49947" lon="4.08696">
        <ele>545.2</ele>
        <time>2011-11-11T09:24:52Z</time>
      </trkpt>
      <trkpt lat="45.49947" lon="4.08681">
        <ele>549.05</ele>
        <time>2011-11-11T09:25:01Z</time>
      </trkpt>
      <trkpt lat="45.49945" lon="4.08674">
        <ele>551.93</ele>
        <time>2011-11-11T09:25:11Z</time>
      </trkpt>
      <trkpt lat="45.49943" lon="4.0866">
        <ele>554.82</ele>
        <time>2011-11-11T09:25:25Z</time>
      </trkpt>
      <trkpt lat="45.49944" lon="4.08642">
        <ele>556.74</ele>
        <time>2011-11-11T09:25:40Z</time>
      </trkpt>
      <trkpt lat="45.49956" lon="4.08639">
        <ele>562.99</ele>
        <time>2011-11-11T09:25:52Z</time>
      </trkpt>
      <trkpt lat="45.49971" lon="4.08648">
        <ele>567.8</ele>
        <time>2011-11-11T09:26:03Z</time>
      </trkpt>
      <trkpt lat="45.49978" lon="4.08653">
        <ele>568.28</ele>
        <time>2011-11-11T09:26:09Z</time>
      </trkpt>
      <trkpt lat="45.49993" lon="4.08661">
        <ele>570.68</ele>
        <time>2011-11-11T09:26:22Z</time>
      </trkpt>
      <trkpt lat="45.49994" lon="4.08661">
        <ele>570.68</ele>
        <time>2011-11-11T09:26:23Z</time>
      </trkpt>
      <trkpt lat="45.5" lon="4.08662">
        <ele>571.64</ele>
        <time>2011-11-11T09:26:27Z</time>
      </trkpt>
      <trkpt lat="45.50003" lon="4.08663">
        <ele>571.64</ele>
        <time>2011-11-11T09:26:30Z</time>
      </trkpt>
      <trkpt lat="45.50017" lon="4.08668">
        <ele>571.16</ele>
        <time>2011-11-11T09:26:43Z</time>
      </trkpt>
      <trkpt lat="45.50037" lon="4.08673">
        <ele>566.83</ele>
        <time>2011-11-11T09:26:56Z</time>
      </trkpt>
      <trkpt lat="45.50039" lon="4.08673">
        <ele>566.35</ele>
        <time>2011-11-11T09:26:57Z</time>
      </trkpt>
      <trkpt lat="45.50042" lon="4.08674">
        <ele>565.39</ele>
        <time>2011-11-11T09:27:00Z</time>
      </trkpt>
      <trkpt lat="45.5005" lon="4.08675">
        <ele>564.91</ele>
        <time>2011-11-11T09:27:05Z</time>
      </trkpt>
      <trkpt lat="45.5006" lon="4.08683">
        <ele>573.56</ele>
        <time>2011-11-11T09:27:17Z</time>
      </trkpt>
      <trkpt lat="45.50061" lon="4.08683">
        <ele>574.04</ele>
        <time>2011-11-11T09:27:18Z</time>
      </trkpt>
      <trkpt lat="45.50068" lon="4.08677">
        <ele>577.41</ele>
        <time>2011-11-11T09:27:23Z</time>
      </trkpt>
      <trkpt lat="45.50071" lon="4.0866">
        <ele>583.18</ele>
        <time>2011-11-11T09:27:32Z</time>
      </trkpt>
      <trkpt lat="45.50078" lon="4.08633">
        <ele>587.02</ele>
        <time>2011-11-11T09:27:43Z</time>
      </trkpt>
      <trkpt lat="45.5008" lon="4.08613">
        <ele>588.46</ele>
        <time>2011-11-11T09:27:51Z</time>
      </trkpt>
      <trkpt lat="45.50085" lon="4.08586">
        <ele>595.67</ele>
        <time>2011-11-11T09:28:03Z</time>
      </trkpt>
      <trkpt lat="45.50084" lon="4.08582">
        <ele>596.64</ele>
        <time>2011-11-11T09:28:18Z</time>
      </trkpt>
      <trkpt lat="45.50084" lon="4.08578">
        <ele>597.6</ele>
        <time>2011-11-11T09:28:40Z</time>
      </trkpt>
      <trkpt lat="45.50079" lon="4.08563">
        <ele>600</ele>
        <time>2011-11-11T09:28:46Z</time>
      </trkpt>
      <trkpt lat="45.50074" lon="4.08542">
        <ele>601.44</ele>
        <time>2011-11-11T09:28:54Z</time>
      </trkpt>
      <trkpt lat="45.50072" lon="4.08519">
        <ele>601.92</ele>
        <time>2011-11-11T09:29:04Z</time>
      </trkpt>
      <trkpt lat="45.50072" lon="4.0851">
        <ele>602.4</ele>
        <time>2011-11-11T09:29:08Z</time>
      </trkpt>
      <trkpt lat="45.50077" lon="4.08478">
        <ele>603.85</ele>
        <time>2011-11-11T09:29:22Z</time>
      </trkpt>
      <trkpt lat="45.50083" lon="4.08441">
        <ele>604.81</ele>
        <time>2011-11-11T09:29:38Z</time>
      </trkpt>
      <trkpt lat="45.50084" lon="4.08436">
        <ele>605.29</ele>
        <time>2011-11-11T09:29:40Z</time>
      </trkpt>
      <trkpt lat="45.50087" lon="4.08398">
        <ele>608.65</ele>
        <time>2011-11-11T09:29:56Z</time>
      </trkpt>
      <trkpt lat="45.50089" lon="4.08377">
        <ele>610.09</ele>
        <time>2011-11-11T09:30:04Z</time>
      </trkpt>
      <trkpt lat="45.50088" lon="4.08344">
        <ele>612.98</ele>
        <time>2011-11-11T09:30:18Z</time>
      </trkpt>
      <trkpt lat="45.50088" lon="4.08341">
        <ele>613.46</ele>
        <time>2011-11-11T09:30:19Z</time>
      </trkpt>
      <trkpt lat="45.50089" lon="4.0833">
        <ele>614.42</ele>
        <time>2011-11-11T09:30:23Z</time>
      </trkpt>
      <trkpt lat="45.50086" lon="4.08301">
        <ele>617.3</ele>
        <time>2011-11-11T09:30:36Z</time>
      </trkpt>
      <trkpt lat="45.50081" lon="4.08261">
        <ele>619.71</ele>
        <time>2011-11-11T09:30:53Z</time>
      </trkpt>
      <trkpt lat="45.5008" lon="4.08254">
        <ele>620.67</ele>
        <time>2011-11-11T09:30:56Z</time>
      </trkpt>
      <trkpt lat="45.50077" lon="4.08228">
        <ele>620.67</ele>
        <time>2011-11-11T09:31:09Z</time>
      </trkpt>
      <trkpt lat="45.50076" lon="4.08219">
        <ele>622.11</ele>
        <time>2011-11-11T09:31:14Z</time>
      </trkpt>
      <trkpt lat="45.50073" lon="4.08185">
        <ele>624.03</ele>
        <time>2011-11-11T09:31:29Z</time>
      </trkpt>
      <trkpt lat="45.50076" lon="4.08155">
        <ele>623.55</ele>
        <time>2011-11-11T09:31:43Z</time>
      </trkpt>
      <trkpt lat="45.50078" lon="4.0814">
        <ele>624.51</ele>
        <time>2011-11-11T09:31:50Z</time>
      </trkpt>
      <trkpt lat="45.50083" lon="4.08125">
        <ele>627.88</ele>
        <time>2011-11-11T09:31:57Z</time>
      </trkpt>
      <trkpt lat="45.5009" lon="4.0811">
        <ele>631.72</ele>
        <time>2011-11-11T09:32:04Z</time>
      </trkpt>
      <trkpt lat="45.50094" lon="4.08075">
        <ele>633.65</ele>
        <time>2011-11-11T09:32:17Z</time>
      </trkpt>
      <trkpt lat="45.50084" lon="4.0803">
        <ele>634.61</ele>
        <time>2011-11-11T09:32:29Z</time>
      </trkpt>
      <trkpt lat="45.50075" lon="4.07995">
        <ele>636.05</ele>
        <time>2011-11-11T09:32:39Z</time>
      </trkpt>
      <trkpt lat="45.50052" lon="4.07961">
        <ele>640.38</ele>
        <time>2011-11-11T09:32:54Z</time>
      </trkpt>
      <trkpt lat="45.5004" lon="4.0794">
        <ele>642.78</ele>
        <time>2011-11-11T09:33:03Z</time>
      </trkpt>
      <trkpt lat="45.50031" lon="4.07918">
        <ele>645.18</ele>
        <time>2011-11-11T09:33:11Z</time>
      </trkpt>
      <trkpt lat="45.50016" lon="4.07886">
        <ele>645.18</ele>
        <time>2011-11-11T09:33:23Z</time>
      </trkpt>
      <trkpt lat="45.5" lon="4.07836">
        <ele>645.18</ele>
        <time>2011-11-11T09:33:39Z</time>
      </trkpt>
      <trkpt lat="45.49991" lon="4.07784">
        <ele>648.07</ele>
        <time>2011-11-11T09:33:55Z</time>
      </trkpt>
      <trkpt lat="45.49985" lon="4.07737">
        <ele>650.47</ele>
        <time>2011-11-11T09:34:08Z</time>
      </trkpt>
      <trkpt lat="45.49976" lon="4.07683">
        <ele>652.87</ele>
        <time>2011-11-11T09:34:22Z</time>
      </trkpt>
      <trkpt lat="45.49962" lon="4.07633">
        <ele>654.8</ele>
        <time>2011-11-11T09:34:37Z</time>
      </trkpt>
      <trkpt lat="45.49947" lon="4.07584">
        <ele>654.8</ele>
        <time>2011-11-11T09:34:49Z</time>
      </trkpt>
      <trkpt lat="45.4994" lon="4.07561">
        <ele>655.28</ele>
        <time>2011-11-11T09:34:55Z</time>
      </trkpt>
      <trkpt lat="45.49921" lon="4.07509">
        <ele>655.28</ele>
        <time>2011-11-11T09:35:09Z</time>
      </trkpt>
      <trkpt lat="45.49901" lon="4.07469">
        <ele>653.83</ele>
        <time>2011-11-11T09:35:22Z</time>
      </trkpt>
      <trkpt lat="45.49874" lon="4.0742">
        <ele>654.8</ele>
        <time>2011-11-11T09:35:36Z</time>
      </trkpt>
      <trkpt lat="45.49849" lon="4.07369">
        <ele>656.24</ele>
        <time>2011-11-11T09:35:49Z</time>
      </trkpt>
      <trkpt lat="45.49832" lon="4.073">
        <ele>659.12</ele>
        <time>2011-11-11T09:36:04Z</time>
      </trkpt>
      <trkpt lat="45.49823" lon="4.07238">
        <ele>662.01</ele>
        <time>2011-11-11T09:36:17Z</time>
      </trkpt>
      <trkpt lat="45.49823" lon="4.07183">
        <ele>663.45</ele>
        <time>2011-11-11T09:36:29Z</time>
      </trkpt>
      <trkpt lat="45.49826" lon="4.07147">
        <ele>664.89</ele>
        <time>2011-11-11T09:36:38Z</time>
      </trkpt>
      <trkpt lat="45.49838" lon="4.07128">
        <ele>665.85</ele>
        <time>2011-11-11T09:36:45Z</time>
      </trkpt>
      <trkpt lat="45.49873" lon="4.07112">
        <ele>668.25</ele>
        <time>2011-11-11T09:37:01Z</time>
      </trkpt>
      <trkpt lat="45.49901" lon="4.07102">
        <ele>670.66</ele>
        <time>2011-11-11T09:37:15Z</time>
      </trkpt>
      <trkpt lat="45.49905" lon="4.07091">
        <ele>671.14</ele>
        <time>2011-11-11T09:37:19Z</time>
      </trkpt>
      <trkpt lat="45.49899" lon="4.07058">
        <ele>674.02</ele>
        <time>2011-11-11T09:37:32Z</time>
      </trkpt>
      <trkpt lat="45.49888" lon="4.07016">
        <ele>678.83</ele>
        <time>2011-11-11T09:37:48Z</time>
      </trkpt>
      <trkpt lat="45.4988" lon="4.0698">
        <ele>680.75</ele>
        <time>2011-11-11T09:38:00Z</time>
      </trkpt>
      <trkpt lat="45.49875" lon="4.06933">
        <ele>681.71</ele>
        <time>2011-11-11T09:38:15Z</time>
      </trkpt>
      <trkpt lat="45.49867" lon="4.06897">
        <ele>683.63</ele>
        <time>2011-11-11T09:38:26Z</time>
      </trkpt>
      <trkpt lat="45.49861" lon="4.06853">
        <ele>685.08</ele>
        <time>2011-11-11T09:38:39Z</time>
      </trkpt>
      <trkpt lat="45.49859" lon="4.06832">
        <ele>686.52</ele>
        <time>2011-11-11T09:38:46Z</time>
      </trkpt>
      <trkpt lat="45.49866" lon="4.06827">
        <ele>687.96</ele>
        <time>2011-11-11T09:38:50Z</time>
      </trkpt>
      <trkpt lat="45.49886" lon="4.06814">
        <ele>691.81</ele>
        <time>2011-11-11T09:39:04Z</time>
      </trkpt>
      <trkpt lat="45.49888" lon="4.0681">
        <ele>691.81</ele>
        <time>2011-11-11T09:39:06Z</time>
      </trkpt>
      <trkpt lat="45.49896" lon="4.06785">
        <ele>692.29</ele>
        <time>2011-11-11T09:39:18Z</time>
      </trkpt>
      <trkpt lat="45.49898" lon="4.06781">
        <ele>692.29</ele>
        <time>2011-11-11T09:39:20Z</time>
      </trkpt>
      <trkpt lat="45.49905" lon="4.06775">
        <ele>692.29</ele>
        <time>2011-11-11T09:39:25Z</time>
      </trkpt>
      <trkpt lat="45.49914" lon="4.06771">
        <ele>692.29</ele>
        <time>2011-11-11T09:39:31Z</time>
      </trkpt>
      <trkpt lat="45.49921" lon="4.06768">
        <ele>693.73</ele>
        <time>2011-11-11T09:39:36Z</time>
      </trkpt>
      <trkpt lat="45.49928" lon="4.06758">
        <ele>698.05</ele>
        <time>2011-11-11T09:39:43Z</time>
      </trkpt>
      <trkpt lat="45.49944" lon="4.06737">
        <ele>702.86</ele>
        <time>2011-11-11T09:39:56Z</time>
      </trkpt>
      <trkpt lat="45.49969" lon="4.06704">
        <ele>704.3</ele>
        <time>2011-11-11T09:40:10Z</time>
      </trkpt>
      <trkpt lat="45.49995" lon="4.06668">
        <ele>706.71</ele>
        <time>2011-11-11T09:40:24Z</time>
      </trkpt>
      <trkpt lat="45.5002" lon="4.06629">
        <ele>706.23</ele>
        <time>2011-11-11T09:40:38Z</time>
      </trkpt>
      <trkpt lat="45.50063" lon="4.06569">
        <ele>702.38</ele>
        <time>2011-11-11T09:40:51Z</time>
      </trkpt>
      <trkpt lat="45.50068" lon="4.06565">
        <ele>702.38</ele>
        <time>2011-11-11T09:40:52Z</time>
      </trkpt>
      <trkpt lat="45.50071" lon="4.06561">
        <ele>702.38</ele>
        <time>2011-11-11T09:40:53Z</time>
      </trkpt>
      <trkpt lat="45.50079" lon="4.06552">
        <ele>702.38</ele>
        <time>2011-11-11T09:40:55Z</time>
      </trkpt>
      <trkpt lat="45.50082" lon="4.06548">
        <ele>702.38</ele>
        <time>2011-11-11T09:40:56Z</time>
      </trkpt>
      <trkpt lat="45.50114" lon="4.06509">
        <ele>700.94</ele>
        <time>2011-11-11T09:41:07Z</time>
      </trkpt>
      <trkpt lat="45.50117" lon="4.06505">
        <ele>700.46</ele>
        <time>2011-11-11T09:41:08Z</time>
      </trkpt>
      <trkpt lat="45.50119" lon="4.06499">
        <ele>699.98</ele>
        <time>2011-11-11T09:41:09Z</time>
      </trkpt>
      <trkpt lat="45.50121" lon="4.06493">
        <ele>699.5</ele>
        <time>2011-11-11T09:41:10Z</time>
      </trkpt>
      <trkpt lat="45.50123" lon="4.06487">
        <ele>699.02</ele>
        <time>2011-11-11T09:41:11Z</time>
      </trkpt>
      <trkpt lat="45.50125" lon="4.06481">
        <ele>698.53</ele>
        <time>2011-11-11T09:41:12Z</time>
      </trkpt>
      <trkpt lat="45.50128" lon="4.06475">
        <ele>698.53</ele>
        <time>2011-11-11T09:41:13Z</time>
      </trkpt>
      <trkpt lat="45.5013" lon="4.06468">
        <ele>698.05</ele>
        <time>2011-11-11T09:41:14Z</time>
      </trkpt>
      <trkpt lat="45.50131" lon="4.06461">
        <ele>697.57</ele>
        <time>2011-11-11T09:41:15Z</time>
      </trkpt>
      <trkpt lat="45.50132" lon="4.06453">
        <ele>697.09</ele>
        <time>2011-11-11T09:41:16Z</time>
      </trkpt>
      <trkpt lat="45.5013" lon="4.06402">
        <ele>694.21</ele>
        <time>2011-11-11T09:41:22Z</time>
      </trkpt>
      <trkpt lat="45.50128" lon="4.06394">
        <ele>694.21</ele>
        <time>2011-11-11T09:41:23Z</time>
      </trkpt>
      <trkpt lat="45.50109" lon="4.06351">
        <ele>693.73</ele>
        <time>2011-11-11T09:41:33Z</time>
      </trkpt>
      <trkpt lat="45.50094" lon="4.06329">
        <ele>694.21</ele>
        <time>2011-11-11T09:41:43Z</time>
      </trkpt>
      <trkpt lat="45.50086" lon="4.0631">
        <ele>694.21</ele>
        <time>2011-11-11T09:41:50Z</time>
      </trkpt>
      <trkpt lat="45.50086" lon="4.06306">
        <ele>694.21</ele>
        <time>2011-11-11T09:41:51Z</time>
      </trkpt>
      <trkpt lat="45.50087" lon="4.06303">
        <ele>693.73</ele>
        <time>2011-11-11T09:41:52Z</time>
      </trkpt>
      <trkpt lat="45.50088" lon="4.063">
        <ele>693.73</ele>
        <time>2011-11-11T09:41:53Z</time>
      </trkpt>
      <trkpt lat="45.50092" lon="4.06293">
        <ele>694.69</ele>
        <time>2011-11-11T09:41:56Z</time>
      </trkpt>
      <trkpt lat="45.50115" lon="4.06281">
        <ele>697.57</ele>
        <time>2011-11-11T09:42:09Z</time>
      </trkpt>
      <trkpt lat="45.50128" lon="4.06271">
        <ele>698.05</ele>
        <time>2011-11-11T09:42:15Z</time>
      </trkpt>
      <trkpt lat="45.50155" lon="4.06231">
        <ele>698.53</ele>
        <time>2011-11-11T09:42:26Z</time>
      </trkpt>
      <trkpt lat="45.50164" lon="4.06213">
        <ele>699.02</ele>
        <time>2011-11-11T09:42:29Z</time>
      </trkpt>
      <trkpt lat="45.50166" lon="4.06206">
        <ele>699.02</ele>
        <time>2011-11-11T09:42:30Z</time>
      </trkpt>
      <trkpt lat="45.50169" lon="4.06192">
        <ele>698.05</ele>
        <time>2011-11-11T09:42:32Z</time>
      </trkpt>
      <trkpt lat="45.50182" lon="4.06129">
        <ele>695.65</ele>
        <time>2011-11-11T09:42:41Z</time>
      </trkpt>
      <trkpt lat="45.50183" lon="4.06122">
        <ele>695.17</ele>
        <time>2011-11-11T09:42:42Z</time>
      </trkpt>
      <trkpt lat="45.50184" lon="4.06108">
        <ele>694.69</ele>
        <time>2011-11-11T09:42:44Z</time>
      </trkpt>
      <trkpt lat="45.5019" lon="4.06073">
        <ele>693.25</ele>
        <time>2011-11-11T09:42:48Z</time>
      </trkpt>
      <trkpt lat="45.50193" lon="4.06055">
        <ele>692.77</ele>
        <time>2011-11-11T09:42:50Z</time>
      </trkpt>
      <trkpt lat="45.50195" lon="4.06029">
        <ele>691.81</ele>
        <time>2011-11-11T09:42:53Z</time>
      </trkpt>
      <trkpt lat="45.50195" lon="4.0602">
        <ele>691.33</ele>
        <time>2011-11-11T09:42:54Z</time>
      </trkpt>
      <trkpt lat="45.50194" lon="4.06012">
        <ele>690.36</ele>
        <time>2011-11-11T09:42:55Z</time>
      </trkpt>
      <trkpt lat="45.50194" lon="4.05996">
        <ele>689.4</ele>
        <time>2011-11-11T09:42:57Z</time>
      </trkpt>
      <trkpt lat="45.50195" lon="4.0599">
        <ele>688.92</ele>
        <time>2011-11-11T09:42:58Z</time>
      </trkpt>
      <trkpt lat="45.50198" lon="4.05984">
        <ele>688.44</ele>
        <time>2011-11-11T09:42:59Z</time>
      </trkpt>
      <trkpt lat="45.50202" lon="4.0598">
        <ele>688.44</ele>
        <time>2011-11-11T09:43:00Z</time>
      </trkpt>
      <trkpt lat="45.50206" lon="4.05975">
        <ele>687.96</ele>
        <time>2011-11-11T09:43:01Z</time>
      </trkpt>
      <trkpt lat="45.50238" lon="4.05944">
        <ele>686.04</ele>
        <time>2011-11-11T09:43:08Z</time>
      </trkpt>
      <trkpt lat="45.50242" lon="4.05939">
        <ele>686.04</ele>
        <time>2011-11-11T09:43:09Z</time>
      </trkpt>
      <trkpt lat="45.50262" lon="4.05909">
        <ele>685.56</ele>
        <time>2011-11-11T09:43:14Z</time>
      </trkpt>
      <trkpt lat="45.50267" lon="4.05903">
        <ele>685.56</ele>
        <time>2011-11-11T09:43:15Z</time>
      </trkpt>
      <trkpt lat="45.50272" lon="4.05899">
        <ele>685.08</ele>
        <time>2011-11-11T09:43:16Z</time>
      </trkpt>
      <trkpt lat="45.50277" lon="4.05895">
        <ele>685.08</ele>
        <time>2011-11-11T09:43:17Z</time>
      </trkpt>
      <trkpt lat="45.50283" lon="4.05892">
        <ele>685.08</ele>
        <time>2011-11-11T09:43:18Z</time>
      </trkpt>
      <trkpt lat="45.503" lon="4.05887">
        <ele>684.6</ele>
        <time>2011-11-11T09:43:21Z</time>
      </trkpt>
      <trkpt lat="45.50305" lon="4.05886">
        <ele>684.6</ele>
        <time>2011-11-11T09:43:22Z</time>
      </trkpt>
      <trkpt lat="45.5034" lon="4.05884">
        <ele>687</ele>
        <time>2011-11-11T09:43:33Z</time>
      </trkpt>
      <trkpt lat="45.50364" lon="4.05891">
        <ele>691.33</ele>
        <time>2011-11-11T09:43:47Z</time>
      </trkpt>
      <trkpt lat="45.50364" lon="4.05894">
        <ele>691.33</ele>
        <time>2011-11-11T09:43:48Z</time>
      </trkpt>
      <trkpt lat="45.50365" lon="4.05898">
        <ele>691.81</ele>
        <time>2011-11-11T09:43:50Z</time>
      </trkpt>
      <trkpt lat="45.50366" lon="4.059">
        <ele>692.29</ele>
        <time>2011-11-11T09:43:51Z</time>
      </trkpt>
      <trkpt lat="45.50366" lon="4.05902">
        <ele>692.29</ele>
        <time>2011-11-11T09:43:52Z</time>
      </trkpt>
      <trkpt lat="45.50367" lon="4.05905">
        <ele>692.77</ele>
        <time>2011-11-11T09:43:53Z</time>
      </trkpt>
      <trkpt lat="45.50367" lon="4.05907">
        <ele>692.77</ele>
        <time>2011-11-11T09:43:54Z</time>
      </trkpt>
      <trkpt lat="45.50368" lon="4.05909">
        <ele>692.77</ele>
        <time>2011-11-11T09:43:55Z</time>
      </trkpt>
      <trkpt lat="45.50368" lon="4.05912">
        <ele>693.25</ele>
        <time>2011-11-11T09:43:56Z</time>
      </trkpt>
      <trkpt lat="45.50368" lon="4.05914">
        <ele>693.25</ele>
        <time>2011-11-11T09:43:57Z</time>
      </trkpt>
      <trkpt lat="45.50369" lon="4.05917">
        <ele>693.25</ele>
        <time>2011-11-11T09:43:58Z</time>
      </trkpt>
      <trkpt lat="45.50369" lon="4.0592">
        <ele>693.25</ele>
        <time>2011-11-11T09:43:59Z</time>
      </trkpt>
      <trkpt lat="45.50377" lon="4.05956">
        <ele>696.61</ele>
        <time>2011-11-11T09:44:13Z</time>
      </trkpt>
      <trkpt lat="45.5039" lon="4.05998">
        <ele>696.61</ele>
        <time>2011-11-11T09:44:27Z</time>
      </trkpt>
      <trkpt lat="45.50401" lon="4.06046">
        <ele>697.09</ele>
        <time>2011-11-11T09:44:39Z</time>
      </trkpt>
      <trkpt lat="45.50402" lon="4.06099">
        <ele>696.61</ele>
        <time>2011-11-11T09:44:51Z</time>
      </trkpt>
      <trkpt lat="45.50419" lon="4.06135">
        <ele>699.5</ele>
        <time>2011-11-11T09:45:04Z</time>
      </trkpt>
      <trkpt lat="45.50434" lon="4.06154">
        <ele>700.94</ele>
        <time>2011-11-11T09:45:14Z</time>
      </trkpt>
      <trkpt lat="45.50439" lon="4.06158">
        <ele>701.9</ele>
        <time>2011-11-11T09:45:17Z</time>
      </trkpt>
      <trkpt lat="45.50451" lon="4.06153">
        <ele>702.38</ele>
        <time>2011-11-11T09:45:25Z</time>
      </trkpt>
      <trkpt lat="45.50462" lon="4.06144">
        <ele>705.75</ele>
        <time>2011-11-11T09:45:34Z</time>
      </trkpt>
      <trkpt lat="45.50466" lon="4.06138">
        <ele>706.71</ele>
        <time>2011-11-11T09:45:38Z</time>
      </trkpt>
      <trkpt lat="45.50473" lon="4.06134">
        <ele>708.63</ele>
        <time>2011-11-11T09:45:43Z</time>
      </trkpt>
      <trkpt lat="45.50492" lon="4.06136">
        <ele>710.07</ele>
        <time>2011-11-11T09:45:56Z</time>
      </trkpt>
      <trkpt lat="45.50516" lon="4.06156">
        <ele>710.55</ele>
        <time>2011-11-11T09:46:09Z</time>
      </trkpt>
      <trkpt lat="45.50524" lon="4.06142">
        <ele>709.59</ele>
        <time>2011-11-11T09:46:15Z</time>
      </trkpt>
      <trkpt lat="45.50527" lon="4.06099">
        <ele>709.11</ele>
        <time>2011-11-11T09:46:25Z</time>
      </trkpt>
      <trkpt lat="45.50527" lon="4.06036">
        <ele>710.55</ele>
        <time>2011-11-11T09:46:38Z</time>
      </trkpt>
      <trkpt lat="45.50526" lon="4.05961">
        <ele>710.55</ele>
        <time>2011-11-11T09:46:53Z</time>
      </trkpt>
      <trkpt lat="45.50528" lon="4.05907">
        <ele>710.55</ele>
        <time>2011-11-11T09:47:01Z</time>
      </trkpt>
      <trkpt lat="45.50529" lon="4.05892">
        <ele>710.55</ele>
        <time>2011-11-11T09:47:03Z</time>
      </trkpt>
      <trkpt lat="45.50531" lon="4.05871">
        <ele>710.55</ele>
        <time>2011-11-11T09:47:06Z</time>
      </trkpt>
      <trkpt lat="45.5052" lon="4.05822">
        <ele>713.92</ele>
        <time>2011-11-11T09:47:16Z</time>
      </trkpt>
      <trkpt lat="45.50508" lon="4.05769">
        <ele>716.32</ele>
        <time>2011-11-11T09:47:27Z</time>
      </trkpt>
      <trkpt lat="45.50509" lon="4.05709">
        <ele>717.76</ele>
        <time>2011-11-11T09:47:40Z</time>
      </trkpt>
      <trkpt lat="45.50511" lon="4.0565">
        <ele>720.16</ele>
        <time>2011-11-11T09:47:54Z</time>
      </trkpt>
      <trkpt lat="45.50511" lon="4.05628">
        <ele>721.61</ele>
        <time>2011-11-11T09:48:01Z</time>
      </trkpt>
      <trkpt lat="45.50512" lon="4.05626">
        <ele>722.09</ele>
        <time>2011-11-11T09:48:02Z</time>
      </trkpt>
      <trkpt lat="45.50514" lon="4.05626">
        <ele>722.09</ele>
        <time>2011-11-11T09:48:03Z</time>
      </trkpt>
      <trkpt lat="45.50515" lon="4.05628">
        <ele>721.61</ele>
        <time>2011-11-11T09:48:04Z</time>
      </trkpt>
      <trkpt lat="45.50517" lon="4.0563">
        <ele>721.61</ele>
        <time>2011-11-11T09:48:05Z</time>
      </trkpt>
      <trkpt lat="45.5055" lon="4.05664">
        <ele>719.68</ele>
        <time>2011-11-11T09:48:17Z</time>
      </trkpt>
      <trkpt lat="45.50564" lon="4.05673">
        <ele>719.2</ele>
        <time>2011-11-11T09:48:21Z</time>
      </trkpt>
      <trkpt lat="45.50587" lon="4.05701">
        <ele>716.32</ele>
        <time>2011-11-11T09:48:27Z</time>
      </trkpt>
      <trkpt lat="45.5059" lon="4.05706">
        <ele>716.32</ele>
        <time>2011-11-11T09:48:28Z</time>
      </trkpt>
      <trkpt lat="45.50611" lon="4.05747">
        <ele>713.44</ele>
        <time>2011-11-11T09:48:35Z</time>
      </trkpt>
      <trkpt lat="45.50616" lon="4.05758">
        <ele>711.99</ele>
        <time>2011-11-11T09:48:37Z</time>
      </trkpt>
      <trkpt lat="45.50618" lon="4.05764">
        <ele>711.51</ele>
        <time>2011-11-11T09:48:38Z</time>
      </trkpt>
      <trkpt lat="45.5062" lon="4.0577">
        <ele>711.03</ele>
        <time>2011-11-11T09:48:39Z</time>
      </trkpt>
      <trkpt lat="45.50622" lon="4.05777">
        <ele>710.55</ele>
        <time>2011-11-11T09:48:40Z</time>
      </trkpt>
      <trkpt lat="45.50623" lon="4.05784">
        <ele>709.59</ele>
        <time>2011-11-11T09:48:41Z</time>
      </trkpt>
      <trkpt lat="45.50626" lon="4.0579">
        <ele>709.11</ele>
        <time>2011-11-11T09:48:42Z</time>
      </trkpt>
      <trkpt lat="45.50628" lon="4.05795">
        <ele>708.63</ele>
        <time>2011-11-11T09:48:43Z</time>
      </trkpt>
      <trkpt lat="45.50643" lon="4.05836">
        <ele>703.34</ele>
        <time>2011-11-11T09:48:51Z</time>
      </trkpt>
      <trkpt lat="45.50656" lon="4.05864">
        <ele>700.46</ele>
        <time>2011-11-11T09:48:56Z</time>
      </trkpt>
      <trkpt lat="45.50658" lon="4.05868">
        <ele>699.5</ele>
        <time>2011-11-11T09:48:57Z</time>
      </trkpt>
      <trkpt lat="45.50661" lon="4.05873">
        <ele>699.02</ele>
        <time>2011-11-11T09:48:58Z</time>
      </trkpt>
      <trkpt lat="45.50675" lon="4.059">
        <ele>693.25</ele>
        <time>2011-11-11T09:49:04Z</time>
      </trkpt>
      <trkpt lat="45.50687" lon="4.05928">
        <ele>688.44</ele>
        <time>2011-11-11T09:49:08Z</time>
      </trkpt>
      <trkpt lat="45.50691" lon="4.05938">
        <ele>686.52</ele>
        <time>2011-11-11T09:49:09Z</time>
      </trkpt>
      <trkpt lat="45.50717" lon="4.05996">
        <ele>676.42</ele>
        <time>2011-11-11T09:49:16Z</time>
      </trkpt>
      <trkpt lat="45.50721" lon="4.06003">
        <ele>675.46</ele>
        <time>2011-11-11T09:49:17Z</time>
      </trkpt>
      <trkpt lat="45.50726" lon="4.06008">
        <ele>674.02</ele>
        <time>2011-11-11T09:49:18Z</time>
      </trkpt>
      <trkpt lat="45.50733" lon="4.06018">
        <ele>671.14</ele>
        <time>2011-11-11T09:49:20Z</time>
      </trkpt>
      <trkpt lat="45.50737" lon="4.06024">
        <ele>670.18</ele>
        <time>2011-11-11T09:49:21Z</time>
      </trkpt>
      <trkpt lat="45.50739" lon="4.06031">
        <ele>668.73</ele>
        <time>2011-11-11T09:49:22Z</time>
      </trkpt>
      <trkpt lat="45.50751" lon="4.06071">
        <ele>661.04</ele>
        <time>2011-11-11T09:49:30Z</time>
      </trkpt>
      <trkpt lat="45.50755" lon="4.06089">
        <ele>657.2</ele>
        <time>2011-11-11T09:49:35Z</time>
      </trkpt>
      <trkpt lat="45.50755" lon="4.06094">
        <ele>656.24</ele>
        <time>2011-11-11T09:49:36Z</time>
      </trkpt>
      <trkpt lat="45.50755" lon="4.06099">
        <ele>655.28</ele>
        <time>2011-11-11T09:49:37Z</time>
      </trkpt>
      <trkpt lat="45.50756" lon="4.06104">
        <ele>654.31</ele>
        <time>2011-11-11T09:49:38Z</time>
      </trkpt>
      <trkpt lat="45.50757" lon="4.06108">
        <ele>652.87</ele>
        <time>2011-11-11T09:49:39Z</time>
      </trkpt>
      <trkpt lat="45.50758" lon="4.06113">
        <ele>651.91</ele>
        <time>2011-11-11T09:49:40Z</time>
      </trkpt>
      <trkpt lat="45.50758" lon="4.06117">
        <ele>650.47</ele>
        <time>2011-11-11T09:49:41Z</time>
      </trkpt>
      <trkpt lat="45.50758" lon="4.06122">
        <ele>649.03</ele>
        <time>2011-11-11T09:49:42Z</time>
      </trkpt>
      <trkpt lat="45.50758" lon="4.06126">
        <ele>647.59</ele>
        <time>2011-11-11T09:49:43Z</time>
      </trkpt>
      <trkpt lat="45.50757" lon="4.06131">
        <ele>646.14</ele>
        <time>2011-11-11T09:49:44Z</time>
      </trkpt>
      <trkpt lat="45.50756" lon="4.06135">
        <ele>644.7</ele>
        <time>2011-11-11T09:49:45Z</time>
      </trkpt>
      <trkpt lat="45.50752" lon="4.06166">
        <ele>637.01</ele>
        <time>2011-11-11T09:49:51Z</time>
      </trkpt>
      <trkpt lat="45.50752" lon="4.06173">
        <ele>635.57</ele>
        <time>2011-11-11T09:49:52Z</time>
      </trkpt>
      <trkpt lat="45.50753" lon="4.06196">
        <ele>632.68</ele>
        <time>2011-11-11T09:49:56Z</time>
      </trkpt>
      <trkpt lat="45.50766" lon="4.06198">
        <ele>630.76</ele>
        <time>2011-11-11T09:50:01Z</time>
      </trkpt>
      <trkpt lat="45.50789" lon="4.06181">
        <ele>625.96</ele>
        <time>2011-11-11T09:50:09Z</time>
      </trkpt>
      <trkpt lat="45.50793" lon="4.06179">
        <ele>625.47</ele>
        <time>2011-11-11T09:50:10Z</time>
      </trkpt>
      <trkpt lat="45.50797" lon="4.06177">
        <ele>624.51</ele>
        <time>2011-11-11T09:50:11Z</time>
      </trkpt>
      <trkpt lat="45.50806" lon="4.06173">
        <ele>623.07</ele>
        <time>2011-11-11T09:50:13Z</time>
      </trkpt>
      <trkpt lat="45.5081" lon="4.06169">
        <ele>622.59</ele>
        <time>2011-11-11T09:50:14Z</time>
      </trkpt>
      <trkpt lat="45.50815" lon="4.06164">
        <ele>622.11</ele>
        <time>2011-11-11T09:50:15Z</time>
      </trkpt>
      <trkpt lat="45.50819" lon="4.0616">
        <ele>621.63</ele>
        <time>2011-11-11T09:50:16Z</time>
      </trkpt>
      <trkpt lat="45.50822" lon="4.06155">
        <ele>620.67</ele>
        <time>2011-11-11T09:50:17Z</time>
      </trkpt>
      <trkpt lat="45.50824" lon="4.06151">
        <ele>620.19</ele>
        <time>2011-11-11T09:50:18Z</time>
      </trkpt>
      <trkpt lat="45.50826" lon="4.06147">
        <ele>619.71</ele>
        <time>2011-11-11T09:50:19Z</time>
      </trkpt>
      <trkpt lat="45.50829" lon="4.06144">
        <ele>619.23</ele>
        <time>2011-11-11T09:50:20Z</time>
      </trkpt>
      <trkpt lat="45.50831" lon="4.06142">
        <ele>618.75</ele>
        <time>2011-11-11T09:50:21Z</time>
      </trkpt>
      <trkpt lat="45.50832" lon="4.06139">
        <ele>618.26</ele>
        <time>2011-11-11T09:50:22Z</time>
      </trkpt>
      <trkpt lat="45.50834" lon="4.06137">
        <ele>618.26</ele>
        <time>2011-11-11T09:50:23Z</time>
      </trkpt>
      <trkpt lat="45.50835" lon="4.06133">
        <ele>617.3</ele>
        <time>2011-11-11T09:50:25Z</time>
      </trkpt>
      <trkpt lat="45.50845" lon="4.06115">
        <ele>616.82</ele>
        <time>2011-11-11T09:50:37Z</time>
      </trkpt>
      <trkpt lat="45.50863" lon="4.06086">
        <ele>611.54</ele>
        <time>2011-11-11T09:50:44Z</time>
      </trkpt>
      <trkpt lat="45.50866" lon="4.06082">
        <ele>610.57</ele>
        <time>2011-11-11T09:50:45Z</time>
      </trkpt>
      <trkpt lat="45.50884" lon="4.06055">
        <ele>602.4</ele>
        <time>2011-11-11T09:50:54Z</time>
      </trkpt>
      <trkpt lat="45.5091" lon="4.06022">
        <ele>596.15</ele>
        <time>2011-11-11T09:51:02Z</time>
      </trkpt>
      <trkpt lat="45.5094" lon="4.05979">
        <ele>595.19</ele>
        <time>2011-11-11T09:51:12Z</time>
      </trkpt>
      <trkpt lat="45.50953" lon="4.05962">
        <ele>595.67</ele>
        <time>2011-11-11T09:51:16Z</time>
      </trkpt>
      <trkpt lat="45.50971" lon="4.05939">
        <ele>596.15</ele>
        <time>2011-11-11T09:51:21Z</time>
      </trkpt>
      <trkpt lat="45.50975" lon="4.05936">
        <ele>596.15</ele>
        <time>2011-11-11T09:51:22Z</time>
      </trkpt>
      <trkpt lat="45.50978" lon="4.05932">
        <ele>596.15</ele>
        <time>2011-11-11T09:51:23Z</time>
      </trkpt>
      <trkpt lat="45.50982" lon="4.05929">
        <ele>596.15</ele>
        <time>2011-11-11T09:51:24Z</time>
      </trkpt>
      <trkpt lat="45.50985" lon="4.05926">
        <ele>596.15</ele>
        <time>2011-11-11T09:51:25Z</time>
      </trkpt>
      <trkpt lat="45.5099" lon="4.05924">
        <ele>596.15</ele>
        <time>2011-11-11T09:51:26Z</time>
      </trkpt>
      <trkpt lat="45.50996" lon="4.05922">
        <ele>596.15</ele>
        <time>2011-11-11T09:51:27Z</time>
      </trkpt>
      <trkpt lat="45.51001" lon="4.05921">
        <ele>596.15</ele>
        <time>2011-11-11T09:51:28Z</time>
      </trkpt>
      <trkpt lat="45.51007" lon="4.05919">
        <ele>595.67</ele>
        <time>2011-11-11T09:51:29Z</time>
      </trkpt>
      <trkpt lat="45.51013" lon="4.05917">
        <ele>595.67</ele>
        <time>2011-11-11T09:51:30Z</time>
      </trkpt>
      <trkpt lat="45.51019" lon="4.05917">
        <ele>595.19</ele>
        <time>2011-11-11T09:51:31Z</time>
      </trkpt>
      <trkpt lat="45.51026" lon="4.05917">
        <ele>595.19</ele>
        <time>2011-11-11T09:51:32Z</time>
      </trkpt>
      <trkpt lat="45.51033" lon="4.05917">
        <ele>595.19</ele>
        <time>2011-11-11T09:51:33Z</time>
      </trkpt>
      <trkpt lat="45.51068" lon="4.0592">
        <ele>598.56</ele>
        <time>2011-11-11T09:51:38Z</time>
      </trkpt>
      <trkpt lat="45.51075" lon="4.05921">
        <ele>599.52</ele>
        <time>2011-11-11T09:51:39Z</time>
      </trkpt>
      <trkpt lat="45.51122" lon="4.05937">
        <ele>603.36</ele>
        <time>2011-11-11T09:51:49Z</time>
      </trkpt>
      <trkpt lat="45.51147" lon="4.05949">
        <ele>600.48</ele>
        <time>2011-11-11T09:51:55Z</time>
      </trkpt>
      <trkpt lat="45.51155" lon="4.05953">
        <ele>599.52</ele>
        <time>2011-11-11T09:51:57Z</time>
      </trkpt>
      <trkpt lat="45.5116" lon="4.05955">
        <ele>598.56</ele>
        <time>2011-11-11T09:51:58Z</time>
      </trkpt>
      <trkpt lat="45.51166" lon="4.05956">
        <ele>598.08</ele>
        <time>2011-11-11T09:51:59Z</time>
      </trkpt>
      <trkpt lat="45.51172" lon="4.05957">
        <ele>598.08</ele>
        <time>2011-11-11T09:52:00Z</time>
      </trkpt>
      <trkpt lat="45.51177" lon="4.05959">
        <ele>598.08</ele>
        <time>2011-11-11T09:52:01Z</time>
      </trkpt>
      <trkpt lat="45.51181" lon="4.05962">
        <ele>598.08</ele>
        <time>2011-11-11T09:52:02Z</time>
      </trkpt>
      <trkpt lat="45.51184" lon="4.05965">
        <ele>598.08</ele>
        <time>2011-11-11T09:52:03Z</time>
      </trkpt>
      <trkpt lat="45.51187" lon="4.05968">
        <ele>597.6</ele>
        <time>2011-11-11T09:52:04Z</time>
      </trkpt>
      <trkpt lat="45.5119" lon="4.05972">
        <ele>597.6</ele>
        <time>2011-11-11T09:52:05Z</time>
      </trkpt>
      <trkpt lat="45.51192" lon="4.05977">
        <ele>597.12</ele>
        <time>2011-11-11T09:52:06Z</time>
      </trkpt>
      <trkpt lat="45.51192" lon="4.05982">
        <ele>596.64</ele>
        <time>2011-11-11T09:52:07Z</time>
      </trkpt>
      <trkpt lat="45.51192" lon="4.05987">
        <ele>597.12</ele>
        <time>2011-11-11T09:52:08Z</time>
      </trkpt>
      <trkpt lat="45.51192" lon="4.0599">
        <ele>597.6</ele>
        <time>2011-11-11T09:52:09Z</time>
      </trkpt>
      <trkpt lat="45.51192" lon="4.05992">
        <ele>598.08</ele>
        <time>2011-11-11T09:52:10Z</time>
      </trkpt>
      <trkpt lat="45.51192" lon="4.05994">
        <ele>599.04</ele>
        <time>2011-11-11T09:52:11Z</time>
      </trkpt>
      <trkpt lat="45.51191" lon="4.05996">
        <ele>599.52</ele>
        <time>2011-11-11T09:52:12Z</time>
      </trkpt>
      <trkpt lat="45.51191" lon="4.05998">
        <ele>600</ele>
        <time>2011-11-11T09:52:13Z</time>
      </trkpt>
      <trkpt lat="45.5119" lon="4.06">
        <ele>600.96</ele>
        <time>2011-11-11T09:52:14Z</time>
      </trkpt>
      <trkpt lat="45.51189" lon="4.06001">
        <ele>601.44</ele>
        <time>2011-11-11T09:52:15Z</time>
      </trkpt>
      <trkpt lat="45.51187" lon="4.06005">
        <ele>601.92</ele>
        <time>2011-11-11T09:52:17Z</time>
      </trkpt>
      <trkpt lat="45.51186" lon="4.06006">
        <ele>602.4</ele>
        <time>2011-11-11T09:52:18Z</time>
      </trkpt>
      <trkpt lat="45.51185" lon="4.06007">
        <ele>602.88</ele>
        <time>2011-11-11T09:52:19Z</time>
      </trkpt>
      <trkpt lat="45.51171" lon="4.06022">
        <ele>605.77</ele>
        <time>2011-11-11T09:52:30Z</time>
      </trkpt>
      <trkpt lat="45.51169" lon="4.06023">
        <ele>605.77</ele>
        <time>2011-11-11T09:52:31Z</time>
      </trkpt>
      <trkpt lat="45.51152" lon="4.06041">
        <ele>607.21</ele>
        <time>2011-11-11T09:52:40Z</time>
      </trkpt>
      <trkpt lat="45.51147" lon="4.06048">
        <ele>608.17</ele>
        <time>2011-11-11T09:52:43Z</time>
      </trkpt>
      <trkpt lat="45.51145" lon="4.06049">
        <ele>608.65</ele>
        <time>2011-11-11T09:52:44Z</time>
      </trkpt>
      <trkpt lat="45.51143" lon="4.06052">
        <ele>609.13</ele>
        <time>2011-11-11T09:52:45Z</time>
      </trkpt>
      <trkpt lat="45.51142" lon="4.06055">
        <ele>609.61</ele>
        <time>2011-11-11T09:52:46Z</time>
      </trkpt>
      <trkpt lat="45.51142" lon="4.06058">
        <ele>609.61</ele>
        <time>2011-11-11T09:52:47Z</time>
      </trkpt>
      <trkpt lat="45.51142" lon="4.06062">
        <ele>609.61</ele>
        <time>2011-11-11T09:52:48Z</time>
      </trkpt>
      <trkpt lat="45.51142" lon="4.06065">
        <ele>610.09</ele>
        <time>2011-11-11T09:52:49Z</time>
      </trkpt>
      <trkpt lat="45.51141" lon="4.06068">
        <ele>610.09</ele>
        <time>2011-11-11T09:52:50Z</time>
      </trkpt>
      <trkpt lat="45.51141" lon="4.06071">
        <ele>610.57</ele>
        <time>2011-11-11T09:52:51Z</time>
      </trkpt>
      <trkpt lat="45.51141" lon="4.06074">
        <ele>610.57</ele>
        <time>2011-11-11T09:52:52Z</time>
      </trkpt>
      <trkpt lat="45.5114" lon="4.06077">
        <ele>610.57</ele>
        <time>2011-11-11T09:52:53Z</time>
      </trkpt>
      <trkpt lat="45.51139" lon="4.0608">
        <ele>610.57</ele>
        <time>2011-11-11T09:52:54Z</time>
      </trkpt>
      <trkpt lat="45.51139" lon="4.06083">
        <ele>610.57</ele>
        <time>2011-11-11T09:52:55Z</time>
      </trkpt>
      <trkpt lat="45.5114" lon="4.06086">
        <ele>610.57</ele>
        <time>2011-11-11T09:52:56Z</time>
      </trkpt>
      <trkpt lat="45.5114" lon="4.06089">
        <ele>610.57</ele>
        <time>2011-11-11T09:52:57Z</time>
      </trkpt>
      <trkpt lat="45.51146" lon="4.06131">
        <ele>612.02</ele>
        <time>2011-11-11T09:53:11Z</time>
      </trkpt>
      <trkpt lat="45.51169" lon="4.06151">
        <ele>616.34</ele>
        <time>2011-11-11T09:53:24Z</time>
      </trkpt>
      <trkpt lat="45.51178" lon="4.06153">
        <ele>615.86</ele>
        <time>2011-11-11T09:53:28Z</time>
      </trkpt>
      <trkpt lat="45.51181" lon="4.06151">
        <ele>615.86</ele>
        <time>2011-11-11T09:53:29Z</time>
      </trkpt>
      <trkpt lat="45.51219" lon="4.06128">
        <ele>617.3</ele>
        <time>2011-11-11T09:53:44Z</time>
      </trkpt>
      <trkpt lat="45.51239" lon="4.06109">
        <ele>620.19</ele>
        <time>2011-11-11T09:53:57Z</time>
      </trkpt>
      <trkpt lat="45.51239" lon="4.06108">
        <ele>619.71</ele>
        <time>2011-11-11T09:54:10Z</time>
      </trkpt>
      <trkpt lat="45.51239" lon="4.06108">
        <ele>619.71</ele>
        <time>2011-11-11T09:54:59Z</time>
      </trkpt>
      <trkpt lat="45.51239" lon="4.06108">
        <ele>619.71</ele>
        <time>2011-11-11T09:55:40Z</time>
      </trkpt>
      <trkpt lat="45.51239" lon="4.06108">
        <ele>619.71</ele>
        <time>2011-11-11T09:56:12Z</time>
      </trkpt>
      <trkpt lat="45.51239" lon="4.06107">
        <ele>620.19</ele>
        <time>2011-11-11T09:56:42Z</time>
      </trkpt>
      <trkpt lat="45.5124" lon="4.06107">
        <ele>620.19</ele>
        <time>2011-11-11T09:57:21Z</time>
      </trkpt>
      <trkpt lat="45.5124" lon="4.06107">
        <ele>620.19</ele>
        <time>2011-11-11T09:57:58Z</time>
      </trkpt>
      <trkpt lat="45.51239" lon="4.06107">
        <ele>619.71</ele>
        <time>2011-11-11T09:58:59Z</time>
      </trkpt>
      <trkpt lat="45.51239" lon="4.06106">
        <ele>620.67</ele>
        <time>2011-11-11T09:59:47Z</time>
      </trkpt>
      <trkpt lat="45.51239" lon="4.06105">
        <ele>621.63</ele>
        <time>2011-11-11T10:00:19Z</time>
      </trkpt>
      <trkpt lat="45.51239" lon="4.06104">
        <ele>622.11</ele>
        <time>2011-11-11T10:00:55Z</time>
      </trkpt>
      <trkpt lat="45.51239" lon="4.06103">
        <ele>622.11</ele>
        <time>2011-11-11T10:01:36Z</time>
      </trkpt>
      <trkpt lat="45.51239" lon="4.06104">
        <ele>623.07</ele>
        <time>2011-11-11T10:02:07Z</time>
      </trkpt>
      <trkpt lat="45.51242" lon="4.06103">
        <ele>621.63</ele>
        <time>2011-11-11T10:02:31Z</time>
      </trkpt>
      <trkpt lat="45.51243" lon="4.06099">
        <ele>620.67</ele>
        <time>2011-11-11T10:02:34Z</time>
      </trkpt>
      <trkpt lat="45.51243" lon="4.06089">
        <ele>618.75</ele>
        <time>2011-11-11T10:02:41Z</time>
      </trkpt>
      <trkpt lat="45.51244" lon="4.06086">
        <ele>618.75</ele>
        <time>2011-11-11T10:02:42Z</time>
      </trkpt>
      <trkpt lat="45.51244" lon="4.06084">
        <ele>618.75</ele>
        <time>2011-11-11T10:02:43Z</time>
      </trkpt>
      <trkpt lat="45.51253" lon="4.06046">
        <ele>620.67</ele>
        <time>2011-11-11T10:02:59Z</time>
      </trkpt>
      <trkpt lat="45.51264" lon="4.06001">
        <ele>619.23</ele>
        <time>2011-11-11T10:03:11Z</time>
      </trkpt>
      <trkpt lat="45.51274" lon="4.05946">
        <ele>621.63</ele>
        <time>2011-11-11T10:03:23Z</time>
      </trkpt>
      <trkpt lat="45.51275" lon="4.0594">
        <ele>621.63</ele>
        <time>2011-11-11T10:03:24Z</time>
      </trkpt>
      <trkpt lat="45.51279" lon="4.05921">
        <ele>621.15</ele>
        <time>2011-11-11T10:03:27Z</time>
      </trkpt>
      <trkpt lat="45.51281" lon="4.05914">
        <ele>621.15</ele>
        <time>2011-11-11T10:03:28Z</time>
      </trkpt>
      <trkpt lat="45.51288" lon="4.05889">
        <ele>620.67</ele>
        <time>2011-11-11T10:03:32Z</time>
      </trkpt>
      <trkpt lat="45.51299" lon="4.05819">
        <ele>622.11</ele>
        <time>2011-11-11T10:03:45Z</time>
      </trkpt>
      <trkpt lat="45.51303" lon="4.05759">
        <ele>622.59</ele>
        <time>2011-11-11T10:03:58Z</time>
      </trkpt>
      <trkpt lat="45.51293" lon="4.05716">
        <ele>625.47</ele>
        <time>2011-11-11T10:04:09Z</time>
      </trkpt>
      <trkpt lat="45.51291" lon="4.05673">
        <ele>627.88</ele>
        <time>2011-11-11T10:04:21Z</time>
      </trkpt>
      <trkpt lat="45.51291" lon="4.0563">
        <ele>630.28</ele>
        <time>2011-11-11T10:04:34Z</time>
      </trkpt>
      <trkpt lat="45.5128" lon="4.0559">
        <ele>634.61</ele>
        <time>2011-11-11T10:04:51Z</time>
      </trkpt>
      <trkpt lat="45.51254" lon="4.05562">
        <ele>637.01</ele>
        <time>2011-11-11T10:05:08Z</time>
      </trkpt>
      <trkpt lat="45.51228" lon="4.05533">
        <ele>640.86</ele>
        <time>2011-11-11T10:05:26Z</time>
      </trkpt>
      <trkpt lat="45.51212" lon="4.05507">
        <ele>644.7</ele>
        <time>2011-11-11T10:05:41Z</time>
      </trkpt>
      <trkpt lat="45.512" lon="4.05484">
        <ele>648.07</ele>
        <time>2011-11-11T10:05:53Z</time>
      </trkpt>
      <trkpt lat="45.51199" lon="4.05482">
        <ele>648.55</ele>
        <time>2011-11-11T10:05:54Z</time>
      </trkpt>
      <trkpt lat="45.51199" lon="4.0548">
        <ele>649.03</ele>
        <time>2011-11-11T10:05:55Z</time>
      </trkpt>
      <trkpt lat="45.51198" lon="4.05478">
        <ele>649.03</ele>
        <time>2011-11-11T10:05:56Z</time>
      </trkpt>
      <trkpt lat="45.51197" lon="4.05476">
        <ele>649.51</ele>
        <time>2011-11-11T10:05:57Z</time>
      </trkpt>
      <trkpt lat="45.51196" lon="4.05474">
        <ele>649.99</ele>
        <time>2011-11-11T10:05:58Z</time>
      </trkpt>
      <trkpt lat="45.51195" lon="4.05472">
        <ele>649.99</ele>
        <time>2011-11-11T10:05:59Z</time>
      </trkpt>
      <trkpt lat="45.51188" lon="4.05454">
        <ele>653.35</ele>
        <time>2011-11-11T10:06:08Z</time>
      </trkpt>
      <trkpt lat="45.51188" lon="4.05452">
        <ele>653.83</ele>
        <time>2011-11-11T10:06:09Z</time>
      </trkpt>
      <trkpt lat="45.5119" lon="4.05451">
        <ele>653.83</ele>
        <time>2011-11-11T10:06:10Z</time>
      </trkpt>
      <trkpt lat="45.51191" lon="4.0545">
        <ele>653.83</ele>
        <time>2011-11-11T10:06:11Z</time>
      </trkpt>
      <trkpt lat="45.51192" lon="4.0545">
        <ele>654.31</ele>
        <time>2011-11-11T10:06:12Z</time>
      </trkpt>
      <trkpt lat="45.51193" lon="4.05451">
        <ele>654.31</ele>
        <time>2011-11-11T10:06:13Z</time>
      </trkpt>
      <trkpt lat="45.51195" lon="4.05452">
        <ele>654.31</ele>
        <time>2011-11-11T10:06:14Z</time>
      </trkpt>
      <trkpt lat="45.51196" lon="4.05453">
        <ele>654.31</ele>
        <time>2011-11-11T10:06:15Z</time>
      </trkpt>
      <trkpt lat="45.51197" lon="4.05455">
        <ele>654.31</ele>
        <time>2011-11-11T10:06:16Z</time>
      </trkpt>
      <trkpt lat="45.51199" lon="4.05456">
        <ele>654.31</ele>
        <time>2011-11-11T10:06:17Z</time>
      </trkpt>
      <trkpt lat="45.512" lon="4.05456">
        <ele>654.31</ele>
        <time>2011-11-11T10:06:18Z</time>
      </trkpt>
      <trkpt lat="45.51202" lon="4.05456">
        <ele>654.31</ele>
        <time>2011-11-11T10:06:19Z</time>
      </trkpt>
      <trkpt lat="45.51203" lon="4.05455">
        <ele>654.31</ele>
        <time>2011-11-11T10:06:20Z</time>
      </trkpt>
      <trkpt lat="45.51205" lon="4.05453">
        <ele>654.31</ele>
        <time>2011-11-11T10:06:21Z</time>
      </trkpt>
      <trkpt lat="45.51206" lon="4.05451">
        <ele>654.31</ele>
        <time>2011-11-11T10:06:22Z</time>
      </trkpt>
      <trkpt lat="45.51207" lon="4.05449">
        <ele>654.31</ele>
        <time>2011-11-11T10:06:23Z</time>
      </trkpt>
      <trkpt lat="45.51208" lon="4.05447">
        <ele>654.8</ele>
        <time>2011-11-11T10:06:24Z</time>
      </trkpt>
      <trkpt lat="45.5121" lon="4.05446">
        <ele>654.8</ele>
        <time>2011-11-11T10:06:25Z</time>
      </trkpt>
      <trkpt lat="45.51211" lon="4.05444">
        <ele>655.28</ele>
        <time>2011-11-11T10:06:26Z</time>
      </trkpt>
      <trkpt lat="45.51212" lon="4.05442">
        <ele>655.76</ele>
        <time>2011-11-11T10:06:27Z</time>
      </trkpt>
      <trkpt lat="45.51217" lon="4.05436">
        <ele>656.72</ele>
        <time>2011-11-11T10:06:32Z</time>
      </trkpt>
      <trkpt lat="45.51218" lon="4.05435">
        <ele>656.72</ele>
        <time>2011-11-11T10:06:33Z</time>
      </trkpt>
      <trkpt lat="45.51219" lon="4.05434">
        <ele>656.72</ele>
        <time>2011-11-11T10:06:34Z</time>
      </trkpt>
      <trkpt lat="45.5122" lon="4.05434">
        <ele>657.2</ele>
        <time>2011-11-11T10:06:35Z</time>
      </trkpt>
      <trkpt lat="45.51229" lon="4.05427">
        <ele>659.12</ele>
        <time>2011-11-11T10:06:44Z</time>
      </trkpt>
      <trkpt lat="45.5123" lon="4.05427">
        <ele>659.6</ele>
        <time>2011-11-11T10:06:45Z</time>
      </trkpt>
      <trkpt lat="45.51231" lon="4.05426">
        <ele>659.6</ele>
        <time>2011-11-11T10:06:46Z</time>
      </trkpt>
      <trkpt lat="45.51232" lon="4.05425">
        <ele>660.08</ele>
        <time>2011-11-11T10:06:47Z</time>
      </trkpt>
      <trkpt lat="45.51232" lon="4.05424">
        <ele>660.08</ele>
        <time>2011-11-11T10:06:48Z</time>
      </trkpt>
      <trkpt lat="45.51233" lon="4.05423">
        <ele>660.56</ele>
        <time>2011-11-11T10:06:49Z</time>
      </trkpt>
      <trkpt lat="45.51235" lon="4.0542">
        <ele>661.04</ele>
        <time>2011-11-11T10:06:52Z</time>
      </trkpt>
      <trkpt lat="45.51236" lon="4.05418">
        <ele>661.52</ele>
        <time>2011-11-11T10:06:53Z</time>
      </trkpt>
      <trkpt lat="45.51239" lon="4.05415">
        <ele>662.01</ele>
        <time>2011-11-11T10:06:57Z</time>
      </trkpt>
      <trkpt lat="45.5124" lon="4.05415">
        <ele>662.49</ele>
        <time>2011-11-11T10:06:58Z</time>
      </trkpt>
      <trkpt lat="45.51242" lon="4.05413">
        <ele>663.45</ele>
        <time>2011-11-11T10:07:00Z</time>
      </trkpt>
      <trkpt lat="45.51242" lon="4.05413">
        <ele>663.93</ele>
        <time>2011-11-11T10:07:01Z</time>
      </trkpt>
      <trkpt lat="45.51243" lon="4.0541">
        <ele>664.89</ele>
        <time>2011-11-11T10:07:08Z</time>
      </trkpt>
      <trkpt lat="45.51244" lon="4.05408">
        <ele>665.37</ele>
        <time>2011-11-11T10:07:10Z</time>
      </trkpt>
      <trkpt lat="45.51251" lon="4.054">
        <ele>667.29</ele>
        <time>2011-11-11T10:07:22Z</time>
      </trkpt>
      <trkpt lat="45.51259" lon="4.05386">
        <ele>670.18</ele>
        <time>2011-11-11T10:07:38Z</time>
      </trkpt>
      <trkpt lat="45.51266" lon="4.05377">
        <ele>672.58</ele>
        <time>2011-11-11T10:07:49Z</time>
      </trkpt>
      <trkpt lat="45.51274" lon="4.05371">
        <ele>674.02</ele>
        <time>2011-11-11T10:08:03Z</time>
      </trkpt>
      <trkpt lat="45.51283" lon="4.05357">
        <ele>675.94</ele>
        <time>2011-11-11T10:08:14Z</time>
      </trkpt>
      <trkpt lat="45.51285" lon="4.05354">
        <ele>675.94</ele>
        <time>2011-11-11T10:08:16Z</time>
      </trkpt>
      <trkpt lat="45.51286" lon="4.05353">
        <ele>676.42</ele>
        <time>2011-11-11T10:08:17Z</time>
      </trkpt>
      <trkpt lat="45.51292" lon="4.05345">
        <ele>676.91</ele>
        <time>2011-11-11T10:08:23Z</time>
      </trkpt>
      <trkpt lat="45.51293" lon="4.05343">
        <ele>677.39</ele>
        <time>2011-11-11T10:08:24Z</time>
      </trkpt>
      <trkpt lat="45.5131" lon="4.05325">
        <ele>679.79</ele>
        <time>2011-11-11T10:08:39Z</time>
      </trkpt>
      <trkpt lat="45.51316" lon="4.05318">
        <ele>682.19</ele>
        <time>2011-11-11T10:08:45Z</time>
      </trkpt>
      <trkpt lat="45.51316" lon="4.05316">
        <ele>682.19</ele>
        <time>2011-11-11T10:08:46Z</time>
      </trkpt>
      <trkpt lat="45.51317" lon="4.05315">
        <ele>682.67</ele>
        <time>2011-11-11T10:08:47Z</time>
      </trkpt>
      <trkpt lat="45.51318" lon="4.05314">
        <ele>682.67</ele>
        <time>2011-11-11T10:08:48Z</time>
      </trkpt>
      <trkpt lat="45.51319" lon="4.05312">
        <ele>683.15</ele>
        <time>2011-11-11T10:08:49Z</time>
      </trkpt>
      <trkpt lat="45.5132" lon="4.05311">
        <ele>683.15</ele>
        <time>2011-11-11T10:08:50Z</time>
      </trkpt>
      <trkpt lat="45.51321" lon="4.0531">
        <ele>683.63</ele>
        <time>2011-11-11T10:08:51Z</time>
      </trkpt>
      <trkpt lat="45.51322" lon="4.05309">
        <ele>683.63</ele>
        <time>2011-11-11T10:08:52Z</time>
      </trkpt>
      <trkpt lat="45.51322" lon="4.05308">
        <ele>683.63</ele>
        <time>2011-11-11T10:08:53Z</time>
      </trkpt>
      <trkpt lat="45.51323" lon="4.05306">
        <ele>683.63</ele>
        <time>2011-11-11T10:08:54Z</time>
      </trkpt>
      <trkpt lat="45.51324" lon="4.05305">
        <ele>683.63</ele>
        <time>2011-11-11T10:08:55Z</time>
      </trkpt>
      <trkpt lat="45.51325" lon="4.05304">
        <ele>683.63</ele>
        <time>2011-11-11T10:08:56Z</time>
      </trkpt>
      <trkpt lat="45.51328" lon="4.05298">
        <ele>684.12</ele>
        <time>2011-11-11T10:09:00Z</time>
      </trkpt>
      <trkpt lat="45.51329" lon="4.05296">
        <ele>684.12</ele>
        <time>2011-11-11T10:09:01Z</time>
      </trkpt>
      <trkpt lat="45.5133" lon="4.05295">
        <ele>684.6</ele>
        <time>2011-11-11T10:09:02Z</time>
      </trkpt>
      <trkpt lat="45.51331" lon="4.05293">
        <ele>684.6</ele>
        <time>2011-11-11T10:09:03Z</time>
      </trkpt>
      <trkpt lat="45.51332" lon="4.05292">
        <ele>685.08</ele>
        <time>2011-11-11T10:09:04Z</time>
      </trkpt>
      <trkpt lat="45.51333" lon="4.0529">
        <ele>685.08</ele>
        <time>2011-11-11T10:09:05Z</time>
      </trkpt>
      <trkpt lat="45.51334" lon="4.05289">
        <ele>685.08</ele>
        <time>2011-11-11T10:09:06Z</time>
      </trkpt>
      <trkpt lat="45.51335" lon="4.05287">
        <ele>685.56</ele>
        <time>2011-11-11T10:09:07Z</time>
      </trkpt>
      <trkpt lat="45.51341" lon="4.05277">
        <ele>686.04</ele>
        <time>2011-11-11T10:09:14Z</time>
      </trkpt>
      <trkpt lat="45.51341" lon="4.05275">
        <ele>686.04</ele>
        <time>2011-11-11T10:09:15Z</time>
      </trkpt>
      <trkpt lat="45.51342" lon="4.05273">
        <ele>686.52</ele>
        <time>2011-11-11T10:09:16Z</time>
      </trkpt>
      <trkpt lat="45.51353" lon="4.05262">
        <ele>688.44</ele>
        <time>2011-11-11T10:09:26Z</time>
      </trkpt>
      <trkpt lat="45.51359" lon="4.05263">
        <ele>689.4</ele>
        <time>2011-11-11T10:09:30Z</time>
      </trkpt>
      <trkpt lat="45.51381" lon="4.05256">
        <ele>690.84</ele>
        <time>2011-11-11T10:09:45Z</time>
      </trkpt>
      <trkpt lat="45.51407" lon="4.05248">
        <ele>693.73</ele>
        <time>2011-11-11T10:10:01Z</time>
      </trkpt>
      <trkpt lat="45.51413" lon="4.05244">
        <ele>694.69</ele>
        <time>2011-11-11T10:10:05Z</time>
      </trkpt>
      <trkpt lat="45.51414" lon="4.0524">
        <ele>694.69</ele>
        <time>2011-11-11T10:10:07Z</time>
      </trkpt>
      <trkpt lat="45.51412" lon="4.05225">
        <ele>696.13</ele>
        <time>2011-11-11T10:10:13Z</time>
      </trkpt>
      <trkpt lat="45.51415" lon="4.05191">
        <ele>697.09</ele>
        <time>2011-11-11T10:10:27Z</time>
      </trkpt>
      <trkpt lat="45.51425" lon="4.0516">
        <ele>696.13</ele>
        <time>2011-11-11T10:10:38Z</time>
      </trkpt>
      <trkpt lat="45.51436" lon="4.0513">
        <ele>696.13</ele>
        <time>2011-11-11T10:10:47Z</time>
      </trkpt>
      <trkpt lat="45.51458" lon="4.05123">
        <ele>698.53</ele>
        <time>2011-11-11T10:10:58Z</time>
      </trkpt>
      <trkpt lat="45.51464" lon="4.05125">
        <ele>699.5</ele>
        <time>2011-11-11T10:11:01Z</time>
      </trkpt>
      <trkpt lat="45.51468" lon="4.05124">
        <ele>699.98</ele>
        <time>2011-11-11T10:11:03Z</time>
      </trkpt>
      <trkpt lat="45.51486" lon="4.05074">
        <ele>698.53</ele>
        <time>2011-11-11T10:11:19Z</time>
      </trkpt>
      <trkpt lat="45.51486" lon="4.05061">
        <ele>698.05</ele>
        <time>2011-11-11T10:11:21Z</time>
      </trkpt>
      <trkpt lat="45.51488" lon="4.04997">
        <ele>695.17</ele>
        <time>2011-11-11T10:11:29Z</time>
      </trkpt>
      <trkpt lat="45.5149" lon="4.04989">
        <ele>694.69</ele>
        <time>2011-11-11T10:11:30Z</time>
      </trkpt>
      <trkpt lat="45.51494" lon="4.04981">
        <ele>693.73</ele>
        <time>2011-11-11T10:11:31Z</time>
      </trkpt>
      <trkpt lat="45.51499" lon="4.04973">
        <ele>693.25</ele>
        <time>2011-11-11T10:11:32Z</time>
      </trkpt>
      <trkpt lat="45.51504" lon="4.04966">
        <ele>692.29</ele>
        <time>2011-11-11T10:11:33Z</time>
      </trkpt>
      <trkpt lat="45.51521" lon="4.04941">
        <ele>688.92</ele>
        <time>2011-11-11T10:11:37Z</time>
      </trkpt>
      <trkpt lat="45.51528" lon="4.0493">
        <ele>687.48</ele>
        <time>2011-11-11T10:11:39Z</time>
      </trkpt>
      <trkpt lat="45.51532" lon="4.04927">
        <ele>686.52</ele>
        <time>2011-11-11T10:11:40Z</time>
      </trkpt>
      <trkpt lat="45.51537" lon="4.04926">
        <ele>686.52</ele>
        <time>2011-11-11T10:11:41Z</time>
      </trkpt>
      <trkpt lat="45.51568" lon="4.04931">
        <ele>687.96</ele>
        <time>2011-11-11T10:11:51Z</time>
      </trkpt>
      <trkpt lat="45.51598" lon="4.04927">
        <ele>691.81</ele>
        <time>2011-11-11T10:12:05Z</time>
      </trkpt>
      <trkpt lat="45.51634" lon="4.04916">
        <ele>694.69</ele>
        <time>2011-11-11T10:12:22Z</time>
      </trkpt>
      <trkpt lat="45.5166" lon="4.04911">
        <ele>698.05</ele>
        <time>2011-11-11T10:12:36Z</time>
      </trkpt>
      <trkpt lat="45.51684" lon="4.04909">
        <ele>700.94</ele>
        <time>2011-11-11T10:12:51Z</time>
      </trkpt>
      <trkpt lat="45.51706" lon="4.04906">
        <ele>705.75</ele>
        <time>2011-11-11T10:13:04Z</time>
      </trkpt>
      <trkpt lat="45.51707" lon="4.04906">
        <ele>705.75</ele>
        <time>2011-11-11T10:13:05Z</time>
      </trkpt>
      <trkpt lat="45.51709" lon="4.04906">
        <ele>706.23</ele>
        <time>2011-11-11T10:13:06Z</time>
      </trkpt>
      <trkpt lat="45.51711" lon="4.04906">
        <ele>706.23</ele>
        <time>2011-11-11T10:13:07Z</time>
      </trkpt>
      <trkpt lat="45.51713" lon="4.04906">
        <ele>706.71</ele>
        <time>2011-11-11T10:13:08Z</time>
      </trkpt>
      <trkpt lat="45.51715" lon="4.04906">
        <ele>706.71</ele>
        <time>2011-11-11T10:13:09Z</time>
      </trkpt>
      <trkpt lat="45.51717" lon="4.04905">
        <ele>707.19</ele>
        <time>2011-11-11T10:13:10Z</time>
      </trkpt>
      <trkpt lat="45.51742" lon="4.04899">
        <ele>710.55</ele>
        <time>2011-11-11T10:13:25Z</time>
      </trkpt>
      <trkpt lat="45.51756" lon="4.04896">
        <ele>711.99</ele>
        <time>2011-11-11T10:13:33Z</time>
      </trkpt>
      <trkpt lat="45.51757" lon="4.04894">
        <ele>712.47</ele>
        <time>2011-11-11T10:13:34Z</time>
      </trkpt>
      <trkpt lat="45.51757" lon="4.04891">
        <ele>712.47</ele>
        <time>2011-11-11T10:13:35Z</time>
      </trkpt>
      <trkpt lat="45.51757" lon="4.04888">
        <ele>712.95</ele>
        <time>2011-11-11T10:13:36Z</time>
      </trkpt>
      <trkpt lat="45.51757" lon="4.04886">
        <ele>712.95</ele>
        <time>2011-11-11T10:13:37Z</time>
      </trkpt>
      <trkpt lat="45.51758" lon="4.04876">
        <ele>713.44</ele>
        <time>2011-11-11T10:13:41Z</time>
      </trkpt>
      <trkpt lat="45.51759" lon="4.04874">
        <ele>713.44</ele>
        <time>2011-11-11T10:13:42Z</time>
      </trkpt>
      <trkpt lat="45.51758" lon="4.04838">
        <ele>715.84</ele>
        <time>2011-11-11T10:13:56Z</time>
      </trkpt>
      <trkpt lat="45.51758" lon="4.04814">
        <ele>717.28</ele>
        <time>2011-11-11T10:14:06Z</time>
      </trkpt>
      <trkpt lat="45.51758" lon="4.04811">
        <ele>717.28</ele>
        <time>2011-11-11T10:14:07Z</time>
      </trkpt>
      <trkpt lat="45.51759" lon="4.04809">
        <ele>717.76</ele>
        <time>2011-11-11T10:14:08Z</time>
      </trkpt>
      <trkpt lat="45.51762" lon="4.04796">
        <ele>718.72</ele>
        <time>2011-11-11T10:14:14Z</time>
      </trkpt>
      <trkpt lat="45.51762" lon="4.04793">
        <ele>718.24</ele>
        <time>2011-11-11T10:14:15Z</time>
      </trkpt>
      <trkpt lat="45.51761" lon="4.0479">
        <ele>718.72</ele>
        <time>2011-11-11T10:14:16Z</time>
      </trkpt>
      <trkpt lat="45.51761" lon="4.04787">
        <ele>718.72</ele>
        <time>2011-11-11T10:14:17Z</time>
      </trkpt>
      <trkpt lat="45.51761" lon="4.04784">
        <ele>718.72</ele>
        <time>2011-11-11T10:14:18Z</time>
      </trkpt>
      <trkpt lat="45.51761" lon="4.04782">
        <ele>718.72</ele>
        <time>2011-11-11T10:14:19Z</time>
      </trkpt>
      <trkpt lat="45.51761" lon="4.0478">
        <ele>718.72</ele>
        <time>2011-11-11T10:14:20Z</time>
      </trkpt>
      <trkpt lat="45.51761" lon="4.04777">
        <ele>718.72</ele>
        <time>2011-11-11T10:14:21Z</time>
      </trkpt>
      <trkpt lat="45.51758" lon="4.04766">
        <ele>718.72</ele>
        <time>2011-11-11T10:14:25Z</time>
      </trkpt>
      <trkpt lat="45.51758" lon="4.04763">
        <ele>718.72</ele>
        <time>2011-11-11T10:14:26Z</time>
      </trkpt>
      <trkpt lat="45.51757" lon="4.04757">
        <ele>719.68</ele>
        <time>2011-11-11T10:14:29Z</time>
      </trkpt>
      <trkpt lat="45.51757" lon="4.04755">
        <ele>720.16</ele>
        <time>2011-11-11T10:14:30Z</time>
      </trkpt>
      <trkpt lat="45.51757" lon="4.04753">
        <ele>720.65</ele>
        <time>2011-11-11T10:14:31Z</time>
      </trkpt>
      <trkpt lat="45.51757" lon="4.0475">
        <ele>720.65</ele>
        <time>2011-11-11T10:14:32Z</time>
      </trkpt>
      <trkpt lat="45.51756" lon="4.04748">
        <ele>721.13</ele>
        <time>2011-11-11T10:14:33Z</time>
      </trkpt>
      <trkpt lat="45.51755" lon="4.04745">
        <ele>721.61</ele>
        <time>2011-11-11T10:14:34Z</time>
      </trkpt>
      <trkpt lat="45.51755" lon="4.04742">
        <ele>722.09</ele>
        <time>2011-11-11T10:14:35Z</time>
      </trkpt>
      <trkpt lat="45.51756" lon="4.04739">
        <ele>722.57</ele>
        <time>2011-11-11T10:14:36Z</time>
      </trkpt>
      <trkpt lat="45.51756" lon="4.04737">
        <ele>722.57</ele>
        <time>2011-11-11T10:14:37Z</time>
      </trkpt>
      <trkpt lat="45.51755" lon="4.04734">
        <ele>722.57</ele>
        <time>2011-11-11T10:14:38Z</time>
      </trkpt>
      <trkpt lat="45.51747" lon="4.04696">
        <ele>726.41</ele>
        <time>2011-11-11T10:14:52Z</time>
      </trkpt>
      <trkpt lat="45.51748" lon="4.04666">
        <ele>726.41</ele>
        <time>2011-11-11T10:15:03Z</time>
      </trkpt>
      <trkpt lat="45.51749" lon="4.04665">
        <ele>726.41</ele>
        <time>2011-11-11T10:15:04Z</time>
      </trkpt>
      <trkpt lat="45.51751" lon="4.04663">
        <ele>726.89</ele>
        <time>2011-11-11T10:15:05Z</time>
      </trkpt>
      <trkpt lat="45.51752" lon="4.04662">
        <ele>726.89</ele>
        <time>2011-11-11T10:15:06Z</time>
      </trkpt>
      <trkpt lat="45.51754" lon="4.04661">
        <ele>726.89</ele>
        <time>2011-11-11T10:15:07Z</time>
      </trkpt>
      <trkpt lat="45.51784" lon="4.04647">
        <ele>725.93</ele>
        <time>2011-11-11T10:15:18Z</time>
      </trkpt>
      <trkpt lat="45.51816" lon="4.0463">
        <ele>726.41</ele>
        <time>2011-11-11T10:15:27Z</time>
      </trkpt>
      <trkpt lat="45.51818" lon="4.04626">
        <ele>726.41</ele>
        <time>2011-11-11T10:15:28Z</time>
      </trkpt>
      <trkpt lat="45.51819" lon="4.04622">
        <ele>726.89</ele>
        <time>2011-11-11T10:15:29Z</time>
      </trkpt>
      <trkpt lat="45.51821" lon="4.04618">
        <ele>726.89</ele>
        <time>2011-11-11T10:15:30Z</time>
      </trkpt>
      <trkpt lat="45.51822" lon="4.04614">
        <ele>726.89</ele>
        <time>2011-11-11T10:15:31Z</time>
      </trkpt>
      <trkpt lat="45.51823" lon="4.04611">
        <ele>726.89</ele>
        <time>2011-11-11T10:15:32Z</time>
      </trkpt>
      <trkpt lat="45.51833" lon="4.04562">
        <ele>726.89</ele>
        <time>2011-11-11T10:15:44Z</time>
      </trkpt>
      <trkpt lat="45.51839" lon="4.04535">
        <ele>726.89</ele>
        <time>2011-11-11T10:15:52Z</time>
      </trkpt>
      <trkpt lat="45.51839" lon="4.04531">
        <ele>726.89</ele>
        <time>2011-11-11T10:15:53Z</time>
      </trkpt>
      <trkpt lat="45.5184" lon="4.04528">
        <ele>727.37</ele>
        <time>2011-11-11T10:15:54Z</time>
      </trkpt>
      <trkpt lat="45.51841" lon="4.04524">
        <ele>727.37</ele>
        <time>2011-11-11T10:15:55Z</time>
      </trkpt>
      <trkpt lat="45.51842" lon="4.0452">
        <ele>727.37</ele>
        <time>2011-11-11T10:15:56Z</time>
      </trkpt>
      <trkpt lat="45.51843" lon="4.04516">
        <ele>727.37</ele>
        <time>2011-11-11T10:15:57Z</time>
      </trkpt>
      <trkpt lat="45.51844" lon="4.04512">
        <ele>726.89</ele>
        <time>2011-11-11T10:15:58Z</time>
      </trkpt>
      <trkpt lat="45.51853" lon="4.04471">
        <ele>725.93</ele>
        <time>2011-11-11T10:16:08Z</time>
      </trkpt>
      <trkpt lat="45.51862" lon="4.04423">
        <ele>725.93</ele>
        <time>2011-11-11T10:16:20Z</time>
      </trkpt>
      <trkpt lat="45.51869" lon="4.04391">
        <ele>725.93</ele>
        <time>2011-11-11T10:16:28Z</time>
      </trkpt>
      <trkpt lat="45.51892" lon="4.04349">
        <ele>726.89</ele>
        <time>2011-11-11T10:16:41Z</time>
      </trkpt>
      <trkpt lat="45.51915" lon="4.04312">
        <ele>728.34</ele>
        <time>2011-11-11T10:16:54Z</time>
      </trkpt>
      <trkpt lat="45.51917" lon="4.0431">
        <ele>728.82</ele>
        <time>2011-11-11T10:16:55Z</time>
      </trkpt>
      <trkpt lat="45.51919" lon="4.04308">
        <ele>729.3</ele>
        <time>2011-11-11T10:16:56Z</time>
      </trkpt>
      <trkpt lat="45.51921" lon="4.04306">
        <ele>729.78</ele>
        <time>2011-11-11T10:16:57Z</time>
      </trkpt>
      <trkpt lat="45.51921" lon="4.04304">
        <ele>730.26</ele>
        <time>2011-11-11T10:16:58Z</time>
      </trkpt>
      <trkpt lat="45.51921" lon="4.043">
        <ele>730.74</ele>
        <time>2011-11-11T10:16:59Z</time>
      </trkpt>
      <trkpt lat="45.51923" lon="4.04293">
        <ele>732.18</ele>
        <time>2011-11-11T10:17:02Z</time>
      </trkpt>
      <trkpt lat="45.51924" lon="4.04291">
        <ele>732.66</ele>
        <time>2011-11-11T10:17:03Z</time>
      </trkpt>
      <trkpt lat="45.51923" lon="4.04288">
        <ele>732.66</ele>
        <time>2011-11-11T10:17:04Z</time>
      </trkpt>
      <trkpt lat="45.51923" lon="4.04286">
        <ele>732.66</ele>
        <time>2011-11-11T10:17:05Z</time>
      </trkpt>
      <trkpt lat="45.51922" lon="4.04283">
        <ele>732.18</ele>
        <time>2011-11-11T10:17:06Z</time>
      </trkpt>
      <trkpt lat="45.51921" lon="4.0428">
        <ele>732.18</ele>
        <time>2011-11-11T10:17:07Z</time>
      </trkpt>
      <trkpt lat="45.5192" lon="4.04277">
        <ele>732.18</ele>
        <time>2011-11-11T10:17:08Z</time>
      </trkpt>
      <trkpt lat="45.51919" lon="4.04273">
        <ele>732.18</ele>
        <time>2011-11-11T10:17:09Z</time>
      </trkpt>
      <trkpt lat="45.51918" lon="4.04268">
        <ele>731.7</ele>
        <time>2011-11-11T10:17:10Z</time>
      </trkpt>
      <trkpt lat="45.51917" lon="4.04262">
        <ele>731.7</ele>
        <time>2011-11-11T10:17:11Z</time>
      </trkpt>
      <trkpt lat="45.51917" lon="4.04256">
        <ele>731.22</ele>
        <time>2011-11-11T10:17:12Z</time>
      </trkpt>
      <trkpt lat="45.51916" lon="4.04242">
        <ele>730.26</ele>
        <time>2011-11-11T10:17:14Z</time>
      </trkpt>
      <trkpt lat="45.51915" lon="4.04227">
        <ele>729.78</ele>
        <time>2011-11-11T10:17:16Z</time>
      </trkpt>
      <trkpt lat="45.51915" lon="4.0422">
        <ele>729.3</ele>
        <time>2011-11-11T10:17:17Z</time>
      </trkpt>
      <trkpt lat="45.51916" lon="4.04213">
        <ele>729.3</ele>
        <time>2011-11-11T10:17:18Z</time>
      </trkpt>
      <trkpt lat="45.51917" lon="4.04207">
        <ele>729.3</ele>
        <time>2011-11-11T10:17:19Z</time>
      </trkpt>
      <trkpt lat="45.51917" lon="4.042">
        <ele>729.3</ele>
        <time>2011-11-11T10:17:20Z</time>
      </trkpt>
      <trkpt lat="45.51921" lon="4.04182">
        <ele>728.82</ele>
        <time>2011-11-11T10:17:23Z</time>
      </trkpt>
      <trkpt lat="45.51923" lon="4.04177">
        <ele>728.82</ele>
        <time>2011-11-11T10:17:24Z</time>
      </trkpt>
      <trkpt lat="45.51924" lon="4.04171">
        <ele>728.82</ele>
        <time>2011-11-11T10:17:25Z</time>
      </trkpt>
      <trkpt lat="45.51926" lon="4.04166">
        <ele>728.34</ele>
        <time>2011-11-11T10:17:26Z</time>
      </trkpt>
      <trkpt lat="45.51928" lon="4.0416">
        <ele>728.34</ele>
        <time>2011-11-11T10:17:27Z</time>
      </trkpt>
      <trkpt lat="45.51929" lon="4.04155">
        <ele>727.86</ele>
        <time>2011-11-11T10:17:28Z</time>
      </trkpt>
      <trkpt lat="45.51933" lon="4.04145">
        <ele>727.37</ele>
        <time>2011-11-11T10:17:30Z</time>
      </trkpt>
      <trkpt lat="45.51941" lon="4.04124">
        <ele>726.41</ele>
        <time>2011-11-11T10:17:34Z</time>
      </trkpt>
      <trkpt lat="45.51943" lon="4.04118">
        <ele>726.41</ele>
        <time>2011-11-11T10:17:35Z</time>
      </trkpt>
      <trkpt lat="45.51946" lon="4.04112">
        <ele>725.93</ele>
        <time>2011-11-11T10:17:36Z</time>
      </trkpt>
      <trkpt lat="45.51976" lon="4.0405">
        <ele>724.97</ele>
        <time>2011-11-11T10:17:45Z</time>
      </trkpt>
      <trkpt lat="45.5198" lon="4.04042">
        <ele>724.49</ele>
        <time>2011-11-11T10:17:46Z</time>
      </trkpt>
      <trkpt lat="45.52013" lon="4.03979">
        <ele>722.57</ele>
        <time>2011-11-11T10:17:54Z</time>
      </trkpt>
      <trkpt lat="45.52017" lon="4.03971">
        <ele>722.57</ele>
        <time>2011-11-11T10:17:55Z</time>
      </trkpt>
      <trkpt lat="45.52019" lon="4.03962">
        <ele>722.57</ele>
        <time>2011-11-11T10:17:56Z</time>
      </trkpt>
      <trkpt lat="45.52022" lon="4.03952">
        <ele>722.09</ele>
        <time>2011-11-11T10:17:57Z</time>
      </trkpt>
      <trkpt lat="45.52023" lon="4.03943">
        <ele>722.09</ele>
        <time>2011-11-11T10:17:58Z</time>
      </trkpt>
      <trkpt lat="45.52028" lon="4.03864">
        <ele>721.61</ele>
        <time>2011-11-11T10:18:06Z</time>
      </trkpt>
      <trkpt lat="45.52026" lon="4.03855">
        <ele>721.61</ele>
        <time>2011-11-11T10:18:07Z</time>
      </trkpt>
      <trkpt lat="45.52021" lon="4.03831">
        <ele>722.09</ele>
        <time>2011-11-11T10:18:10Z</time>
      </trkpt>
      <trkpt lat="45.52019" lon="4.03825">
        <ele>722.09</ele>
        <time>2011-11-11T10:18:11Z</time>
      </trkpt>
      <trkpt lat="45.52016" lon="4.03819">
        <ele>722.57</ele>
        <time>2011-11-11T10:18:12Z</time>
      </trkpt>
      <trkpt lat="45.52015" lon="4.03814">
        <ele>722.57</ele>
        <time>2011-11-11T10:18:13Z</time>
      </trkpt>
      <trkpt lat="45.52013" lon="4.03811">
        <ele>722.57</ele>
        <time>2011-11-11T10:18:14Z</time>
      </trkpt>
      <trkpt lat="45.52011" lon="4.03811">
        <ele>722.57</ele>
        <time>2011-11-11T10:18:15Z</time>
      </trkpt>
      <trkpt lat="45.5201" lon="4.0381">
        <ele>722.57</ele>
        <time>2011-11-11T10:18:16Z</time>
      </trkpt>
      <trkpt lat="45.52008" lon="4.03809">
        <ele>722.57</ele>
        <time>2011-11-11T10:18:17Z</time>
      </trkpt>
      <trkpt lat="45.52005" lon="4.03806">
        <ele>722.57</ele>
        <time>2011-11-11T10:18:18Z</time>
      </trkpt>
      <trkpt lat="45.52003" lon="4.03802">
        <ele>722.09</ele>
        <time>2011-11-11T10:18:19Z</time>
      </trkpt>
      <trkpt lat="45.52002" lon="4.03797">
        <ele>722.09</ele>
        <time>2011-11-11T10:18:20Z</time>
      </trkpt>
      <trkpt lat="45.52" lon="4.03792">
        <ele>722.09</ele>
        <time>2011-11-11T10:18:21Z</time>
      </trkpt>
      <trkpt lat="45.51998" lon="4.03787">
        <ele>722.09</ele>
        <time>2011-11-11T10:18:22Z</time>
      </trkpt>
      <trkpt lat="45.51995" lon="4.03783">
        <ele>722.09</ele>
        <time>2011-11-11T10:18:23Z</time>
      </trkpt>
      <trkpt lat="45.51993" lon="4.03778">
        <ele>722.09</ele>
        <time>2011-11-11T10:18:24Z</time>
      </trkpt>
      <trkpt lat="45.5197" lon="4.03731">
        <ele>722.09</ele>
        <time>2011-11-11T10:18:34Z</time>
      </trkpt>
      <trkpt lat="45.51968" lon="4.03725">
        <ele>721.61</ele>
        <time>2011-11-11T10:18:35Z</time>
      </trkpt>
      <trkpt lat="45.51966" lon="4.03718">
        <ele>721.13</ele>
        <time>2011-11-11T10:18:36Z</time>
      </trkpt>
      <trkpt lat="45.51964" lon="4.0371">
        <ele>720.65</ele>
        <time>2011-11-11T10:18:37Z</time>
      </trkpt>
      <trkpt lat="45.51962" lon="4.03702">
        <ele>720.16</ele>
        <time>2011-11-11T10:18:38Z</time>
      </trkpt>
      <trkpt lat="45.5196" lon="4.03694">
        <ele>719.68</ele>
        <time>2011-11-11T10:18:39Z</time>
      </trkpt>
      <trkpt lat="45.51957" lon="4.03686">
        <ele>719.2</ele>
        <time>2011-11-11T10:18:40Z</time>
      </trkpt>
      <trkpt lat="45.5195" lon="4.03662">
        <ele>718.72</ele>
        <time>2011-11-11T10:18:43Z</time>
      </trkpt>
      <trkpt lat="45.51941" lon="4.03639">
        <ele>717.76</ele>
        <time>2011-11-11T10:18:46Z</time>
      </trkpt>
      <trkpt lat="45.51937" lon="4.03632">
        <ele>716.8</ele>
        <time>2011-11-11T10:18:47Z</time>
      </trkpt>
      <trkpt lat="45.51919" lon="4.03605">
        <ele>714.88</ele>
        <time>2011-11-11T10:18:51Z</time>
      </trkpt>
      <trkpt lat="45.51893" lon="4.03569">
        <ele>712.95</ele>
        <time>2011-11-11T10:18:57Z</time>
      </trkpt>
      <trkpt lat="45.51891" lon="4.03562">
        <ele>712.47</ele>
        <time>2011-11-11T10:18:58Z</time>
      </trkpt>
      <trkpt lat="45.51888" lon="4.03554">
        <ele>711.99</ele>
        <time>2011-11-11T10:18:59Z</time>
      </trkpt>
      <trkpt lat="45.51886" lon="4.03546">
        <ele>711.51</ele>
        <time>2011-11-11T10:19:00Z</time>
      </trkpt>
      <trkpt lat="45.51882" lon="4.03539">
        <ele>711.03</ele>
        <time>2011-11-11T10:19:01Z</time>
      </trkpt>
      <trkpt lat="45.51877" lon="4.03533">
        <ele>710.55</ele>
        <time>2011-11-11T10:19:02Z</time>
      </trkpt>
      <trkpt lat="45.51871" lon="4.03527">
        <ele>710.07</ele>
        <time>2011-11-11T10:19:03Z</time>
      </trkpt>
      <trkpt lat="45.51865" lon="4.03523">
        <ele>709.59</ele>
        <time>2011-11-11T10:19:04Z</time>
      </trkpt>
      <trkpt lat="45.51858" lon="4.03519">
        <ele>709.11</ele>
        <time>2011-11-11T10:19:05Z</time>
      </trkpt>
      <trkpt lat="45.51839" lon="4.03509">
        <ele>707.67</ele>
        <time>2011-11-11T10:19:08Z</time>
      </trkpt>
      <trkpt lat="45.51834" lon="4.03504">
        <ele>707.19</ele>
        <time>2011-11-11T10:19:09Z</time>
      </trkpt>
      <trkpt lat="45.5183" lon="4.03498">
        <ele>706.71</ele>
        <time>2011-11-11T10:19:10Z</time>
      </trkpt>
      <trkpt lat="45.51781" lon="4.03422">
        <ele>704.3</ele>
        <time>2011-11-11T10:19:23Z</time>
      </trkpt>
      <trkpt lat="45.51778" lon="4.03417">
        <ele>704.3</ele>
        <time>2011-11-11T10:19:24Z</time>
      </trkpt>
      <trkpt lat="45.51762" lon="4.0338">
        <ele>702.86</ele>
        <time>2011-11-11T10:19:30Z</time>
      </trkpt>
      <trkpt lat="45.51759" lon="4.03372">
        <ele>702.38</ele>
        <time>2011-11-11T10:19:31Z</time>
      </trkpt>
      <trkpt lat="45.51754" lon="4.03365">
        <ele>701.9</ele>
        <time>2011-11-11T10:19:32Z</time>
      </trkpt>
      <trkpt lat="45.51749" lon="4.03359">
        <ele>701.42</ele>
        <time>2011-11-11T10:19:33Z</time>
      </trkpt>
      <trkpt lat="45.51744" lon="4.03352">
        <ele>700.46</ele>
        <time>2011-11-11T10:19:34Z</time>
      </trkpt>
      <trkpt lat="45.51737" lon="4.03347">
        <ele>699.98</ele>
        <time>2011-11-11T10:19:35Z</time>
      </trkpt>
      <trkpt lat="45.5173" lon="4.03343">
        <ele>699.02</ele>
        <time>2011-11-11T10:19:36Z</time>
      </trkpt>
      <trkpt lat="45.51695" lon="4.03323">
        <ele>695.17</ele>
        <time>2011-11-11T10:19:41Z</time>
      </trkpt>
      <trkpt lat="45.5169" lon="4.03319">
        <ele>694.69</ele>
        <time>2011-11-11T10:19:42Z</time>
      </trkpt>
      <trkpt lat="45.51682" lon="4.0331">
        <ele>693.25</ele>
        <time>2011-11-11T10:19:44Z</time>
      </trkpt>
      <trkpt lat="45.51681" lon="4.03304">
        <ele>692.29</ele>
        <time>2011-11-11T10:19:45Z</time>
      </trkpt>
      <trkpt lat="45.5168" lon="4.03297">
        <ele>691.81</ele>
        <time>2011-11-11T10:19:46Z</time>
      </trkpt>
      <trkpt lat="45.51681" lon="4.0329">
        <ele>690.84</ele>
        <time>2011-11-11T10:19:47Z</time>
      </trkpt>
      <trkpt lat="45.51683" lon="4.03282">
        <ele>689.88</ele>
        <time>2011-11-11T10:19:48Z</time>
      </trkpt>
      <trkpt lat="45.51686" lon="4.03274">
        <ele>688.92</ele>
        <time>2011-11-11T10:19:49Z</time>
      </trkpt>
      <trkpt lat="45.51693" lon="4.03253">
        <ele>686.52</ele>
        <time>2011-11-11T10:19:52Z</time>
      </trkpt>
      <trkpt lat="45.51694" lon="4.03245">
        <ele>685.56</ele>
        <time>2011-11-11T10:19:53Z</time>
      </trkpt>
      <trkpt lat="45.51698" lon="4.03216">
        <ele>681.71</ele>
        <time>2011-11-11T10:19:57Z</time>
      </trkpt>
      <trkpt lat="45.517" lon="4.03187">
        <ele>677.39</ele>
        <time>2011-11-11T10:20:01Z</time>
      </trkpt>
      <trkpt lat="45.51705" lon="4.03175">
        <ele>675.94</ele>
        <time>2011-11-11T10:20:03Z</time>
      </trkpt>
      <trkpt lat="45.51708" lon="4.0317">
        <ele>675.46</ele>
        <time>2011-11-11T10:20:04Z</time>
      </trkpt>
      <trkpt lat="45.51711" lon="4.03165">
        <ele>674.98</ele>
        <time>2011-11-11T10:20:05Z</time>
      </trkpt>
      <trkpt lat="45.51715" lon="4.03157">
        <ele>674.02</ele>
        <time>2011-11-11T10:20:07Z</time>
      </trkpt>
      <trkpt lat="45.51717" lon="4.03156">
        <ele>673.54</ele>
        <time>2011-11-11T10:20:08Z</time>
      </trkpt>
      <trkpt lat="45.51719" lon="4.03152">
        <ele>673.06</ele>
        <time>2011-11-11T10:20:10Z</time>
      </trkpt>
      <trkpt lat="45.51712" lon="4.0314">
        <ele>674.5</ele>
        <time>2011-11-11T10:20:20Z</time>
      </trkpt>
      <trkpt lat="45.51711" lon="4.03132">
        <ele>674.02</ele>
        <time>2011-11-11T10:20:28Z</time>
      </trkpt>
      <trkpt lat="45.51712" lon="4.03126">
        <ele>673.54</ele>
        <time>2011-11-11T10:20:40Z</time>
      </trkpt>
      <trkpt lat="45.51712" lon="4.03118">
        <ele>674.02</ele>
        <time>2011-11-11T10:20:44Z</time>
      </trkpt>
      <trkpt lat="45.51704" lon="4.03104">
        <ele>676.42</ele>
        <time>2011-11-11T10:20:54Z</time>
      </trkpt>
      <trkpt lat="45.51703" lon="4.03099">
        <ele>676.91</ele>
        <time>2011-11-11T10:21:01Z</time>
      </trkpt>
      <trkpt lat="45.51693" lon="4.03087">
        <ele>680.27</ele>
        <time>2011-11-11T10:21:14Z</time>
      </trkpt>
      <trkpt lat="45.5168" lon="4.03083">
        <ele>684.6</ele>
        <time>2011-11-11T10:21:26Z</time>
      </trkpt>
      <trkpt lat="45.51664" lon="4.03088">
        <ele>688.92</ele>
        <time>2011-11-11T10:21:40Z</time>
      </trkpt>
      <trkpt lat="45.51659" lon="4.03088">
        <ele>689.4</ele>
        <time>2011-11-11T10:21:45Z</time>
      </trkpt>
      <trkpt lat="45.51657" lon="4.03081">
        <ele>689.4</ele>
        <time>2011-11-11T10:21:50Z</time>
      </trkpt>
      <trkpt lat="45.51658" lon="4.03073">
        <ele>689.88</ele>
        <time>2011-11-11T10:21:54Z</time>
      </trkpt>
      <trkpt lat="45.51658" lon="4.03054">
        <ele>692.29</ele>
        <time>2011-11-11T10:22:04Z</time>
      </trkpt>
      <trkpt lat="45.51659" lon="4.03052">
        <ele>692.77</ele>
        <time>2011-11-11T10:22:05Z</time>
      </trkpt>
      <trkpt lat="45.51664" lon="4.03032">
        <ele>692.77</ele>
        <time>2011-11-11T10:22:16Z</time>
      </trkpt>
      <trkpt lat="45.51671" lon="4.03018">
        <ele>694.21</ele>
        <time>2011-11-11T10:22:24Z</time>
      </trkpt>
      <trkpt lat="45.51674" lon="4.03011">
        <ele>693.73</ele>
        <time>2011-11-11T10:22:28Z</time>
      </trkpt>
      <trkpt lat="45.51687" lon="4.02983">
        <ele>696.13</ele>
        <time>2011-11-11T10:22:43Z</time>
      </trkpt>
      <trkpt lat="45.51696" lon="4.02958">
        <ele>696.61</ele>
        <time>2011-11-11T10:22:56Z</time>
      </trkpt>
      <trkpt lat="45.51698" lon="4.02945">
        <ele>697.09</ele>
        <time>2011-11-11T10:23:01Z</time>
      </trkpt>
      <trkpt lat="45.51709" lon="4.02905">
        <ele>701.42</ele>
        <time>2011-11-11T10:23:17Z</time>
      </trkpt>
      <trkpt lat="45.51712" lon="4.02896">
        <ele>701.9</ele>
        <time>2011-11-11T10:23:21Z</time>
      </trkpt>
      <trkpt lat="45.51718" lon="4.02887">
        <ele>703.82</ele>
        <time>2011-11-11T10:23:26Z</time>
      </trkpt>
      <trkpt lat="45.51719" lon="4.02875">
        <ele>705.75</ele>
        <time>2011-11-11T10:23:34Z</time>
      </trkpt>
      <trkpt lat="45.51711" lon="4.02863">
        <ele>708.15</ele>
        <time>2011-11-11T10:23:42Z</time>
      </trkpt>
      <trkpt lat="45.51708" lon="4.02857">
        <ele>708.63</ele>
        <time>2011-11-11T10:23:45Z</time>
      </trkpt>
      <trkpt lat="45.51702" lon="4.02835">
        <ele>709.59</ele>
        <time>2011-11-11T10:23:54Z</time>
      </trkpt>
      <trkpt lat="45.51697" lon="4.02808">
        <ele>710.55</ele>
        <time>2011-11-11T10:24:06Z</time>
      </trkpt>
      <trkpt lat="45.51689" lon="4.02779">
        <ele>712.47</ele>
        <time>2011-11-11T10:24:19Z</time>
      </trkpt>
      <trkpt lat="45.51682" lon="4.0275">
        <ele>714.88</ele>
        <time>2011-11-11T10:24:33Z</time>
      </trkpt>
      <trkpt lat="45.51679" lon="4.0274">
        <ele>715.84</ele>
        <time>2011-11-11T10:24:38Z</time>
      </trkpt>
      <trkpt lat="45.51671" lon="4.02714">
        <ele>716.8</ele>
        <time>2011-11-11T10:24:53Z</time>
      </trkpt>
      <trkpt lat="45.51662" lon="4.02688">
        <ele>720.65</ele>
        <time>2011-11-11T10:25:07Z</time>
      </trkpt>
      <trkpt lat="45.51651" lon="4.02655">
        <ele>724.01</ele>
        <time>2011-11-11T10:25:26Z</time>
      </trkpt>
      <trkpt lat="45.51642" lon="4.02626">
        <ele>727.86</ele>
        <time>2011-11-11T10:25:42Z</time>
      </trkpt>
      <trkpt lat="45.51634" lon="4.02602">
        <ele>729.78</ele>
        <time>2011-11-11T10:25:55Z</time>
      </trkpt>
      <trkpt lat="45.51619" lon="4.02591">
        <ele>732.66</ele>
        <time>2011-11-11T10:26:07Z</time>
      </trkpt>
      <trkpt lat="45.51615" lon="4.02564">
        <ele>736.51</ele>
        <time>2011-11-11T10:26:19Z</time>
      </trkpt>
      <trkpt lat="45.51618" lon="4.02536">
        <ele>738.43</ele>
        <time>2011-11-11T10:26:32Z</time>
      </trkpt>
      <trkpt lat="45.51625" lon="4.02503">
        <ele>738.91</ele>
        <time>2011-11-11T10:26:44Z</time>
      </trkpt>
      <trkpt lat="45.51632" lon="4.02468">
        <ele>740.83</ele>
        <time>2011-11-11T10:26:57Z</time>
      </trkpt>
      <trkpt lat="45.51637" lon="4.02431">
        <ele>742.28</ele>
        <time>2011-11-11T10:27:12Z</time>
      </trkpt>
      <trkpt lat="45.51641" lon="4.02401">
        <ele>745.16</ele>
        <time>2011-11-11T10:27:25Z</time>
      </trkpt>
      <trkpt lat="45.51643" lon="4.02392">
        <ele>746.12</ele>
        <time>2011-11-11T10:27:29Z</time>
      </trkpt>
      <trkpt lat="45.5165" lon="4.02372">
        <ele>748.04</ele>
        <time>2011-11-11T10:27:41Z</time>
      </trkpt>
      <trkpt lat="45.51651" lon="4.02371">
        <ele>748.04</ele>
        <time>2011-11-11T10:27:42Z</time>
      </trkpt>
      <trkpt lat="45.51652" lon="4.02368">
        <ele>748.04</ele>
        <time>2011-11-11T10:27:44Z</time>
      </trkpt>
      <trkpt lat="45.51655" lon="4.02354">
        <ele>749.97</ele>
        <time>2011-11-11T10:27:52Z</time>
      </trkpt>
      <trkpt lat="45.51656" lon="4.02352">
        <ele>750.45</ele>
        <time>2011-11-11T10:27:54Z</time>
      </trkpt>
      <trkpt lat="45.51656" lon="4.02348">
        <ele>751.41</ele>
        <time>2011-11-11T10:27:56Z</time>
      </trkpt>
      <trkpt lat="45.51657" lon="4.02346">
        <ele>751.89</ele>
        <time>2011-11-11T10:27:58Z</time>
      </trkpt>
      <trkpt lat="45.5166" lon="4.02333">
        <ele>754.29</ele>
        <time>2011-11-11T10:28:05Z</time>
      </trkpt>
      <trkpt lat="45.51666" lon="4.02326">
        <ele>755.25</ele>
        <time>2011-11-11T10:28:11Z</time>
      </trkpt>
      <trkpt lat="45.5167" lon="4.0231">
        <ele>754.77</ele>
        <time>2011-11-11T10:28:19Z</time>
      </trkpt>
      <trkpt lat="45.5167" lon="4.02303">
        <ele>754.77</ele>
        <time>2011-11-11T10:28:23Z</time>
      </trkpt>
      <trkpt lat="45.51668" lon="4.02299">
        <ele>755.25</ele>
        <time>2011-11-11T10:28:26Z</time>
      </trkpt>
      <trkpt lat="45.51668" lon="4.02291">
        <ele>755.25</ele>
        <time>2011-11-11T10:28:30Z</time>
      </trkpt>
      <trkpt lat="45.51669" lon="4.02284">
        <ele>755.25</ele>
        <time>2011-11-11T10:28:34Z</time>
      </trkpt>
      <trkpt lat="45.51669" lon="4.02277">
        <ele>753.33</ele>
        <time>2011-11-11T10:28:39Z</time>
      </trkpt>
      <trkpt lat="45.5167" lon="4.0227">
        <ele>752.37</ele>
        <time>2011-11-11T10:28:43Z</time>
      </trkpt>
      <trkpt lat="45.51672" lon="4.02268">
        <ele>752.85</ele>
        <time>2011-11-11T10:28:45Z</time>
      </trkpt>
      <trkpt lat="45.51668" lon="4.0225">
        <ele>756.69</ele>
        <time>2011-11-11T10:28:53Z</time>
      </trkpt>
      <trkpt lat="45.51664" lon="4.02245">
        <ele>758.14</ele>
        <time>2011-11-11T10:28:57Z</time>
      </trkpt>
      <trkpt lat="45.5166" lon="4.02247">
        <ele>759.58</ele>
        <time>2011-11-11T10:29:06Z</time>
      </trkpt>
      <trkpt lat="45.51647" lon="4.0225">
        <ele>760.54</ele>
        <time>2011-11-11T10:29:19Z</time>
      </trkpt>
      <trkpt lat="45.51642" lon="4.02249">
        <ele>761.02</ele>
        <time>2011-11-11T10:29:25Z</time>
      </trkpt>
      <trkpt lat="45.5164" lon="4.02248">
        <ele>761.02</ele>
        <time>2011-11-11T10:29:38Z</time>
      </trkpt>
      <trkpt lat="45.51634" lon="4.02251">
        <ele>761.02</ele>
        <time>2011-11-11T10:29:46Z</time>
      </trkpt>
      <trkpt lat="45.51624" lon="4.02253">
        <ele>759.58</ele>
        <time>2011-11-11T10:29:51Z</time>
      </trkpt>
      <trkpt lat="45.51613" lon="4.02257">
        <ele>759.1</ele>
        <time>2011-11-11T10:29:58Z</time>
      </trkpt>
      <trkpt lat="45.51604" lon="4.02255">
        <ele>760.54</ele>
        <time>2011-11-11T10:30:03Z</time>
      </trkpt>
      <trkpt lat="45.51592" lon="4.02254">
        <ele>761.02</ele>
        <time>2011-11-11T10:30:10Z</time>
      </trkpt>
      <trkpt lat="45.51584" lon="4.0225">
        <ele>760.54</ele>
        <time>2011-11-11T10:30:16Z</time>
      </trkpt>
      <trkpt lat="45.51566" lon="4.0225">
        <ele>763.42</ele>
        <time>2011-11-11T10:30:27Z</time>
      </trkpt>
      <trkpt lat="45.51555" lon="4.02249">
        <ele>763.9</ele>
        <time>2011-11-11T10:30:38Z</time>
      </trkpt>
      <trkpt lat="45.51547" lon="4.02249">
        <ele>764.87</ele>
        <time>2011-11-11T10:30:46Z</time>
      </trkpt>
      <trkpt lat="45.51544" lon="4.02249">
        <ele>765.35</ele>
        <time>2011-11-11T10:30:48Z</time>
      </trkpt>
      <trkpt lat="45.51538" lon="4.02245">
        <ele>769.67</ele>
        <time>2011-11-11T10:30:57Z</time>
      </trkpt>
      <trkpt lat="45.51542" lon="4.02239">
        <ele>771.11</ele>
        <time>2011-11-11T10:31:09Z</time>
      </trkpt>
      <trkpt lat="45.51542" lon="4.02239">
        <ele>771.11</ele>
        <time>2011-11-11T10:31:27Z</time>
      </trkpt>
      <trkpt lat="45.51547" lon="4.02232">
        <ele>770.63</ele>
        <time>2011-11-11T10:31:37Z</time>
      </trkpt>
      <trkpt lat="45.51555" lon="4.0222">
        <ele>768.71</ele>
        <time>2011-11-11T10:31:46Z</time>
      </trkpt>
      <trkpt lat="45.51568" lon="4.02211">
        <ele>766.31</ele>
        <time>2011-11-11T10:31:58Z</time>
      </trkpt>
      <trkpt lat="45.51577" lon="4.02202">
        <ele>766.31</ele>
        <time>2011-11-11T10:32:07Z</time>
      </trkpt>
      <trkpt lat="45.51586" lon="4.02196">
        <ele>766.31</ele>
        <time>2011-11-11T10:32:15Z</time>
      </trkpt>
      <trkpt lat="45.51596" lon="4.02183">
        <ele>764.87</ele>
        <time>2011-11-11T10:32:27Z</time>
      </trkpt>
      <trkpt lat="45.5161" lon="4.02175">
        <ele>765.83</ele>
        <time>2011-11-11T10:32:37Z</time>
      </trkpt>
      <trkpt lat="45.51614" lon="4.02172">
        <ele>765.83</ele>
        <time>2011-11-11T10:32:40Z</time>
      </trkpt>
      <trkpt lat="45.51617" lon="4.0217">
        <ele>765.83</ele>
        <time>2011-11-11T10:32:42Z</time>
      </trkpt>
      <trkpt lat="45.51637" lon="4.02152">
        <ele>765.83</ele>
        <time>2011-11-11T10:32:55Z</time>
      </trkpt>
      <trkpt lat="45.51642" lon="4.02141">
        <ele>764.39</ele>
        <time>2011-11-11T10:33:01Z</time>
      </trkpt>
      <trkpt lat="45.51644" lon="4.02132">
        <ele>762.94</ele>
        <time>2011-11-11T10:33:05Z</time>
      </trkpt>
      <trkpt lat="45.51648" lon="4.02125">
        <ele>761.5</ele>
        <time>2011-11-11T10:33:09Z</time>
      </trkpt>
      <trkpt lat="45.51653" lon="4.02121">
        <ele>761.02</ele>
        <time>2011-11-11T10:33:13Z</time>
      </trkpt>
      <trkpt lat="45.51659" lon="4.02112">
        <ele>761.5</ele>
        <time>2011-11-11T10:33:25Z</time>
      </trkpt>
      <trkpt lat="45.51659" lon="4.02112">
        <ele>761.5</ele>
        <time>2011-11-11T10:34:00Z</time>
      </trkpt>
      <trkpt lat="45.51669" lon="4.02092">
        <ele>761.5</ele>
        <time>2011-11-11T10:34:09Z</time>
      </trkpt>
      <trkpt lat="45.51674" lon="4.02084">
        <ele>760.06</ele>
        <time>2011-11-11T10:34:12Z</time>
      </trkpt>
      <trkpt lat="45.51679" lon="4.02072">
        <ele>760.06</ele>
        <time>2011-11-11T10:34:16Z</time>
      </trkpt>
      <trkpt lat="45.51683" lon="4.02058">
        <ele>761.02</ele>
        <time>2011-11-11T10:34:20Z</time>
      </trkpt>
      <trkpt lat="45.51691" lon="4.02042">
        <ele>762.94</ele>
        <time>2011-11-11T10:34:26Z</time>
      </trkpt>
      <trkpt lat="45.517" lon="4.02018">
        <ele>764.39</ele>
        <time>2011-11-11T10:34:33Z</time>
      </trkpt>
      <trkpt lat="45.51711" lon="4.01996">
        <ele>768.23</ele>
        <time>2011-11-11T10:34:39Z</time>
      </trkpt>
      <trkpt lat="45.51716" lon="4.01979">
        <ele>770.63</ele>
        <time>2011-11-11T10:34:44Z</time>
      </trkpt>
      <trkpt lat="45.51727" lon="4.01948">
        <ele>772.56</ele>
        <time>2011-11-11T10:34:54Z</time>
      </trkpt>
      <trkpt lat="45.51732" lon="4.01929">
        <ele>774.96</ele>
        <time>2011-11-11T10:35:01Z</time>
      </trkpt>
      <trkpt lat="45.51735" lon="4.01925">
        <ele>774.96</ele>
        <time>2011-11-11T10:35:03Z</time>
      </trkpt>
      <trkpt lat="45.51744" lon="4.01893">
        <ele>778.32</ele>
        <time>2011-11-11T10:35:14Z</time>
      </trkpt>
      <trkpt lat="45.51746" lon="4.01875">
        <ele>779.29</ele>
        <time>2011-11-11T10:35:19Z</time>
      </trkpt>
      <trkpt lat="45.51738" lon="4.01856">
        <ele>779.77</ele>
        <time>2011-11-11T10:35:25Z</time>
      </trkpt>
      <trkpt lat="45.51736" lon="4.01851">
        <ele>779.77</ele>
        <time>2011-11-11T10:35:26Z</time>
      </trkpt>
      <trkpt lat="45.51734" lon="4.01846">
        <ele>779.77</ele>
        <time>2011-11-11T10:35:27Z</time>
      </trkpt>
      <trkpt lat="45.51734" lon="4.01841">
        <ele>779.77</ele>
        <time>2011-11-11T10:35:28Z</time>
      </trkpt>
      <trkpt lat="45.51734" lon="4.01836">
        <ele>779.77</ele>
        <time>2011-11-11T10:35:29Z</time>
      </trkpt>
      <trkpt lat="45.51734" lon="4.01831">
        <ele>779.77</ele>
        <time>2011-11-11T10:35:30Z</time>
      </trkpt>
      <trkpt lat="45.51734" lon="4.01827">
        <ele>779.29</ele>
        <time>2011-11-11T10:35:31Z</time>
      </trkpt>
      <trkpt lat="45.51742" lon="4.01823">
        <ele>778.81</ele>
        <time>2011-11-11T10:35:32Z</time>
      </trkpt>
      <trkpt lat="45.51747" lon="4.01818">
        <ele>778.81</ele>
        <time>2011-11-11T10:35:33Z</time>
      </trkpt>
      <trkpt lat="45.51749" lon="4.01812">
        <ele>778.81</ele>
        <time>2011-11-11T10:35:34Z</time>
      </trkpt>
      <trkpt lat="45.51751" lon="4.01808">
        <ele>778.81</ele>
        <time>2011-11-11T10:35:35Z</time>
      </trkpt>
      <trkpt lat="45.51755" lon="4.01779">
        <ele>777.84</ele>
        <time>2011-11-11T10:35:39Z</time>
      </trkpt>
      <trkpt lat="45.51754" lon="4.0177">
        <ele>777.84</ele>
        <time>2011-11-11T10:35:40Z</time>
      </trkpt>
      <trkpt lat="45.51752" lon="4.01746">
        <ele>777.84</ele>
        <time>2011-11-11T10:35:43Z</time>
      </trkpt>
      <trkpt lat="45.51752" lon="4.01738">
        <ele>777.84</ele>
        <time>2011-11-11T10:35:44Z</time>
      </trkpt>
      <trkpt lat="45.51752" lon="4.01732">
        <ele>777.84</ele>
        <time>2011-11-11T10:35:45Z</time>
      </trkpt>
      <trkpt lat="45.51752" lon="4.01725">
        <ele>777.84</ele>
        <time>2011-11-11T10:35:46Z</time>
      </trkpt>
      <trkpt lat="45.51751" lon="4.0172">
        <ele>777.36</ele>
        <time>2011-11-11T10:35:47Z</time>
      </trkpt>
      <trkpt lat="45.51748" lon="4.01715">
        <ele>777.36</ele>
        <time>2011-11-11T10:35:48Z</time>
      </trkpt>
      <trkpt lat="45.51744" lon="4.01712">
        <ele>777.36</ele>
        <time>2011-11-11T10:35:49Z</time>
      </trkpt>
      <trkpt lat="45.51741" lon="4.01711">
        <ele>776.88</ele>
        <time>2011-11-11T10:35:50Z</time>
      </trkpt>
      <trkpt lat="45.51738" lon="4.0171">
        <ele>776.88</ele>
        <time>2011-11-11T10:35:51Z</time>
      </trkpt>
      <trkpt lat="45.51735" lon="4.0171">
        <ele>776.4</ele>
        <time>2011-11-11T10:35:52Z</time>
      </trkpt>
      <trkpt lat="45.51733" lon="4.01709">
        <ele>776.4</ele>
        <time>2011-11-11T10:35:53Z</time>
      </trkpt>
      <trkpt lat="45.51731" lon="4.01708">
        <ele>776.4</ele>
        <time>2011-11-11T10:35:54Z</time>
      </trkpt>
      <trkpt lat="45.51729" lon="4.01708">
        <ele>776.4</ele>
        <time>2011-11-11T10:35:55Z</time>
      </trkpt>
      <trkpt lat="45.51727" lon="4.01708">
        <ele>776.4</ele>
        <time>2011-11-11T10:35:56Z</time>
      </trkpt>
      <trkpt lat="45.51724" lon="4.01707">
        <ele>776.4</ele>
        <time>2011-11-11T10:35:57Z</time>
      </trkpt>
      <trkpt lat="45.51722" lon="4.01706">
        <ele>776.4</ele>
        <time>2011-11-11T10:35:58Z</time>
      </trkpt>
      <trkpt lat="45.5172" lon="4.01705">
        <ele>776.4</ele>
        <time>2011-11-11T10:35:59Z</time>
      </trkpt>
      <trkpt lat="45.51718" lon="4.01705">
        <ele>775.92</ele>
        <time>2011-11-11T10:36:00Z</time>
      </trkpt>
      <trkpt lat="45.51715" lon="4.01703">
        <ele>775.44</ele>
        <time>2011-11-11T10:36:01Z</time>
      </trkpt>
      <trkpt lat="45.51711" lon="4.01701">
        <ele>774.96</ele>
        <time>2011-11-11T10:36:02Z</time>
      </trkpt>
      <trkpt lat="45.51709" lon="4.017">
        <ele>774.48</ele>
        <time>2011-11-11T10:36:03Z</time>
      </trkpt>
      <trkpt lat="45.51707" lon="4.01699">
        <ele>774.48</ele>
        <time>2011-11-11T10:36:04Z</time>
      </trkpt>
      <trkpt lat="45.51705" lon="4.01697">
        <ele>774</ele>
        <time>2011-11-11T10:36:05Z</time>
      </trkpt>
      <trkpt lat="45.51703" lon="4.01695">
        <ele>773.52</ele>
        <time>2011-11-11T10:36:06Z</time>
      </trkpt>
      <trkpt lat="45.51701" lon="4.01693">
        <ele>773.52</ele>
        <time>2011-11-11T10:36:07Z</time>
      </trkpt>
      <trkpt lat="45.51699" lon="4.01692">
        <ele>773.52</ele>
        <time>2011-11-11T10:36:08Z</time>
      </trkpt>
      <trkpt lat="45.51686" lon="4.01673">
        <ele>772.08</ele>
        <time>2011-11-11T10:36:17Z</time>
      </trkpt>
      <trkpt lat="45.51672" lon="4.01647">
        <ele>774.96</ele>
        <time>2011-11-11T10:36:27Z</time>
      </trkpt>
      <trkpt lat="45.51672" lon="4.01638">
        <ele>776.88</ele>
        <time>2011-11-11T10:36:31Z</time>
      </trkpt>
      <trkpt lat="45.51671" lon="4.01636">
        <ele>776.88</ele>
        <time>2011-11-11T10:36:32Z</time>
      </trkpt>
      <trkpt lat="45.5167" lon="4.01634">
        <ele>776.4</ele>
        <time>2011-11-11T10:36:33Z</time>
      </trkpt>
      <trkpt lat="45.51669" lon="4.01632">
        <ele>776.4</ele>
        <time>2011-11-11T10:36:34Z</time>
      </trkpt>
      <trkpt lat="45.51668" lon="4.01629">
        <ele>776.4</ele>
        <time>2011-11-11T10:36:35Z</time>
      </trkpt>
      <trkpt lat="45.51668" lon="4.01627">
        <ele>776.4</ele>
        <time>2011-11-11T10:36:36Z</time>
      </trkpt>
      <trkpt lat="45.51667" lon="4.01625">
        <ele>776.4</ele>
        <time>2011-11-11T10:36:37Z</time>
      </trkpt>
      <trkpt lat="45.51666" lon="4.01623">
        <ele>776.4</ele>
        <time>2011-11-11T10:36:38Z</time>
      </trkpt>
      <trkpt lat="45.51665" lon="4.01621">
        <ele>776.88</ele>
        <time>2011-11-11T10:36:39Z</time>
      </trkpt>
      <trkpt lat="45.51664" lon="4.01619">
        <ele>776.88</ele>
        <time>2011-11-11T10:36:40Z</time>
      </trkpt>
      <trkpt lat="45.51663" lon="4.01617">
        <ele>776.88</ele>
        <time>2011-11-11T10:36:41Z</time>
      </trkpt>
      <trkpt lat="45.51652" lon="4.01595">
        <ele>777.84</ele>
        <time>2011-11-11T10:36:53Z</time>
      </trkpt>
      <trkpt lat="45.51641" lon="4.0158">
        <ele>782.65</ele>
        <time>2011-11-11T10:37:05Z</time>
      </trkpt>
      <trkpt lat="45.51636" lon="4.01572">
        <ele>784.57</ele>
        <time>2011-11-11T10:37:08Z</time>
      </trkpt>
      <trkpt lat="45.51635" lon="4.0157">
        <ele>785.53</ele>
        <time>2011-11-11T10:37:09Z</time>
      </trkpt>
      <trkpt lat="45.51633" lon="4.01567">
        <ele>786.02</ele>
        <time>2011-11-11T10:37:10Z</time>
      </trkpt>
      <trkpt lat="45.51631" lon="4.01565">
        <ele>786.5</ele>
        <time>2011-11-11T10:37:11Z</time>
      </trkpt>
      <trkpt lat="45.51628" lon="4.01562">
        <ele>787.46</ele>
        <time>2011-11-11T10:37:12Z</time>
      </trkpt>
      <trkpt lat="45.51626" lon="4.0156">
        <ele>788.42</ele>
        <time>2011-11-11T10:37:13Z</time>
      </trkpt>
      <trkpt lat="45.51623" lon="4.01557">
        <ele>789.38</ele>
        <time>2011-11-11T10:37:14Z</time>
      </trkpt>
      <trkpt lat="45.516" lon="4.01531">
        <ele>795.63</ele>
        <time>2011-11-11T10:37:23Z</time>
      </trkpt>
      <trkpt lat="45.51578" lon="4.01499">
        <ele>798.99</ele>
        <time>2011-11-11T10:37:34Z</time>
      </trkpt>
      <trkpt lat="45.51575" lon="4.01493">
        <ele>798.99</ele>
        <time>2011-11-11T10:37:36Z</time>
      </trkpt>
      <trkpt lat="45.51575" lon="4.01491">
        <ele>799.47</ele>
        <time>2011-11-11T10:37:37Z</time>
      </trkpt>
      <trkpt lat="45.51573" lon="4.01487">
        <ele>799.95</ele>
        <time>2011-11-11T10:37:38Z</time>
      </trkpt>
      <trkpt lat="45.5157" lon="4.01484">
        <ele>800.44</ele>
        <time>2011-11-11T10:37:39Z</time>
      </trkpt>
      <trkpt lat="45.51567" lon="4.0148">
        <ele>800.44</ele>
        <time>2011-11-11T10:37:40Z</time>
      </trkpt>
      <trkpt lat="45.51565" lon="4.01476">
        <ele>800.44</ele>
        <time>2011-11-11T10:37:41Z</time>
      </trkpt>
      <trkpt lat="45.51538" lon="4.01443">
        <ele>801.88</ele>
        <time>2011-11-11T10:37:52Z</time>
      </trkpt>
      <trkpt lat="45.51515" lon="4.01415">
        <ele>800.44</ele>
        <time>2011-11-11T10:38:03Z</time>
      </trkpt>
      <trkpt lat="45.51491" lon="4.01393">
        <ele>798.99</ele>
        <time>2011-11-11T10:38:14Z</time>
      </trkpt>
      <trkpt lat="45.51467" lon="4.01372">
        <ele>798.03</ele>
        <time>2011-11-11T10:38:24Z</time>
      </trkpt>
      <trkpt lat="45.51444" lon="4.01353">
        <ele>797.07</ele>
        <time>2011-11-11T10:38:32Z</time>
      </trkpt>
      <trkpt lat="45.51422" lon="4.01321">
        <ele>792.26</ele>
        <time>2011-11-11T10:38:42Z</time>
      </trkpt>
      <trkpt lat="45.51396" lon="4.0127">
        <ele>789.38</ele>
        <time>2011-11-11T10:38:55Z</time>
      </trkpt>
      <trkpt lat="45.51355" lon="4.01211">
        <ele>797.55</ele>
        <time>2011-11-11T10:39:11Z</time>
      </trkpt>
      <trkpt lat="45.5132" lon="4.01187">
        <ele>798.03</ele>
        <time>2011-11-11T10:39:24Z</time>
      </trkpt>
      <trkpt lat="45.51284" lon="4.01185">
        <ele>796.59</ele>
        <time>2011-11-11T10:39:37Z</time>
      </trkpt>
      <trkpt lat="45.51262" lon="4.01175">
        <ele>796.59</ele>
        <time>2011-11-11T10:39:47Z</time>
      </trkpt>
      <trkpt lat="45.51252" lon="4.01153">
        <ele>798.99</ele>
        <time>2011-11-11T10:39:57Z</time>
      </trkpt>
      <trkpt lat="45.51231" lon="4.01131">
        <ele>802.36</ele>
        <time>2011-11-11T10:40:10Z</time>
      </trkpt>
      <trkpt lat="45.51212" lon="4.0112">
        <ele>802.84</ele>
        <time>2011-11-11T10:40:22Z</time>
      </trkpt>
      <trkpt lat="45.51189" lon="4.01109">
        <ele>805.24</ele>
        <time>2011-11-11T10:40:34Z</time>
      </trkpt>
      <trkpt lat="45.51187" lon="4.01108">
        <ele>805.24</ele>
        <time>2011-11-11T10:40:35Z</time>
      </trkpt>
      <trkpt lat="45.51185" lon="4.01107">
        <ele>805.72</ele>
        <time>2011-11-11T10:40:36Z</time>
      </trkpt>
      <trkpt lat="45.51183" lon="4.01105">
        <ele>806.2</ele>
        <time>2011-11-11T10:40:37Z</time>
      </trkpt>
      <trkpt lat="45.51181" lon="4.01104">
        <ele>806.2</ele>
        <time>2011-11-11T10:40:38Z</time>
      </trkpt>
      <trkpt lat="45.5117" lon="4.01103">
        <ele>803.32</ele>
        <time>2011-11-11T10:40:44Z</time>
      </trkpt>
      <trkpt lat="45.51169" lon="4.01102">
        <ele>803.32</ele>
        <time>2011-11-11T10:40:45Z</time>
      </trkpt>
      <trkpt lat="45.51167" lon="4.01102">
        <ele>802.84</ele>
        <time>2011-11-11T10:40:46Z</time>
      </trkpt>
      <trkpt lat="45.51165" lon="4.01102">
        <ele>802.84</ele>
        <time>2011-11-11T10:40:47Z</time>
      </trkpt>
      <trkpt lat="45.51163" lon="4.01101">
        <ele>803.32</ele>
        <time>2011-11-11T10:40:48Z</time>
      </trkpt>
      <trkpt lat="45.51136" lon="4.0109">
        <ele>804.76</ele>
        <time>2011-11-11T10:41:03Z</time>
      </trkpt>
      <trkpt lat="45.5111" lon="4.0108">
        <ele>811.01</ele>
        <time>2011-11-11T10:41:18Z</time>
      </trkpt>
      <trkpt lat="45.51107" lon="4.01079">
        <ele>811.97</ele>
        <time>2011-11-11T10:41:20Z</time>
      </trkpt>
      <trkpt lat="45.51105" lon="4.01077">
        <ele>812.45</ele>
        <time>2011-11-11T10:41:21Z</time>
      </trkpt>
      <trkpt lat="45.51103" lon="4.01077">
        <ele>813.41</ele>
        <time>2011-11-11T10:41:22Z</time>
      </trkpt>
      <trkpt lat="45.51102" lon="4.01077">
        <ele>813.89</ele>
        <time>2011-11-11T10:41:23Z</time>
      </trkpt>
      <trkpt lat="45.511" lon="4.01077">
        <ele>814.37</ele>
        <time>2011-11-11T10:41:24Z</time>
      </trkpt>
      <trkpt lat="45.51098" lon="4.01076">
        <ele>814.85</ele>
        <time>2011-11-11T10:41:25Z</time>
      </trkpt>
      <trkpt lat="45.51096" lon="4.01075">
        <ele>815.34</ele>
        <time>2011-11-11T10:41:26Z</time>
      </trkpt>
      <trkpt lat="45.51095" lon="4.01074">
        <ele>815.34</ele>
        <time>2011-11-11T10:41:27Z</time>
      </trkpt>
      <trkpt lat="45.51094" lon="4.01074">
        <ele>815.82</ele>
        <time>2011-11-11T10:41:28Z</time>
      </trkpt>
      <trkpt lat="45.51093" lon="4.01073">
        <ele>815.82</ele>
        <time>2011-11-11T10:41:29Z</time>
      </trkpt>
      <trkpt lat="45.51091" lon="4.01073">
        <ele>816.3</ele>
        <time>2011-11-11T10:41:30Z</time>
      </trkpt>
      <trkpt lat="45.51089" lon="4.01071">
        <ele>816.78</ele>
        <time>2011-11-11T10:41:31Z</time>
      </trkpt>
      <trkpt lat="45.51077" lon="4.01068">
        <ele>817.74</ele>
        <time>2011-11-11T10:41:42Z</time>
      </trkpt>
      <trkpt lat="45.51075" lon="4.01067">
        <ele>818.7</ele>
        <time>2011-11-11T10:41:43Z</time>
      </trkpt>
      <trkpt lat="45.51068" lon="4.01063">
        <ele>819.66</ele>
        <time>2011-11-11T10:41:48Z</time>
      </trkpt>
      <trkpt lat="45.5106" lon="4.01061">
        <ele>820.14</ele>
        <time>2011-11-11T10:41:50Z</time>
      </trkpt>
      <trkpt lat="45.51058" lon="4.01062">
        <ele>820.14</ele>
        <time>2011-11-11T10:41:51Z</time>
      </trkpt>
      <trkpt lat="45.51059" lon="4.01061">
        <ele>820.14</ele>
        <time>2011-11-11T10:41:53Z</time>
      </trkpt>
      <trkpt lat="45.51051" lon="4.01056">
        <ele>822.06</ele>
        <time>2011-11-11T10:42:02Z</time>
      </trkpt>
      <trkpt lat="45.51048" lon="4.01055">
        <ele>823.51</ele>
        <time>2011-11-11T10:42:04Z</time>
      </trkpt>
      <trkpt lat="45.51047" lon="4.01055">
        <ele>823.99</ele>
        <time>2011-11-11T10:42:05Z</time>
      </trkpt>
      <trkpt lat="45.51046" lon="4.01055">
        <ele>824.47</ele>
        <time>2011-11-11T10:42:06Z</time>
      </trkpt>
      <trkpt lat="45.51045" lon="4.01055">
        <ele>824.95</ele>
        <time>2011-11-11T10:42:07Z</time>
      </trkpt>
      <trkpt lat="45.51039" lon="4.01054">
        <ele>826.39</ele>
        <time>2011-11-11T10:42:11Z</time>
      </trkpt>
      <trkpt lat="45.51023" lon="4.01051">
        <ele>827.35</ele>
        <time>2011-11-11T10:42:23Z</time>
      </trkpt>
      <trkpt lat="45.51003" lon="4.01052">
        <ele>830.24</ele>
        <time>2011-11-11T10:42:39Z</time>
      </trkpt>
      <trkpt lat="45.51001" lon="4.01052">
        <ele>830.24</ele>
        <time>2011-11-11T10:42:40Z</time>
      </trkpt>
      <trkpt lat="45.51" lon="4.01053">
        <ele>830.72</ele>
        <time>2011-11-11T10:42:41Z</time>
      </trkpt>
      <trkpt lat="45.50999" lon="4.01053">
        <ele>831.2</ele>
        <time>2011-11-11T10:42:42Z</time>
      </trkpt>
      <trkpt lat="45.50998" lon="4.01054">
        <ele>831.2</ele>
        <time>2011-11-11T10:42:43Z</time>
      </trkpt>
      <trkpt lat="45.50997" lon="4.01055">
        <ele>831.68</ele>
        <time>2011-11-11T10:42:44Z</time>
      </trkpt>
      <trkpt lat="45.50995" lon="4.01055">
        <ele>832.16</ele>
        <time>2011-11-11T10:42:45Z</time>
      </trkpt>
      <trkpt lat="45.50994" lon="4.01056">
        <ele>832.64</ele>
        <time>2011-11-11T10:42:46Z</time>
      </trkpt>
      <trkpt lat="45.50993" lon="4.01057">
        <ele>832.64</ele>
        <time>2011-11-11T10:42:47Z</time>
      </trkpt>
      <trkpt lat="45.50992" lon="4.01058">
        <ele>833.12</ele>
        <time>2011-11-11T10:42:48Z</time>
      </trkpt>
      <trkpt lat="45.50991" lon="4.01059">
        <ele>833.12</ele>
        <time>2011-11-11T10:42:49Z</time>
      </trkpt>
      <trkpt lat="45.5099" lon="4.01059">
        <ele>833.12</ele>
        <time>2011-11-11T10:42:50Z</time>
      </trkpt>
      <trkpt lat="45.50989" lon="4.0106">
        <ele>833.6</ele>
        <time>2011-11-11T10:42:51Z</time>
      </trkpt>
      <trkpt lat="45.50988" lon="4.0106">
        <ele>834.08</ele>
        <time>2011-11-11T10:42:52Z</time>
      </trkpt>
      <trkpt lat="45.5098" lon="4.01063">
        <ele>835.04</ele>
        <time>2011-11-11T10:42:59Z</time>
      </trkpt>
      <trkpt lat="45.50977" lon="4.01064">
        <ele>834.56</ele>
        <time>2011-11-11T10:43:02Z</time>
      </trkpt>
      <trkpt lat="45.50976" lon="4.01064">
        <ele>834.56</ele>
        <time>2011-11-11T10:43:03Z</time>
      </trkpt>
      <trkpt lat="45.50963" lon="4.01068">
        <ele>836.48</ele>
        <time>2011-11-11T10:43:14Z</time>
      </trkpt>
      <trkpt lat="45.50962" lon="4.01068">
        <ele>836.96</ele>
        <time>2011-11-11T10:43:15Z</time>
      </trkpt>
      <trkpt lat="45.5096" lon="4.01068">
        <ele>837.45</ele>
        <time>2011-11-11T10:43:16Z</time>
      </trkpt>
      <trkpt lat="45.50959" lon="4.01068">
        <ele>837.45</ele>
        <time>2011-11-11T10:43:17Z</time>
      </trkpt>
      <trkpt lat="45.50958" lon="4.01068">
        <ele>837.45</ele>
        <time>2011-11-11T10:43:18Z</time>
      </trkpt>
      <trkpt lat="45.50957" lon="4.01068">
        <ele>837.45</ele>
        <time>2011-11-11T10:43:19Z</time>
      </trkpt>
      <trkpt lat="45.50956" lon="4.01068">
        <ele>836.96</ele>
        <time>2011-11-11T10:43:20Z</time>
      </trkpt>
      <trkpt lat="45.50954" lon="4.01069">
        <ele>837.45</ele>
        <time>2011-11-11T10:43:21Z</time>
      </trkpt>
      <trkpt lat="45.50953" lon="4.01069">
        <ele>837.45</ele>
        <time>2011-11-11T10:43:22Z</time>
      </trkpt>
      <trkpt lat="45.50952" lon="4.01069">
        <ele>837.45</ele>
        <time>2011-11-11T10:43:23Z</time>
      </trkpt>
      <trkpt lat="45.5095" lon="4.01069">
        <ele>837.93</ele>
        <time>2011-11-11T10:43:24Z</time>
      </trkpt>
      <trkpt lat="45.50948" lon="4.01069">
        <ele>838.41</ele>
        <time>2011-11-11T10:43:25Z</time>
      </trkpt>
      <trkpt lat="45.50947" lon="4.01069">
        <ele>838.41</ele>
        <time>2011-11-11T10:43:26Z</time>
      </trkpt>
      <trkpt lat="45.50946" lon="4.0107">
        <ele>838.89</ele>
        <time>2011-11-11T10:43:27Z</time>
      </trkpt>
      <trkpt lat="45.50939" lon="4.01069">
        <ele>839.85</ele>
        <time>2011-11-11T10:43:33Z</time>
      </trkpt>
      <trkpt lat="45.50938" lon="4.01068">
        <ele>840.33</ele>
        <time>2011-11-11T10:43:34Z</time>
      </trkpt>
      <trkpt lat="45.50936" lon="4.01067">
        <ele>840.81</ele>
        <time>2011-11-11T10:43:35Z</time>
      </trkpt>
      <trkpt lat="45.50935" lon="4.01066">
        <ele>840.81</ele>
        <time>2011-11-11T10:43:36Z</time>
      </trkpt>
      <trkpt lat="45.50934" lon="4.01066">
        <ele>841.29</ele>
        <time>2011-11-11T10:43:37Z</time>
      </trkpt>
      <trkpt lat="45.50917" lon="4.01056">
        <ele>842.73</ele>
        <time>2011-11-11T10:43:50Z</time>
      </trkpt>
      <trkpt lat="45.50912" lon="4.01051">
        <ele>842.73</ele>
        <time>2011-11-11T10:43:54Z</time>
      </trkpt>
      <trkpt lat="45.50911" lon="4.0105">
        <ele>842.73</ele>
        <time>2011-11-11T10:43:55Z</time>
      </trkpt>
      <trkpt lat="45.50898" lon="4.01039">
        <ele>845.14</ele>
        <time>2011-11-11T10:44:06Z</time>
      </trkpt>
      <trkpt lat="45.50897" lon="4.01039">
        <ele>845.62</ele>
        <time>2011-11-11T10:44:07Z</time>
      </trkpt>
      <trkpt lat="45.50895" lon="4.01038">
        <ele>846.1</ele>
        <time>2011-11-11T10:44:08Z</time>
      </trkpt>
      <trkpt lat="45.50894" lon="4.01038">
        <ele>846.58</ele>
        <time>2011-11-11T10:44:09Z</time>
      </trkpt>
      <trkpt lat="45.50893" lon="4.01038">
        <ele>846.58</ele>
        <time>2011-11-11T10:44:10Z</time>
      </trkpt>
      <trkpt lat="45.50892" lon="4.01037">
        <ele>846.58</ele>
        <time>2011-11-11T10:44:11Z</time>
      </trkpt>
      <trkpt lat="45.50891" lon="4.01035">
        <ele>847.06</ele>
        <time>2011-11-11T10:44:12Z</time>
      </trkpt>
      <trkpt lat="45.50889" lon="4.01034">
        <ele>847.06</ele>
        <time>2011-11-11T10:44:13Z</time>
      </trkpt>
      <trkpt lat="45.50881" lon="4.01026">
        <ele>848.02</ele>
        <time>2011-11-11T10:44:21Z</time>
      </trkpt>
      <trkpt lat="45.5088" lon="4.01024">
        <ele>848.02</ele>
        <time>2011-11-11T10:44:22Z</time>
      </trkpt>
      <trkpt lat="45.50879" lon="4.01022">
        <ele>848.02</ele>
        <time>2011-11-11T10:44:23Z</time>
      </trkpt>
      <trkpt lat="45.50872" lon="4.01013">
        <ele>848.5</ele>
        <time>2011-11-11T10:44:30Z</time>
      </trkpt>
      <trkpt lat="45.50871" lon="4.01011">
        <ele>848.5</ele>
        <time>2011-11-11T10:44:31Z</time>
      </trkpt>
      <trkpt lat="45.50869" lon="4.01011">
        <ele>848.02</ele>
        <time>2011-11-11T10:44:32Z</time>
      </trkpt>
      <trkpt lat="45.50868" lon="4.01009">
        <ele>848.02</ele>
        <time>2011-11-11T10:44:33Z</time>
      </trkpt>
      <trkpt lat="45.50868" lon="4.01008">
        <ele>848.02</ele>
        <time>2011-11-11T10:44:34Z</time>
      </trkpt>
      <trkpt lat="45.50867" lon="4.01007">
        <ele>847.54</ele>
        <time>2011-11-11T10:44:35Z</time>
      </trkpt>
      <trkpt lat="45.50866" lon="4.01006">
        <ele>847.54</ele>
        <time>2011-11-11T10:44:36Z</time>
      </trkpt>
      <trkpt lat="45.50861" lon="4.01">
        <ele>848.98</ele>
        <time>2011-11-11T10:44:40Z</time>
      </trkpt>
      <trkpt lat="45.50843" lon="4.00978">
        <ele>851.87</ele>
        <time>2011-11-11T10:44:54Z</time>
      </trkpt>
      <trkpt lat="45.50828" lon="4.00962">
        <ele>854.27</ele>
        <time>2011-11-11T10:45:07Z</time>
      </trkpt>
      <trkpt lat="45.5082" lon="4.00955">
        <ele>856.19</ele>
        <time>2011-11-11T10:45:13Z</time>
      </trkpt>
      <trkpt lat="45.50819" lon="4.00954">
        <ele>856.67</ele>
        <time>2011-11-11T10:45:14Z</time>
      </trkpt>
      <trkpt lat="45.50817" lon="4.00954">
        <ele>857.15</ele>
        <time>2011-11-11T10:45:15Z</time>
      </trkpt>
      <trkpt lat="45.50816" lon="4.00953">
        <ele>857.63</ele>
        <time>2011-11-11T10:45:16Z</time>
      </trkpt>
      <trkpt lat="45.50815" lon="4.00952">
        <ele>857.63</ele>
        <time>2011-11-11T10:45:17Z</time>
      </trkpt>
      <trkpt lat="45.50813" lon="4.00952">
        <ele>857.63</ele>
        <time>2011-11-11T10:45:18Z</time>
      </trkpt>
      <trkpt lat="45.50811" lon="4.00952">
        <ele>858.11</ele>
        <time>2011-11-11T10:45:19Z</time>
      </trkpt>
      <trkpt lat="45.5081" lon="4.00951">
        <ele>858.59</ele>
        <time>2011-11-11T10:45:20Z</time>
      </trkpt>
      <trkpt lat="45.5079" lon="4.00953">
        <ele>861.48</ele>
        <time>2011-11-11T10:45:33Z</time>
      </trkpt>
      <trkpt lat="45.50787" lon="4.00953">
        <ele>861.96</ele>
        <time>2011-11-11T10:45:35Z</time>
      </trkpt>
      <trkpt lat="45.50785" lon="4.00952">
        <ele>861.96</ele>
        <time>2011-11-11T10:45:36Z</time>
      </trkpt>
      <trkpt lat="45.50783" lon="4.00951">
        <ele>862.44</ele>
        <time>2011-11-11T10:45:37Z</time>
      </trkpt>
      <trkpt lat="45.50782" lon="4.0095">
        <ele>862.44</ele>
        <time>2011-11-11T10:45:38Z</time>
      </trkpt>
      <trkpt lat="45.50781" lon="4.00949">
        <ele>862.44</ele>
        <time>2011-11-11T10:45:39Z</time>
      </trkpt>
      <trkpt lat="45.50779" lon="4.00948">
        <ele>862.92</ele>
        <time>2011-11-11T10:45:40Z</time>
      </trkpt>
      <trkpt lat="45.50765" lon="4.00923">
        <ele>863.88</ele>
        <time>2011-11-11T10:45:51Z</time>
      </trkpt>
      <trkpt lat="45.50743" lon="4.00905">
        <ele>864.84</ele>
        <time>2011-11-11T10:46:03Z</time>
      </trkpt>
      <trkpt lat="45.50736" lon="4.00895">
        <ele>864.36</ele>
        <time>2011-11-11T10:46:06Z</time>
      </trkpt>
      <trkpt lat="45.50734" lon="4.0089">
        <ele>863.88</ele>
        <time>2011-11-11T10:46:07Z</time>
      </trkpt>
      <trkpt lat="45.50733" lon="4.00885">
        <ele>863.88</ele>
        <time>2011-11-11T10:46:08Z</time>
      </trkpt>
      <trkpt lat="45.50731" lon="4.00852">
        <ele>867.25</ele>
        <time>2011-11-11T10:46:20Z</time>
      </trkpt>
      <trkpt lat="45.50733" lon="4.00831">
        <ele>867.25</ele>
        <time>2011-11-11T10:46:27Z</time>
      </trkpt>
      <trkpt lat="45.50734" lon="4.00828">
        <ele>867.25</ele>
        <time>2011-11-11T10:46:28Z</time>
      </trkpt>
      <trkpt lat="45.50735" lon="4.00826">
        <ele>867.73</ele>
        <time>2011-11-11T10:46:29Z</time>
      </trkpt>
      <trkpt lat="45.50735" lon="4.00824">
        <ele>867.73</ele>
        <time>2011-11-11T10:46:30Z</time>
      </trkpt>
      <trkpt lat="45.50736" lon="4.00821">
        <ele>868.21</ele>
        <time>2011-11-11T10:46:31Z</time>
      </trkpt>
      <trkpt lat="45.50737" lon="4.00818">
        <ele>868.21</ele>
        <time>2011-11-11T10:46:32Z</time>
      </trkpt>
      <trkpt lat="45.50737" lon="4.00815">
        <ele>868.21</ele>
        <time>2011-11-11T10:46:33Z</time>
      </trkpt>
      <trkpt lat="45.50738" lon="4.00812">
        <ele>868.21</ele>
        <time>2011-11-11T10:46:34Z</time>
      </trkpt>
      <trkpt lat="45.50739" lon="4.00809">
        <ele>868.21</ele>
        <time>2011-11-11T10:46:35Z</time>
      </trkpt>
      <trkpt lat="45.5074" lon="4.00806">
        <ele>868.21</ele>
        <time>2011-11-11T10:46:36Z</time>
      </trkpt>
      <trkpt lat="45.50741" lon="4.00803">
        <ele>867.73</ele>
        <time>2011-11-11T10:46:37Z</time>
      </trkpt>
      <trkpt lat="45.50742" lon="4.00801">
        <ele>867.73</ele>
        <time>2011-11-11T10:46:38Z</time>
      </trkpt>
      <trkpt lat="45.50743" lon="4.00798">
        <ele>867.73</ele>
        <time>2011-11-11T10:46:39Z</time>
      </trkpt>
      <trkpt lat="45.50742" lon="4.00795">
        <ele>867.73</ele>
        <time>2011-11-11T10:46:40Z</time>
      </trkpt>
      <trkpt lat="45.50741" lon="4.00793">
        <ele>868.21</ele>
        <time>2011-11-11T10:46:41Z</time>
      </trkpt>
      <trkpt lat="45.50739" lon="4.00791">
        <ele>868.21</ele>
        <time>2011-11-11T10:46:42Z</time>
      </trkpt>
      <trkpt lat="45.50738" lon="4.00789">
        <ele>868.69</ele>
        <time>2011-11-11T10:46:43Z</time>
      </trkpt>
      <trkpt lat="45.50736" lon="4.00788">
        <ele>869.17</ele>
        <time>2011-11-11T10:46:44Z</time>
      </trkpt>
      <trkpt lat="45.50734" lon="4.00786">
        <ele>869.65</ele>
        <time>2011-11-11T10:46:45Z</time>
      </trkpt>
      <trkpt lat="45.50733" lon="4.00785">
        <ele>870.13</ele>
        <time>2011-11-11T10:46:46Z</time>
      </trkpt>
      <trkpt lat="45.50732" lon="4.00784">
        <ele>870.61</ele>
        <time>2011-11-11T10:46:47Z</time>
      </trkpt>
      <trkpt lat="45.5073" lon="4.00782">
        <ele>871.09</ele>
        <time>2011-11-11T10:46:48Z</time>
      </trkpt>
      <trkpt lat="45.50729" lon="4.00781">
        <ele>871.57</ele>
        <time>2011-11-11T10:46:49Z</time>
      </trkpt>
      <trkpt lat="45.50728" lon="4.0078">
        <ele>872.05</ele>
        <time>2011-11-11T10:46:50Z</time>
      </trkpt>
      <trkpt lat="45.50727" lon="4.00779">
        <ele>872.53</ele>
        <time>2011-11-11T10:46:51Z</time>
      </trkpt>
      <trkpt lat="45.50713" lon="4.00759">
        <ele>874.46</ele>
        <time>2011-11-11T10:47:02Z</time>
      </trkpt>
      <trkpt lat="45.50712" lon="4.00756">
        <ele>874.46</ele>
        <time>2011-11-11T10:47:03Z</time>
      </trkpt>
      <trkpt lat="45.50706" lon="4.00741">
        <ele>874.46</ele>
        <time>2011-11-11T10:47:09Z</time>
      </trkpt>
      <trkpt lat="45.50706" lon="4.00738">
        <ele>874.94</ele>
        <time>2011-11-11T10:47:10Z</time>
      </trkpt>
      <trkpt lat="45.50706" lon="4.00735">
        <ele>875.42</ele>
        <time>2011-11-11T10:47:11Z</time>
      </trkpt>
      <trkpt lat="45.50706" lon="4.00727">
        <ele>876.38</ele>
        <time>2011-11-11T10:47:14Z</time>
      </trkpt>
      <trkpt lat="45.50707" lon="4.00725">
        <ele>876.38</ele>
        <time>2011-11-11T10:47:15Z</time>
      </trkpt>
      <trkpt lat="45.50708" lon="4.00723">
        <ele>876.38</ele>
        <time>2011-11-11T10:47:16Z</time>
      </trkpt>
      <trkpt lat="45.50709" lon="4.00721">
        <ele>876.38</ele>
        <time>2011-11-11T10:47:17Z</time>
      </trkpt>
      <trkpt lat="45.50711" lon="4.00719">
        <ele>876.38</ele>
        <time>2011-11-11T10:47:18Z</time>
      </trkpt>
      <trkpt lat="45.5072" lon="4.00708">
        <ele>875.9</ele>
        <time>2011-11-11T10:47:25Z</time>
      </trkpt>
      <trkpt lat="45.50733" lon="4.00692">
        <ele>876.86</ele>
        <time>2011-11-11T10:47:37Z</time>
      </trkpt>
      <trkpt lat="45.50737" lon="4.0068">
        <ele>879.26</ele>
        <time>2011-11-11T10:47:46Z</time>
      </trkpt>
      <trkpt lat="45.50741" lon="4.00672">
        <ele>882.63</ele>
        <time>2011-11-11T10:47:51Z</time>
      </trkpt>
      <trkpt lat="45.50744" lon="4.00663">
        <ele>884.07</ele>
        <time>2011-11-11T10:47:55Z</time>
      </trkpt>
      <trkpt lat="45.50745" lon="4.00657">
        <ele>884.07</ele>
        <time>2011-11-11T10:47:58Z</time>
      </trkpt>
      <trkpt lat="45.50751" lon="4.00643">
        <ele>883.59</ele>
        <time>2011-11-11T10:48:04Z</time>
      </trkpt>
      <trkpt lat="45.50776" lon="4.0062">
        <ele>883.11</ele>
        <time>2011-11-11T10:48:16Z</time>
      </trkpt>
      <trkpt lat="45.50783" lon="4.00615">
        <ele>884.55</ele>
        <time>2011-11-11T10:48:20Z</time>
      </trkpt>
      <trkpt lat="45.50806" lon="4.0059">
        <ele>884.55</ele>
        <time>2011-11-11T10:48:32Z</time>
      </trkpt>
      <trkpt lat="45.50825" lon="4.00549">
        <ele>885.51</ele>
        <time>2011-11-11T10:48:43Z</time>
      </trkpt>
      <trkpt lat="45.50841" lon="4.00489">
        <ele>888.4</ele>
        <time>2011-11-11T10:48:59Z</time>
      </trkpt>
      <trkpt lat="45.50847" lon="4.00462">
        <ele>887.91</ele>
        <time>2011-11-11T10:49:08Z</time>
      </trkpt>
      <trkpt lat="45.50858" lon="4.00451">
        <ele>888.4</ele>
        <time>2011-11-11T10:49:17Z</time>
      </trkpt>
      <trkpt lat="45.50861" lon="4.00439">
        <ele>888.4</ele>
        <time>2011-11-11T10:49:22Z</time>
      </trkpt>
      <trkpt lat="45.50869" lon="4.00418">
        <ele>892.24</ele>
        <time>2011-11-11T10:49:32Z</time>
      </trkpt>
      <trkpt lat="45.5087" lon="4.00413">
        <ele>893.2</ele>
        <time>2011-11-11T10:49:34Z</time>
      </trkpt>
      <trkpt lat="45.50887" lon="4.00391">
        <ele>899.93</ele>
        <time>2011-11-11T10:49:47Z</time>
      </trkpt>
      <trkpt lat="45.50894" lon="4.00373">
        <ele>906.18</ele>
        <time>2011-11-11T10:49:56Z</time>
      </trkpt>
      <trkpt lat="45.50896" lon="4.00366">
        <ele>908.1</ele>
        <time>2011-11-11T10:49:59Z</time>
      </trkpt>
      <trkpt lat="45.50898" lon="4.00358">
        <ele>910.03</ele>
        <time>2011-11-11T10:50:04Z</time>
      </trkpt>
      <trkpt lat="45.509" lon="4.00353">
        <ele>910.03</ele>
        <time>2011-11-11T10:50:07Z</time>
      </trkpt>
      <trkpt lat="45.50905" lon="4.00334">
        <ele>910.99</ele>
        <time>2011-11-11T10:50:16Z</time>
      </trkpt>
      <trkpt lat="45.50918" lon="4.00316">
        <ele>911.95</ele>
        <time>2011-11-11T10:50:30Z</time>
      </trkpt>
      <trkpt lat="45.50924" lon="4.00304">
        <ele>911.95</ele>
        <time>2011-11-11T10:50:38Z</time>
      </trkpt>
      <trkpt lat="45.50928" lon="4.00295">
        <ele>911.47</ele>
        <time>2011-11-11T10:50:44Z</time>
      </trkpt>
      <trkpt lat="45.50936" lon="4.00283">
        <ele>914.35</ele>
        <time>2011-11-11T10:50:54Z</time>
      </trkpt>
      <trkpt lat="45.50942" lon="4.00273">
        <ele>915.79</ele>
        <time>2011-11-11T10:51:02Z</time>
      </trkpt>
      <trkpt lat="45.50942" lon="4.0027">
        <ele>915.79</ele>
        <time>2011-11-11T10:51:04Z</time>
      </trkpt>
      <trkpt lat="45.50947" lon="4.00266">
        <ele>915.31</ele>
        <time>2011-11-11T10:51:07Z</time>
      </trkpt>
      <trkpt lat="45.5096" lon="4.00255">
        <ele>917.24</ele>
        <time>2011-11-11T10:51:19Z</time>
      </trkpt>
      <trkpt lat="45.50963" lon="4.00251">
        <ele>918.2</ele>
        <time>2011-11-11T10:51:22Z</time>
      </trkpt>
      <trkpt lat="45.50968" lon="4.00238">
        <ele>921.08</ele>
        <time>2011-11-11T10:51:30Z</time>
      </trkpt>
      <trkpt lat="45.50976" lon="4.00219">
        <ele>923</ele>
        <time>2011-11-11T10:51:43Z</time>
      </trkpt>
      <trkpt lat="45.50981" lon="4.00212">
        <ele>923.48</ele>
        <time>2011-11-11T10:51:48Z</time>
      </trkpt>
      <trkpt lat="45.50988" lon="4.002">
        <ele>922.52</ele>
        <time>2011-11-11T10:51:57Z</time>
      </trkpt>
      <trkpt lat="45.50996" lon="4.00188">
        <ele>922.52</ele>
        <time>2011-11-11T10:52:05Z</time>
      </trkpt>
      <trkpt lat="45.50996" lon="4.00184">
        <ele>923</ele>
        <time>2011-11-11T10:52:07Z</time>
      </trkpt>
      <trkpt lat="45.50995" lon="4.0018">
        <ele>923</ele>
        <time>2011-11-11T10:52:10Z</time>
      </trkpt>
      <trkpt lat="45.50991" lon="4.00161">
        <ele>924.93</ele>
        <time>2011-11-11T10:52:21Z</time>
      </trkpt>
      <trkpt lat="45.50986" lon="4.00144">
        <ele>931.17</ele>
        <time>2011-11-11T10:52:32Z</time>
      </trkpt>
      <trkpt lat="45.50984" lon="4.00133">
        <ele>934.06</ele>
        <time>2011-11-11T10:52:39Z</time>
      </trkpt>
      <trkpt lat="45.50981" lon="4.00127">
        <ele>935.5</ele>
        <time>2011-11-11T10:52:43Z</time>
      </trkpt>
      <trkpt lat="45.50978" lon="4.00116">
        <ele>935.98</ele>
        <time>2011-11-11T10:52:49Z</time>
      </trkpt>
      <trkpt lat="45.50958" lon="4.00097">
        <ele>936.46</ele>
        <time>2011-11-11T10:53:04Z</time>
      </trkpt>
      <trkpt lat="45.50948" lon="4.00086">
        <ele>936.94</ele>
        <time>2011-11-11T10:53:12Z</time>
      </trkpt>
      <trkpt lat="45.50943" lon="4.00082">
        <ele>936.46</ele>
        <time>2011-11-11T10:53:17Z</time>
      </trkpt>
      <trkpt lat="45.50937" lon="4.00076">
        <ele>937.42</ele>
        <time>2011-11-11T10:53:22Z</time>
      </trkpt>
      <trkpt lat="45.5093" lon="4.00069">
        <ele>936.94</ele>
        <time>2011-11-11T10:53:29Z</time>
      </trkpt>
      <trkpt lat="45.50925" lon="4.0006">
        <ele>937.42</ele>
        <time>2011-11-11T10:53:35Z</time>
      </trkpt>
      <trkpt lat="45.50914" lon="4.00039">
        <ele>936.94</ele>
        <time>2011-11-11T10:53:48Z</time>
      </trkpt>
      <trkpt lat="45.50902" lon="4.0002">
        <ele>937.9</ele>
        <time>2011-11-11T10:54:01Z</time>
      </trkpt>
      <trkpt lat="45.50893" lon="4.00014">
        <ele>937.42</ele>
        <time>2011-11-11T10:54:07Z</time>
      </trkpt>
      <trkpt lat="45.50858" lon="4.00019">
        <ele>933.58</ele>
        <time>2011-11-11T10:54:20Z</time>
      </trkpt>
      <trkpt lat="45.50825" lon="4.00033">
        <ele>930.69</ele>
        <time>2011-11-11T10:54:28Z</time>
      </trkpt>
      <trkpt lat="45.50779" lon="4.0005">
        <ele>931.65</ele>
        <time>2011-11-11T10:54:42Z</time>
      </trkpt>
      <trkpt lat="45.50741" lon="4.00068">
        <ele>931.17</ele>
        <time>2011-11-11T10:54:55Z</time>
      </trkpt>
      <trkpt lat="45.50686" lon="4.00092">
        <ele>932.62</ele>
        <time>2011-11-11T10:55:11Z</time>
      </trkpt>
      <trkpt lat="45.50639" lon="4.00108">
        <ele>934.06</ele>
        <time>2011-11-11T10:55:26Z</time>
      </trkpt>
      <trkpt lat="45.50619" lon="4.00115">
        <ele>935.02</ele>
        <time>2011-11-11T10:55:33Z</time>
      </trkpt>
      <trkpt lat="45.50617" lon="4.00114">
        <ele>935.5</ele>
        <time>2011-11-11T10:55:34Z</time>
      </trkpt>
      <trkpt lat="45.50615" lon="4.00111">
        <ele>935.5</ele>
        <time>2011-11-11T10:55:35Z</time>
      </trkpt>
      <trkpt lat="45.50615" lon="4.00107">
        <ele>935.5</ele>
        <time>2011-11-11T10:55:36Z</time>
      </trkpt>
      <trkpt lat="45.50614" lon="4.00104">
        <ele>935.5</ele>
        <time>2011-11-11T10:55:37Z</time>
      </trkpt>
      <trkpt lat="45.50613" lon="4.001">
        <ele>935.5</ele>
        <time>2011-11-11T10:55:38Z</time>
      </trkpt>
      <trkpt lat="45.50612" lon="4.00096">
        <ele>935.02</ele>
        <time>2011-11-11T10:55:39Z</time>
      </trkpt>
      <trkpt lat="45.50611" lon="4.00093">
        <ele>935.5</ele>
        <time>2011-11-11T10:55:40Z</time>
      </trkpt>
      <trkpt lat="45.5059" lon="4.00051">
        <ele>937.9</ele>
        <time>2011-11-11T10:55:53Z</time>
      </trkpt>
      <trkpt lat="45.50561" lon="4.00058">
        <ele>938.86</ele>
        <time>2011-11-11T10:56:04Z</time>
      </trkpt>
      <trkpt lat="45.50522" lon="4.0005">
        <ele>939.83</ele>
        <time>2011-11-11T10:56:18Z</time>
      </trkpt>
      <trkpt lat="45.50486" lon="4.00062">
        <ele>937.9</ele>
        <time>2011-11-11T10:56:29Z</time>
      </trkpt>
      <trkpt lat="45.50459" lon="4.00084">
        <ele>935.5</ele>
        <time>2011-11-11T10:56:36Z</time>
      </trkpt>
      <trkpt lat="45.50444" lon="4.00092">
        <ele>934.54</ele>
        <time>2011-11-11T10:56:39Z</time>
      </trkpt>
      <trkpt lat="45.50439" lon="4.00093">
        <ele>934.54</ele>
        <time>2011-11-11T10:56:40Z</time>
      </trkpt>
      <trkpt lat="45.50416" lon="4.00098">
        <ele>933.58</ele>
        <time>2011-11-11T10:56:44Z</time>
      </trkpt>
      <trkpt lat="45.50411" lon="4.001">
        <ele>933.1</ele>
        <time>2011-11-11T10:56:45Z</time>
      </trkpt>
      <trkpt lat="45.50398" lon="4.00102">
        <ele>932.14</ele>
        <time>2011-11-11T10:56:47Z</time>
      </trkpt>
      <trkpt lat="45.50391" lon="4.00102">
        <ele>931.65</ele>
        <time>2011-11-11T10:56:48Z</time>
      </trkpt>
      <trkpt lat="45.50385" lon="4.00099">
        <ele>931.17</ele>
        <time>2011-11-11T10:56:49Z</time>
      </trkpt>
      <trkpt lat="45.50377" lon="4.00096">
        <ele>930.69</ele>
        <time>2011-11-11T10:56:50Z</time>
      </trkpt>
      <trkpt lat="45.50371" lon="4.00092">
        <ele>930.69</ele>
        <time>2011-11-11T10:56:51Z</time>
      </trkpt>
      <trkpt lat="45.50364" lon="4.0009">
        <ele>930.21</ele>
        <time>2011-11-11T10:56:52Z</time>
      </trkpt>
      <trkpt lat="45.50348" lon="4.00088">
        <ele>929.25</ele>
        <time>2011-11-11T10:56:55Z</time>
      </trkpt>
      <trkpt lat="45.50344" lon="4.0009">
        <ele>929.25</ele>
        <time>2011-11-11T10:56:56Z</time>
      </trkpt>
      <trkpt lat="45.50341" lon="4.00092">
        <ele>928.77</ele>
        <time>2011-11-11T10:56:57Z</time>
      </trkpt>
      <trkpt lat="45.50338" lon="4.00095">
        <ele>928.29</ele>
        <time>2011-11-11T10:56:58Z</time>
      </trkpt>
      <trkpt lat="45.50335" lon="4.00098">
        <ele>928.29</ele>
        <time>2011-11-11T10:56:59Z</time>
      </trkpt>
      <trkpt lat="45.50333" lon="4.00102">
        <ele>928.29</ele>
        <time>2011-11-11T10:57:00Z</time>
      </trkpt>
      <trkpt lat="45.50332" lon="4.00106">
        <ele>928.29</ele>
        <time>2011-11-11T10:57:01Z</time>
      </trkpt>
      <trkpt lat="45.50331" lon="4.00109">
        <ele>928.77</ele>
        <time>2011-11-11T10:57:02Z</time>
      </trkpt>
      <trkpt lat="45.5033" lon="4.00111">
        <ele>929.25</ele>
        <time>2011-11-11T10:57:03Z</time>
      </trkpt>
      <trkpt lat="45.50326" lon="4.00121">
        <ele>930.21</ele>
        <time>2011-11-11T10:57:07Z</time>
      </trkpt>
      <trkpt lat="45.50326" lon="4.00123">
        <ele>930.69</ele>
        <time>2011-11-11T10:57:08Z</time>
      </trkpt>
      <trkpt lat="45.50325" lon="4.00126">
        <ele>930.69</ele>
        <time>2011-11-11T10:57:09Z</time>
      </trkpt>
      <trkpt lat="45.50324" lon="4.00128">
        <ele>931.17</ele>
        <time>2011-11-11T10:57:10Z</time>
      </trkpt>
      <trkpt lat="45.50322" lon="4.00129">
        <ele>931.17</ele>
        <time>2011-11-11T10:57:11Z</time>
      </trkpt>
      <trkpt lat="45.50306" lon="4.0014">
        <ele>935.5</ele>
        <time>2011-11-11T10:57:22Z</time>
      </trkpt>
      <trkpt lat="45.50286" lon="4.00135">
        <ele>943.67</ele>
        <time>2011-11-11T10:57:36Z</time>
      </trkpt>
      <trkpt lat="45.50282" lon="4.00131">
        <ele>945.11</ele>
        <time>2011-11-11T10:57:39Z</time>
      </trkpt>
      <trkpt lat="45.50282" lon="4.0013">
        <ele>945.11</ele>
        <time>2011-11-11T10:57:40Z</time>
      </trkpt>
      <trkpt lat="45.5028" lon="4.00128">
        <ele>945.11</ele>
        <time>2011-11-11T10:57:42Z</time>
      </trkpt>
      <trkpt lat="45.50273" lon="4.00125">
        <ele>946.07</ele>
        <time>2011-11-11T10:57:47Z</time>
      </trkpt>
      <trkpt lat="45.50272" lon="4.00124">
        <ele>946.56</ele>
        <time>2011-11-11T10:57:48Z</time>
      </trkpt>
      <trkpt lat="45.50271" lon="4.00124">
        <ele>946.56</ele>
        <time>2011-11-11T10:57:49Z</time>
      </trkpt>
      <trkpt lat="45.5027" lon="4.00124">
        <ele>947.04</ele>
        <time>2011-11-11T10:57:50Z</time>
      </trkpt>
      <trkpt lat="45.50268" lon="4.00124">
        <ele>947.04</ele>
        <time>2011-11-11T10:57:51Z</time>
      </trkpt>
      <trkpt lat="45.50254" lon="4.00121">
        <ele>949.44</ele>
        <time>2011-11-11T10:58:02Z</time>
      </trkpt>
      <trkpt lat="45.50253" lon="4.00121">
        <ele>949.92</ele>
        <time>2011-11-11T10:58:03Z</time>
      </trkpt>
      <trkpt lat="45.50247" lon="4.00119">
        <ele>951.84</ele>
        <time>2011-11-11T10:58:08Z</time>
      </trkpt>
      <trkpt lat="45.50246" lon="4.00118">
        <ele>951.84</ele>
        <time>2011-11-11T10:58:09Z</time>
      </trkpt>
      <trkpt lat="45.50224" lon="4.00111">
        <ele>955.69</ele>
        <time>2011-11-11T10:58:24Z</time>
      </trkpt>
      <trkpt lat="45.50219" lon="4.00115">
        <ele>955.21</ele>
        <time>2011-11-11T10:58:28Z</time>
      </trkpt>
      <trkpt lat="45.50218" lon="4.00116">
        <ele>954.73</ele>
        <time>2011-11-11T10:58:29Z</time>
      </trkpt>
      <trkpt lat="45.50217" lon="4.00117">
        <ele>954.73</ele>
        <time>2011-11-11T10:58:30Z</time>
      </trkpt>
      <trkpt lat="45.50216" lon="4.0012">
        <ele>954.25</ele>
        <time>2011-11-11T10:58:31Z</time>
      </trkpt>
      <trkpt lat="45.50215" lon="4.00122">
        <ele>954.25</ele>
        <time>2011-11-11T10:58:32Z</time>
      </trkpt>
      <trkpt lat="45.50209" lon="4.00132">
        <ele>954.73</ele>
        <time>2011-11-11T10:58:38Z</time>
      </trkpt>
      <trkpt lat="45.50208" lon="4.00134">
        <ele>954.73</ele>
        <time>2011-11-11T10:58:39Z</time>
      </trkpt>
      <trkpt lat="45.50207" lon="4.00136">
        <ele>954.73</ele>
        <time>2011-11-11T10:58:40Z</time>
      </trkpt>
      <trkpt lat="45.50206" lon="4.00137">
        <ele>954.73</ele>
        <time>2011-11-11T10:58:41Z</time>
      </trkpt>
      <trkpt lat="45.50205" lon="4.00139">
        <ele>955.21</ele>
        <time>2011-11-11T10:58:42Z</time>
      </trkpt>
      <trkpt lat="45.50204" lon="4.0014">
        <ele>954.73</ele>
        <time>2011-11-11T10:58:43Z</time>
      </trkpt>
      <trkpt lat="45.50203" lon="4.00142">
        <ele>954.73</ele>
        <time>2011-11-11T10:58:44Z</time>
      </trkpt>
      <trkpt lat="45.50199" lon="4.00148">
        <ele>954.25</ele>
        <time>2011-11-11T10:58:47Z</time>
      </trkpt>
      <trkpt lat="45.50198" lon="4.0015">
        <ele>954.25</ele>
        <time>2011-11-11T10:58:48Z</time>
      </trkpt>
      <trkpt lat="45.50197" lon="4.00152">
        <ele>953.77</ele>
        <time>2011-11-11T10:58:49Z</time>
      </trkpt>
      <trkpt lat="45.50196" lon="4.00155">
        <ele>953.77</ele>
        <time>2011-11-11T10:58:50Z</time>
      </trkpt>
      <trkpt lat="45.50194" lon="4.00157">
        <ele>953.28</ele>
        <time>2011-11-11T10:58:51Z</time>
      </trkpt>
      <trkpt lat="45.50192" lon="4.00159">
        <ele>953.28</ele>
        <time>2011-11-11T10:58:52Z</time>
      </trkpt>
      <trkpt lat="45.50191" lon="4.00162">
        <ele>952.8</ele>
        <time>2011-11-11T10:58:53Z</time>
      </trkpt>
      <trkpt lat="45.50189" lon="4.00164">
        <ele>952.8</ele>
        <time>2011-11-11T10:58:54Z</time>
      </trkpt>
      <trkpt lat="45.50182" lon="4.00173">
        <ele>952.32</ele>
        <time>2011-11-11T10:58:58Z</time>
      </trkpt>
      <trkpt lat="45.5018" lon="4.00176">
        <ele>951.84</ele>
        <time>2011-11-11T10:58:59Z</time>
      </trkpt>
      <trkpt lat="45.50151" lon="4.00197">
        <ele>951.36</ele>
        <time>2011-11-11T10:59:13Z</time>
      </trkpt>
      <trkpt lat="45.50123" lon="4.00209">
        <ele>952.32</ele>
        <time>2011-11-11T10:59:25Z</time>
      </trkpt>
      <trkpt lat="45.50093" lon="4.00217">
        <ele>951.84</ele>
        <time>2011-11-11T10:59:36Z</time>
      </trkpt>
      <trkpt lat="45.50056" lon="4.00211">
        <ele>953.28</ele>
        <time>2011-11-11T10:59:47Z</time>
      </trkpt>
      <trkpt lat="45.50003" lon="4.00173">
        <ele>956.65</ele>
        <time>2011-11-11T11:00:02Z</time>
      </trkpt>
      <trkpt lat="45.49951" lon="4.00168">
        <ele>956.65</ele>
        <time>2011-11-11T11:00:13Z</time>
      </trkpt>
      <trkpt lat="45.49939" lon="4.00164">
        <ele>956.17</ele>
        <time>2011-11-11T11:00:15Z</time>
      </trkpt>
      <trkpt lat="45.49934" lon="4.00161">
        <ele>956.17</ele>
        <time>2011-11-11T11:00:16Z</time>
      </trkpt>
      <trkpt lat="45.4993" lon="4.00155">
        <ele>955.69</ele>
        <time>2011-11-11T11:00:17Z</time>
      </trkpt>
      <trkpt lat="45.49929" lon="4.00149">
        <ele>956.17</ele>
        <time>2011-11-11T11:00:18Z</time>
      </trkpt>
      <trkpt lat="45.49929" lon="4.00143">
        <ele>956.17</ele>
        <time>2011-11-11T11:00:19Z</time>
      </trkpt>
      <trkpt lat="45.49928" lon="4.00138">
        <ele>956.65</ele>
        <time>2011-11-11T11:00:20Z</time>
      </trkpt>
      <trkpt lat="45.49928" lon="4.00134">
        <ele>956.65</ele>
        <time>2011-11-11T11:00:21Z</time>
      </trkpt>
      <trkpt lat="45.49927" lon="4.00125">
        <ele>957.13</ele>
        <time>2011-11-11T11:00:24Z</time>
      </trkpt>
      <trkpt lat="45.49925" lon="4.00122">
        <ele>957.13</ele>
        <time>2011-11-11T11:00:25Z</time>
      </trkpt>
      <trkpt lat="45.49924" lon="4.00121">
        <ele>957.13</ele>
        <time>2011-11-11T11:00:26Z</time>
      </trkpt>
      <trkpt lat="45.49922" lon="4.0012">
        <ele>957.13</ele>
        <time>2011-11-11T11:00:27Z</time>
      </trkpt>
      <trkpt lat="45.4992" lon="4.00119">
        <ele>957.13</ele>
        <time>2011-11-11T11:00:28Z</time>
      </trkpt>
      <trkpt lat="45.49904" lon="4.00128">
        <ele>958.09</ele>
        <time>2011-11-11T11:00:39Z</time>
      </trkpt>
      <trkpt lat="45.49902" lon="4.0013">
        <ele>958.09</ele>
        <time>2011-11-11T11:00:41Z</time>
      </trkpt>
      <trkpt lat="45.499" lon="4.00131">
        <ele>958.57</ele>
        <time>2011-11-11T11:00:42Z</time>
      </trkpt>
      <trkpt lat="45.49887" lon="4.0014">
        <ele>960.49</ele>
        <time>2011-11-11T11:00:52Z</time>
      </trkpt>
      <trkpt lat="45.49886" lon="4.00141">
        <ele>960.49</ele>
        <time>2011-11-11T11:00:53Z</time>
      </trkpt>
      <trkpt lat="45.49885" lon="4.00142">
        <ele>960.98</ele>
        <time>2011-11-11T11:00:54Z</time>
      </trkpt>
      <trkpt lat="45.49874" lon="4.00153">
        <ele>961.46</ele>
        <time>2011-11-11T11:01:07Z</time>
      </trkpt>
      <trkpt lat="45.49872" lon="4.00157">
        <ele>961.46</ele>
        <time>2011-11-11T11:01:09Z</time>
      </trkpt>
      <trkpt lat="45.49871" lon="4.00159">
        <ele>961.46</ele>
        <time>2011-11-11T11:01:10Z</time>
      </trkpt>
      <trkpt lat="45.4987" lon="4.00161">
        <ele>961.94</ele>
        <time>2011-11-11T11:01:11Z</time>
      </trkpt>
      <trkpt lat="45.49869" lon="4.00163">
        <ele>962.42</ele>
        <time>2011-11-11T11:01:12Z</time>
      </trkpt>
      <trkpt lat="45.49868" lon="4.00164">
        <ele>963.38</ele>
        <time>2011-11-11T11:01:13Z</time>
      </trkpt>
      <trkpt lat="45.49866" lon="4.00166">
        <ele>963.86</ele>
        <time>2011-11-11T11:01:14Z</time>
      </trkpt>
      <trkpt lat="45.49865" lon="4.00167">
        <ele>964.34</ele>
        <time>2011-11-11T11:01:15Z</time>
      </trkpt>
      <trkpt lat="45.49864" lon="4.00169">
        <ele>964.82</ele>
        <time>2011-11-11T11:01:16Z</time>
      </trkpt>
      <trkpt lat="45.49863" lon="4.00171">
        <ele>964.82</ele>
        <time>2011-11-11T11:01:17Z</time>
      </trkpt>
      <trkpt lat="45.49862" lon="4.00172">
        <ele>965.3</ele>
        <time>2011-11-11T11:01:18Z</time>
      </trkpt>
      <trkpt lat="45.49861" lon="4.00174">
        <ele>964.82</ele>
        <time>2011-11-11T11:01:19Z</time>
      </trkpt>
      <trkpt lat="45.49859" lon="4.00175">
        <ele>964.82</ele>
        <time>2011-11-11T11:01:20Z</time>
      </trkpt>
      <trkpt lat="45.49847" lon="4.00191">
        <ele>961.94</ele>
        <time>2011-11-11T11:01:32Z</time>
      </trkpt>
      <trkpt lat="45.49844" lon="4.00196">
        <ele>959.53</ele>
        <time>2011-11-11T11:01:37Z</time>
      </trkpt>
      <trkpt lat="45.49842" lon="4.00196">
        <ele>959.53</ele>
        <time>2011-11-11T11:01:38Z</time>
      </trkpt>
      <trkpt lat="45.4984" lon="4.00196">
        <ele>959.53</ele>
        <time>2011-11-11T11:01:39Z</time>
      </trkpt>
      <trkpt lat="45.49828" lon="4.00204">
        <ele>960.01</ele>
        <time>2011-11-11T11:01:48Z</time>
      </trkpt>
      <trkpt lat="45.49821" lon="4.00207">
        <ele>960.49</ele>
        <time>2011-11-11T11:01:53Z</time>
      </trkpt>
      <trkpt lat="45.4982" lon="4.00208">
        <ele>960.49</ele>
        <time>2011-11-11T11:01:54Z</time>
      </trkpt>
      <trkpt lat="45.49818" lon="4.0021">
        <ele>960.98</ele>
        <time>2011-11-11T11:01:55Z</time>
      </trkpt>
      <trkpt lat="45.49816" lon="4.00211">
        <ele>960.98</ele>
        <time>2011-11-11T11:01:56Z</time>
      </trkpt>
      <trkpt lat="45.49814" lon="4.00212">
        <ele>960.98</ele>
        <time>2011-11-11T11:01:57Z</time>
      </trkpt>
      <trkpt lat="45.49812" lon="4.00213">
        <ele>960.98</ele>
        <time>2011-11-11T11:01:58Z</time>
      </trkpt>
      <trkpt lat="45.4981" lon="4.00214">
        <ele>960.98</ele>
        <time>2011-11-11T11:01:59Z</time>
      </trkpt>
      <trkpt lat="45.49794" lon="4.00241">
        <ele>957.61</ele>
        <time>2011-11-11T11:02:11Z</time>
      </trkpt>
      <trkpt lat="45.4979" lon="4.00266">
        <ele>956.17</ele>
        <time>2011-11-11T11:02:19Z</time>
      </trkpt>
      <trkpt lat="45.49789" lon="4.00269">
        <ele>956.17</ele>
        <time>2011-11-11T11:02:20Z</time>
      </trkpt>
      <trkpt lat="45.49788" lon="4.00271">
        <ele>956.17</ele>
        <time>2011-11-11T11:02:21Z</time>
      </trkpt>
      <trkpt lat="45.49787" lon="4.00273">
        <ele>956.65</ele>
        <time>2011-11-11T11:02:22Z</time>
      </trkpt>
      <trkpt lat="45.49786" lon="4.00276">
        <ele>956.65</ele>
        <time>2011-11-11T11:02:23Z</time>
      </trkpt>
      <trkpt lat="45.49785" lon="4.00279">
        <ele>956.65</ele>
        <time>2011-11-11T11:02:24Z</time>
      </trkpt>
      <trkpt lat="45.49784" lon="4.00282">
        <ele>956.65</ele>
        <time>2011-11-11T11:02:25Z</time>
      </trkpt>
      <trkpt lat="45.49783" lon="4.00285">
        <ele>956.65</ele>
        <time>2011-11-11T11:02:26Z</time>
      </trkpt>
      <trkpt lat="45.49782" lon="4.00288">
        <ele>956.65</ele>
        <time>2011-11-11T11:02:27Z</time>
      </trkpt>
      <trkpt lat="45.49781" lon="4.00291">
        <ele>956.17</ele>
        <time>2011-11-11T11:02:28Z</time>
      </trkpt>
      <trkpt lat="45.49777" lon="4.003">
        <ele>955.69</ele>
        <time>2011-11-11T11:02:31Z</time>
      </trkpt>
      <trkpt lat="45.4978" lon="4.00328">
        <ele>956.17</ele>
        <time>2011-11-11T11:02:38Z</time>
      </trkpt>
      <trkpt lat="45.49781" lon="4.00331">
        <ele>957.13</ele>
        <time>2011-11-11T11:02:39Z</time>
      </trkpt>
      <trkpt lat="45.49796" lon="4.00342">
        <ele>962.42</ele>
        <time>2011-11-11T11:02:50Z</time>
      </trkpt>
      <trkpt lat="45.4981" lon="4.00374">
        <ele>967.22</ele>
        <time>2011-11-11T11:03:03Z</time>
      </trkpt>
      <trkpt lat="45.4982" lon="4.00403">
        <ele>980.68</ele>
        <time>2011-11-11T11:03:16Z</time>
      </trkpt>
      <trkpt lat="45.49825" lon="4.00414">
        <ele>985.01</ele>
        <time>2011-11-11T11:03:22Z</time>
      </trkpt>
      <trkpt lat="45.49826" lon="4.00432">
        <ele>985.97</ele>
        <time>2011-11-11T11:03:31Z</time>
      </trkpt>
      <trkpt lat="45.49816" lon="4.00447">
        <ele>981.64</ele>
        <time>2011-11-11T11:03:43Z</time>
      </trkpt>
      <trkpt lat="45.49814" lon="4.0045">
        <ele>980.68</ele>
        <time>2011-11-11T11:03:45Z</time>
      </trkpt>
      <trkpt lat="45.4981" lon="4.00454">
        <ele>980.2</ele>
        <time>2011-11-11T11:03:49Z</time>
      </trkpt>
      <trkpt lat="45.49808" lon="4.00458">
        <ele>980.68</ele>
        <time>2011-11-11T11:03:51Z</time>
      </trkpt>
      <trkpt lat="45.498" lon="4.00476">
        <ele>980.68</ele>
        <time>2011-11-11T11:04:05Z</time>
      </trkpt>
      <trkpt lat="45.49794" lon="4.00485">
        <ele>979.24</ele>
        <time>2011-11-11T11:04:13Z</time>
      </trkpt>
      <trkpt lat="45.49788" lon="4.00498">
        <ele>979.72</ele>
        <time>2011-11-11T11:04:27Z</time>
      </trkpt>
      <trkpt lat="45.49786" lon="4.00504">
        <ele>979.72</ele>
        <time>2011-11-11T11:04:33Z</time>
      </trkpt>
      <trkpt lat="45.49777" lon="4.0052">
        <ele>979.24</ele>
        <time>2011-11-11T11:04:45Z</time>
      </trkpt>
      <trkpt lat="45.49767" lon="4.00531">
        <ele>974.43</ele>
        <time>2011-11-11T11:04:57Z</time>
      </trkpt>
      <trkpt lat="45.49767" lon="4.00531">
        <ele>973.47</ele>
        <time>2011-11-11T11:04:59Z</time>
      </trkpt>
      <trkpt lat="45.49763" lon="4.00537">
        <ele>970.11</ele>
        <time>2011-11-11T11:05:10Z</time>
      </trkpt>
      <trkpt lat="45.49755" lon="4.00542">
        <ele>967.22</ele>
        <time>2011-11-11T11:05:18Z</time>
      </trkpt>
      <trkpt lat="45.49752" lon="4.00568">
        <ele>976.36</ele>
        <time>2011-11-11T11:05:32Z</time>
      </trkpt>
      <trkpt lat="45.49753" lon="4.0057">
        <ele>977.8</ele>
        <time>2011-11-11T11:05:33Z</time>
      </trkpt>
      <trkpt lat="45.49757" lon="4.00579">
        <ele>987.89</ele>
        <time>2011-11-11T11:05:44Z</time>
      </trkpt>
      <trkpt lat="45.49765" lon="4.0059">
        <ele>995.58</ele>
        <time>2011-11-11T11:05:54Z</time>
      </trkpt>
      <trkpt lat="45.49774" lon="4.006">
        <ele>1001.83</ele>
        <time>2011-11-11T11:06:06Z</time>
      </trkpt>
      <trkpt lat="45.49783" lon="4.00613">
        <ele>1005.68</ele>
        <time>2011-11-11T11:06:15Z</time>
      </trkpt>
      <trkpt lat="45.49797" lon="4.00639">
        <ele>1009.52</ele>
        <time>2011-11-11T11:06:26Z</time>
      </trkpt>
      <trkpt lat="45.49806" lon="4.00679">
        <ele>1017.21</ele>
        <time>2011-11-11T11:06:39Z</time>
      </trkpt>
      <trkpt lat="45.49808" lon="4.0072">
        <ele>1020.58</ele>
        <time>2011-11-11T11:06:55Z</time>
      </trkpt>
      <trkpt lat="45.49812" lon="4.00756">
        <ele>1022.02</ele>
        <time>2011-11-11T11:07:07Z</time>
      </trkpt>
      <trkpt lat="45.49819" lon="4.00791">
        <ele>1022.98</ele>
        <time>2011-11-11T11:07:19Z</time>
      </trkpt>
      <trkpt lat="45.49826" lon="4.00829">
        <ele>1023.46</ele>
        <time>2011-11-11T11:07:32Z</time>
      </trkpt>
      <trkpt lat="45.49836" lon="4.00867">
        <ele>1025.86</ele>
        <time>2011-11-11T11:07:44Z</time>
      </trkpt>
      <trkpt lat="45.49838" lon="4.0088">
        <ele>1025.86</ele>
        <time>2011-11-11T11:07:48Z</time>
      </trkpt>
      <trkpt lat="45.4984" lon="4.00903">
        <ele>1023.46</ele>
        <time>2011-11-11T11:07:55Z</time>
      </trkpt>
      <trkpt lat="45.49842" lon="4.00931">
        <ele>1022.5</ele>
        <time>2011-11-11T11:08:05Z</time>
      </trkpt>
      <trkpt lat="45.49841" lon="4.00949">
        <ele>1022.5</ele>
        <time>2011-11-11T11:08:11Z</time>
      </trkpt>
      <trkpt lat="45.49842" lon="4.00981">
        <ele>1021.06</ele>
        <time>2011-11-11T11:08:22Z</time>
      </trkpt>
      <trkpt lat="45.49841" lon="4.00999">
        <ele>1022.5</ele>
        <time>2011-11-11T11:08:28Z</time>
      </trkpt>
      <trkpt lat="45.49828" lon="4.01035">
        <ele>1027.31</ele>
        <time>2011-11-11T11:08:41Z</time>
      </trkpt>
      <trkpt lat="45.4981" lon="4.01069">
        <ele>1027.31</ele>
        <time>2011-11-11T11:08:54Z</time>
      </trkpt>
      <trkpt lat="45.49787" lon="4.01108">
        <ele>1030.67</ele>
        <time>2011-11-11T11:09:08Z</time>
      </trkpt>
      <trkpt lat="45.49754" lon="4.01134">
        <ele>1032.11</ele>
        <time>2011-11-11T11:09:23Z</time>
      </trkpt>
      <trkpt lat="45.49722" lon="4.01156">
        <ele>1031.15</ele>
        <time>2011-11-11T11:09:35Z</time>
      </trkpt>
      <trkpt lat="45.49705" lon="4.01164">
        <ele>1031.63</ele>
        <time>2011-11-11T11:09:40Z</time>
      </trkpt>
      <trkpt lat="45.49702" lon="4.01197">
        <ele>1028.75</ele>
        <time>2011-11-11T11:09:46Z</time>
      </trkpt>
      <trkpt lat="45.49702" lon="4.01205">
        <ele>1027.79</ele>
        <time>2011-11-11T11:09:47Z</time>
      </trkpt>
      <trkpt lat="45.49701" lon="4.01214">
        <ele>1026.83</ele>
        <time>2011-11-11T11:09:48Z</time>
      </trkpt>
      <trkpt lat="45.49699" lon="4.01221">
        <ele>1026.34</ele>
        <time>2011-11-11T11:09:49Z</time>
      </trkpt>
      <trkpt lat="45.49697" lon="4.01228">
        <ele>1025.38</ele>
        <time>2011-11-11T11:09:50Z</time>
      </trkpt>
      <trkpt lat="45.49693" lon="4.01235">
        <ele>1024.9</ele>
        <time>2011-11-11T11:09:51Z</time>
      </trkpt>
      <trkpt lat="45.49689" lon="4.01239">
        <ele>1024.42</ele>
        <time>2011-11-11T11:09:52Z</time>
      </trkpt>
      <trkpt lat="45.49686" lon="4.0124">
        <ele>1023.94</ele>
        <time>2011-11-11T11:09:53Z</time>
      </trkpt>
      <trkpt lat="45.49684" lon="4.01243">
        <ele>1022.98</ele>
        <time>2011-11-11T11:09:56Z</time>
      </trkpt>
      <trkpt lat="45.49685" lon="4.01245">
        <ele>1022.98</ele>
        <time>2011-11-11T11:09:57Z</time>
      </trkpt>
      <trkpt lat="45.49687" lon="4.01244">
        <ele>1022.98</ele>
        <time>2011-11-11T11:09:58Z</time>
      </trkpt>
      <trkpt lat="45.49688" lon="4.01242">
        <ele>1023.46</ele>
        <time>2011-11-11T11:09:59Z</time>
      </trkpt>
      <trkpt lat="45.4969" lon="4.01241">
        <ele>1023.46</ele>
        <time>2011-11-11T11:10:00Z</time>
      </trkpt>
      <trkpt lat="45.49691" lon="4.0124">
        <ele>1023.46</ele>
        <time>2011-11-11T11:10:01Z</time>
      </trkpt>
      <trkpt lat="45.49691" lon="4.01238">
        <ele>1024.42</ele>
        <time>2011-11-11T11:10:14Z</time>
      </trkpt>
      <trkpt lat="45.49692" lon="4.01237">
        <ele>1024.9</ele>
        <time>2011-11-11T11:10:47Z</time>
      </trkpt>
      <trkpt lat="45.49691" lon="4.01238">
        <ele>1024.9</ele>
        <time>2011-11-11T11:11:07Z</time>
      </trkpt>
      <trkpt lat="45.4969" lon="4.0124">
        <ele>1024.9</ele>
        <time>2011-11-11T11:13:04Z</time>
      </trkpt>
      <trkpt lat="45.49689" lon="4.01241">
        <ele>1024.9</ele>
        <time>2011-11-11T11:13:16Z</time>
      </trkpt>
      <trkpt lat="45.49687" lon="4.01242">
        <ele>1024.9</ele>
        <time>2011-11-11T11:13:17Z</time>
      </trkpt>
      <trkpt lat="45.49685" lon="4.01243">
        <ele>1024.9</ele>
        <time>2011-11-11T11:13:18Z</time>
      </trkpt>
      <trkpt lat="45.49682" lon="4.01244">
        <ele>1024.42</ele>
        <time>2011-11-11T11:13:19Z</time>
      </trkpt>
      <trkpt lat="45.49679" lon="4.01246">
        <ele>1024.42</ele>
        <time>2011-11-11T11:13:20Z</time>
      </trkpt>
      <trkpt lat="45.49676" lon="4.01247">
        <ele>1023.94</ele>
        <time>2011-11-11T11:13:21Z</time>
      </trkpt>
      <trkpt lat="45.49671" lon="4.01248">
        <ele>1024.42</ele>
        <time>2011-11-11T11:13:22Z</time>
      </trkpt>
      <trkpt lat="45.49667" lon="4.01249">
        <ele>1024.9</ele>
        <time>2011-11-11T11:13:23Z</time>
      </trkpt>
      <trkpt lat="45.49663" lon="4.01251">
        <ele>1024.9</ele>
        <time>2011-11-11T11:13:24Z</time>
      </trkpt>
      <trkpt lat="45.49641" lon="4.01263">
        <ele>1025.38</ele>
        <time>2011-11-11T11:13:30Z</time>
      </trkpt>
      <trkpt lat="45.49637" lon="4.01265">
        <ele>1024.9</ele>
        <time>2011-11-11T11:13:31Z</time>
      </trkpt>
      <trkpt lat="45.49608" lon="4.01288">
        <ele>1023.46</ele>
        <time>2011-11-11T11:13:42Z</time>
      </trkpt>
      <trkpt lat="45.496" lon="4.01332">
        <ele>1021.06</ele>
        <time>2011-11-11T11:13:56Z</time>
      </trkpt>
      <trkpt lat="45.49602" lon="4.01339">
        <ele>1020.1</ele>
        <time>2011-11-11T11:14:01Z</time>
      </trkpt>
      <trkpt lat="45.49602" lon="4.01343">
        <ele>1019.13</ele>
        <time>2011-11-11T11:14:02Z</time>
      </trkpt>
      <trkpt lat="45.49601" lon="4.01348">
        <ele>1019.13</ele>
        <time>2011-11-11T11:14:03Z</time>
      </trkpt>
      <trkpt lat="45.49585" lon="4.014">
        <ele>1019.62</ele>
        <time>2011-11-11T11:14:15Z</time>
      </trkpt>
      <trkpt lat="45.49572" lon="4.01447">
        <ele>1020.58</ele>
        <time>2011-11-11T11:14:29Z</time>
      </trkpt>
      <trkpt lat="45.49567" lon="4.01456">
        <ele>1020.58</ele>
        <time>2011-11-11T11:14:31Z</time>
      </trkpt>
      <trkpt lat="45.49563" lon="4.0146">
        <ele>1020.58</ele>
        <time>2011-11-11T11:14:32Z</time>
      </trkpt>
      <trkpt lat="45.49559" lon="4.01464">
        <ele>1020.58</ele>
        <time>2011-11-11T11:14:33Z</time>
      </trkpt>
      <trkpt lat="45.49529" lon="4.01487">
        <ele>1020.1</ele>
        <time>2011-11-11T11:14:44Z</time>
      </trkpt>
      <trkpt lat="45.49504" lon="4.01515">
        <ele>1017.21</ele>
        <time>2011-11-11T11:14:56Z</time>
      </trkpt>
      <trkpt lat="45.49504" lon="4.01518">
        <ele>1016.73</ele>
        <time>2011-11-11T11:14:57Z</time>
      </trkpt>
      <trkpt lat="45.49504" lon="4.01521">
        <ele>1016.73</ele>
        <time>2011-11-11T11:14:58Z</time>
      </trkpt>
      <trkpt lat="45.49504" lon="4.0153">
        <ele>1016.25</ele>
        <time>2011-11-11T11:15:00Z</time>
      </trkpt>
      <trkpt lat="45.49506" lon="4.01535">
        <ele>1015.77</ele>
        <time>2011-11-11T11:15:01Z</time>
      </trkpt>
      <trkpt lat="45.49515" lon="4.01556">
        <ele>1013.85</ele>
        <time>2011-11-11T11:15:05Z</time>
      </trkpt>
      <trkpt lat="45.49516" lon="4.01562">
        <ele>1012.89</ele>
        <time>2011-11-11T11:15:06Z</time>
      </trkpt>
      <trkpt lat="45.49516" lon="4.01568">
        <ele>1012.41</ele>
        <time>2011-11-11T11:15:07Z</time>
      </trkpt>
      <trkpt lat="45.49515" lon="4.01621">
        <ele>1006.16</ele>
        <time>2011-11-11T11:15:15Z</time>
      </trkpt>
      <trkpt lat="45.49516" lon="4.01627">
        <ele>1005.2</ele>
        <time>2011-11-11T11:15:16Z</time>
      </trkpt>
      <trkpt lat="45.49518" lon="4.01631">
        <ele>1004.72</ele>
        <time>2011-11-11T11:15:17Z</time>
      </trkpt>
      <trkpt lat="45.4952" lon="4.01636">
        <ele>1003.75</ele>
        <time>2011-11-11T11:15:18Z</time>
      </trkpt>
      <trkpt lat="45.49523" lon="4.0164">
        <ele>1003.27</ele>
        <time>2011-11-11T11:15:19Z</time>
      </trkpt>
      <trkpt lat="45.49527" lon="4.01644">
        <ele>1002.31</ele>
        <time>2011-11-11T11:15:20Z</time>
      </trkpt>
      <trkpt lat="45.49529" lon="4.01649">
        <ele>1001.83</ele>
        <time>2011-11-11T11:15:21Z</time>
      </trkpt>
      <trkpt lat="45.49537" lon="4.0166">
        <ele>999.43</ele>
        <time>2011-11-11T11:15:25Z</time>
      </trkpt>
      <trkpt lat="45.49537" lon="4.01663">
        <ele>999.43</ele>
        <time>2011-11-11T11:15:26Z</time>
      </trkpt>
      <trkpt lat="45.49537" lon="4.01666">
        <ele>998.95</ele>
        <time>2011-11-11T11:15:27Z</time>
      </trkpt>
      <trkpt lat="45.49537" lon="4.0167">
        <ele>998.95</ele>
        <time>2011-11-11T11:15:28Z</time>
      </trkpt>
      <trkpt lat="45.49537" lon="4.01674">
        <ele>998.95</ele>
        <time>2011-11-11T11:15:29Z</time>
      </trkpt>
      <trkpt lat="45.49538" lon="4.01677">
        <ele>998.47</ele>
        <time>2011-11-11T11:15:30Z</time>
      </trkpt>
      <trkpt lat="45.4954" lon="4.0168">
        <ele>998.47</ele>
        <time>2011-11-11T11:15:31Z</time>
      </trkpt>
      <trkpt lat="45.49543" lon="4.01682">
        <ele>997.51</ele>
        <time>2011-11-11T11:15:32Z</time>
      </trkpt>
      <trkpt lat="45.49547" lon="4.01683">
        <ele>997.51</ele>
        <time>2011-11-11T11:15:33Z</time>
      </trkpt>
      <trkpt lat="45.49551" lon="4.01684">
        <ele>997.51</ele>
        <time>2011-11-11T11:15:34Z</time>
      </trkpt>
      <trkpt lat="45.49555" lon="4.01686">
        <ele>997.02</ele>
        <time>2011-11-11T11:15:35Z</time>
      </trkpt>
      <trkpt lat="45.4956" lon="4.0169">
        <ele>997.02</ele>
        <time>2011-11-11T11:15:36Z</time>
      </trkpt>
      <trkpt lat="45.49564" lon="4.01694">
        <ele>996.54</ele>
        <time>2011-11-11T11:15:37Z</time>
      </trkpt>
      <trkpt lat="45.49569" lon="4.017">
        <ele>996.54</ele>
        <time>2011-11-11T11:15:38Z</time>
      </trkpt>
      <trkpt lat="45.49573" lon="4.01707">
        <ele>996.06</ele>
        <time>2011-11-11T11:15:39Z</time>
      </trkpt>
      <trkpt lat="45.49577" lon="4.01714">
        <ele>995.58</ele>
        <time>2011-11-11T11:15:40Z</time>
      </trkpt>
      <trkpt lat="45.49621" lon="4.01794">
        <ele>990.78</ele>
        <time>2011-11-11T11:15:51Z</time>
      </trkpt>
      <trkpt lat="45.49626" lon="4.01799">
        <ele>990.3</ele>
        <time>2011-11-11T11:15:52Z</time>
      </trkpt>
      <trkpt lat="45.49671" lon="4.01833">
        <ele>984.53</ele>
        <time>2011-11-11T11:16:00Z</time>
      </trkpt>
      <trkpt lat="45.49674" lon="4.01839">
        <ele>984.05</ele>
        <time>2011-11-11T11:16:01Z</time>
      </trkpt>
      <trkpt lat="45.49677" lon="4.01845">
        <ele>984.05</ele>
        <time>2011-11-11T11:16:02Z</time>
      </trkpt>
      <trkpt lat="45.49685" lon="4.01861">
        <ele>982.12</ele>
        <time>2011-11-11T11:16:05Z</time>
      </trkpt>
      <trkpt lat="45.4972" lon="4.01938">
        <ele>975.88</ele>
        <time>2011-11-11T11:16:15Z</time>
      </trkpt>
      <trkpt lat="45.49753" lon="4.02003">
        <ele>976.84</ele>
        <time>2011-11-11T11:16:25Z</time>
      </trkpt>
      <trkpt lat="45.49768" lon="4.02046">
        <ele>974.43</ele>
        <time>2011-11-11T11:16:35Z</time>
      </trkpt>
      <trkpt lat="45.49786" lon="4.02084">
        <ele>972.51</ele>
        <time>2011-11-11T11:16:44Z</time>
      </trkpt>
      <trkpt lat="45.49791" lon="4.02093">
        <ele>972.03</ele>
        <time>2011-11-11T11:16:46Z</time>
      </trkpt>
      <trkpt lat="45.49798" lon="4.02112">
        <ele>970.59</ele>
        <time>2011-11-11T11:16:49Z</time>
      </trkpt>
      <trkpt lat="45.498" lon="4.02119">
        <ele>970.11</ele>
        <time>2011-11-11T11:16:50Z</time>
      </trkpt>
      <trkpt lat="45.49802" lon="4.02125">
        <ele>970.11</ele>
        <time>2011-11-11T11:16:51Z</time>
      </trkpt>
      <trkpt lat="45.49804" lon="4.0213">
        <ele>969.63</ele>
        <time>2011-11-11T11:16:52Z</time>
      </trkpt>
      <trkpt lat="45.49806" lon="4.02134">
        <ele>969.63</ele>
        <time>2011-11-11T11:16:53Z</time>
      </trkpt>
      <trkpt lat="45.49808" lon="4.02138">
        <ele>969.15</ele>
        <time>2011-11-11T11:16:54Z</time>
      </trkpt>
      <trkpt lat="45.4984" lon="4.02184">
        <ele>966.74</ele>
        <time>2011-11-11T11:17:05Z</time>
      </trkpt>
      <trkpt lat="45.49862" lon="4.0222">
        <ele>966.74</ele>
        <time>2011-11-11T11:17:14Z</time>
      </trkpt>
      <trkpt lat="45.49863" lon="4.02222">
        <ele>966.74</ele>
        <time>2011-11-11T11:17:15Z</time>
      </trkpt>
      <trkpt lat="45.49863" lon="4.02225">
        <ele>966.26</ele>
        <time>2011-11-11T11:17:16Z</time>
      </trkpt>
      <trkpt lat="45.49865" lon="4.02233">
        <ele>966.26</ele>
        <time>2011-11-11T11:17:19Z</time>
      </trkpt>
      <trkpt lat="45.49864" lon="4.02238">
        <ele>965.78</ele>
        <time>2011-11-11T11:17:21Z</time>
      </trkpt>
      <trkpt lat="45.49862" lon="4.02241">
        <ele>965.78</ele>
        <time>2011-11-11T11:17:22Z</time>
      </trkpt>
      <trkpt lat="45.49862" lon="4.02243">
        <ele>965.78</ele>
        <time>2011-11-11T11:17:23Z</time>
      </trkpt>
      <trkpt lat="45.49863" lon="4.02246">
        <ele>965.3</ele>
        <time>2011-11-11T11:17:24Z</time>
      </trkpt>
      <trkpt lat="45.49864" lon="4.02248">
        <ele>965.3</ele>
        <time>2011-11-11T11:17:25Z</time>
      </trkpt>
      <trkpt lat="45.49866" lon="4.0225">
        <ele>965.3</ele>
        <time>2011-11-11T11:17:26Z</time>
      </trkpt>
      <trkpt lat="45.49868" lon="4.02252">
        <ele>965.3</ele>
        <time>2011-11-11T11:17:27Z</time>
      </trkpt>
      <trkpt lat="45.4987" lon="4.02255">
        <ele>965.3</ele>
        <time>2011-11-11T11:17:28Z</time>
      </trkpt>
      <trkpt lat="45.49871" lon="4.02259">
        <ele>965.78</ele>
        <time>2011-11-11T11:17:29Z</time>
      </trkpt>
      <trkpt lat="45.49872" lon="4.02262">
        <ele>965.78</ele>
        <time>2011-11-11T11:17:30Z</time>
      </trkpt>
      <trkpt lat="45.49874" lon="4.02274">
        <ele>965.78</ele>
        <time>2011-11-11T11:17:32Z</time>
      </trkpt>
      <trkpt lat="45.49876" lon="4.02281">
        <ele>965.78</ele>
        <time>2011-11-11T11:17:33Z</time>
      </trkpt>
      <trkpt lat="45.49877" lon="4.0229">
        <ele>965.3</ele>
        <time>2011-11-11T11:17:34Z</time>
      </trkpt>
      <trkpt lat="45.4988" lon="4.02298">
        <ele>965.3</ele>
        <time>2011-11-11T11:17:35Z</time>
      </trkpt>
      <trkpt lat="45.49882" lon="4.02307">
        <ele>965.3</ele>
        <time>2011-11-11T11:17:36Z</time>
      </trkpt>
      <trkpt lat="45.49887" lon="4.02332">
        <ele>964.82</ele>
        <time>2011-11-11T11:17:39Z</time>
      </trkpt>
      <trkpt lat="45.49889" lon="4.02339">
        <ele>964.82</ele>
        <time>2011-11-11T11:17:40Z</time>
      </trkpt>
      <trkpt lat="45.4989" lon="4.02346">
        <ele>964.82</ele>
        <time>2011-11-11T11:17:41Z</time>
      </trkpt>
      <trkpt lat="45.49892" lon="4.02353">
        <ele>964.82</ele>
        <time>2011-11-11T11:17:42Z</time>
      </trkpt>
      <trkpt lat="45.49893" lon="4.0236">
        <ele>964.34</ele>
        <time>2011-11-11T11:17:43Z</time>
      </trkpt>
      <trkpt lat="45.49896" lon="4.02372">
        <ele>963.38</ele>
        <time>2011-11-11T11:17:45Z</time>
      </trkpt>
      <trkpt lat="45.4991" lon="4.02426">
        <ele>960.49</ele>
        <time>2011-11-11T11:17:54Z</time>
      </trkpt>
      <trkpt lat="45.49912" lon="4.02432">
        <ele>960.01</ele>
        <time>2011-11-11T11:17:55Z</time>
      </trkpt>
      <trkpt lat="45.49914" lon="4.02438">
        <ele>959.05</ele>
        <time>2011-11-11T11:17:56Z</time>
      </trkpt>
      <trkpt lat="45.49916" lon="4.02444">
        <ele>958.09</ele>
        <time>2011-11-11T11:17:57Z</time>
      </trkpt>
      <trkpt lat="45.49917" lon="4.02449">
        <ele>957.13</ele>
        <time>2011-11-11T11:17:58Z</time>
      </trkpt>
      <trkpt lat="45.49917" lon="4.02453">
        <ele>956.17</ele>
        <time>2011-11-11T11:17:59Z</time>
      </trkpt>
      <trkpt lat="45.49917" lon="4.02456">
        <ele>955.21</ele>
        <time>2011-11-11T11:18:00Z</time>
      </trkpt>
      <trkpt lat="45.49915" lon="4.02459">
        <ele>954.73</ele>
        <time>2011-11-11T11:18:01Z</time>
      </trkpt>
      <trkpt lat="45.49912" lon="4.02475">
        <ele>949.92</ele>
        <time>2011-11-11T11:18:06Z</time>
      </trkpt>
      <trkpt lat="45.49916" lon="4.0249">
        <ele>946.56</ele>
        <time>2011-11-11T11:18:09Z</time>
      </trkpt>
      <trkpt lat="45.49915" lon="4.02504">
        <ele>943.67</ele>
        <time>2011-11-11T11:18:12Z</time>
      </trkpt>
      <trkpt lat="45.49893" lon="4.02524">
        <ele>936.46</ele>
        <time>2011-11-11T11:18:21Z</time>
      </trkpt>
      <trkpt lat="45.49892" lon="4.02545">
        <ele>934.06</ele>
        <time>2011-11-11T11:18:34Z</time>
      </trkpt>
      <trkpt lat="45.49892" lon="4.02548">
        <ele>934.06</ele>
        <time>2011-11-11T11:18:38Z</time>
      </trkpt>
      <trkpt lat="45.49894" lon="4.02568">
        <ele>931.65</ele>
        <time>2011-11-11T11:18:46Z</time>
      </trkpt>
      <trkpt lat="45.49908" lon="4.02597">
        <ele>924.93</ele>
        <time>2011-11-11T11:18:58Z</time>
      </trkpt>
      <trkpt lat="45.49913" lon="4.0262">
        <ele>923</ele>
        <time>2011-11-11T11:19:04Z</time>
      </trkpt>
      <trkpt lat="45.49916" lon="4.02653">
        <ele>923.48</ele>
        <time>2011-11-11T11:19:16Z</time>
      </trkpt>
      <trkpt lat="45.49921" lon="4.02671">
        <ele>922.52</ele>
        <time>2011-11-11T11:19:22Z</time>
      </trkpt>
      <trkpt lat="45.49924" lon="4.02684">
        <ele>922.04</ele>
        <time>2011-11-11T11:19:26Z</time>
      </trkpt>
      <trkpt lat="45.49951" lon="4.02697">
        <ele>919.64</ele>
        <time>2011-11-11T11:19:34Z</time>
      </trkpt>
      <trkpt lat="45.49955" lon="4.02697">
        <ele>919.16</ele>
        <time>2011-11-11T11:19:35Z</time>
      </trkpt>
      <trkpt lat="45.49958" lon="4.02696">
        <ele>918.68</ele>
        <time>2011-11-11T11:19:36Z</time>
      </trkpt>
      <trkpt lat="45.49962" lon="4.02694">
        <ele>918.2</ele>
        <time>2011-11-11T11:19:37Z</time>
      </trkpt>
      <trkpt lat="45.49966" lon="4.02693">
        <ele>917.72</ele>
        <time>2011-11-11T11:19:38Z</time>
      </trkpt>
      <trkpt lat="45.4997" lon="4.02691">
        <ele>917.72</ele>
        <time>2011-11-11T11:19:39Z</time>
      </trkpt>
      <trkpt lat="45.49974" lon="4.02689">
        <ele>917.24</ele>
        <time>2011-11-11T11:19:40Z</time>
      </trkpt>
      <trkpt lat="45.49979" lon="4.02687">
        <ele>916.75</ele>
        <time>2011-11-11T11:19:41Z</time>
      </trkpt>
      <trkpt lat="45.49983" lon="4.02686">
        <ele>916.27</ele>
        <time>2011-11-11T11:19:42Z</time>
      </trkpt>
      <trkpt lat="45.49987" lon="4.02684">
        <ele>915.79</ele>
        <time>2011-11-11T11:19:43Z</time>
      </trkpt>
      <trkpt lat="45.49992" lon="4.02682">
        <ele>915.31</ele>
        <time>2011-11-11T11:19:44Z</time>
      </trkpt>
      <trkpt lat="45.50029" lon="4.02664">
        <ele>910.51</ele>
        <time>2011-11-11T11:19:54Z</time>
      </trkpt>
      <trkpt lat="45.50046" lon="4.02664">
        <ele>910.03</ele>
        <time>2011-11-11T11:19:58Z</time>
      </trkpt>
      <trkpt lat="45.50095" lon="4.02665">
        <ele>906.18</ele>
        <time>2011-11-11T11:20:09Z</time>
      </trkpt>
      <trkpt lat="45.50119" lon="4.02667">
        <ele>900.41</ele>
        <time>2011-11-11T11:20:14Z</time>
      </trkpt>
      <trkpt lat="45.50132" lon="4.02668">
        <ele>896.57</ele>
        <time>2011-11-11T11:20:17Z</time>
      </trkpt>
      <trkpt lat="45.50138" lon="4.02669">
        <ele>895.61</ele>
        <time>2011-11-11T11:20:18Z</time>
      </trkpt>
      <trkpt lat="45.50143" lon="4.02668">
        <ele>894.16</ele>
        <time>2011-11-11T11:20:19Z</time>
      </trkpt>
      <trkpt lat="45.50157" lon="4.02664">
        <ele>891.76</ele>
        <time>2011-11-11T11:20:22Z</time>
      </trkpt>
      <trkpt lat="45.50162" lon="4.02663">
        <ele>891.28</ele>
        <time>2011-11-11T11:20:23Z</time>
      </trkpt>
      <trkpt lat="45.50166" lon="4.02662">
        <ele>891.28</ele>
        <time>2011-11-11T11:20:24Z</time>
      </trkpt>
      <trkpt lat="45.5017" lon="4.02661">
        <ele>891.28</ele>
        <time>2011-11-11T11:20:25Z</time>
      </trkpt>
      <trkpt lat="45.50172" lon="4.02661">
        <ele>891.28</ele>
        <time>2011-11-11T11:20:26Z</time>
      </trkpt>
      <trkpt lat="45.50174" lon="4.02663">
        <ele>891.76</ele>
        <time>2011-11-11T11:20:27Z</time>
      </trkpt>
      <trkpt lat="45.50176" lon="4.02665">
        <ele>892.72</ele>
        <time>2011-11-11T11:20:28Z</time>
      </trkpt>
      <trkpt lat="45.50176" lon="4.02668">
        <ele>893.2</ele>
        <time>2011-11-11T11:20:29Z</time>
      </trkpt>
      <trkpt lat="45.50175" lon="4.02671">
        <ele>892.72</ele>
        <time>2011-11-11T11:20:30Z</time>
      </trkpt>
      <trkpt lat="45.50173" lon="4.02674">
        <ele>892.24</ele>
        <time>2011-11-11T11:20:31Z</time>
      </trkpt>
      <trkpt lat="45.50171" lon="4.02677">
        <ele>892.24</ele>
        <time>2011-11-11T11:20:32Z</time>
      </trkpt>
      <trkpt lat="45.5017" lon="4.0268">
        <ele>892.24</ele>
        <time>2011-11-11T11:20:33Z</time>
      </trkpt>
      <trkpt lat="45.5017" lon="4.02684">
        <ele>892.24</ele>
        <time>2011-11-11T11:20:34Z</time>
      </trkpt>
      <trkpt lat="45.50171" lon="4.02687">
        <ele>892.24</ele>
        <time>2011-11-11T11:20:35Z</time>
      </trkpt>
      <trkpt lat="45.50174" lon="4.02689">
        <ele>892.24</ele>
        <time>2011-11-11T11:20:36Z</time>
      </trkpt>
      <trkpt lat="45.50178" lon="4.0269">
        <ele>891.76</ele>
        <time>2011-11-11T11:20:37Z</time>
      </trkpt>
      <trkpt lat="45.50182" lon="4.02689">
        <ele>891.76</ele>
        <time>2011-11-11T11:20:38Z</time>
      </trkpt>
      <trkpt lat="45.50187" lon="4.02688">
        <ele>892.24</ele>
        <time>2011-11-11T11:20:39Z</time>
      </trkpt>
      <trkpt lat="45.50236" lon="4.02678">
        <ele>888.4</ele>
        <time>2011-11-11T11:20:46Z</time>
      </trkpt>
      <trkpt lat="45.50253" lon="4.02679">
        <ele>887.43</ele>
        <time>2011-11-11T11:20:48Z</time>
      </trkpt>
      <trkpt lat="45.50262" lon="4.02681">
        <ele>886.95</ele>
        <time>2011-11-11T11:20:49Z</time>
      </trkpt>
      <trkpt lat="45.50283" lon="4.02687">
        <ele>885.03</ele>
        <time>2011-11-11T11:20:53Z</time>
      </trkpt>
      <trkpt lat="45.50286" lon="4.02691">
        <ele>884.55</ele>
        <time>2011-11-11T11:20:54Z</time>
      </trkpt>
      <trkpt lat="45.5029" lon="4.02695">
        <ele>884.55</ele>
        <time>2011-11-11T11:20:55Z</time>
      </trkpt>
      <trkpt lat="45.50292" lon="4.02701">
        <ele>884.55</ele>
        <time>2011-11-11T11:20:56Z</time>
      </trkpt>
      <trkpt lat="45.50295" lon="4.02708">
        <ele>884.07</ele>
        <time>2011-11-11T11:20:57Z</time>
      </trkpt>
      <trkpt lat="45.50297" lon="4.02716">
        <ele>883.59</ele>
        <time>2011-11-11T11:20:58Z</time>
      </trkpt>
      <trkpt lat="45.50316" lon="4.02765">
        <ele>881.19</ele>
        <time>2011-11-11T11:21:04Z</time>
      </trkpt>
      <trkpt lat="45.50326" lon="4.02778">
        <ele>880.71</ele>
        <time>2011-11-11T11:21:06Z</time>
      </trkpt>
      <trkpt lat="45.50343" lon="4.02798">
        <ele>879.74</ele>
        <time>2011-11-11T11:21:09Z</time>
      </trkpt>
      <trkpt lat="45.5037" lon="4.02825">
        <ele>879.74</ele>
        <time>2011-11-11T11:21:14Z</time>
      </trkpt>
      <trkpt lat="45.50375" lon="4.02828">
        <ele>879.26</ele>
        <time>2011-11-11T11:21:15Z</time>
      </trkpt>
      <trkpt lat="45.50384" lon="4.02836">
        <ele>878.3</ele>
        <time>2011-11-11T11:21:17Z</time>
      </trkpt>
      <trkpt lat="45.5039" lon="4.0284">
        <ele>877.82</ele>
        <time>2011-11-11T11:21:18Z</time>
      </trkpt>
      <trkpt lat="45.50395" lon="4.02843">
        <ele>876.86</ele>
        <time>2011-11-11T11:21:19Z</time>
      </trkpt>
      <trkpt lat="45.50401" lon="4.02842">
        <ele>875.42</ele>
        <time>2011-11-11T11:21:20Z</time>
      </trkpt>
      <trkpt lat="45.50407" lon="4.0284">
        <ele>874.46</ele>
        <time>2011-11-11T11:21:21Z</time>
      </trkpt>
      <trkpt lat="45.50413" lon="4.02838">
        <ele>873.01</ele>
        <time>2011-11-11T11:21:22Z</time>
      </trkpt>
      <trkpt lat="45.50418" lon="4.02838">
        <ele>872.05</ele>
        <time>2011-11-11T11:21:23Z</time>
      </trkpt>
      <trkpt lat="45.50423" lon="4.02839">
        <ele>870.61</ele>
        <time>2011-11-11T11:21:24Z</time>
      </trkpt>
      <trkpt lat="45.50427" lon="4.02842">
        <ele>869.17</ele>
        <time>2011-11-11T11:21:25Z</time>
      </trkpt>
      <trkpt lat="45.5043" lon="4.02849">
        <ele>868.21</ele>
        <time>2011-11-11T11:21:26Z</time>
      </trkpt>
      <trkpt lat="45.50434" lon="4.02857">
        <ele>867.25</ele>
        <time>2011-11-11T11:21:27Z</time>
      </trkpt>
      <trkpt lat="45.5045" lon="4.029">
        <ele>862.92</ele>
        <time>2011-11-11T11:21:32Z</time>
      </trkpt>
      <trkpt lat="45.50453" lon="4.0291">
        <ele>861.96</ele>
        <time>2011-11-11T11:21:33Z</time>
      </trkpt>
      <trkpt lat="45.50454" lon="4.02922">
        <ele>861</ele>
        <time>2011-11-11T11:21:34Z</time>
      </trkpt>
      <trkpt lat="45.50455" lon="4.02935">
        <ele>859.56</ele>
        <time>2011-11-11T11:21:35Z</time>
      </trkpt>
      <trkpt lat="45.50455" lon="4.02949">
        <ele>858.59</ele>
        <time>2011-11-11T11:21:36Z</time>
      </trkpt>
      <trkpt lat="45.50457" lon="4.03004">
        <ele>852.35</ele>
        <time>2011-11-11T11:21:42Z</time>
      </trkpt>
      <trkpt lat="45.50459" lon="4.03009">
        <ele>851.38</ele>
        <time>2011-11-11T11:21:43Z</time>
      </trkpt>
      <trkpt lat="45.5046" lon="4.03015">
        <ele>850.9</ele>
        <time>2011-11-11T11:21:44Z</time>
      </trkpt>
      <trkpt lat="45.5046" lon="4.03022">
        <ele>850.42</ele>
        <time>2011-11-11T11:21:45Z</time>
      </trkpt>
      <trkpt lat="45.50459" lon="4.03028">
        <ele>849.94</ele>
        <time>2011-11-11T11:21:46Z</time>
      </trkpt>
      <trkpt lat="45.50457" lon="4.03034">
        <ele>849.46</ele>
        <time>2011-11-11T11:21:47Z</time>
      </trkpt>
      <trkpt lat="45.50448" lon="4.03067">
        <ele>847.54</ele>
        <time>2011-11-11T11:21:52Z</time>
      </trkpt>
      <trkpt lat="45.50428" lon="4.03134">
        <ele>843.69</ele>
        <time>2011-11-11T11:21:59Z</time>
      </trkpt>
      <trkpt lat="45.50428" lon="4.03145">
        <ele>843.21</ele>
        <time>2011-11-11T11:22:00Z</time>
      </trkpt>
      <trkpt lat="45.50429" lon="4.03157">
        <ele>842.73</ele>
        <time>2011-11-11T11:22:01Z</time>
      </trkpt>
      <trkpt lat="45.50432" lon="4.03168">
        <ele>841.77</ele>
        <time>2011-11-11T11:22:02Z</time>
      </trkpt>
      <trkpt lat="45.50436" lon="4.03179">
        <ele>841.29</ele>
        <time>2011-11-11T11:22:03Z</time>
      </trkpt>
      <trkpt lat="45.50441" lon="4.03189">
        <ele>840.33</ele>
        <time>2011-11-11T11:22:04Z</time>
      </trkpt>
      <trkpt lat="45.50447" lon="4.03199">
        <ele>839.85</ele>
        <time>2011-11-11T11:22:05Z</time>
      </trkpt>
      <trkpt lat="45.50453" lon="4.03205">
        <ele>839.37</ele>
        <time>2011-11-11T11:22:06Z</time>
      </trkpt>
      <trkpt lat="45.50459" lon="4.03211">
        <ele>838.89</ele>
        <time>2011-11-11T11:22:07Z</time>
      </trkpt>
      <trkpt lat="45.50464" lon="4.03215">
        <ele>837.93</ele>
        <time>2011-11-11T11:22:08Z</time>
      </trkpt>
      <trkpt lat="45.50467" lon="4.03219">
        <ele>837.45</ele>
        <time>2011-11-11T11:22:09Z</time>
      </trkpt>
      <trkpt lat="45.50468" lon="4.03224">
        <ele>836.48</ele>
        <time>2011-11-11T11:22:10Z</time>
      </trkpt>
      <trkpt lat="45.50467" lon="4.0323">
        <ele>836</ele>
        <time>2011-11-11T11:22:11Z</time>
      </trkpt>
      <trkpt lat="45.50465" lon="4.03237">
        <ele>835.04</ele>
        <time>2011-11-11T11:22:12Z</time>
      </trkpt>
      <trkpt lat="45.50463" lon="4.03245">
        <ele>834.08</ele>
        <time>2011-11-11T11:22:13Z</time>
      </trkpt>
      <trkpt lat="45.50453" lon="4.0328">
        <ele>830.24</ele>
        <time>2011-11-11T11:22:18Z</time>
      </trkpt>
      <trkpt lat="45.50453" lon="4.03285">
        <ele>829.27</ele>
        <time>2011-11-11T11:22:19Z</time>
      </trkpt>
      <trkpt lat="45.50455" lon="4.03289">
        <ele>828.31</ele>
        <time>2011-11-11T11:22:20Z</time>
      </trkpt>
      <trkpt lat="45.50458" lon="4.03292">
        <ele>826.87</ele>
        <time>2011-11-11T11:22:21Z</time>
      </trkpt>
      <trkpt lat="45.50461" lon="4.03295">
        <ele>825.91</ele>
        <time>2011-11-11T11:22:22Z</time>
      </trkpt>
      <trkpt lat="45.50465" lon="4.03299">
        <ele>824.47</ele>
        <time>2011-11-11T11:22:23Z</time>
      </trkpt>
      <trkpt lat="45.50488" lon="4.03321">
        <ele>819.66</ele>
        <time>2011-11-11T11:22:28Z</time>
      </trkpt>
      <trkpt lat="45.50493" lon="4.03326">
        <ele>818.7</ele>
        <time>2011-11-11T11:22:29Z</time>
      </trkpt>
      <trkpt lat="45.50524" lon="4.03355">
        <ele>811.49</ele>
        <time>2011-11-11T11:22:36Z</time>
      </trkpt>
      <trkpt lat="45.50527" lon="4.0336">
        <ele>811.01</ele>
        <time>2011-11-11T11:22:37Z</time>
      </trkpt>
      <trkpt lat="45.50528" lon="4.03366">
        <ele>810.05</ele>
        <time>2011-11-11T11:22:38Z</time>
      </trkpt>
      <trkpt lat="45.50529" lon="4.03374">
        <ele>809.09</ele>
        <time>2011-11-11T11:22:39Z</time>
      </trkpt>
      <trkpt lat="45.50527" lon="4.03382">
        <ele>808.13</ele>
        <time>2011-11-11T11:22:40Z</time>
      </trkpt>
      <trkpt lat="45.50525" lon="4.03391">
        <ele>806.68</ele>
        <time>2011-11-11T11:22:41Z</time>
      </trkpt>
      <trkpt lat="45.50522" lon="4.03399">
        <ele>805.72</ele>
        <time>2011-11-11T11:22:42Z</time>
      </trkpt>
      <trkpt lat="45.50518" lon="4.03407">
        <ele>804.76</ele>
        <time>2011-11-11T11:22:43Z</time>
      </trkpt>
      <trkpt lat="45.50514" lon="4.03414">
        <ele>803.32</ele>
        <time>2011-11-11T11:22:44Z</time>
      </trkpt>
      <trkpt lat="45.50508" lon="4.03421">
        <ele>802.36</ele>
        <time>2011-11-11T11:22:45Z</time>
      </trkpt>
      <trkpt lat="45.50502" lon="4.03429">
        <ele>800.92</ele>
        <time>2011-11-11T11:22:46Z</time>
      </trkpt>
      <trkpt lat="45.5044" lon="4.03506">
        <ele>789.38</ele>
        <time>2011-11-11T11:22:56Z</time>
      </trkpt>
      <trkpt lat="45.50431" lon="4.03528">
        <ele>786.02</ele>
        <time>2011-11-11T11:22:59Z</time>
      </trkpt>
      <trkpt lat="45.50429" lon="4.03535">
        <ele>785.05</ele>
        <time>2011-11-11T11:23:00Z</time>
      </trkpt>
      <trkpt lat="45.50425" lon="4.03541">
        <ele>784.09</ele>
        <time>2011-11-11T11:23:01Z</time>
      </trkpt>
      <trkpt lat="45.50361" lon="4.03616">
        <ele>775.44</ele>
        <time>2011-11-11T11:23:12Z</time>
      </trkpt>
      <trkpt lat="45.50355" lon="4.03624">
        <ele>774.96</ele>
        <time>2011-11-11T11:23:13Z</time>
      </trkpt>
      <trkpt lat="45.5035" lon="4.03634">
        <ele>774</ele>
        <time>2011-11-11T11:23:14Z</time>
      </trkpt>
      <trkpt lat="45.50346" lon="4.03645">
        <ele>773.52</ele>
        <time>2011-11-11T11:23:15Z</time>
      </trkpt>
      <trkpt lat="45.50344" lon="4.03656">
        <ele>772.56</ele>
        <time>2011-11-11T11:23:16Z</time>
      </trkpt>
      <trkpt lat="45.50343" lon="4.03667">
        <ele>772.08</ele>
        <time>2011-11-11T11:23:17Z</time>
      </trkpt>
      <trkpt lat="45.50343" lon="4.03677">
        <ele>771.6</ele>
        <time>2011-11-11T11:23:18Z</time>
      </trkpt>
      <trkpt lat="45.50343" lon="4.03688">
        <ele>771.6</ele>
        <time>2011-11-11T11:23:19Z</time>
      </trkpt>
      <trkpt lat="45.50344" lon="4.03697">
        <ele>771.11</ele>
        <time>2011-11-11T11:23:20Z</time>
      </trkpt>
      <trkpt lat="45.50344" lon="4.03717">
        <ele>770.63</ele>
        <time>2011-11-11T11:23:22Z</time>
      </trkpt>
      <trkpt lat="45.50343" lon="4.03739">
        <ele>770.15</ele>
        <time>2011-11-11T11:23:24Z</time>
      </trkpt>
      <trkpt lat="45.50344" lon="4.03749">
        <ele>769.67</ele>
        <time>2011-11-11T11:23:25Z</time>
      </trkpt>
      <trkpt lat="45.50345" lon="4.03758">
        <ele>769.19</ele>
        <time>2011-11-11T11:23:26Z</time>
      </trkpt>
      <trkpt lat="45.50351" lon="4.03782">
        <ele>767.75</ele>
        <time>2011-11-11T11:23:29Z</time>
      </trkpt>
      <trkpt lat="45.50354" lon="4.03787">
        <ele>767.27</ele>
        <time>2011-11-11T11:23:30Z</time>
      </trkpt>
      <trkpt lat="45.5036" lon="4.03801">
        <ele>765.35</ele>
        <time>2011-11-11T11:23:33Z</time>
      </trkpt>
      <trkpt lat="45.50359" lon="4.03807">
        <ele>764.87</ele>
        <time>2011-11-11T11:23:34Z</time>
      </trkpt>
      <trkpt lat="45.50358" lon="4.03812">
        <ele>764.39</ele>
        <time>2011-11-11T11:23:35Z</time>
      </trkpt>
      <trkpt lat="45.50354" lon="4.03825">
        <ele>763.9</ele>
        <time>2011-11-11T11:23:37Z</time>
      </trkpt>
      <trkpt lat="45.5034" lon="4.03856">
        <ele>761.5</ele>
        <time>2011-11-11T11:23:41Z</time>
      </trkpt>
      <trkpt lat="45.5033" lon="4.03899">
        <ele>759.1</ele>
        <time>2011-11-11T11:23:47Z</time>
      </trkpt>
      <trkpt lat="45.50329" lon="4.03908">
        <ele>759.1</ele>
        <time>2011-11-11T11:23:48Z</time>
      </trkpt>
      <trkpt lat="45.5033" lon="4.03948">
        <ele>757.18</ele>
        <time>2011-11-11T11:23:54Z</time>
      </trkpt>
      <trkpt lat="45.50327" lon="4.03953">
        <ele>757.18</ele>
        <time>2011-11-11T11:23:55Z</time>
      </trkpt>
      <trkpt lat="45.50322" lon="4.03958">
        <ele>756.69</ele>
        <time>2011-11-11T11:23:56Z</time>
      </trkpt>
      <trkpt lat="45.50317" lon="4.03962">
        <ele>756.69</ele>
        <time>2011-11-11T11:23:57Z</time>
      </trkpt>
      <trkpt lat="45.50311" lon="4.03964">
        <ele>755.73</ele>
        <time>2011-11-11T11:23:58Z</time>
      </trkpt>
      <trkpt lat="45.50304" lon="4.03966">
        <ele>754.77</ele>
        <time>2011-11-11T11:23:59Z</time>
      </trkpt>
      <trkpt lat="45.50298" lon="4.03968">
        <ele>753.33</ele>
        <time>2011-11-11T11:24:00Z</time>
      </trkpt>
      <trkpt lat="45.50214" lon="4.04">
        <ele>752.37</ele>
        <time>2011-11-11T11:24:12Z</time>
      </trkpt>
      <trkpt lat="45.50159" lon="4.04026">
        <ele>753.81</ele>
        <time>2011-11-11T11:24:20Z</time>
      </trkpt>
      <trkpt lat="45.50154" lon="4.04032">
        <ele>753.81</ele>
        <time>2011-11-11T11:24:21Z</time>
      </trkpt>
      <trkpt lat="45.5015" lon="4.04038">
        <ele>753.81</ele>
        <time>2011-11-11T11:24:22Z</time>
      </trkpt>
      <trkpt lat="45.50146" lon="4.04044">
        <ele>754.29</ele>
        <time>2011-11-11T11:24:23Z</time>
      </trkpt>
      <trkpt lat="45.50144" lon="4.04051">
        <ele>754.29</ele>
        <time>2011-11-11T11:24:24Z</time>
      </trkpt>
      <trkpt lat="45.50121" lon="4.04111">
        <ele>756.21</ele>
        <time>2011-11-11T11:24:34Z</time>
      </trkpt>
      <trkpt lat="45.50119" lon="4.04116">
        <ele>756.69</ele>
        <time>2011-11-11T11:24:35Z</time>
      </trkpt>
      <trkpt lat="45.50115" lon="4.04127">
        <ele>757.18</ele>
        <time>2011-11-11T11:24:37Z</time>
      </trkpt>
      <trkpt lat="45.50113" lon="4.04132">
        <ele>757.18</ele>
        <time>2011-11-11T11:24:38Z</time>
      </trkpt>
      <trkpt lat="45.5011" lon="4.04136">
        <ele>757.66</ele>
        <time>2011-11-11T11:24:39Z</time>
      </trkpt>
      <trkpt lat="45.50107" lon="4.04138">
        <ele>757.66</ele>
        <time>2011-11-11T11:24:40Z</time>
      </trkpt>
      <trkpt lat="45.50104" lon="4.04139">
        <ele>758.14</ele>
        <time>2011-11-11T11:24:41Z</time>
      </trkpt>
      <trkpt lat="45.501" lon="4.04138">
        <ele>758.62</ele>
        <time>2011-11-11T11:24:42Z</time>
      </trkpt>
      <trkpt lat="45.50097" lon="4.04136">
        <ele>759.1</ele>
        <time>2011-11-11T11:24:43Z</time>
      </trkpt>
      <trkpt lat="45.50095" lon="4.04133">
        <ele>759.1</ele>
        <time>2011-11-11T11:24:44Z</time>
      </trkpt>
      <trkpt lat="45.50094" lon="4.0413">
        <ele>759.58</ele>
        <time>2011-11-11T11:24:45Z</time>
      </trkpt>
      <trkpt lat="45.50094" lon="4.04126">
        <ele>760.06</ele>
        <time>2011-11-11T11:24:46Z</time>
      </trkpt>
      <trkpt lat="45.50095" lon="4.04123">
        <ele>760.54</ele>
        <time>2011-11-11T11:24:47Z</time>
      </trkpt>
      <trkpt lat="45.50096" lon="4.04121">
        <ele>761.02</ele>
        <time>2011-11-11T11:24:48Z</time>
      </trkpt>
      <trkpt lat="45.50097" lon="4.04119">
        <ele>761.02</ele>
        <time>2011-11-11T11:24:49Z</time>
      </trkpt>
      <trkpt lat="45.50115" lon="4.04087">
        <ele>761.98</ele>
        <time>2011-11-11T11:25:03Z</time>
      </trkpt>
      <trkpt lat="45.50115" lon="4.04085">
        <ele>762.46</ele>
        <time>2011-11-11T11:25:04Z</time>
      </trkpt>
      <trkpt lat="45.50113" lon="4.04082">
        <ele>761.98</ele>
        <time>2011-11-11T11:25:14Z</time>
      </trkpt>
      <trkpt lat="45.50113" lon="4.04082">
        <ele>761.5</ele>
        <time>2011-11-11T11:25:54Z</time>
      </trkpt>
      <trkpt lat="45.50113" lon="4.04082">
        <ele>761.5</ele>
        <time>2011-11-11T11:29:08Z</time>
      </trkpt>
      <trkpt lat="45.50115" lon="4.0408">
        <ele>763.42</ele>
        <time>2011-11-11T11:40:51Z</time>
      </trkpt>
      <trkpt lat="45.50116" lon="4.0408">
        <ele>764.87</ele>
        <time>2011-11-11T11:43:27Z</time>
      </trkpt>
      <trkpt lat="45.50119" lon="4.04078">
        <ele>766.31</ele>
        <time>2011-11-11T11:49:07Z</time>
      </trkpt>
      <trkpt lat="45.5012" lon="4.0408">
        <ele>767.75</ele>
        <time>2011-11-11T11:57:45Z</time>
      </trkpt>
      <trkpt lat="45.50119" lon="4.04081">
        <ele>766.31</ele>
        <time>2011-11-11T12:01:00Z</time>
      </trkpt>
      <trkpt lat="45.5012" lon="4.04082">
        <ele>766.31</ele>
        <time>2011-11-11T12:03:49Z</time>
      </trkpt>
      <trkpt lat="45.5012" lon="4.04082">
        <ele>766.31</ele>
        <time>2011-11-11T12:05:00Z</time>
      </trkpt>
      <trkpt lat="45.50119" lon="4.04081">
        <ele>765.35</ele>
        <time>2011-11-11T12:05:13Z</time>
      </trkpt>
      <trkpt lat="45.5012" lon="4.04082">
        <ele>764.87</ele>
        <time>2011-11-11T12:05:14Z</time>
      </trkpt>
      <trkpt lat="45.50119" lon="4.04084">
        <ele>764.39</ele>
        <time>2011-11-11T12:05:15Z</time>
      </trkpt>
      <trkpt lat="45.50117" lon="4.04086">
        <ele>763.9</ele>
        <time>2011-11-11T12:05:16Z</time>
      </trkpt>
      <trkpt lat="45.50116" lon="4.04089">
        <ele>763.42</ele>
        <time>2011-11-11T12:05:17Z</time>
      </trkpt>
      <trkpt lat="45.50114" lon="4.04092">
        <ele>762.46</ele>
        <time>2011-11-11T12:05:18Z</time>
      </trkpt>
      <trkpt lat="45.50112" lon="4.04095">
        <ele>761.5</ele>
        <time>2011-11-11T12:05:19Z</time>
      </trkpt>
      <trkpt lat="45.5011" lon="4.04097">
        <ele>761.02</ele>
        <time>2011-11-11T12:05:20Z</time>
      </trkpt>
      <trkpt lat="45.50108" lon="4.04099">
        <ele>760.54</ele>
        <time>2011-11-11T12:05:21Z</time>
      </trkpt>
      <trkpt lat="45.50099" lon="4.04115">
        <ele>760.06</ele>
        <time>2011-11-11T12:05:28Z</time>
      </trkpt>
      <trkpt lat="45.50095" lon="4.04117">
        <ele>760.54</ele>
        <time>2011-11-11T12:05:30Z</time>
      </trkpt>
      <trkpt lat="45.50093" lon="4.04117">
        <ele>760.54</ele>
        <time>2011-11-11T12:05:31Z</time>
      </trkpt>
      <trkpt lat="45.50092" lon="4.04116">
        <ele>761.02</ele>
        <time>2011-11-11T12:05:32Z</time>
      </trkpt>
      <trkpt lat="45.50091" lon="4.04115">
        <ele>761.02</ele>
        <time>2011-11-11T12:05:33Z</time>
      </trkpt>
      <trkpt lat="45.5009" lon="4.04113">
        <ele>761.5</ele>
        <time>2011-11-11T12:05:34Z</time>
      </trkpt>
      <trkpt lat="45.5009" lon="4.04111">
        <ele>761.5</ele>
        <time>2011-11-11T12:05:35Z</time>
      </trkpt>
      <trkpt lat="45.5009" lon="4.04109">
        <ele>761.98</ele>
        <time>2011-11-11T12:05:36Z</time>
      </trkpt>
      <trkpt lat="45.5009" lon="4.04107">
        <ele>761.98</ele>
        <time>2011-11-11T12:05:37Z</time>
      </trkpt>
      <trkpt lat="45.50089" lon="4.04079">
        <ele>764.39</ele>
        <time>2011-11-11T12:05:49Z</time>
      </trkpt>
      <trkpt lat="45.50086" lon="4.0405">
        <ele>766.31</ele>
        <time>2011-11-11T12:06:02Z</time>
      </trkpt>
      <trkpt lat="45.50083" lon="4.04016">
        <ele>769.19</ele>
        <time>2011-11-11T12:06:16Z</time>
      </trkpt>
      <trkpt lat="45.50082" lon="4.03982">
        <ele>769.67</ele>
        <time>2011-11-11T12:06:30Z</time>
      </trkpt>
      <trkpt lat="45.50081" lon="4.03971">
        <ele>771.6</ele>
        <time>2011-11-11T12:06:35Z</time>
      </trkpt>
      <trkpt lat="45.50081" lon="4.03968">
        <ele>771.6</ele>
        <time>2011-11-11T12:06:36Z</time>
      </trkpt>
      <trkpt lat="45.5008" lon="4.03966">
        <ele>771.6</ele>
        <time>2011-11-11T12:06:37Z</time>
      </trkpt>
      <trkpt lat="45.5008" lon="4.03963">
        <ele>771.6</ele>
        <time>2011-11-11T12:06:38Z</time>
      </trkpt>
      <trkpt lat="45.5008" lon="4.0396">
        <ele>772.08</ele>
        <time>2011-11-11T12:06:39Z</time>
      </trkpt>
      <trkpt lat="45.50081" lon="4.03921">
        <ele>775.44</ele>
        <time>2011-11-11T12:06:54Z</time>
      </trkpt>
      <trkpt lat="45.50095" lon="4.03885">
        <ele>776.4</ele>
        <time>2011-11-11T12:07:07Z</time>
      </trkpt>
      <trkpt lat="45.50132" lon="4.03863">
        <ele>773.52</ele>
        <time>2011-11-11T12:07:19Z</time>
      </trkpt>
      <trkpt lat="45.50174" lon="4.03821">
        <ele>774.96</ele>
        <time>2011-11-11T12:07:31Z</time>
      </trkpt>
      <trkpt lat="45.50193" lon="4.03795">
        <ele>776.88</ele>
        <time>2011-11-11T12:07:44Z</time>
      </trkpt>
      <trkpt lat="45.50192" lon="4.03793">
        <ele>777.36</ele>
        <time>2011-11-11T12:07:45Z</time>
      </trkpt>
      <trkpt lat="45.50189" lon="4.03787">
        <ele>778.81</ele>
        <time>2011-11-11T12:07:48Z</time>
      </trkpt>
      <trkpt lat="45.50188" lon="4.03786">
        <ele>779.29</ele>
        <time>2011-11-11T12:07:49Z</time>
      </trkpt>
      <trkpt lat="45.50187" lon="4.03784">
        <ele>779.77</ele>
        <time>2011-11-11T12:07:50Z</time>
      </trkpt>
      <trkpt lat="45.50186" lon="4.03782">
        <ele>780.25</ele>
        <time>2011-11-11T12:07:51Z</time>
      </trkpt>
      <trkpt lat="45.50185" lon="4.03781">
        <ele>780.25</ele>
        <time>2011-11-11T12:07:52Z</time>
      </trkpt>
      <trkpt lat="45.50184" lon="4.0378">
        <ele>780.25</ele>
        <time>2011-11-11T12:07:53Z</time>
      </trkpt>
      <trkpt lat="45.50179" lon="4.03773">
        <ele>781.21</ele>
        <time>2011-11-11T12:07:58Z</time>
      </trkpt>
      <trkpt lat="45.50178" lon="4.03771">
        <ele>781.69</ele>
        <time>2011-11-11T12:07:59Z</time>
      </trkpt>
      <trkpt lat="45.50177" lon="4.0377">
        <ele>782.17</ele>
        <time>2011-11-11T12:08:00Z</time>
      </trkpt>
      <trkpt lat="45.50175" lon="4.0377">
        <ele>782.65</ele>
        <time>2011-11-11T12:08:01Z</time>
      </trkpt>
      <trkpt lat="45.50174" lon="4.0377">
        <ele>783.61</ele>
        <time>2011-11-11T12:08:02Z</time>
      </trkpt>
      <trkpt lat="45.50173" lon="4.03769">
        <ele>784.09</ele>
        <time>2011-11-11T12:08:03Z</time>
      </trkpt>
      <trkpt lat="45.50172" lon="4.03768">
        <ele>784.57</ele>
        <time>2011-11-11T12:08:04Z</time>
      </trkpt>
      <trkpt lat="45.50166" lon="4.03766">
        <ele>786.5</ele>
        <time>2011-11-11T12:08:09Z</time>
      </trkpt>
      <trkpt lat="45.50165" lon="4.03765">
        <ele>786.5</ele>
        <time>2011-11-11T12:08:10Z</time>
      </trkpt>
      <trkpt lat="45.50164" lon="4.03764">
        <ele>786.98</ele>
        <time>2011-11-11T12:08:11Z</time>
      </trkpt>
      <trkpt lat="45.50162" lon="4.03761">
        <ele>787.94</ele>
        <time>2011-11-11T12:08:14Z</time>
      </trkpt>
      <trkpt lat="45.50162" lon="4.03759">
        <ele>788.42</ele>
        <time>2011-11-11T12:08:15Z</time>
      </trkpt>
      <trkpt lat="45.50161" lon="4.03758">
        <ele>788.42</ele>
        <time>2011-11-11T12:08:16Z</time>
      </trkpt>
      <trkpt lat="45.5016" lon="4.03756">
        <ele>788.9</ele>
        <time>2011-11-11T12:08:17Z</time>
      </trkpt>
      <trkpt lat="45.5016" lon="4.03754">
        <ele>789.38</ele>
        <time>2011-11-11T12:08:18Z</time>
      </trkpt>
      <trkpt lat="45.5016" lon="4.03753">
        <ele>789.38</ele>
        <time>2011-11-11T12:08:19Z</time>
      </trkpt>
      <trkpt lat="45.50159" lon="4.03751">
        <ele>789.38</ele>
        <time>2011-11-11T12:08:20Z</time>
      </trkpt>
      <trkpt lat="45.50159" lon="4.03749">
        <ele>789.38</ele>
        <time>2011-11-11T12:08:21Z</time>
      </trkpt>
      <trkpt lat="45.50159" lon="4.03747">
        <ele>789.86</ele>
        <time>2011-11-11T12:08:22Z</time>
      </trkpt>
      <trkpt lat="45.50159" lon="4.03744">
        <ele>790.34</ele>
        <time>2011-11-11T12:08:24Z</time>
      </trkpt>
      <trkpt lat="45.50159" lon="4.03743">
        <ele>790.82</ele>
        <time>2011-11-11T12:08:25Z</time>
      </trkpt>
      <trkpt lat="45.50159" lon="4.03741">
        <ele>790.82</ele>
        <time>2011-11-11T12:08:26Z</time>
      </trkpt>
      <trkpt lat="45.50159" lon="4.03739">
        <ele>791.3</ele>
        <time>2011-11-11T12:08:27Z</time>
      </trkpt>
      <trkpt lat="45.50158" lon="4.03737">
        <ele>791.78</ele>
        <time>2011-11-11T12:08:28Z</time>
      </trkpt>
      <trkpt lat="45.50158" lon="4.03736">
        <ele>792.26</ele>
        <time>2011-11-11T12:08:29Z</time>
      </trkpt>
      <trkpt lat="45.50158" lon="4.03734">
        <ele>792.74</ele>
        <time>2011-11-11T12:08:30Z</time>
      </trkpt>
      <trkpt lat="45.50158" lon="4.03715">
        <ele>795.63</ele>
        <time>2011-11-11T12:08:42Z</time>
      </trkpt>
      <trkpt lat="45.50157" lon="4.03713">
        <ele>795.63</ele>
        <time>2011-11-11T12:08:43Z</time>
      </trkpt>
      <trkpt lat="45.50158" lon="4.03694">
        <ele>798.99</ele>
        <time>2011-11-11T12:08:55Z</time>
      </trkpt>
      <trkpt lat="45.50157" lon="4.03691">
        <ele>799.95</ele>
        <time>2011-11-11T12:08:57Z</time>
      </trkpt>
      <trkpt lat="45.50157" lon="4.0369">
        <ele>799.95</ele>
        <time>2011-11-11T12:08:58Z</time>
      </trkpt>
      <trkpt lat="45.50155" lon="4.0369">
        <ele>799.95</ele>
        <time>2011-11-11T12:08:59Z</time>
      </trkpt>
      <trkpt lat="45.50154" lon="4.03691">
        <ele>799.47</ele>
        <time>2011-11-11T12:09:00Z</time>
      </trkpt>
      <trkpt lat="45.50153" lon="4.03692">
        <ele>799.47</ele>
        <time>2011-11-11T12:09:01Z</time>
      </trkpt>
      <trkpt lat="45.50143" lon="4.03696">
        <ele>799.47</ele>
        <time>2011-11-11T12:09:09Z</time>
      </trkpt>
      <trkpt lat="45.50142" lon="4.03696">
        <ele>799.47</ele>
        <time>2011-11-11T12:09:10Z</time>
      </trkpt>
      <trkpt lat="45.5014" lon="4.03695">
        <ele>799.47</ele>
        <time>2011-11-11T12:09:11Z</time>
      </trkpt>
      <trkpt lat="45.50121" lon="4.03687">
        <ele>801.88</ele>
        <time>2011-11-11T12:09:25Z</time>
      </trkpt>
      <trkpt lat="45.50096" lon="4.03677">
        <ele>803.32</ele>
        <time>2011-11-11T12:09:40Z</time>
      </trkpt>
      <trkpt lat="45.50094" lon="4.03677">
        <ele>803.32</ele>
        <time>2011-11-11T12:09:41Z</time>
      </trkpt>
      <trkpt lat="45.50063" lon="4.03691">
        <ele>803.8</ele>
        <time>2011-11-11T12:09:57Z</time>
      </trkpt>
      <trkpt lat="45.5003" lon="4.03716">
        <ele>803.32</ele>
        <time>2011-11-11T12:10:11Z</time>
      </trkpt>
      <trkpt lat="45.49986" lon="4.03754">
        <ele>805.24</ele>
        <time>2011-11-11T12:10:27Z</time>
      </trkpt>
      <trkpt lat="45.49957" lon="4.03779">
        <ele>809.09</ele>
        <time>2011-11-11T12:10:41Z</time>
      </trkpt>
      <trkpt lat="45.49932" lon="4.03803">
        <ele>813.41</ele>
        <time>2011-11-11T12:10:55Z</time>
      </trkpt>
      <trkpt lat="45.4991" lon="4.03819">
        <ele>816.78</ele>
        <time>2011-11-11T12:11:08Z</time>
      </trkpt>
      <trkpt lat="45.49884" lon="4.03838">
        <ele>817.26</ele>
        <time>2011-11-11T12:11:22Z</time>
      </trkpt>
      <trkpt lat="45.49862" lon="4.0385">
        <ele>820.62</ele>
        <time>2011-11-11T12:11:35Z</time>
      </trkpt>
      <trkpt lat="45.49838" lon="4.0386">
        <ele>823.51</ele>
        <time>2011-11-11T12:11:49Z</time>
      </trkpt>
      <trkpt lat="45.49824" lon="4.03863">
        <ele>823.99</ele>
        <time>2011-11-11T12:11:56Z</time>
      </trkpt>
      <trkpt lat="45.49815" lon="4.03859">
        <ele>825.43</ele>
        <time>2011-11-11T12:12:01Z</time>
      </trkpt>
      <trkpt lat="45.49797" lon="4.03823">
        <ele>827.83</ele>
        <time>2011-11-11T12:12:15Z</time>
      </trkpt>
      <trkpt lat="45.49785" lon="4.03784">
        <ele>828.31</ele>
        <time>2011-11-11T12:12:27Z</time>
      </trkpt>
      <trkpt lat="45.49773" lon="4.03743">
        <ele>830.24</ele>
        <time>2011-11-11T12:12:39Z</time>
      </trkpt>
      <trkpt lat="45.49748" lon="4.03709">
        <ele>829.76</ele>
        <time>2011-11-11T12:12:48Z</time>
      </trkpt>
      <trkpt lat="45.49684" lon="4.03665">
        <ele>829.27</ele>
        <time>2011-11-11T12:13:01Z</time>
      </trkpt>
      <trkpt lat="45.4968" lon="4.03663">
        <ele>829.27</ele>
        <time>2011-11-11T12:13:02Z</time>
      </trkpt>
      <trkpt lat="45.49676" lon="4.0366">
        <ele>829.76</ele>
        <time>2011-11-11T12:13:03Z</time>
      </trkpt>
      <trkpt lat="45.49649" lon="4.0364">
        <ele>827.35</ele>
        <time>2011-11-11T12:13:12Z</time>
      </trkpt>
      <trkpt lat="45.49641" lon="4.0363">
        <ele>825.91</ele>
        <time>2011-11-11T12:13:15Z</time>
      </trkpt>
      <trkpt lat="45.49637" lon="4.03625">
        <ele>825.43</ele>
        <time>2011-11-11T12:13:16Z</time>
      </trkpt>
      <trkpt lat="45.49634" lon="4.03622">
        <ele>824.95</ele>
        <time>2011-11-11T12:13:17Z</time>
      </trkpt>
      <trkpt lat="45.4963" lon="4.03617">
        <ele>823.99</ele>
        <time>2011-11-11T12:13:18Z</time>
      </trkpt>
      <trkpt lat="45.49626" lon="4.03613">
        <ele>823.51</ele>
        <time>2011-11-11T12:13:19Z</time>
      </trkpt>
      <trkpt lat="45.49623" lon="4.03607">
        <ele>823.03</ele>
        <time>2011-11-11T12:13:20Z</time>
      </trkpt>
      <trkpt lat="45.49619" lon="4.03602">
        <ele>822.55</ele>
        <time>2011-11-11T12:13:21Z</time>
      </trkpt>
      <trkpt lat="45.49615" lon="4.03597">
        <ele>822.06</ele>
        <time>2011-11-11T12:13:22Z</time>
      </trkpt>
      <trkpt lat="45.49612" lon="4.03591">
        <ele>821.58</ele>
        <time>2011-11-11T12:13:23Z</time>
      </trkpt>
      <trkpt lat="45.49606" lon="4.03582">
        <ele>820.62</ele>
        <time>2011-11-11T12:13:25Z</time>
      </trkpt>
      <trkpt lat="45.49588" lon="4.03558">
        <ele>819.66</ele>
        <time>2011-11-11T12:13:30Z</time>
      </trkpt>
      <trkpt lat="45.49584" lon="4.03552">
        <ele>819.66</ele>
        <time>2011-11-11T12:13:31Z</time>
      </trkpt>
      <trkpt lat="45.4958" lon="4.03548">
        <ele>819.66</ele>
        <time>2011-11-11T12:13:32Z</time>
      </trkpt>
      <trkpt lat="45.49575" lon="4.03544">
        <ele>819.18</ele>
        <time>2011-11-11T12:13:33Z</time>
      </trkpt>
      <trkpt lat="45.49569" lon="4.0354">
        <ele>818.7</ele>
        <time>2011-11-11T12:13:34Z</time>
      </trkpt>
      <trkpt lat="45.49562" lon="4.03536">
        <ele>818.22</ele>
        <time>2011-11-11T12:13:35Z</time>
      </trkpt>
      <trkpt lat="45.49555" lon="4.03534">
        <ele>817.74</ele>
        <time>2011-11-11T12:13:36Z</time>
      </trkpt>
      <trkpt lat="45.49547" lon="4.03534">
        <ele>817.26</ele>
        <time>2011-11-11T12:13:37Z</time>
      </trkpt>
      <trkpt lat="45.49539" lon="4.03535">
        <ele>816.78</ele>
        <time>2011-11-11T12:13:38Z</time>
      </trkpt>
      <trkpt lat="45.49532" lon="4.03535">
        <ele>816.3</ele>
        <time>2011-11-11T12:13:39Z</time>
      </trkpt>
      <trkpt lat="45.49524" lon="4.03533">
        <ele>815.82</ele>
        <time>2011-11-11T12:13:40Z</time>
      </trkpt>
      <trkpt lat="45.49516" lon="4.0353">
        <ele>815.34</ele>
        <time>2011-11-11T12:13:41Z</time>
      </trkpt>
      <trkpt lat="45.49509" lon="4.03526">
        <ele>814.85</ele>
        <time>2011-11-11T12:13:42Z</time>
      </trkpt>
      <trkpt lat="45.49502" lon="4.03521">
        <ele>814.85</ele>
        <time>2011-11-11T12:13:43Z</time>
      </trkpt>
      <trkpt lat="45.49471" lon="4.03504">
        <ele>814.37</ele>
        <time>2011-11-11T12:13:48Z</time>
      </trkpt>
      <trkpt lat="45.4946" lon="4.035">
        <ele>813.89</ele>
        <time>2011-11-11T12:13:50Z</time>
      </trkpt>
      <trkpt lat="45.49456" lon="4.035">
        <ele>813.89</ele>
        <time>2011-11-11T12:13:51Z</time>
      </trkpt>
      <trkpt lat="45.49451" lon="4.035">
        <ele>814.37</ele>
        <time>2011-11-11T12:13:52Z</time>
      </trkpt>
      <trkpt lat="45.49427" lon="4.03514">
        <ele>819.18</ele>
        <time>2011-11-11T12:14:02Z</time>
      </trkpt>
      <trkpt lat="45.49424" lon="4.03517">
        <ele>820.14</ele>
        <time>2011-11-11T12:14:04Z</time>
      </trkpt>
      <trkpt lat="45.49422" lon="4.03519">
        <ele>820.62</ele>
        <time>2011-11-11T12:14:05Z</time>
      </trkpt>
      <trkpt lat="45.4942" lon="4.0352">
        <ele>821.58</ele>
        <time>2011-11-11T12:14:06Z</time>
      </trkpt>
      <trkpt lat="45.49419" lon="4.03522">
        <ele>822.06</ele>
        <time>2011-11-11T12:14:07Z</time>
      </trkpt>
      <trkpt lat="45.49417" lon="4.03523">
        <ele>822.55</ele>
        <time>2011-11-11T12:14:08Z</time>
      </trkpt>
      <trkpt lat="45.49415" lon="4.03525">
        <ele>823.03</ele>
        <time>2011-11-11T12:14:09Z</time>
      </trkpt>
      <trkpt lat="45.49414" lon="4.03527">
        <ele>823.03</ele>
        <time>2011-11-11T12:14:10Z</time>
      </trkpt>
      <trkpt lat="45.49412" lon="4.03529">
        <ele>823.51</ele>
        <time>2011-11-11T12:14:11Z</time>
      </trkpt>
      <trkpt lat="45.4941" lon="4.03531">
        <ele>823.51</ele>
        <time>2011-11-11T12:14:12Z</time>
      </trkpt>
      <trkpt lat="45.49409" lon="4.03532">
        <ele>823.99</ele>
        <time>2011-11-11T12:14:13Z</time>
      </trkpt>
      <trkpt lat="45.49407" lon="4.03534">
        <ele>824.95</ele>
        <time>2011-11-11T12:14:14Z</time>
      </trkpt>
      <trkpt lat="45.49405" lon="4.03536">
        <ele>825.43</ele>
        <time>2011-11-11T12:14:15Z</time>
      </trkpt>
      <trkpt lat="45.49403" lon="4.03538">
        <ele>825.91</ele>
        <time>2011-11-11T12:14:16Z</time>
      </trkpt>
      <trkpt lat="45.49385" lon="4.03554">
        <ele>830.72</ele>
        <time>2011-11-11T12:14:25Z</time>
      </trkpt>
      <trkpt lat="45.49353" lon="4.03578">
        <ele>835.04</ele>
        <time>2011-11-11T12:14:40Z</time>
      </trkpt>
      <trkpt lat="45.49329" lon="4.03599">
        <ele>836.48</ele>
        <time>2011-11-11T12:14:52Z</time>
      </trkpt>
      <trkpt lat="45.493" lon="4.03614">
        <ele>835.04</ele>
        <time>2011-11-11T12:15:01Z</time>
      </trkpt>
      <trkpt lat="45.49285" lon="4.03623">
        <ele>833.6</ele>
        <time>2011-11-11T12:15:04Z</time>
      </trkpt>
      <trkpt lat="45.49214" lon="4.03669">
        <ele>823.03</ele>
        <time>2011-11-11T12:15:14Z</time>
      </trkpt>
      <trkpt lat="45.49207" lon="4.03672">
        <ele>822.06</ele>
        <time>2011-11-11T12:15:15Z</time>
      </trkpt>
      <trkpt lat="45.492" lon="4.03673">
        <ele>820.62</ele>
        <time>2011-11-11T12:15:16Z</time>
      </trkpt>
      <trkpt lat="45.49193" lon="4.03671">
        <ele>819.66</ele>
        <time>2011-11-11T12:15:17Z</time>
      </trkpt>
      <trkpt lat="45.49132" lon="4.03654">
        <ele>812.93</ele>
        <time>2011-11-11T12:15:25Z</time>
      </trkpt>
      <trkpt lat="45.49126" lon="4.03654">
        <ele>811.97</ele>
        <time>2011-11-11T12:15:26Z</time>
      </trkpt>
      <trkpt lat="45.4912" lon="4.03657">
        <ele>811.01</ele>
        <time>2011-11-11T12:15:27Z</time>
      </trkpt>
      <trkpt lat="45.49115" lon="4.0366">
        <ele>810.53</ele>
        <time>2011-11-11T12:15:28Z</time>
      </trkpt>
      <trkpt lat="45.4911" lon="4.03664">
        <ele>809.57</ele>
        <time>2011-11-11T12:15:29Z</time>
      </trkpt>
      <trkpt lat="45.49105" lon="4.03667">
        <ele>809.09</ele>
        <time>2011-11-11T12:15:30Z</time>
      </trkpt>
      <trkpt lat="45.491" lon="4.03669">
        <ele>808.13</ele>
        <time>2011-11-11T12:15:31Z</time>
      </trkpt>
      <trkpt lat="45.49095" lon="4.03671">
        <ele>807.64</ele>
        <time>2011-11-11T12:15:32Z</time>
      </trkpt>
      <trkpt lat="45.49084" lon="4.03674">
        <ele>806.68</ele>
        <time>2011-11-11T12:15:34Z</time>
      </trkpt>
      <trkpt lat="45.49079" lon="4.03676">
        <ele>805.72</ele>
        <time>2011-11-11T12:15:35Z</time>
      </trkpt>
      <trkpt lat="45.49075" lon="4.03679">
        <ele>804.76</ele>
        <time>2011-11-11T12:15:36Z</time>
      </trkpt>
      <trkpt lat="45.49059" lon="4.03691">
        <ele>799.95</ele>
        <time>2011-11-11T12:15:44Z</time>
      </trkpt>
      <trkpt lat="45.49052" lon="4.03695">
        <ele>797.55</ele>
        <time>2011-11-11T12:15:56Z</time>
      </trkpt>
      <trkpt lat="45.49051" lon="4.03696">
        <ele>796.59</ele>
        <time>2011-11-11T12:16:01Z</time>
      </trkpt>
      <trkpt lat="45.49049" lon="4.03697">
        <ele>796.11</ele>
        <time>2011-11-11T12:16:02Z</time>
      </trkpt>
      <trkpt lat="45.49036" lon="4.03703">
        <ele>793.22</ele>
        <time>2011-11-11T12:16:12Z</time>
      </trkpt>
      <trkpt lat="45.49025" lon="4.03709">
        <ele>791.3</ele>
        <time>2011-11-11T12:16:17Z</time>
      </trkpt>
      <trkpt lat="45.49023" lon="4.03711">
        <ele>791.3</ele>
        <time>2011-11-11T12:16:18Z</time>
      </trkpt>
      <trkpt lat="45.49021" lon="4.03712">
        <ele>790.82</ele>
        <time>2011-11-11T12:16:19Z</time>
      </trkpt>
      <trkpt lat="45.49011" lon="4.03718">
        <ele>791.78</ele>
        <time>2011-11-11T12:16:31Z</time>
      </trkpt>
      <trkpt lat="45.49005" lon="4.03724">
        <ele>793.71</ele>
        <time>2011-11-11T12:16:36Z</time>
      </trkpt>
      <trkpt lat="45.49001" lon="4.03728">
        <ele>795.63</ele>
        <time>2011-11-11T12:16:41Z</time>
      </trkpt>
      <trkpt lat="45.48999" lon="4.03728">
        <ele>795.63</ele>
        <time>2011-11-11T12:16:42Z</time>
      </trkpt>
      <trkpt lat="45.48997" lon="4.03729">
        <ele>795.63</ele>
        <time>2011-11-11T12:16:43Z</time>
      </trkpt>
      <trkpt lat="45.48994" lon="4.0373">
        <ele>796.11</ele>
        <time>2011-11-11T12:16:44Z</time>
      </trkpt>
      <trkpt lat="45.48992" lon="4.03731">
        <ele>795.63</ele>
        <time>2011-11-11T12:16:45Z</time>
      </trkpt>
      <trkpt lat="45.48989" lon="4.03732">
        <ele>795.63</ele>
        <time>2011-11-11T12:16:46Z</time>
      </trkpt>
      <trkpt lat="45.48986" lon="4.03733">
        <ele>795.63</ele>
        <time>2011-11-11T12:16:47Z</time>
      </trkpt>
      <trkpt lat="45.48984" lon="4.03733">
        <ele>795.15</ele>
        <time>2011-11-11T12:16:48Z</time>
      </trkpt>
      <trkpt lat="45.48979" lon="4.03735">
        <ele>795.15</ele>
        <time>2011-11-11T12:16:51Z</time>
      </trkpt>
      <trkpt lat="45.48975" lon="4.03736">
        <ele>795.15</ele>
        <time>2011-11-11T12:16:53Z</time>
      </trkpt>
      <trkpt lat="45.48973" lon="4.03738">
        <ele>795.15</ele>
        <time>2011-11-11T12:16:54Z</time>
      </trkpt>
      <trkpt lat="45.4897" lon="4.0374">
        <ele>795.15</ele>
        <time>2011-11-11T12:16:55Z</time>
      </trkpt>
      <trkpt lat="45.48968" lon="4.03741">
        <ele>795.15</ele>
        <time>2011-11-11T12:16:56Z</time>
      </trkpt>
      <trkpt lat="45.48966" lon="4.03742">
        <ele>795.15</ele>
        <time>2011-11-11T12:16:57Z</time>
      </trkpt>
      <trkpt lat="45.48952" lon="4.03747">
        <ele>797.55</ele>
        <time>2011-11-11T12:17:03Z</time>
      </trkpt>
      <trkpt lat="45.48951" lon="4.03748">
        <ele>798.99</ele>
        <time>2011-11-11T12:17:04Z</time>
      </trkpt>
      <trkpt lat="45.48949" lon="4.03749">
        <ele>799.95</ele>
        <time>2011-11-11T12:17:05Z</time>
      </trkpt>
      <trkpt lat="45.48947" lon="4.03749">
        <ele>800.92</ele>
        <time>2011-11-11T12:17:06Z</time>
      </trkpt>
      <trkpt lat="45.48946" lon="4.0375">
        <ele>801.88</ele>
        <time>2011-11-11T12:17:07Z</time>
      </trkpt>
      <trkpt lat="45.48928" lon="4.03759">
        <ele>810.53</ele>
        <time>2011-11-11T12:17:18Z</time>
      </trkpt>
      <trkpt lat="45.48927" lon="4.03759">
        <ele>811.49</ele>
        <time>2011-11-11T12:17:20Z</time>
      </trkpt>
      <trkpt lat="45.48924" lon="4.03758">
        <ele>812.45</ele>
        <time>2011-11-11T12:17:21Z</time>
      </trkpt>
      <trkpt lat="45.4892" lon="4.03759">
        <ele>813.41</ele>
        <time>2011-11-11T12:17:22Z</time>
      </trkpt>
      <trkpt lat="45.48918" lon="4.0376">
        <ele>814.37</ele>
        <time>2011-11-11T12:17:23Z</time>
      </trkpt>
      <trkpt lat="45.48914" lon="4.03761">
        <ele>815.34</ele>
        <time>2011-11-11T12:17:24Z</time>
      </trkpt>
      <trkpt lat="45.48911" lon="4.03762">
        <ele>815.82</ele>
        <time>2011-11-11T12:17:25Z</time>
      </trkpt>
      <trkpt lat="45.48884" lon="4.0377">
        <ele>820.14</ele>
        <time>2011-11-11T12:17:33Z</time>
      </trkpt>
      <trkpt lat="45.48862" lon="4.03781">
        <ele>820.62</ele>
        <time>2011-11-11T12:17:38Z</time>
      </trkpt>
      <trkpt lat="45.48858" lon="4.03784">
        <ele>820.62</ele>
        <time>2011-11-11T12:17:39Z</time>
      </trkpt>
      <trkpt lat="45.48855" lon="4.03787">
        <ele>820.62</ele>
        <time>2011-11-11T12:17:40Z</time>
      </trkpt>
      <trkpt lat="45.48851" lon="4.03789">
        <ele>820.14</ele>
        <time>2011-11-11T12:17:41Z</time>
      </trkpt>
      <trkpt lat="45.48846" lon="4.0379">
        <ele>820.14</ele>
        <time>2011-11-11T12:17:42Z</time>
      </trkpt>
      <trkpt lat="45.48841" lon="4.03791">
        <ele>819.66</ele>
        <time>2011-11-11T12:17:43Z</time>
      </trkpt>
      <trkpt lat="45.48837" lon="4.03792">
        <ele>819.66</ele>
        <time>2011-11-11T12:17:44Z</time>
      </trkpt>
      <trkpt lat="45.48833" lon="4.03792">
        <ele>819.18</ele>
        <time>2011-11-11T12:17:45Z</time>
      </trkpt>
      <trkpt lat="45.4883" lon="4.03792">
        <ele>819.66</ele>
        <time>2011-11-11T12:17:46Z</time>
      </trkpt>
      <trkpt lat="45.48827" lon="4.03793">
        <ele>819.66</ele>
        <time>2011-11-11T12:17:47Z</time>
      </trkpt>
      <trkpt lat="45.48824" lon="4.03792">
        <ele>819.66</ele>
        <time>2011-11-11T12:17:48Z</time>
      </trkpt>
      <trkpt lat="45.48821" lon="4.03791">
        <ele>820.14</ele>
        <time>2011-11-11T12:17:49Z</time>
      </trkpt>
      <trkpt lat="45.48817" lon="4.03789">
        <ele>820.14</ele>
        <time>2011-11-11T12:17:50Z</time>
      </trkpt>
      <trkpt lat="45.48814" lon="4.03788">
        <ele>819.66</ele>
        <time>2011-11-11T12:17:51Z</time>
      </trkpt>
      <trkpt lat="45.48811" lon="4.03786">
        <ele>820.14</ele>
        <time>2011-11-11T12:17:52Z</time>
      </trkpt>
      <trkpt lat="45.48808" lon="4.03784">
        <ele>819.66</ele>
        <time>2011-11-11T12:17:53Z</time>
      </trkpt>
      <trkpt lat="45.48806" lon="4.03781">
        <ele>819.66</ele>
        <time>2011-11-11T12:17:54Z</time>
      </trkpt>
      <trkpt lat="45.48791" lon="4.03765">
        <ele>818.22</ele>
        <time>2011-11-11T12:18:01Z</time>
      </trkpt>
      <trkpt lat="45.48789" lon="4.03762">
        <ele>818.7</ele>
        <time>2011-11-11T12:18:02Z</time>
      </trkpt>
      <trkpt lat="45.48788" lon="4.03759">
        <ele>819.18</ele>
        <time>2011-11-11T12:18:03Z</time>
      </trkpt>
      <trkpt lat="45.48779" lon="4.03741">
        <ele>820.14</ele>
        <time>2011-11-11T12:18:09Z</time>
      </trkpt>
      <trkpt lat="45.48777" lon="4.03738">
        <ele>820.14</ele>
        <time>2011-11-11T12:18:10Z</time>
      </trkpt>
      <trkpt lat="45.48776" lon="4.03735">
        <ele>820.62</ele>
        <time>2011-11-11T12:18:11Z</time>
      </trkpt>
      <trkpt lat="45.48774" lon="4.03732">
        <ele>820.62</ele>
        <time>2011-11-11T12:18:12Z</time>
      </trkpt>
      <trkpt lat="45.48773" lon="4.03728">
        <ele>821.1</ele>
        <time>2011-11-11T12:18:13Z</time>
      </trkpt>
      <trkpt lat="45.48772" lon="4.03725">
        <ele>821.58</ele>
        <time>2011-11-11T12:18:14Z</time>
      </trkpt>
      <trkpt lat="45.48771" lon="4.03723">
        <ele>821.58</ele>
        <time>2011-11-11T12:18:15Z</time>
      </trkpt>
      <trkpt lat="45.48769" lon="4.03721">
        <ele>821.58</ele>
        <time>2011-11-11T12:18:16Z</time>
      </trkpt>
      <trkpt lat="45.48768" lon="4.03719">
        <ele>821.58</ele>
        <time>2011-11-11T12:18:17Z</time>
      </trkpt>
      <trkpt lat="45.48757" lon="4.03706">
        <ele>822.06</ele>
        <time>2011-11-11T12:18:21Z</time>
      </trkpt>
      <trkpt lat="45.48754" lon="4.03702">
        <ele>821.58</ele>
        <time>2011-11-11T12:18:22Z</time>
      </trkpt>
      <trkpt lat="45.48751" lon="4.03698">
        <ele>821.1</ele>
        <time>2011-11-11T12:18:23Z</time>
      </trkpt>
      <trkpt lat="45.48725" lon="4.03669">
        <ele>822.06</ele>
        <time>2011-11-11T12:18:33Z</time>
      </trkpt>
      <trkpt lat="45.48694" lon="4.03628">
        <ele>823.99</ele>
        <time>2011-11-11T12:18:45Z</time>
      </trkpt>
      <trkpt lat="45.48679" lon="4.03576">
        <ele>822.06</ele>
        <time>2011-11-11T12:18:56Z</time>
      </trkpt>
      <trkpt lat="45.48678" lon="4.03565">
        <ele>821.1</ele>
        <time>2011-11-11T12:18:58Z</time>
      </trkpt>
      <trkpt lat="45.48678" lon="4.03559">
        <ele>820.62</ele>
        <time>2011-11-11T12:18:59Z</time>
      </trkpt>
      <trkpt lat="45.48677" lon="4.03554">
        <ele>820.14</ele>
        <time>2011-11-11T12:19:00Z</time>
      </trkpt>
      <trkpt lat="45.48675" lon="4.03549">
        <ele>819.66</ele>
        <time>2011-11-11T12:19:01Z</time>
      </trkpt>
      <trkpt lat="45.48674" lon="4.03544">
        <ele>819.18</ele>
        <time>2011-11-11T12:19:02Z</time>
      </trkpt>
      <trkpt lat="45.48672" lon="4.03539">
        <ele>818.7</ele>
        <time>2011-11-11T12:19:03Z</time>
      </trkpt>
      <trkpt lat="45.48663" lon="4.03513">
        <ele>815.82</ele>
        <time>2011-11-11T12:19:13Z</time>
      </trkpt>
      <trkpt lat="45.4866" lon="4.03505">
        <ele>817.74</ele>
        <time>2011-11-11T12:19:17Z</time>
      </trkpt>
      <trkpt lat="45.4866" lon="4.03503">
        <ele>818.22</ele>
        <time>2011-11-11T12:19:18Z</time>
      </trkpt>
      <trkpt lat="45.4866" lon="4.03501">
        <ele>817.74</ele>
        <time>2011-11-11T12:19:19Z</time>
      </trkpt>
      <trkpt lat="45.4866" lon="4.03498">
        <ele>818.22</ele>
        <time>2011-11-11T12:19:20Z</time>
      </trkpt>
      <trkpt lat="45.48655" lon="4.03487">
        <ele>819.66</ele>
        <time>2011-11-11T12:19:30Z</time>
      </trkpt>
      <trkpt lat="45.48651" lon="4.03485">
        <ele>818.7</ele>
        <time>2011-11-11T12:19:39Z</time>
      </trkpt>
      <trkpt lat="45.48648" lon="4.0348">
        <ele>818.22</ele>
        <time>2011-11-11T12:19:47Z</time>
      </trkpt>
      <trkpt lat="45.48646" lon="4.03478">
        <ele>817.74</ele>
        <time>2011-11-11T12:19:48Z</time>
      </trkpt>
      <trkpt lat="45.48643" lon="4.03477">
        <ele>817.74</ele>
        <time>2011-11-11T12:19:54Z</time>
      </trkpt>
      <trkpt lat="45.48639" lon="4.03477">
        <ele>817.74</ele>
        <time>2011-11-11T12:20:02Z</time>
      </trkpt>
      <trkpt lat="45.48637" lon="4.0348">
        <ele>817.74</ele>
        <time>2011-11-11T12:20:05Z</time>
      </trkpt>
      <trkpt lat="45.48636" lon="4.03484">
        <ele>818.22</ele>
        <time>2011-11-11T12:20:07Z</time>
      </trkpt>
      <trkpt lat="45.4863" lon="4.03492">
        <ele>818.7</ele>
        <time>2011-11-11T12:20:12Z</time>
      </trkpt>
      <trkpt lat="45.48628" lon="4.03493">
        <ele>818.22</ele>
        <time>2011-11-11T12:20:13Z</time>
      </trkpt>
      <trkpt lat="45.48626" lon="4.03494">
        <ele>818.22</ele>
        <time>2011-11-11T12:20:14Z</time>
      </trkpt>
      <trkpt lat="45.48624" lon="4.03498">
        <ele>817.74</ele>
        <time>2011-11-11T12:20:16Z</time>
      </trkpt>
      <trkpt lat="45.48624" lon="4.03499">
        <ele>817.74</ele>
        <time>2011-11-11T12:20:17Z</time>
      </trkpt>
      <trkpt lat="45.48624" lon="4.03501">
        <ele>817.74</ele>
        <time>2011-11-11T12:20:18Z</time>
      </trkpt>
      <trkpt lat="45.48624" lon="4.03507">
        <ele>817.74</ele>
        <time>2011-11-11T12:20:21Z</time>
      </trkpt>
      <trkpt lat="45.48621" lon="4.03522">
        <ele>818.22</ele>
        <time>2011-11-11T12:20:29Z</time>
      </trkpt>
      <trkpt lat="45.4862" lon="4.03535">
        <ele>821.58</ele>
        <time>2011-11-11T12:20:36Z</time>
      </trkpt>
      <trkpt lat="45.48616" lon="4.03544">
        <ele>825.43</ele>
        <time>2011-11-11T12:20:41Z</time>
      </trkpt>
      <trkpt lat="45.48615" lon="4.03546">
        <ele>826.39</ele>
        <time>2011-11-11T12:20:42Z</time>
      </trkpt>
      <trkpt lat="45.48614" lon="4.03549">
        <ele>826.87</ele>
        <time>2011-11-11T12:20:43Z</time>
      </trkpt>
      <trkpt lat="45.48613" lon="4.0355">
        <ele>827.35</ele>
        <time>2011-11-11T12:20:44Z</time>
      </trkpt>
      <trkpt lat="45.48612" lon="4.03552">
        <ele>827.83</ele>
        <time>2011-11-11T12:20:45Z</time>
      </trkpt>
      <trkpt lat="45.48611" lon="4.03553">
        <ele>828.31</ele>
        <time>2011-11-11T12:20:46Z</time>
      </trkpt>
      <trkpt lat="45.48596" lon="4.03566">
        <ele>829.27</ele>
        <time>2011-11-11T12:21:00Z</time>
      </trkpt>
      <trkpt lat="45.48595" lon="4.03566">
        <ele>829.27</ele>
        <time>2011-11-11T12:21:01Z</time>
      </trkpt>
      <trkpt lat="45.48594" lon="4.03567">
        <ele>829.27</ele>
        <time>2011-11-11T12:21:02Z</time>
      </trkpt>
      <trkpt lat="45.48592" lon="4.03568">
        <ele>828.79</ele>
        <time>2011-11-11T12:21:04Z</time>
      </trkpt>
      <trkpt lat="45.48591" lon="4.03569">
        <ele>829.27</ele>
        <time>2011-11-11T12:21:05Z</time>
      </trkpt>
      <trkpt lat="45.48581" lon="4.03577">
        <ele>826.39</ele>
        <time>2011-11-11T12:21:16Z</time>
      </trkpt>
      <trkpt lat="45.48574" lon="4.03581">
        <ele>827.83</ele>
        <time>2011-11-11T12:21:26Z</time>
      </trkpt>
      <trkpt lat="45.48566" lon="4.0359">
        <ele>830.72</ele>
        <time>2011-11-11T12:21:36Z</time>
      </trkpt>
      <trkpt lat="45.48553" lon="4.03594">
        <ele>837.93</ele>
        <time>2011-11-11T12:21:47Z</time>
      </trkpt>
      <trkpt lat="45.48548" lon="4.036">
        <ele>843.21</ele>
        <time>2011-11-11T12:21:54Z</time>
      </trkpt>
      <trkpt lat="45.48542" lon="4.03608">
        <ele>844.18</ele>
        <time>2011-11-11T12:22:06Z</time>
      </trkpt>
      <trkpt lat="45.48539" lon="4.03611">
        <ele>844.66</ele>
        <time>2011-11-11T12:22:09Z</time>
      </trkpt>
      <trkpt lat="45.48537" lon="4.03611">
        <ele>844.66</ele>
        <time>2011-11-11T12:22:10Z</time>
      </trkpt>
      <trkpt lat="45.48532" lon="4.03611">
        <ele>844.66</ele>
        <time>2011-11-11T12:22:15Z</time>
      </trkpt>
      <trkpt lat="45.48531" lon="4.03612">
        <ele>845.14</ele>
        <time>2011-11-11T12:22:16Z</time>
      </trkpt>
      <trkpt lat="45.48515" lon="4.0362">
        <ele>846.58</ele>
        <time>2011-11-11T12:22:27Z</time>
      </trkpt>
      <trkpt lat="45.48504" lon="4.03633">
        <ele>849.94</ele>
        <time>2011-11-11T12:22:37Z</time>
      </trkpt>
      <trkpt lat="45.48495" lon="4.03642">
        <ele>854.27</ele>
        <time>2011-11-11T12:22:46Z</time>
      </trkpt>
      <trkpt lat="45.48494" lon="4.03643">
        <ele>854.27</ele>
        <time>2011-11-11T12:22:47Z</time>
      </trkpt>
      <trkpt lat="45.48482" lon="4.03659">
        <ele>856.19</ele>
        <time>2011-11-11T12:22:59Z</time>
      </trkpt>
      <trkpt lat="45.48478" lon="4.03662">
        <ele>856.19</ele>
        <time>2011-11-11T12:23:03Z</time>
      </trkpt>
      <trkpt lat="45.48466" lon="4.0367">
        <ele>856.19</ele>
        <time>2011-11-11T12:23:14Z</time>
      </trkpt>
      <trkpt lat="45.48463" lon="4.03671">
        <ele>856.19</ele>
        <time>2011-11-11T12:23:16Z</time>
      </trkpt>
      <trkpt lat="45.48461" lon="4.03671">
        <ele>856.19</ele>
        <time>2011-11-11T12:23:17Z</time>
      </trkpt>
      <trkpt lat="45.48459" lon="4.03673">
        <ele>856.19</ele>
        <time>2011-11-11T12:23:18Z</time>
      </trkpt>
      <trkpt lat="45.48444" lon="4.03697">
        <ele>858.11</ele>
        <time>2011-11-11T12:23:29Z</time>
      </trkpt>
      <trkpt lat="45.4843" lon="4.03742">
        <ele>862.44</ele>
        <time>2011-11-11T12:23:44Z</time>
      </trkpt>
      <trkpt lat="45.48415" lon="4.03784">
        <ele>865.8</ele>
        <time>2011-11-11T12:23:57Z</time>
      </trkpt>
      <trkpt lat="45.48408" lon="4.03789">
        <ele>866.29</ele>
        <time>2011-11-11T12:24:01Z</time>
      </trkpt>
      <trkpt lat="45.48405" lon="4.03789">
        <ele>866.29</ele>
        <time>2011-11-11T12:24:02Z</time>
      </trkpt>
      <trkpt lat="45.48375" lon="4.03769">
        <ele>868.69</ele>
        <time>2011-11-11T12:24:16Z</time>
      </trkpt>
      <trkpt lat="45.48351" lon="4.03757">
        <ele>871.09</ele>
        <time>2011-11-11T12:24:28Z</time>
      </trkpt>
      <trkpt lat="45.48322" lon="4.03757">
        <ele>874.94</ele>
        <time>2011-11-11T12:24:41Z</time>
      </trkpt>
      <trkpt lat="45.48295" lon="4.0376">
        <ele>878.78</ele>
        <time>2011-11-11T12:24:53Z</time>
      </trkpt>
      <trkpt lat="45.48268" lon="4.03755">
        <ele>879.26</ele>
        <time>2011-11-11T12:25:04Z</time>
      </trkpt>
      <trkpt lat="45.48239" lon="4.03729">
        <ele>875.9</ele>
        <time>2011-11-11T12:25:13Z</time>
      </trkpt>
      <trkpt lat="45.48236" lon="4.03729">
        <ele>875.9</ele>
        <time>2011-11-11T12:25:14Z</time>
      </trkpt>
      <trkpt lat="45.48234" lon="4.03729">
        <ele>875.42</ele>
        <time>2011-11-11T12:25:15Z</time>
      </trkpt>
      <trkpt lat="45.48232" lon="4.0373">
        <ele>874.94</ele>
        <time>2011-11-11T12:25:16Z</time>
      </trkpt>
      <trkpt lat="45.4823" lon="4.03731">
        <ele>874.94</ele>
        <time>2011-11-11T12:25:17Z</time>
      </trkpt>
      <trkpt lat="45.48229" lon="4.03732">
        <ele>874.94</ele>
        <time>2011-11-11T12:25:18Z</time>
      </trkpt>
      <trkpt lat="45.48228" lon="4.03733">
        <ele>875.42</ele>
        <time>2011-11-11T12:25:19Z</time>
      </trkpt>
      <trkpt lat="45.48227" lon="4.03734">
        <ele>874.94</ele>
        <time>2011-11-11T12:25:20Z</time>
      </trkpt>
      <trkpt lat="45.48227" lon="4.03736">
        <ele>874.94</ele>
        <time>2011-11-11T12:25:21Z</time>
      </trkpt>
      <trkpt lat="45.48227" lon="4.03738">
        <ele>874.94</ele>
        <time>2011-11-11T12:25:22Z</time>
      </trkpt>
      <trkpt lat="45.48221" lon="4.03773">
        <ele>873.5</ele>
        <time>2011-11-11T12:25:34Z</time>
      </trkpt>
      <trkpt lat="45.4822" lon="4.03779">
        <ele>873.01</ele>
        <time>2011-11-11T12:25:36Z</time>
      </trkpt>
      <trkpt lat="45.48219" lon="4.03781">
        <ele>873.01</ele>
        <time>2011-11-11T12:25:37Z</time>
      </trkpt>
      <trkpt lat="45.48218" lon="4.03783">
        <ele>872.53</ele>
        <time>2011-11-11T12:25:38Z</time>
      </trkpt>
      <trkpt lat="45.48216" lon="4.03785">
        <ele>872.53</ele>
        <time>2011-11-11T12:25:39Z</time>
      </trkpt>
      <trkpt lat="45.48215" lon="4.03788">
        <ele>872.53</ele>
        <time>2011-11-11T12:25:40Z</time>
      </trkpt>
      <trkpt lat="45.48213" lon="4.03789">
        <ele>872.53</ele>
        <time>2011-11-11T12:25:41Z</time>
      </trkpt>
      <trkpt lat="45.48211" lon="4.03791">
        <ele>872.05</ele>
        <time>2011-11-11T12:25:42Z</time>
      </trkpt>
      <trkpt lat="45.48209" lon="4.03793">
        <ele>872.05</ele>
        <time>2011-11-11T12:25:43Z</time>
      </trkpt>
      <trkpt lat="45.48207" lon="4.03796">
        <ele>871.57</ele>
        <time>2011-11-11T12:25:44Z</time>
      </trkpt>
      <trkpt lat="45.48175" lon="4.03824">
        <ele>869.65</ele>
        <time>2011-11-11T12:25:58Z</time>
      </trkpt>
      <trkpt lat="45.48152" lon="4.03872">
        <ele>866.29</ele>
        <time>2011-11-11T12:26:12Z</time>
      </trkpt>
      <trkpt lat="45.48139" lon="4.03912">
        <ele>862.44</ele>
        <time>2011-11-11T12:26:20Z</time>
      </trkpt>
      <trkpt lat="45.48127" lon="4.0395">
        <ele>860.52</ele>
        <time>2011-11-11T12:26:27Z</time>
      </trkpt>
      <trkpt lat="45.48126" lon="4.03955">
        <ele>860.52</ele>
        <time>2011-11-11T12:26:28Z</time>
      </trkpt>
      <trkpt lat="45.48124" lon="4.03961">
        <ele>860.52</ele>
        <time>2011-11-11T12:26:29Z</time>
      </trkpt>
      <trkpt lat="45.48123" lon="4.03967">
        <ele>860.52</ele>
        <time>2011-11-11T12:26:30Z</time>
      </trkpt>
      <trkpt lat="45.48122" lon="4.03972">
        <ele>860.04</ele>
        <time>2011-11-11T12:26:31Z</time>
      </trkpt>
      <trkpt lat="45.48106" lon="4.04024">
        <ele>860.04</ele>
        <time>2011-11-11T12:26:45Z</time>
      </trkpt>
      <trkpt lat="45.48087" lon="4.04055">
        <ele>859.08</ele>
        <time>2011-11-11T12:26:59Z</time>
      </trkpt>
      <trkpt lat="45.48072" lon="4.04082">
        <ele>860.04</ele>
        <time>2011-11-11T12:27:12Z</time>
      </trkpt>
      <trkpt lat="45.48071" lon="4.04084">
        <ele>860.04</ele>
        <time>2011-11-11T12:27:13Z</time>
      </trkpt>
      <trkpt lat="45.4807" lon="4.04086">
        <ele>860.04</ele>
        <time>2011-11-11T12:27:14Z</time>
      </trkpt>
      <trkpt lat="45.48069" lon="4.04088">
        <ele>860.04</ele>
        <time>2011-11-11T12:27:15Z</time>
      </trkpt>
      <trkpt lat="45.48068" lon="4.0409">
        <ele>860.04</ele>
        <time>2011-11-11T12:27:16Z</time>
      </trkpt>
      <trkpt lat="45.48068" lon="4.04092">
        <ele>860.04</ele>
        <time>2011-11-11T12:27:17Z</time>
      </trkpt>
      <trkpt lat="45.48067" lon="4.04094">
        <ele>860.04</ele>
        <time>2011-11-11T12:27:18Z</time>
      </trkpt>
      <trkpt lat="45.48066" lon="4.04095">
        <ele>859.56</ele>
        <time>2011-11-11T12:27:19Z</time>
      </trkpt>
      <trkpt lat="45.48065" lon="4.04096">
        <ele>859.56</ele>
        <time>2011-11-11T12:27:20Z</time>
      </trkpt>
      <trkpt lat="45.48064" lon="4.04097">
        <ele>859.56</ele>
        <time>2011-11-11T12:27:21Z</time>
      </trkpt>
      <trkpt lat="45.48064" lon="4.04097">
        <ele>859.56</ele>
        <time>2011-11-11T12:27:36Z</time>
      </trkpt>
      <trkpt lat="45.48064" lon="4.04099">
        <ele>859.08</ele>
        <time>2011-11-11T12:28:08Z</time>
      </trkpt>
      <trkpt lat="45.48064" lon="4.041">
        <ele>859.08</ele>
        <time>2011-11-11T12:28:09Z</time>
      </trkpt>
      <trkpt lat="45.48066" lon="4.04098">
        <ele>859.08</ele>
        <time>2011-11-11T12:28:12Z</time>
      </trkpt>
      <trkpt lat="45.48067" lon="4.04096">
        <ele>859.08</ele>
        <time>2011-11-11T12:28:13Z</time>
      </trkpt>
      <trkpt lat="45.48068" lon="4.04094">
        <ele>859.08</ele>
        <time>2011-11-11T12:28:14Z</time>
      </trkpt>
      <trkpt lat="45.48068" lon="4.04093">
        <ele>859.08</ele>
        <time>2011-11-11T12:28:15Z</time>
      </trkpt>
      <trkpt lat="45.48069" lon="4.04091">
        <ele>859.08</ele>
        <time>2011-11-11T12:28:16Z</time>
      </trkpt>
      <trkpt lat="45.4807" lon="4.0409">
        <ele>859.08</ele>
        <time>2011-11-11T12:28:17Z</time>
      </trkpt>
      <trkpt lat="45.48071" lon="4.04088">
        <ele>858.59</ele>
        <time>2011-11-11T12:28:18Z</time>
      </trkpt>
      <trkpt lat="45.48072" lon="4.04086">
        <ele>858.59</ele>
        <time>2011-11-11T12:28:19Z</time>
      </trkpt>
      <trkpt lat="45.48073" lon="4.04084">
        <ele>858.59</ele>
        <time>2011-11-11T12:28:20Z</time>
      </trkpt>
      <trkpt lat="45.48074" lon="4.04081">
        <ele>858.59</ele>
        <time>2011-11-11T12:28:21Z</time>
      </trkpt>
      <trkpt lat="45.48075" lon="4.04079">
        <ele>858.59</ele>
        <time>2011-11-11T12:28:22Z</time>
      </trkpt>
      <trkpt lat="45.48077" lon="4.04076">
        <ele>858.59</ele>
        <time>2011-11-11T12:28:23Z</time>
      </trkpt>
      <trkpt lat="45.48106" lon="4.04026">
        <ele>856.67</ele>
        <time>2011-11-11T12:28:38Z</time>
      </trkpt>
      <trkpt lat="45.48122" lon="4.03974">
        <ele>858.59</ele>
        <time>2011-11-11T12:28:51Z</time>
      </trkpt>
      <trkpt lat="45.48137" lon="4.03916">
        <ele>859.08</ele>
        <time>2011-11-11T12:29:07Z</time>
      </trkpt>
      <trkpt lat="45.48153" lon="4.03873">
        <ele>861.48</ele>
        <time>2011-11-11T12:29:23Z</time>
      </trkpt>
      <trkpt lat="45.48168" lon="4.03836">
        <ele>865.32</ele>
        <time>2011-11-11T12:29:38Z</time>
      </trkpt>
      <trkpt lat="45.48195" lon="4.03806">
        <ele>867.25</ele>
        <time>2011-11-11T12:29:54Z</time>
      </trkpt>
      <trkpt lat="45.48218" lon="4.03781">
        <ele>868.69</ele>
        <time>2011-11-11T12:30:06Z</time>
      </trkpt>
      <trkpt lat="45.48223" lon="4.03767">
        <ele>868.69</ele>
        <time>2011-11-11T12:30:11Z</time>
      </trkpt>
      <trkpt lat="45.48223" lon="4.03764">
        <ele>868.69</ele>
        <time>2011-11-11T12:30:12Z</time>
      </trkpt>
      <trkpt lat="45.48224" lon="4.03761">
        <ele>868.69</ele>
        <time>2011-11-11T12:30:13Z</time>
      </trkpt>
      <trkpt lat="45.48225" lon="4.03758">
        <ele>868.69</ele>
        <time>2011-11-11T12:30:14Z</time>
      </trkpt>
      <trkpt lat="45.48225" lon="4.03754">
        <ele>868.69</ele>
        <time>2011-11-11T12:30:15Z</time>
      </trkpt>
      <trkpt lat="45.48226" lon="4.03751">
        <ele>868.21</ele>
        <time>2011-11-11T12:30:16Z</time>
      </trkpt>
      <trkpt lat="45.48234" lon="4.03732">
        <ele>869.65</ele>
        <time>2011-11-11T12:30:24Z</time>
      </trkpt>
      <trkpt lat="45.48235" lon="4.03732">
        <ele>869.65</ele>
        <time>2011-11-11T12:30:25Z</time>
      </trkpt>
      <trkpt lat="45.48252" lon="4.03743">
        <ele>873.01</ele>
        <time>2011-11-11T12:30:37Z</time>
      </trkpt>
      <trkpt lat="45.48253" lon="4.03744">
        <ele>873.01</ele>
        <time>2011-11-11T12:30:38Z</time>
      </trkpt>
      <trkpt lat="45.48254" lon="4.03746">
        <ele>873.5</ele>
        <time>2011-11-11T12:30:39Z</time>
      </trkpt>
      <trkpt lat="45.48256" lon="4.03747">
        <ele>873.5</ele>
        <time>2011-11-11T12:30:40Z</time>
      </trkpt>
      <trkpt lat="45.48258" lon="4.03748">
        <ele>873.98</ele>
        <time>2011-11-11T12:30:41Z</time>
      </trkpt>
      <trkpt lat="45.48259" lon="4.0375">
        <ele>874.46</ele>
        <time>2011-11-11T12:30:42Z</time>
      </trkpt>
      <trkpt lat="45.48261" lon="4.03751">
        <ele>874.94</ele>
        <time>2011-11-11T12:30:43Z</time>
      </trkpt>
      <trkpt lat="45.48262" lon="4.03752">
        <ele>874.94</ele>
        <time>2011-11-11T12:30:44Z</time>
      </trkpt>
      <trkpt lat="45.48263" lon="4.03754">
        <ele>875.42</ele>
        <time>2011-11-11T12:30:45Z</time>
      </trkpt>
      <trkpt lat="45.48265" lon="4.03756">
        <ele>875.42</ele>
        <time>2011-11-11T12:30:46Z</time>
      </trkpt>
      <trkpt lat="45.48266" lon="4.03757">
        <ele>875.42</ele>
        <time>2011-11-11T12:30:47Z</time>
      </trkpt>
      <trkpt lat="45.48268" lon="4.03758">
        <ele>875.42</ele>
        <time>2011-11-11T12:30:48Z</time>
      </trkpt>
      <trkpt lat="45.48269" lon="4.03759">
        <ele>875.9</ele>
        <time>2011-11-11T12:30:49Z</time>
      </trkpt>
      <trkpt lat="45.48271" lon="4.0376">
        <ele>875.9</ele>
        <time>2011-11-11T12:30:50Z</time>
      </trkpt>
      <trkpt lat="45.48273" lon="4.0376">
        <ele>876.38</ele>
        <time>2011-11-11T12:30:51Z</time>
      </trkpt>
      <trkpt lat="45.48274" lon="4.03761">
        <ele>876.86</ele>
        <time>2011-11-11T12:30:52Z</time>
      </trkpt>
      <trkpt lat="45.48276" lon="4.03761">
        <ele>877.34</ele>
        <time>2011-11-11T12:30:53Z</time>
      </trkpt>
      <trkpt lat="45.48277" lon="4.03761">
        <ele>877.34</ele>
        <time>2011-11-11T12:30:54Z</time>
      </trkpt>
      <trkpt lat="45.48279" lon="4.03762">
        <ele>877.34</ele>
        <time>2011-11-11T12:30:55Z</time>
      </trkpt>
      <trkpt lat="45.4828" lon="4.03762">
        <ele>877.34</ele>
        <time>2011-11-11T12:30:56Z</time>
      </trkpt>
      <trkpt lat="45.48282" lon="4.03762">
        <ele>876.86</ele>
        <time>2011-11-11T12:30:57Z</time>
      </trkpt>
      <trkpt lat="45.48308" lon="4.03761">
        <ele>874.46</ele>
        <time>2011-11-11T12:31:10Z</time>
      </trkpt>
      <trkpt lat="45.48351" lon="4.0376">
        <ele>867.25</ele>
        <time>2011-11-11T12:31:21Z</time>
      </trkpt>
      <trkpt lat="45.48355" lon="4.0376">
        <ele>867.25</ele>
        <time>2011-11-11T12:31:22Z</time>
      </trkpt>
      <trkpt lat="45.4838" lon="4.03779">
        <ele>865.32</ele>
        <time>2011-11-11T12:31:31Z</time>
      </trkpt>
      <trkpt lat="45.4839" lon="4.03785">
        <ele>864.36</ele>
        <time>2011-11-11T12:31:40Z</time>
      </trkpt>
      <trkpt lat="45.4839" lon="4.03785">
        <ele>863.88</ele>
        <time>2011-11-11T12:31:54Z</time>
      </trkpt>
      <trkpt lat="45.48389" lon="4.03784">
        <ele>863.88</ele>
        <time>2011-11-11T12:31:55Z</time>
      </trkpt>
      <trkpt lat="45.48383" lon="4.03778">
        <ele>864.36</ele>
        <time>2011-11-11T12:32:00Z</time>
      </trkpt>
      <trkpt lat="45.48356" lon="4.03759">
        <ele>866.29</ele>
        <time>2011-11-11T12:32:13Z</time>
      </trkpt>
      <trkpt lat="45.48322" lon="4.03758">
        <ele>870.61</ele>
        <time>2011-11-11T12:32:26Z</time>
      </trkpt>
      <trkpt lat="45.48303" lon="4.03762">
        <ele>873.98</ele>
        <time>2011-11-11T12:32:35Z</time>
      </trkpt>
      <trkpt lat="45.48288" lon="4.03763">
        <ele>876.86</ele>
        <time>2011-11-11T12:32:42Z</time>
      </trkpt>
      <trkpt lat="45.48277" lon="4.03759">
        <ele>877.82</ele>
        <time>2011-11-11T12:32:54Z</time>
      </trkpt>
      <trkpt lat="45.48277" lon="4.03759">
        <ele>877.34</ele>
        <time>2011-11-11T12:34:16Z</time>
      </trkpt>
      <trkpt lat="45.48277" lon="4.03759">
        <ele>877.34</ele>
        <time>2011-11-11T12:35:38Z</time>
      </trkpt>
      <trkpt lat="45.48275" lon="4.03759">
        <ele>876.86</ele>
        <time>2011-11-11T12:36:08Z</time>
      </trkpt>
      <trkpt lat="45.48257" lon="4.03749">
        <ele>875.9</ele>
        <time>2011-11-11T12:36:15Z</time>
      </trkpt>
      <trkpt lat="45.48231" lon="4.0373">
        <ele>872.05</ele>
        <time>2011-11-11T12:36:26Z</time>
      </trkpt>
      <trkpt lat="45.48229" lon="4.03732">
        <ele>871.09</ele>
        <time>2011-11-11T12:36:38Z</time>
      </trkpt>
      <trkpt lat="45.48229" lon="4.03732">
        <ele>871.09</ele>
        <time>2011-11-11T12:36:42Z</time>
      </trkpt>
      <trkpt lat="45.48223" lon="4.03733">
        <ele>871.57</ele>
        <time>2011-11-11T12:36:46Z</time>
      </trkpt>
      <trkpt lat="45.48197" lon="4.03729">
        <ele>873.01</ele>
        <time>2011-11-11T12:36:59Z</time>
      </trkpt>
      <trkpt lat="45.48194" lon="4.03727">
        <ele>873.5</ele>
        <time>2011-11-11T12:37:01Z</time>
      </trkpt>
      <trkpt lat="45.48185" lon="4.03723">
        <ele>875.42</ele>
        <time>2011-11-11T12:37:07Z</time>
      </trkpt>
      <trkpt lat="45.4817" lon="4.03727">
        <ele>877.82</ele>
        <time>2011-11-11T12:37:17Z</time>
      </trkpt>
      <trkpt lat="45.48164" lon="4.0373">
        <ele>879.26</ele>
        <time>2011-11-11T12:37:21Z</time>
      </trkpt>
      <trkpt lat="45.48151" lon="4.03734">
        <ele>881.67</ele>
        <time>2011-11-11T12:37:30Z</time>
      </trkpt>
      <trkpt lat="45.48141" lon="4.03737">
        <ele>883.59</ele>
        <time>2011-11-11T12:37:37Z</time>
      </trkpt>
      <trkpt lat="45.48121" lon="4.03736">
        <ele>885.51</ele>
        <time>2011-11-11T12:37:50Z</time>
      </trkpt>
      <trkpt lat="45.48102" lon="4.03719">
        <ele>887.91</ele>
        <time>2011-11-11T12:38:02Z</time>
      </trkpt>
      <trkpt lat="45.48074" lon="4.03676">
        <ele>886.95</ele>
        <time>2011-11-11T12:38:13Z</time>
      </trkpt>
      <trkpt lat="45.48044" lon="4.03642">
        <ele>884.55</ele>
        <time>2011-11-11T12:38:23Z</time>
      </trkpt>
      <trkpt lat="45.48042" lon="4.03636">
        <ele>884.07</ele>
        <time>2011-11-11T12:38:24Z</time>
      </trkpt>
      <trkpt lat="45.48041" lon="4.03631">
        <ele>883.59</ele>
        <time>2011-11-11T12:38:25Z</time>
      </trkpt>
      <trkpt lat="45.4804" lon="4.03626">
        <ele>883.11</ele>
        <time>2011-11-11T12:38:26Z</time>
      </trkpt>
      <trkpt lat="45.4804" lon="4.03622">
        <ele>882.63</ele>
        <time>2011-11-11T12:38:27Z</time>
      </trkpt>
      <trkpt lat="45.4804" lon="4.03619">
        <ele>882.15</ele>
        <time>2011-11-11T12:38:28Z</time>
      </trkpt>
      <trkpt lat="45.4804" lon="4.03615">
        <ele>881.67</ele>
        <time>2011-11-11T12:38:29Z</time>
      </trkpt>
      <trkpt lat="45.48042" lon="4.03584">
        <ele>882.63</ele>
        <time>2011-11-11T12:38:41Z</time>
      </trkpt>
      <trkpt lat="45.48019" lon="4.03557">
        <ele>887.43</ele>
        <time>2011-11-11T12:38:51Z</time>
      </trkpt>
      <trkpt lat="45.47997" lon="4.03531">
        <ele>889.36</ele>
        <time>2011-11-11T12:39:03Z</time>
      </trkpt>
      <trkpt lat="45.47988" lon="4.03518">
        <ele>890.32</ele>
        <time>2011-11-11T12:39:09Z</time>
      </trkpt>
      <trkpt lat="45.47983" lon="4.03504">
        <ele>891.28</ele>
        <time>2011-11-11T12:39:19Z</time>
      </trkpt>
      <trkpt lat="45.47976" lon="4.03488">
        <ele>896.57</ele>
        <time>2011-11-11T12:39:29Z</time>
      </trkpt>
      <trkpt lat="45.47969" lon="4.03473">
        <ele>904.26</ele>
        <time>2011-11-11T12:39:40Z</time>
      </trkpt>
      <trkpt lat="45.47963" lon="4.03463">
        <ele>902.82</ele>
        <time>2011-11-11T12:39:52Z</time>
      </trkpt>
      <trkpt lat="45.4796" lon="4.03459">
        <ele>901.85</ele>
        <time>2011-11-11T12:39:55Z</time>
      </trkpt>
      <trkpt lat="45.47958" lon="4.03457">
        <ele>901.37</ele>
        <time>2011-11-11T12:39:58Z</time>
      </trkpt>
      <trkpt lat="45.47956" lon="4.03456">
        <ele>900.89</ele>
        <time>2011-11-11T12:39:59Z</time>
      </trkpt>
      <trkpt lat="45.47955" lon="4.03456">
        <ele>900.89</ele>
        <time>2011-11-11T12:40:00Z</time>
      </trkpt>
      <trkpt lat="45.47954" lon="4.03456">
        <ele>900.41</ele>
        <time>2011-11-11T12:40:01Z</time>
      </trkpt>
      <trkpt lat="45.47952" lon="4.03456">
        <ele>900.41</ele>
        <time>2011-11-11T12:40:02Z</time>
      </trkpt>
      <trkpt lat="45.47951" lon="4.03456">
        <ele>899.93</ele>
        <time>2011-11-11T12:40:03Z</time>
      </trkpt>
      <trkpt lat="45.4795" lon="4.03457">
        <ele>899.93</ele>
        <time>2011-11-11T12:40:04Z</time>
      </trkpt>
      <trkpt lat="45.47948" lon="4.03458">
        <ele>899.45</ele>
        <time>2011-11-11T12:40:05Z</time>
      </trkpt>
      <trkpt lat="45.47947" lon="4.03458">
        <ele>899.45</ele>
        <time>2011-11-11T12:40:06Z</time>
      </trkpt>
      <trkpt lat="45.47944" lon="4.03459">
        <ele>899.45</ele>
        <time>2011-11-11T12:40:07Z</time>
      </trkpt>
      <trkpt lat="45.47942" lon="4.0346">
        <ele>899.93</ele>
        <time>2011-11-11T12:40:08Z</time>
      </trkpt>
      <trkpt lat="45.47941" lon="4.03461">
        <ele>900.89</ele>
        <time>2011-11-11T12:40:09Z</time>
      </trkpt>
      <trkpt lat="45.47939" lon="4.03462">
        <ele>901.37</ele>
        <time>2011-11-11T12:40:10Z</time>
      </trkpt>
      <trkpt lat="45.47937" lon="4.03461">
        <ele>902.33</ele>
        <time>2011-11-11T12:40:11Z</time>
      </trkpt>
      <trkpt lat="45.47935" lon="4.03462">
        <ele>902.82</ele>
        <time>2011-11-11T12:40:12Z</time>
      </trkpt>
      <trkpt lat="45.47933" lon="4.03463">
        <ele>903.78</ele>
        <time>2011-11-11T12:40:13Z</time>
      </trkpt>
      <trkpt lat="45.47932" lon="4.03463">
        <ele>904.26</ele>
        <time>2011-11-11T12:40:14Z</time>
      </trkpt>
      <trkpt lat="45.4793" lon="4.03464">
        <ele>904.74</ele>
        <time>2011-11-11T12:40:15Z</time>
      </trkpt>
      <trkpt lat="45.47929" lon="4.03464">
        <ele>905.7</ele>
        <time>2011-11-11T12:40:16Z</time>
      </trkpt>
      <trkpt lat="45.47927" lon="4.03465">
        <ele>906.18</ele>
        <time>2011-11-11T12:40:17Z</time>
      </trkpt>
      <trkpt lat="45.47913" lon="4.03466">
        <ele>910.51</ele>
        <time>2011-11-11T12:40:26Z</time>
      </trkpt>
      <trkpt lat="45.47911" lon="4.03467">
        <ele>910.51</ele>
        <time>2011-11-11T12:40:27Z</time>
      </trkpt>
      <trkpt lat="45.47909" lon="4.03466">
        <ele>910.51</ele>
        <time>2011-11-11T12:40:28Z</time>
      </trkpt>
      <trkpt lat="45.47907" lon="4.03465">
        <ele>910.51</ele>
        <time>2011-11-11T12:40:29Z</time>
      </trkpt>
      <trkpt lat="45.47905" lon="4.03464">
        <ele>910.51</ele>
        <time>2011-11-11T12:40:30Z</time>
      </trkpt>
      <trkpt lat="45.47903" lon="4.03462">
        <ele>910.51</ele>
        <time>2011-11-11T12:40:31Z</time>
      </trkpt>
      <trkpt lat="45.47901" lon="4.03462">
        <ele>910.03</ele>
        <time>2011-11-11T12:40:32Z</time>
      </trkpt>
      <trkpt lat="45.47899" lon="4.03461">
        <ele>910.03</ele>
        <time>2011-11-11T12:40:33Z</time>
      </trkpt>
      <trkpt lat="45.47897" lon="4.0346">
        <ele>910.51</ele>
        <time>2011-11-11T12:40:34Z</time>
      </trkpt>
      <trkpt lat="45.47895" lon="4.03459">
        <ele>910.03</ele>
        <time>2011-11-11T12:40:35Z</time>
      </trkpt>
      <trkpt lat="45.47893" lon="4.03459">
        <ele>909.54</ele>
        <time>2011-11-11T12:40:36Z</time>
      </trkpt>
      <trkpt lat="45.47891" lon="4.03458">
        <ele>909.54</ele>
        <time>2011-11-11T12:40:37Z</time>
      </trkpt>
      <trkpt lat="45.4789" lon="4.03458">
        <ele>909.54</ele>
        <time>2011-11-11T12:40:38Z</time>
      </trkpt>
      <trkpt lat="45.47888" lon="4.03458">
        <ele>909.06</ele>
        <time>2011-11-11T12:40:39Z</time>
      </trkpt>
      <trkpt lat="45.47886" lon="4.03457">
        <ele>909.06</ele>
        <time>2011-11-11T12:40:40Z</time>
      </trkpt>
      <trkpt lat="45.47884" lon="4.03457">
        <ele>909.06</ele>
        <time>2011-11-11T12:40:41Z</time>
      </trkpt>
      <trkpt lat="45.47876" lon="4.03457">
        <ele>909.06</ele>
        <time>2011-11-11T12:40:47Z</time>
      </trkpt>
      <trkpt lat="45.47874" lon="4.03457">
        <ele>909.06</ele>
        <time>2011-11-11T12:40:48Z</time>
      </trkpt>
      <trkpt lat="45.47872" lon="4.03457">
        <ele>908.58</ele>
        <time>2011-11-11T12:40:49Z</time>
      </trkpt>
      <trkpt lat="45.47865" lon="4.03456">
        <ele>907.62</ele>
        <time>2011-11-11T12:40:53Z</time>
      </trkpt>
      <trkpt lat="45.47863" lon="4.03457">
        <ele>907.14</ele>
        <time>2011-11-11T12:40:54Z</time>
      </trkpt>
      <trkpt lat="45.47861" lon="4.03458">
        <ele>907.14</ele>
        <time>2011-11-11T12:40:55Z</time>
      </trkpt>
      <trkpt lat="45.47859" lon="4.03458">
        <ele>906.66</ele>
        <time>2011-11-11T12:40:56Z</time>
      </trkpt>
      <trkpt lat="45.47856" lon="4.03459">
        <ele>906.66</ele>
        <time>2011-11-11T12:40:57Z</time>
      </trkpt>
      <trkpt lat="45.47854" lon="4.03461">
        <ele>907.14</ele>
        <time>2011-11-11T12:40:58Z</time>
      </trkpt>
      <trkpt lat="45.47852" lon="4.03462">
        <ele>906.66</ele>
        <time>2011-11-11T12:40:59Z</time>
      </trkpt>
      <trkpt lat="45.47849" lon="4.03463">
        <ele>906.66</ele>
        <time>2011-11-11T12:41:00Z</time>
      </trkpt>
      <trkpt lat="45.47842" lon="4.03465">
        <ele>905.7</ele>
        <time>2011-11-11T12:41:04Z</time>
      </trkpt>
      <trkpt lat="45.47839" lon="4.03464">
        <ele>905.7</ele>
        <time>2011-11-11T12:41:07Z</time>
      </trkpt>
      <trkpt lat="45.47826" lon="4.03467">
        <ele>905.22</ele>
        <time>2011-11-11T12:41:14Z</time>
      </trkpt>
      <trkpt lat="45.47823" lon="4.03468">
        <ele>905.22</ele>
        <time>2011-11-11T12:41:15Z</time>
      </trkpt>
      <trkpt lat="45.47821" lon="4.0347">
        <ele>905.7</ele>
        <time>2011-11-11T12:41:16Z</time>
      </trkpt>
      <trkpt lat="45.47816" lon="4.03473">
        <ele>905.22</ele>
        <time>2011-11-11T12:41:19Z</time>
      </trkpt>
      <trkpt lat="45.47813" lon="4.03473">
        <ele>905.22</ele>
        <time>2011-11-11T12:41:20Z</time>
      </trkpt>
      <trkpt lat="45.47811" lon="4.03473">
        <ele>904.74</ele>
        <time>2011-11-11T12:41:21Z</time>
      </trkpt>
      <trkpt lat="45.47809" lon="4.03474">
        <ele>905.22</ele>
        <time>2011-11-11T12:41:22Z</time>
      </trkpt>
      <trkpt lat="45.47806" lon="4.03474">
        <ele>905.7</ele>
        <time>2011-11-11T12:41:23Z</time>
      </trkpt>
      <trkpt lat="45.47804" lon="4.03474">
        <ele>905.7</ele>
        <time>2011-11-11T12:41:24Z</time>
      </trkpt>
      <trkpt lat="45.47802" lon="4.03473">
        <ele>905.7</ele>
        <time>2011-11-11T12:41:25Z</time>
      </trkpt>
      <trkpt lat="45.47799" lon="4.03472">
        <ele>904.74</ele>
        <time>2011-11-11T12:41:28Z</time>
      </trkpt>
      <trkpt lat="45.47797" lon="4.03472">
        <ele>905.22</ele>
        <time>2011-11-11T12:41:29Z</time>
      </trkpt>
      <trkpt lat="45.47791" lon="4.03472">
        <ele>907.14</ele>
        <time>2011-11-11T12:41:32Z</time>
      </trkpt>
      <trkpt lat="45.47785" lon="4.03472">
        <ele>909.06</ele>
        <time>2011-11-11T12:41:36Z</time>
      </trkpt>
      <trkpt lat="45.47784" lon="4.03472">
        <ele>909.06</ele>
        <time>2011-11-11T12:41:37Z</time>
      </trkpt>
      <trkpt lat="45.4778" lon="4.03471">
        <ele>909.06</ele>
        <time>2011-11-11T12:41:40Z</time>
      </trkpt>
      <trkpt lat="45.47778" lon="4.0347">
        <ele>909.06</ele>
        <time>2011-11-11T12:41:41Z</time>
      </trkpt>
      <trkpt lat="45.47775" lon="4.03469">
        <ele>909.54</ele>
        <time>2011-11-11T12:41:43Z</time>
      </trkpt>
      <trkpt lat="45.47764" lon="4.03468">
        <ele>910.03</ele>
        <time>2011-11-11T12:41:48Z</time>
      </trkpt>
      <trkpt lat="45.47762" lon="4.03467">
        <ele>910.51</ele>
        <time>2011-11-11T12:41:49Z</time>
      </trkpt>
      <trkpt lat="45.47758" lon="4.03465">
        <ele>911.95</ele>
        <time>2011-11-11T12:41:52Z</time>
      </trkpt>
      <trkpt lat="45.47756" lon="4.03464">
        <ele>912.43</ele>
        <time>2011-11-11T12:41:53Z</time>
      </trkpt>
      <trkpt lat="45.47748" lon="4.0346">
        <ele>917.24</ele>
        <time>2011-11-11T12:42:05Z</time>
      </trkpt>
      <trkpt lat="45.47746" lon="4.03459">
        <ele>919.64</ele>
        <time>2011-11-11T12:42:12Z</time>
      </trkpt>
      <trkpt lat="45.47744" lon="4.03458">
        <ele>920.12</ele>
        <time>2011-11-11T12:42:13Z</time>
      </trkpt>
      <trkpt lat="45.47743" lon="4.03457">
        <ele>921.08</ele>
        <time>2011-11-11T12:42:14Z</time>
      </trkpt>
      <trkpt lat="45.47741" lon="4.03454">
        <ele>922.04</ele>
        <time>2011-11-11T12:42:16Z</time>
      </trkpt>
      <trkpt lat="45.47736" lon="4.03452">
        <ele>926.85</ele>
        <time>2011-11-11T12:42:25Z</time>
      </trkpt>
      <trkpt lat="45.47725" lon="4.03445">
        <ele>929.25</ele>
        <time>2011-11-11T12:42:36Z</time>
      </trkpt>
      <trkpt lat="45.47721" lon="4.03436">
        <ele>930.21</ele>
        <time>2011-11-11T12:42:48Z</time>
      </trkpt>
      <trkpt lat="45.47717" lon="4.0343">
        <ele>930.69</ele>
        <time>2011-11-11T12:42:53Z</time>
      </trkpt>
      <trkpt lat="45.47702" lon="4.03411">
        <ele>932.62</ele>
        <time>2011-11-11T12:43:09Z</time>
      </trkpt>
      <trkpt lat="45.47701" lon="4.0341">
        <ele>932.14</ele>
        <time>2011-11-11T12:43:10Z</time>
      </trkpt>
      <trkpt lat="45.47699" lon="4.03409">
        <ele>932.14</ele>
        <time>2011-11-11T12:43:11Z</time>
      </trkpt>
      <trkpt lat="45.47698" lon="4.03408">
        <ele>932.14</ele>
        <time>2011-11-11T12:43:12Z</time>
      </trkpt>
      <trkpt lat="45.47697" lon="4.03407">
        <ele>932.14</ele>
        <time>2011-11-11T12:43:13Z</time>
      </trkpt>
      <trkpt lat="45.47696" lon="4.03406">
        <ele>932.14</ele>
        <time>2011-11-11T12:43:14Z</time>
      </trkpt>
      <trkpt lat="45.4769" lon="4.03399">
        <ele>932.14</ele>
        <time>2011-11-11T12:43:19Z</time>
      </trkpt>
      <trkpt lat="45.4769" lon="4.03397">
        <ele>932.62</ele>
        <time>2011-11-11T12:43:20Z</time>
      </trkpt>
      <trkpt lat="45.47689" lon="4.03393">
        <ele>932.14</ele>
        <time>2011-11-11T12:43:23Z</time>
      </trkpt>
      <trkpt lat="45.47687" lon="4.03391">
        <ele>932.14</ele>
        <time>2011-11-11T12:43:24Z</time>
      </trkpt>
      <trkpt lat="45.47679" lon="4.03383">
        <ele>930.69</ele>
        <time>2011-11-11T12:43:30Z</time>
      </trkpt>
      <trkpt lat="45.47676" lon="4.03381">
        <ele>930.69</ele>
        <time>2011-11-11T12:43:31Z</time>
      </trkpt>
      <trkpt lat="45.47674" lon="4.03379">
        <ele>930.69</ele>
        <time>2011-11-11T12:43:32Z</time>
      </trkpt>
      <trkpt lat="45.47672" lon="4.03378">
        <ele>930.21</ele>
        <time>2011-11-11T12:43:33Z</time>
      </trkpt>
      <trkpt lat="45.47669" lon="4.03376">
        <ele>930.21</ele>
        <time>2011-11-11T12:43:34Z</time>
      </trkpt>
      <trkpt lat="45.47637" lon="4.03355">
        <ele>934.54</ele>
        <time>2011-11-11T12:43:45Z</time>
      </trkpt>
      <trkpt lat="45.47634" lon="4.03354">
        <ele>935.02</ele>
        <time>2011-11-11T12:43:46Z</time>
      </trkpt>
      <trkpt lat="45.47632" lon="4.03353">
        <ele>935.5</ele>
        <time>2011-11-11T12:43:47Z</time>
      </trkpt>
      <trkpt lat="45.47614" lon="4.0335">
        <ele>938.38</ele>
        <time>2011-11-11T12:43:57Z</time>
      </trkpt>
      <trkpt lat="45.47613" lon="4.0335">
        <ele>938.38</ele>
        <time>2011-11-11T12:43:58Z</time>
      </trkpt>
      <trkpt lat="45.47611" lon="4.03349">
        <ele>938.38</ele>
        <time>2011-11-11T12:44:00Z</time>
      </trkpt>
      <trkpt lat="45.47609" lon="4.03349">
        <ele>937.9</ele>
        <time>2011-11-11T12:44:01Z</time>
      </trkpt>
      <trkpt lat="45.47607" lon="4.03348">
        <ele>937.9</ele>
        <time>2011-11-11T12:44:02Z</time>
      </trkpt>
      <trkpt lat="45.47605" lon="4.03346">
        <ele>938.38</ele>
        <time>2011-11-11T12:44:03Z</time>
      </trkpt>
      <trkpt lat="45.47603" lon="4.03345">
        <ele>938.86</ele>
        <time>2011-11-11T12:44:04Z</time>
      </trkpt>
      <trkpt lat="45.47601" lon="4.03344">
        <ele>938.86</ele>
        <time>2011-11-11T12:44:05Z</time>
      </trkpt>
      <trkpt lat="45.47599" lon="4.03344">
        <ele>939.35</ele>
        <time>2011-11-11T12:44:06Z</time>
      </trkpt>
      <trkpt lat="45.47597" lon="4.03343">
        <ele>939.35</ele>
        <time>2011-11-11T12:44:07Z</time>
      </trkpt>
      <trkpt lat="45.47595" lon="4.03342">
        <ele>939.35</ele>
        <time>2011-11-11T12:44:08Z</time>
      </trkpt>
      <trkpt lat="45.47594" lon="4.03341">
        <ele>939.35</ele>
        <time>2011-11-11T12:44:09Z</time>
      </trkpt>
      <trkpt lat="45.4759" lon="4.0334">
        <ele>939.35</ele>
        <time>2011-11-11T12:44:11Z</time>
      </trkpt>
      <trkpt lat="45.47583" lon="4.03334">
        <ele>939.83</ele>
        <time>2011-11-11T12:44:22Z</time>
      </trkpt>
      <trkpt lat="45.47577" lon="4.03329">
        <ele>940.31</ele>
        <time>2011-11-11T12:44:29Z</time>
      </trkpt>
      <trkpt lat="45.47576" lon="4.03328">
        <ele>940.79</ele>
        <time>2011-11-11T12:44:30Z</time>
      </trkpt>
      <trkpt lat="45.47576" lon="4.03326">
        <ele>941.27</ele>
        <time>2011-11-11T12:44:31Z</time>
      </trkpt>
      <trkpt lat="45.47575" lon="4.03325">
        <ele>941.75</ele>
        <time>2011-11-11T12:44:32Z</time>
      </trkpt>
      <trkpt lat="45.47573" lon="4.03323">
        <ele>942.23</ele>
        <time>2011-11-11T12:44:34Z</time>
      </trkpt>
      <trkpt lat="45.47568" lon="4.03315">
        <ele>944.63</ele>
        <time>2011-11-11T12:44:39Z</time>
      </trkpt>
      <trkpt lat="45.47557" lon="4.03301">
        <ele>949.92</ele>
        <time>2011-11-11T12:44:49Z</time>
      </trkpt>
      <trkpt lat="45.4755" lon="4.03295">
        <ele>949.92</ele>
        <time>2011-11-11T12:44:58Z</time>
      </trkpt>
      <trkpt lat="45.47548" lon="4.03291">
        <ele>950.88</ele>
        <time>2011-11-11T12:45:02Z</time>
      </trkpt>
      <trkpt lat="45.47539" lon="4.03278">
        <ele>953.77</ele>
        <time>2011-11-11T12:45:12Z</time>
      </trkpt>
      <trkpt lat="45.47536" lon="4.03272">
        <ele>955.21</ele>
        <time>2011-11-11T12:45:25Z</time>
      </trkpt>
      <trkpt lat="45.47523" lon="4.03252">
        <ele>963.86</ele>
        <time>2011-11-11T12:45:36Z</time>
      </trkpt>
      <trkpt lat="45.47519" lon="4.03244">
        <ele>966.74</ele>
        <time>2011-11-11T12:45:48Z</time>
      </trkpt>
      <trkpt lat="45.47514" lon="4.03236">
        <ele>967.7</ele>
        <time>2011-11-11T12:45:56Z</time>
      </trkpt>
      <trkpt lat="45.4751" lon="4.0322">
        <ele>968.18</ele>
        <time>2011-11-11T12:46:05Z</time>
      </trkpt>
      <trkpt lat="45.47506" lon="4.03204">
        <ele>970.59</ele>
        <time>2011-11-11T12:46:15Z</time>
      </trkpt>
      <trkpt lat="45.47505" lon="4.03203">
        <ele>971.07</ele>
        <time>2011-11-11T12:46:16Z</time>
      </trkpt>
      <trkpt lat="45.47505" lon="4.03201">
        <ele>971.07</ele>
        <time>2011-11-11T12:46:17Z</time>
      </trkpt>
      <trkpt lat="45.47504" lon="4.03199">
        <ele>971.55</ele>
        <time>2011-11-11T12:46:18Z</time>
      </trkpt>
      <trkpt lat="45.47499" lon="4.03185">
        <ele>971.55</ele>
        <time>2011-11-11T12:46:26Z</time>
      </trkpt>
      <trkpt lat="45.47499" lon="4.03183">
        <ele>971.55</ele>
        <time>2011-11-11T12:46:27Z</time>
      </trkpt>
      <trkpt lat="45.47499" lon="4.03181">
        <ele>971.55</ele>
        <time>2011-11-11T12:46:28Z</time>
      </trkpt>
      <trkpt lat="45.47497" lon="4.0318">
        <ele>971.07</ele>
        <time>2011-11-11T12:46:29Z</time>
      </trkpt>
      <trkpt lat="45.47496" lon="4.03178">
        <ele>971.07</ele>
        <time>2011-11-11T12:46:30Z</time>
      </trkpt>
      <trkpt lat="45.47494" lon="4.03176">
        <ele>971.07</ele>
        <time>2011-11-11T12:46:31Z</time>
      </trkpt>
      <trkpt lat="45.4749" lon="4.03172">
        <ele>971.07</ele>
        <time>2011-11-11T12:46:32Z</time>
      </trkpt>
      <trkpt lat="45.47488" lon="4.0317">
        <ele>971.07</ele>
        <time>2011-11-11T12:46:33Z</time>
      </trkpt>
      <trkpt lat="45.47487" lon="4.03168">
        <ele>970.59</ele>
        <time>2011-11-11T12:46:34Z</time>
      </trkpt>
      <trkpt lat="45.47485" lon="4.03165">
        <ele>970.59</ele>
        <time>2011-11-11T12:46:35Z</time>
      </trkpt>
      <trkpt lat="45.47484" lon="4.03163">
        <ele>970.11</ele>
        <time>2011-11-11T12:46:36Z</time>
      </trkpt>
      <trkpt lat="45.47483" lon="4.03161">
        <ele>970.11</ele>
        <time>2011-11-11T12:46:37Z</time>
      </trkpt>
      <trkpt lat="45.47482" lon="4.03159">
        <ele>970.11</ele>
        <time>2011-11-11T12:46:38Z</time>
      </trkpt>
      <trkpt lat="45.4748" lon="4.03158">
        <ele>970.11</ele>
        <time>2011-11-11T12:46:39Z</time>
      </trkpt>
      <trkpt lat="45.47478" lon="4.03157">
        <ele>970.59</ele>
        <time>2011-11-11T12:46:40Z</time>
      </trkpt>
      <trkpt lat="45.47475" lon="4.03156">
        <ele>970.11</ele>
        <time>2011-11-11T12:46:41Z</time>
      </trkpt>
      <trkpt lat="45.47473" lon="4.03155">
        <ele>969.63</ele>
        <time>2011-11-11T12:46:42Z</time>
      </trkpt>
      <trkpt lat="45.4747" lon="4.03154">
        <ele>969.63</ele>
        <time>2011-11-11T12:46:43Z</time>
      </trkpt>
      <trkpt lat="45.47468" lon="4.03153">
        <ele>969.15</ele>
        <time>2011-11-11T12:46:44Z</time>
      </trkpt>
      <trkpt lat="45.47465" lon="4.03153">
        <ele>968.67</ele>
        <time>2011-11-11T12:46:45Z</time>
      </trkpt>
      <trkpt lat="45.47463" lon="4.03153">
        <ele>968.18</ele>
        <time>2011-11-11T12:46:46Z</time>
      </trkpt>
      <trkpt lat="45.47422" lon="4.03135">
        <ele>963.38</ele>
        <time>2011-11-11T12:46:57Z</time>
      </trkpt>
      <trkpt lat="45.47396" lon="4.0311">
        <ele>959.05</ele>
        <time>2011-11-11T12:47:05Z</time>
      </trkpt>
      <trkpt lat="45.47385" lon="4.03094">
        <ele>959.53</ele>
        <time>2011-11-11T12:47:10Z</time>
      </trkpt>
      <trkpt lat="45.47382" lon="4.03092">
        <ele>959.53</ele>
        <time>2011-11-11T12:47:11Z</time>
      </trkpt>
      <trkpt lat="45.4738" lon="4.03092">
        <ele>959.05</ele>
        <time>2011-11-11T12:47:12Z</time>
      </trkpt>
      <trkpt lat="45.47378" lon="4.03092">
        <ele>959.05</ele>
        <time>2011-11-11T12:47:13Z</time>
      </trkpt>
      <trkpt lat="45.47376" lon="4.03091">
        <ele>959.05</ele>
        <time>2011-11-11T12:47:14Z</time>
      </trkpt>
      <trkpt lat="45.47374" lon="4.03091">
        <ele>959.05</ele>
        <time>2011-11-11T12:47:15Z</time>
      </trkpt>
      <trkpt lat="45.47371" lon="4.03091">
        <ele>959.05</ele>
        <time>2011-11-11T12:47:16Z</time>
      </trkpt>
      <trkpt lat="45.47368" lon="4.03092">
        <ele>959.05</ele>
        <time>2011-11-11T12:47:17Z</time>
      </trkpt>
      <trkpt lat="45.47355" lon="4.03092">
        <ele>960.01</ele>
        <time>2011-11-11T12:47:20Z</time>
      </trkpt>
      <trkpt lat="45.4735" lon="4.03093">
        <ele>961.46</ele>
        <time>2011-11-11T12:47:21Z</time>
      </trkpt>
      <trkpt lat="45.47295" lon="4.03102">
        <ele>968.67</ele>
        <time>2011-11-11T12:47:34Z</time>
      </trkpt>
      <trkpt lat="45.47254" lon="4.03111">
        <ele>972.99</ele>
        <time>2011-11-11T12:47:45Z</time>
      </trkpt>
      <trkpt lat="45.47212" lon="4.03115">
        <ele>972.99</ele>
        <time>2011-11-11T12:47:57Z</time>
      </trkpt>
      <trkpt lat="45.47207" lon="4.03116">
        <ele>972.51</ele>
        <time>2011-11-11T12:47:58Z</time>
      </trkpt>
      <trkpt lat="45.47202" lon="4.03116">
        <ele>972.03</ele>
        <time>2011-11-11T12:47:59Z</time>
      </trkpt>
      <trkpt lat="45.47146" lon="4.03118">
        <ele>968.67</ele>
        <time>2011-11-11T12:48:10Z</time>
      </trkpt>
      <trkpt lat="45.47126" lon="4.03109">
        <ele>972.03</ele>
        <time>2011-11-11T12:48:21Z</time>
      </trkpt>
      <trkpt lat="45.47102" lon="4.03106">
        <ele>975.88</ele>
        <time>2011-11-11T12:48:34Z</time>
      </trkpt>
      <trkpt lat="45.47088" lon="4.03102">
        <ele>979.24</ele>
        <time>2011-11-11T12:48:43Z</time>
      </trkpt>
      <trkpt lat="45.47086" lon="4.03101">
        <ele>979.24</ele>
        <time>2011-11-11T12:48:44Z</time>
      </trkpt>
      <trkpt lat="45.47085" lon="4.03099">
        <ele>979.24</ele>
        <time>2011-11-11T12:48:45Z</time>
      </trkpt>
      <trkpt lat="45.47083" lon="4.03098">
        <ele>979.72</ele>
        <time>2011-11-11T12:48:46Z</time>
      </trkpt>
      <trkpt lat="45.47082" lon="4.03097">
        <ele>979.72</ele>
        <time>2011-11-11T12:48:47Z</time>
      </trkpt>
      <trkpt lat="45.47081" lon="4.03095">
        <ele>979.24</ele>
        <time>2011-11-11T12:48:48Z</time>
      </trkpt>
      <trkpt lat="45.4708" lon="4.03093">
        <ele>979.24</ele>
        <time>2011-11-11T12:48:49Z</time>
      </trkpt>
      <trkpt lat="45.47062" lon="4.03076">
        <ele>979.72</ele>
        <time>2011-11-11T12:49:02Z</time>
      </trkpt>
      <trkpt lat="45.47039" lon="4.03064">
        <ele>982.12</ele>
        <time>2011-11-11T12:49:16Z</time>
      </trkpt>
      <trkpt lat="45.47019" lon="4.03051">
        <ele>985.49</ele>
        <time>2011-11-11T12:49:29Z</time>
      </trkpt>
      <trkpt lat="45.47003" lon="4.03045">
        <ele>987.41</ele>
        <time>2011-11-11T12:49:39Z</time>
      </trkpt>
      <trkpt lat="45.47002" lon="4.03046">
        <ele>987.89</ele>
        <time>2011-11-11T12:49:40Z</time>
      </trkpt>
      <trkpt lat="45.47" lon="4.03046">
        <ele>988.37</ele>
        <time>2011-11-11T12:49:41Z</time>
      </trkpt>
      <trkpt lat="45.46999" lon="4.03046">
        <ele>988.37</ele>
        <time>2011-11-11T12:49:42Z</time>
      </trkpt>
      <trkpt lat="45.46997" lon="4.03046">
        <ele>988.85</ele>
        <time>2011-11-11T12:49:43Z</time>
      </trkpt>
      <trkpt lat="45.46993" lon="4.03044">
        <ele>988.85</ele>
        <time>2011-11-11T12:49:45Z</time>
      </trkpt>
      <trkpt lat="45.46991" lon="4.03044">
        <ele>989.33</ele>
        <time>2011-11-11T12:49:46Z</time>
      </trkpt>
      <trkpt lat="45.4699" lon="4.03045">
        <ele>989.33</ele>
        <time>2011-11-11T12:49:47Z</time>
      </trkpt>
      <trkpt lat="45.46988" lon="4.03046">
        <ele>989.81</ele>
        <time>2011-11-11T12:49:48Z</time>
      </trkpt>
      <trkpt lat="45.46986" lon="4.03046">
        <ele>989.81</ele>
        <time>2011-11-11T12:49:49Z</time>
      </trkpt>
      <trkpt lat="45.46985" lon="4.03046">
        <ele>990.3</ele>
        <time>2011-11-11T12:49:50Z</time>
      </trkpt>
      <trkpt lat="45.46983" lon="4.03046">
        <ele>990.3</ele>
        <time>2011-11-11T12:49:51Z</time>
      </trkpt>
      <trkpt lat="45.46981" lon="4.03046">
        <ele>990.3</ele>
        <time>2011-11-11T12:49:52Z</time>
      </trkpt>
      <trkpt lat="45.46979" lon="4.03046">
        <ele>990.3</ele>
        <time>2011-11-11T12:49:53Z</time>
      </trkpt>
      <trkpt lat="45.46978" lon="4.03047">
        <ele>990.3</ele>
        <time>2011-11-11T12:49:54Z</time>
      </trkpt>
      <trkpt lat="45.46976" lon="4.03047">
        <ele>990.78</ele>
        <time>2011-11-11T12:49:55Z</time>
      </trkpt>
      <trkpt lat="45.46974" lon="4.03048">
        <ele>991.26</ele>
        <time>2011-11-11T12:49:56Z</time>
      </trkpt>
      <trkpt lat="45.46972" lon="4.03048">
        <ele>991.26</ele>
        <time>2011-11-11T12:49:57Z</time>
      </trkpt>
      <trkpt lat="45.4697" lon="4.03049">
        <ele>991.26</ele>
        <time>2011-11-11T12:49:58Z</time>
      </trkpt>
      <trkpt lat="45.46969" lon="4.0305">
        <ele>991.74</ele>
        <time>2011-11-11T12:49:59Z</time>
      </trkpt>
      <trkpt lat="45.46967" lon="4.03051">
        <ele>992.22</ele>
        <time>2011-11-11T12:50:00Z</time>
      </trkpt>
      <trkpt lat="45.46946" lon="4.03069">
        <ele>995.58</ele>
        <time>2011-11-11T12:50:12Z</time>
      </trkpt>
      <trkpt lat="45.46917" lon="4.03099">
        <ele>997.02</ele>
        <time>2011-11-11T12:50:27Z</time>
      </trkpt>
      <trkpt lat="45.46895" lon="4.03136">
        <ele>997.99</ele>
        <time>2011-11-11T12:50:39Z</time>
      </trkpt>
      <trkpt lat="45.46869" lon="4.03176">
        <ele>997.51</ele>
        <time>2011-11-11T12:50:51Z</time>
      </trkpt>
      <trkpt lat="45.46865" lon="4.03184">
        <ele>997.99</ele>
        <time>2011-11-11T12:50:53Z</time>
      </trkpt>
      <trkpt lat="45.46866" lon="4.0319">
        <ele>997.51</ele>
        <time>2011-11-11T12:50:54Z</time>
      </trkpt>
      <trkpt lat="45.46869" lon="4.03196">
        <ele>997.02</ele>
        <time>2011-11-11T12:50:55Z</time>
      </trkpt>
      <trkpt lat="45.46871" lon="4.03203">
        <ele>996.54</ele>
        <time>2011-11-11T12:50:56Z</time>
      </trkpt>
      <trkpt lat="45.4687" lon="4.03211">
        <ele>996.06</ele>
        <time>2011-11-11T12:50:57Z</time>
      </trkpt>
      <trkpt lat="45.46868" lon="4.03217">
        <ele>995.58</ele>
        <time>2011-11-11T12:50:58Z</time>
      </trkpt>
      <trkpt lat="45.46865" lon="4.03222">
        <ele>995.58</ele>
        <time>2011-11-11T12:50:59Z</time>
      </trkpt>
      <trkpt lat="45.46862" lon="4.03226">
        <ele>995.58</ele>
        <time>2011-11-11T12:51:00Z</time>
      </trkpt>
      <trkpt lat="45.46859" lon="4.0323">
        <ele>995.58</ele>
        <time>2011-11-11T12:51:01Z</time>
      </trkpt>
      <trkpt lat="45.46857" lon="4.03236">
        <ele>995.58</ele>
        <time>2011-11-11T12:51:02Z</time>
      </trkpt>
      <trkpt lat="45.46846" lon="4.03262">
        <ele>996.06</ele>
        <time>2011-11-11T12:51:09Z</time>
      </trkpt>
      <trkpt lat="45.46846" lon="4.03268">
        <ele>995.58</ele>
        <time>2011-11-11T12:51:10Z</time>
      </trkpt>
      <trkpt lat="45.46846" lon="4.03273">
        <ele>994.62</ele>
        <time>2011-11-11T12:51:11Z</time>
      </trkpt>
      <trkpt lat="45.46845" lon="4.03279">
        <ele>994.14</ele>
        <time>2011-11-11T12:51:12Z</time>
      </trkpt>
      <trkpt lat="45.46843" lon="4.03282">
        <ele>993.66</ele>
        <time>2011-11-11T12:51:13Z</time>
      </trkpt>
      <trkpt lat="45.46842" lon="4.03285">
        <ele>993.18</ele>
        <time>2011-11-11T12:51:14Z</time>
      </trkpt>
      <trkpt lat="45.4684" lon="4.03286">
        <ele>992.7</ele>
        <time>2011-11-11T12:51:15Z</time>
      </trkpt>
      <trkpt lat="45.46837" lon="4.03286">
        <ele>992.22</ele>
        <time>2011-11-11T12:51:16Z</time>
      </trkpt>
      <trkpt lat="45.46834" lon="4.03284">
        <ele>991.26</ele>
        <time>2011-11-11T12:51:17Z</time>
      </trkpt>
      <trkpt lat="45.4683" lon="4.03282">
        <ele>990.78</ele>
        <time>2011-11-11T12:51:18Z</time>
      </trkpt>
      <trkpt lat="45.46827" lon="4.0328">
        <ele>989.81</ele>
        <time>2011-11-11T12:51:19Z</time>
      </trkpt>
      <trkpt lat="45.468" lon="4.0327">
        <ele>985.97</ele>
        <time>2011-11-11T12:51:28Z</time>
      </trkpt>
      <trkpt lat="45.46763" lon="4.03255">
        <ele>981.16</ele>
        <time>2011-11-11T12:51:35Z</time>
      </trkpt>
      <trkpt lat="45.46757" lon="4.03254">
        <ele>980.2</ele>
        <time>2011-11-11T12:51:36Z</time>
      </trkpt>
      <trkpt lat="45.46752" lon="4.03256">
        <ele>979.24</ele>
        <time>2011-11-11T12:51:37Z</time>
      </trkpt>
      <trkpt lat="45.46747" lon="4.03258">
        <ele>978.28</ele>
        <time>2011-11-11T12:51:38Z</time>
      </trkpt>
      <trkpt lat="45.46741" lon="4.03262">
        <ele>976.84</ele>
        <time>2011-11-11T12:51:39Z</time>
      </trkpt>
      <trkpt lat="45.46736" lon="4.03266">
        <ele>975.88</ele>
        <time>2011-11-11T12:51:40Z</time>
      </trkpt>
      <trkpt lat="45.46729" lon="4.03272">
        <ele>973.47</ele>
        <time>2011-11-11T12:51:42Z</time>
      </trkpt>
      <trkpt lat="45.46725" lon="4.03272">
        <ele>972.99</ele>
        <time>2011-11-11T12:51:43Z</time>
      </trkpt>
      <trkpt lat="45.46722" lon="4.03272">
        <ele>972.03</ele>
        <time>2011-11-11T12:51:44Z</time>
      </trkpt>
      <trkpt lat="45.46719" lon="4.03271">
        <ele>970.11</ele>
        <time>2011-11-11T12:51:46Z</time>
      </trkpt>
      <trkpt lat="45.46714" lon="4.03271">
        <ele>968.18</ele>
        <time>2011-11-11T12:51:48Z</time>
      </trkpt>
      <trkpt lat="45.46712" lon="4.03273">
        <ele>967.7</ele>
        <time>2011-11-11T12:51:49Z</time>
      </trkpt>
      <trkpt lat="45.4671" lon="4.03276">
        <ele>966.74</ele>
        <time>2011-11-11T12:51:50Z</time>
      </trkpt>
      <trkpt lat="45.46708" lon="4.03277">
        <ele>966.26</ele>
        <time>2011-11-11T12:51:51Z</time>
      </trkpt>
      <trkpt lat="45.46706" lon="4.0328">
        <ele>965.78</ele>
        <time>2011-11-11T12:51:52Z</time>
      </trkpt>
      <trkpt lat="45.46705" lon="4.03283">
        <ele>965.3</ele>
        <time>2011-11-11T12:51:53Z</time>
      </trkpt>
      <trkpt lat="45.46704" lon="4.03285">
        <ele>964.82</ele>
        <time>2011-11-11T12:51:54Z</time>
      </trkpt>
      <trkpt lat="45.46699" lon="4.0329">
        <ele>963.38</ele>
        <time>2011-11-11T12:51:57Z</time>
      </trkpt>
      <trkpt lat="45.46697" lon="4.03293">
        <ele>962.9</ele>
        <time>2011-11-11T12:51:58Z</time>
      </trkpt>
      <trkpt lat="45.46696" lon="4.03294">
        <ele>962.42</ele>
        <time>2011-11-11T12:51:59Z</time>
      </trkpt>
      <trkpt lat="45.46694" lon="4.03296">
        <ele>961.94</ele>
        <time>2011-11-11T12:52:00Z</time>
      </trkpt>
      <trkpt lat="45.46692" lon="4.03299">
        <ele>960.98</ele>
        <time>2011-11-11T12:52:01Z</time>
      </trkpt>
      <trkpt lat="45.4669" lon="4.03303">
        <ele>960.49</ele>
        <time>2011-11-11T12:52:02Z</time>
      </trkpt>
      <trkpt lat="45.46688" lon="4.03306">
        <ele>959.53</ele>
        <time>2011-11-11T12:52:03Z</time>
      </trkpt>
      <trkpt lat="45.46686" lon="4.03308">
        <ele>959.53</ele>
        <time>2011-11-11T12:52:04Z</time>
      </trkpt>
      <trkpt lat="45.46679" lon="4.03316">
        <ele>958.09</ele>
        <time>2011-11-11T12:52:10Z</time>
      </trkpt>
      <trkpt lat="45.46671" lon="4.0334">
        <ele>955.21</ele>
        <time>2011-11-11T12:52:18Z</time>
      </trkpt>
      <trkpt lat="45.46672" lon="4.03345">
        <ele>955.21</ele>
        <time>2011-11-11T12:52:19Z</time>
      </trkpt>
      <trkpt lat="45.46678" lon="4.03357">
        <ele>954.25</ele>
        <time>2011-11-11T12:52:22Z</time>
      </trkpt>
      <trkpt lat="45.46681" lon="4.03361">
        <ele>953.77</ele>
        <time>2011-11-11T12:52:23Z</time>
      </trkpt>
      <trkpt lat="45.46683" lon="4.03366">
        <ele>953.28</ele>
        <time>2011-11-11T12:52:24Z</time>
      </trkpt>
      <trkpt lat="45.46685" lon="4.03371">
        <ele>952.8</ele>
        <time>2011-11-11T12:52:25Z</time>
      </trkpt>
      <trkpt lat="45.46687" lon="4.03374">
        <ele>952.32</ele>
        <time>2011-11-11T12:52:26Z</time>
      </trkpt>
      <trkpt lat="45.46688" lon="4.03392">
        <ele>949.92</ele>
        <time>2011-11-11T12:52:32Z</time>
      </trkpt>
      <trkpt lat="45.46686" lon="4.03393">
        <ele>949.44</ele>
        <time>2011-11-11T12:52:33Z</time>
      </trkpt>
      <trkpt lat="45.46684" lon="4.03393">
        <ele>948.96</ele>
        <time>2011-11-11T12:52:34Z</time>
      </trkpt>
      <trkpt lat="45.46682" lon="4.03393">
        <ele>948.48</ele>
        <time>2011-11-11T12:52:35Z</time>
      </trkpt>
      <trkpt lat="45.46679" lon="4.03391">
        <ele>948</ele>
        <time>2011-11-11T12:52:36Z</time>
      </trkpt>
      <trkpt lat="45.46676" lon="4.0339">
        <ele>947.04</ele>
        <time>2011-11-11T12:52:37Z</time>
      </trkpt>
      <trkpt lat="45.46672" lon="4.03389">
        <ele>946.07</ele>
        <time>2011-11-11T12:52:38Z</time>
      </trkpt>
      <trkpt lat="45.4667" lon="4.03387">
        <ele>945.59</ele>
        <time>2011-11-11T12:52:39Z</time>
      </trkpt>
      <trkpt lat="45.46668" lon="4.03385">
        <ele>945.11</ele>
        <time>2011-11-11T12:52:40Z</time>
      </trkpt>
      <trkpt lat="45.46665" lon="4.03384">
        <ele>944.15</ele>
        <time>2011-11-11T12:52:41Z</time>
      </trkpt>
      <trkpt lat="45.46663" lon="4.03381">
        <ele>943.19</ele>
        <time>2011-11-11T12:52:42Z</time>
      </trkpt>
      <trkpt lat="45.46662" lon="4.03379">
        <ele>942.23</ele>
        <time>2011-11-11T12:52:43Z</time>
      </trkpt>
      <trkpt lat="45.4666" lon="4.03377">
        <ele>941.27</ele>
        <time>2011-11-11T12:52:44Z</time>
      </trkpt>
      <trkpt lat="45.46657" lon="4.03376">
        <ele>940.79</ele>
        <time>2011-11-11T12:52:45Z</time>
      </trkpt>
      <trkpt lat="45.46654" lon="4.03373">
        <ele>939.83</ele>
        <time>2011-11-11T12:52:46Z</time>
      </trkpt>
      <trkpt lat="45.46652" lon="4.03373">
        <ele>939.83</ele>
        <time>2011-11-11T12:52:47Z</time>
      </trkpt>
      <trkpt lat="45.4665" lon="4.03373">
        <ele>939.83</ele>
        <time>2011-11-11T12:52:48Z</time>
      </trkpt>
      <trkpt lat="45.46648" lon="4.03375">
        <ele>939.83</ele>
        <time>2011-11-11T12:52:49Z</time>
      </trkpt>
      <trkpt lat="45.46646" lon="4.03376">
        <ele>939.83</ele>
        <time>2011-11-11T12:52:50Z</time>
      </trkpt>
      <trkpt lat="45.46643" lon="4.03377">
        <ele>939.83</ele>
        <time>2011-11-11T12:52:51Z</time>
      </trkpt>
      <trkpt lat="45.46641" lon="4.0338">
        <ele>940.31</ele>
        <time>2011-11-11T12:52:52Z</time>
      </trkpt>
      <trkpt lat="45.46636" lon="4.03388">
        <ele>940.31</ele>
        <time>2011-11-11T12:52:54Z</time>
      </trkpt>
      <trkpt lat="45.46636" lon="4.03392">
        <ele>940.79</ele>
        <time>2011-11-11T12:52:55Z</time>
      </trkpt>
      <trkpt lat="45.46635" lon="4.03395">
        <ele>940.79</ele>
        <time>2011-11-11T12:52:56Z</time>
      </trkpt>
      <trkpt lat="45.46634" lon="4.03402">
        <ele>940.79</ele>
        <time>2011-11-11T12:52:57Z</time>
      </trkpt>
      <trkpt lat="45.46632" lon="4.03408">
        <ele>940.79</ele>
        <time>2011-11-11T12:52:58Z</time>
      </trkpt>
      <trkpt lat="45.46628" lon="4.03458">
        <ele>939.35</ele>
        <time>2011-11-11T12:53:08Z</time>
      </trkpt>
      <trkpt lat="45.46619" lon="4.03484">
        <ele>936.46</ele>
        <time>2011-11-11T12:53:18Z</time>
      </trkpt>
      <trkpt lat="45.46615" lon="4.0349">
        <ele>935.02</ele>
        <time>2011-11-11T12:53:21Z</time>
      </trkpt>
      <trkpt lat="45.46614" lon="4.03492">
        <ele>935.02</ele>
        <time>2011-11-11T12:53:22Z</time>
      </trkpt>
      <trkpt lat="45.46613" lon="4.03493">
        <ele>934.54</ele>
        <time>2011-11-11T12:53:23Z</time>
      </trkpt>
      <trkpt lat="45.46609" lon="4.03502">
        <ele>934.06</ele>
        <time>2011-11-11T12:53:32Z</time>
      </trkpt>
      <trkpt lat="45.46609" lon="4.03503">
        <ele>934.06</ele>
        <time>2011-11-11T12:53:33Z</time>
      </trkpt>
      <trkpt lat="45.46608" lon="4.03505">
        <ele>934.54</ele>
        <time>2011-11-11T12:53:34Z</time>
      </trkpt>
      <trkpt lat="45.46607" lon="4.03506">
        <ele>934.06</ele>
        <time>2011-11-11T12:53:35Z</time>
      </trkpt>
      <trkpt lat="45.46605" lon="4.03507">
        <ele>934.06</ele>
        <time>2011-11-11T12:53:36Z</time>
      </trkpt>
      <trkpt lat="45.46609" lon="4.03519">
        <ele>942.71</ele>
        <time>2011-11-11T12:53:41Z</time>
      </trkpt>
      <trkpt lat="45.46611" lon="4.03529">
        <ele>948</ele>
        <time>2011-11-11T12:53:46Z</time>
      </trkpt>
      <trkpt lat="45.46611" lon="4.03532">
        <ele>948.96</ele>
        <time>2011-11-11T12:53:47Z</time>
      </trkpt>
      <trkpt lat="45.46611" lon="4.03535">
        <ele>949.44</ele>
        <time>2011-11-11T12:53:48Z</time>
      </trkpt>
      <trkpt lat="45.46611" lon="4.03537">
        <ele>949.92</ele>
        <time>2011-11-11T12:53:49Z</time>
      </trkpt>
      <trkpt lat="45.46611" lon="4.0354">
        <ele>950.4</ele>
        <time>2011-11-11T12:53:50Z</time>
      </trkpt>
      <trkpt lat="45.46611" lon="4.03543">
        <ele>950.88</ele>
        <time>2011-11-11T12:53:51Z</time>
      </trkpt>
      <trkpt lat="45.46611" lon="4.03554">
        <ele>954.25</ele>
        <time>2011-11-11T12:53:55Z</time>
      </trkpt>
      <trkpt lat="45.46611" lon="4.03557">
        <ele>954.73</ele>
        <time>2011-11-11T12:53:56Z</time>
      </trkpt>
      <trkpt lat="45.46611" lon="4.0356">
        <ele>955.21</ele>
        <time>2011-11-11T12:53:57Z</time>
      </trkpt>
      <trkpt lat="45.46611" lon="4.03563">
        <ele>955.21</ele>
        <time>2011-11-11T12:53:58Z</time>
      </trkpt>
      <trkpt lat="45.46611" lon="4.03566">
        <ele>955.69</ele>
        <time>2011-11-11T12:53:59Z</time>
      </trkpt>
      <trkpt lat="45.46611" lon="4.03569">
        <ele>955.69</ele>
        <time>2011-11-11T12:54:00Z</time>
      </trkpt>
      <trkpt lat="45.4661" lon="4.0358">
        <ele>955.69</ele>
        <time>2011-11-11T12:54:04Z</time>
      </trkpt>
      <trkpt lat="45.4661" lon="4.03583">
        <ele>955.69</ele>
        <time>2011-11-11T12:54:05Z</time>
      </trkpt>
      <trkpt lat="45.4661" lon="4.03585">
        <ele>955.21</ele>
        <time>2011-11-11T12:54:06Z</time>
      </trkpt>
      <trkpt lat="45.4661" lon="4.03588">
        <ele>955.21</ele>
        <time>2011-11-11T12:54:07Z</time>
      </trkpt>
      <trkpt lat="45.4661" lon="4.03591">
        <ele>955.21</ele>
        <time>2011-11-11T12:54:08Z</time>
      </trkpt>
      <trkpt lat="45.46611" lon="4.03599">
        <ele>954.73</ele>
        <time>2011-11-11T12:54:11Z</time>
      </trkpt>
      <trkpt lat="45.46612" lon="4.03601">
        <ele>954.25</ele>
        <time>2011-11-11T12:54:12Z</time>
      </trkpt>
      <trkpt lat="45.46612" lon="4.03604">
        <ele>954.73</ele>
        <time>2011-11-11T12:54:13Z</time>
      </trkpt>
      <trkpt lat="45.46612" lon="4.03607">
        <ele>954.25</ele>
        <time>2011-11-11T12:54:14Z</time>
      </trkpt>
      <trkpt lat="45.46612" lon="4.03609">
        <ele>954.25</ele>
        <time>2011-11-11T12:54:15Z</time>
      </trkpt>
      <trkpt lat="45.46613" lon="4.03612">
        <ele>954.25</ele>
        <time>2011-11-11T12:54:16Z</time>
      </trkpt>
      <trkpt lat="45.46613" lon="4.03615">
        <ele>953.77</ele>
        <time>2011-11-11T12:54:17Z</time>
      </trkpt>
      <trkpt lat="45.46613" lon="4.03618">
        <ele>953.77</ele>
        <time>2011-11-11T12:54:18Z</time>
      </trkpt>
      <trkpt lat="45.46613" lon="4.03621">
        <ele>953.28</ele>
        <time>2011-11-11T12:54:19Z</time>
      </trkpt>
      <trkpt lat="45.46613" lon="4.03624">
        <ele>952.8</ele>
        <time>2011-11-11T12:54:20Z</time>
      </trkpt>
      <trkpt lat="45.46614" lon="4.03627">
        <ele>952.32</ele>
        <time>2011-11-11T12:54:21Z</time>
      </trkpt>
      <trkpt lat="45.46614" lon="4.0363">
        <ele>952.32</ele>
        <time>2011-11-11T12:54:22Z</time>
      </trkpt>
      <trkpt lat="45.46615" lon="4.03633">
        <ele>951.84</ele>
        <time>2011-11-11T12:54:23Z</time>
      </trkpt>
      <trkpt lat="45.46615" lon="4.03636">
        <ele>951.84</ele>
        <time>2011-11-11T12:54:24Z</time>
      </trkpt>
      <trkpt lat="45.46615" lon="4.0364">
        <ele>951.36</ele>
        <time>2011-11-11T12:54:25Z</time>
      </trkpt>
      <trkpt lat="45.46615" lon="4.03643">
        <ele>951.36</ele>
        <time>2011-11-11T12:54:26Z</time>
      </trkpt>
      <trkpt lat="45.46615" lon="4.03659">
        <ele>949.92</ele>
        <time>2011-11-11T12:54:31Z</time>
      </trkpt>
      <trkpt lat="45.46617" lon="4.03662">
        <ele>949.92</ele>
        <time>2011-11-11T12:54:32Z</time>
      </trkpt>
      <trkpt lat="45.46617" lon="4.03665">
        <ele>949.44</ele>
        <time>2011-11-11T12:54:33Z</time>
      </trkpt>
      <trkpt lat="45.46618" lon="4.03668">
        <ele>949.44</ele>
        <time>2011-11-11T12:54:34Z</time>
      </trkpt>
      <trkpt lat="45.46619" lon="4.03671">
        <ele>949.44</ele>
        <time>2011-11-11T12:54:35Z</time>
      </trkpt>
      <trkpt lat="45.46619" lon="4.03675">
        <ele>948.96</ele>
        <time>2011-11-11T12:54:36Z</time>
      </trkpt>
      <trkpt lat="45.46621" lon="4.03698">
        <ele>948</ele>
        <time>2011-11-11T12:54:43Z</time>
      </trkpt>
      <trkpt lat="45.46621" lon="4.03701">
        <ele>947.52</ele>
        <time>2011-11-11T12:54:44Z</time>
      </trkpt>
      <trkpt lat="45.4662" lon="4.03704">
        <ele>947.52</ele>
        <time>2011-11-11T12:54:45Z</time>
      </trkpt>
      <trkpt lat="45.4662" lon="4.03707">
        <ele>947.04</ele>
        <time>2011-11-11T12:54:46Z</time>
      </trkpt>
      <trkpt lat="45.4662" lon="4.0371">
        <ele>946.56</ele>
        <time>2011-11-11T12:54:47Z</time>
      </trkpt>
      <trkpt lat="45.46619" lon="4.03713">
        <ele>946.56</ele>
        <time>2011-11-11T12:54:48Z</time>
      </trkpt>
      <trkpt lat="45.4662" lon="4.03717">
        <ele>946.07</ele>
        <time>2011-11-11T12:54:49Z</time>
      </trkpt>
      <trkpt lat="45.4662" lon="4.0372">
        <ele>946.07</ele>
        <time>2011-11-11T12:54:50Z</time>
      </trkpt>
      <trkpt lat="45.46619" lon="4.03723">
        <ele>945.59</ele>
        <time>2011-11-11T12:54:51Z</time>
      </trkpt>
      <trkpt lat="45.46619" lon="4.03727">
        <ele>945.11</ele>
        <time>2011-11-11T12:54:52Z</time>
      </trkpt>
      <trkpt lat="45.46619" lon="4.0373">
        <ele>944.63</ele>
        <time>2011-11-11T12:54:53Z</time>
      </trkpt>
      <trkpt lat="45.46619" lon="4.03733">
        <ele>944.15</ele>
        <time>2011-11-11T12:54:54Z</time>
      </trkpt>
      <trkpt lat="45.4663" lon="4.03792">
        <ele>948</ele>
        <time>2011-11-11T12:55:06Z</time>
      </trkpt>
      <trkpt lat="45.46632" lon="4.03802">
        <ele>948.48</ele>
        <time>2011-11-11T12:55:08Z</time>
      </trkpt>
      <trkpt lat="45.46632" lon="4.03808">
        <ele>948.48</ele>
        <time>2011-11-11T12:55:09Z</time>
      </trkpt>
      <trkpt lat="45.46634" lon="4.03828">
        <ele>947.52</ele>
        <time>2011-11-11T12:55:13Z</time>
      </trkpt>
      <trkpt lat="45.46635" lon="4.03834">
        <ele>947.04</ele>
        <time>2011-11-11T12:55:14Z</time>
      </trkpt>
      <trkpt lat="45.46636" lon="4.03839">
        <ele>946.56</ele>
        <time>2011-11-11T12:55:15Z</time>
      </trkpt>
      <trkpt lat="45.46637" lon="4.03843">
        <ele>946.07</ele>
        <time>2011-11-11T12:55:16Z</time>
      </trkpt>
      <trkpt lat="45.46638" lon="4.03847">
        <ele>946.07</ele>
        <time>2011-11-11T12:55:17Z</time>
      </trkpt>
      <trkpt lat="45.46638" lon="4.03853">
        <ele>945.11</ele>
        <time>2011-11-11T12:55:18Z</time>
      </trkpt>
      <trkpt lat="45.46639" lon="4.03859">
        <ele>945.11</ele>
        <time>2011-11-11T12:55:19Z</time>
      </trkpt>
      <trkpt lat="45.46639" lon="4.03866">
        <ele>945.11</ele>
        <time>2011-11-11T12:55:20Z</time>
      </trkpt>
      <trkpt lat="45.46642" lon="4.0393">
        <ele>945.11</ele>
        <time>2011-11-11T12:55:30Z</time>
      </trkpt>
      <trkpt lat="45.46642" lon="4.0395">
        <ele>946.07</ele>
        <time>2011-11-11T12:55:33Z</time>
      </trkpt>
      <trkpt lat="45.46642" lon="4.03956">
        <ele>946.07</ele>
        <time>2011-11-11T12:55:34Z</time>
      </trkpt>
      <trkpt lat="45.46645" lon="4.03987">
        <ele>951.84</ele>
        <time>2011-11-11T12:55:39Z</time>
      </trkpt>
      <trkpt lat="45.46646" lon="4.03993">
        <ele>954.25</ele>
        <time>2011-11-11T12:55:40Z</time>
      </trkpt>
      <trkpt lat="45.46646" lon="4.03999">
        <ele>955.69</ele>
        <time>2011-11-11T12:55:41Z</time>
      </trkpt>
      <trkpt lat="45.46646" lon="4.04005">
        <ele>956.17</ele>
        <time>2011-11-11T12:55:42Z</time>
      </trkpt>
      <trkpt lat="45.46646" lon="4.0401">
        <ele>956.65</ele>
        <time>2011-11-11T12:55:43Z</time>
      </trkpt>
      <trkpt lat="45.46645" lon="4.04016">
        <ele>957.13</ele>
        <time>2011-11-11T12:55:44Z</time>
      </trkpt>
      <trkpt lat="45.46645" lon="4.04021">
        <ele>957.61</ele>
        <time>2011-11-11T12:55:45Z</time>
      </trkpt>
      <trkpt lat="45.46642" lon="4.04033">
        <ele>959.53</ele>
        <time>2011-11-11T12:55:47Z</time>
      </trkpt>
      <trkpt lat="45.46623" lon="4.04086">
        <ele>963.38</ele>
        <time>2011-11-11T12:55:58Z</time>
      </trkpt>
      <trkpt lat="45.46608" lon="4.04117">
        <ele>965.78</ele>
        <time>2011-11-11T12:56:07Z</time>
      </trkpt>
      <trkpt lat="45.46607" lon="4.0412">
        <ele>966.26</ele>
        <time>2011-11-11T12:56:08Z</time>
      </trkpt>
      <trkpt lat="45.46606" lon="4.04122">
        <ele>966.74</ele>
        <time>2011-11-11T12:56:09Z</time>
      </trkpt>
      <trkpt lat="45.46605" lon="4.04126">
        <ele>967.22</ele>
        <time>2011-11-11T12:56:10Z</time>
      </trkpt>
      <trkpt lat="45.46604" lon="4.0413">
        <ele>967.22</ele>
        <time>2011-11-11T12:56:11Z</time>
      </trkpt>
      <trkpt lat="45.46598" lon="4.04145">
        <ele>968.67</ele>
        <time>2011-11-11T12:56:15Z</time>
      </trkpt>
      <trkpt lat="45.46597" lon="4.04149">
        <ele>969.63</ele>
        <time>2011-11-11T12:56:16Z</time>
      </trkpt>
      <trkpt lat="45.46584" lon="4.04185">
        <ele>974.91</ele>
        <time>2011-11-11T12:56:24Z</time>
      </trkpt>
      <trkpt lat="45.46582" lon="4.04192">
        <ele>974.91</ele>
        <time>2011-11-11T12:56:25Z</time>
      </trkpt>
      <trkpt lat="45.46562" lon="4.04243">
        <ele>976.36</ele>
        <time>2011-11-11T12:56:35Z</time>
      </trkpt>
      <trkpt lat="45.46536" lon="4.04301">
        <ele>975.39</ele>
        <time>2011-11-11T12:56:48Z</time>
      </trkpt>
      <trkpt lat="45.46515" lon="4.04331">
        <ele>975.39</ele>
        <time>2011-11-11T12:56:57Z</time>
      </trkpt>
      <trkpt lat="45.46493" lon="4.04362">
        <ele>975.88</ele>
        <time>2011-11-11T12:57:07Z</time>
      </trkpt>
      <trkpt lat="45.46465" lon="4.04399">
        <ele>974.91</ele>
        <time>2011-11-11T12:57:18Z</time>
      </trkpt>
      <trkpt lat="45.46462" lon="4.04403">
        <ele>974.91</ele>
        <time>2011-11-11T12:57:19Z</time>
      </trkpt>
      <trkpt lat="45.46459" lon="4.04408">
        <ele>974.91</ele>
        <time>2011-11-11T12:57:20Z</time>
      </trkpt>
      <trkpt lat="45.46456" lon="4.04412">
        <ele>974.43</ele>
        <time>2011-11-11T12:57:21Z</time>
      </trkpt>
      <trkpt lat="45.46453" lon="4.04415">
        <ele>974.43</ele>
        <time>2011-11-11T12:57:22Z</time>
      </trkpt>
      <trkpt lat="45.46451" lon="4.04418">
        <ele>974.43</ele>
        <time>2011-11-11T12:57:23Z</time>
      </trkpt>
      <trkpt lat="45.46448" lon="4.0442">
        <ele>974.43</ele>
        <time>2011-11-11T12:57:24Z</time>
      </trkpt>
      <trkpt lat="45.46437" lon="4.04428">
        <ele>973.95</ele>
        <time>2011-11-11T12:57:28Z</time>
      </trkpt>
      <trkpt lat="45.46433" lon="4.04428">
        <ele>973.95</ele>
        <time>2011-11-11T12:57:29Z</time>
      </trkpt>
      <trkpt lat="45.46431" lon="4.04429">
        <ele>973.95</ele>
        <time>2011-11-11T12:57:30Z</time>
      </trkpt>
      <trkpt lat="45.46428" lon="4.04429">
        <ele>973.47</ele>
        <time>2011-11-11T12:57:31Z</time>
      </trkpt>
      <trkpt lat="45.46425" lon="4.04428">
        <ele>973.47</ele>
        <time>2011-11-11T12:57:32Z</time>
      </trkpt>
      <trkpt lat="45.4642" lon="4.04428">
        <ele>973.47</ele>
        <time>2011-11-11T12:57:33Z</time>
      </trkpt>
      <trkpt lat="45.46416" lon="4.04428">
        <ele>972.99</ele>
        <time>2011-11-11T12:57:34Z</time>
      </trkpt>
      <trkpt lat="45.46412" lon="4.04427">
        <ele>972.99</ele>
        <time>2011-11-11T12:57:35Z</time>
      </trkpt>
      <trkpt lat="45.46408" lon="4.04426">
        <ele>972.99</ele>
        <time>2011-11-11T12:57:36Z</time>
      </trkpt>
      <trkpt lat="45.46404" lon="4.04426">
        <ele>972.99</ele>
        <time>2011-11-11T12:57:37Z</time>
      </trkpt>
      <trkpt lat="45.46386" lon="4.04431">
        <ele>972.99</ele>
        <time>2011-11-11T12:57:42Z</time>
      </trkpt>
      <trkpt lat="45.46384" lon="4.04434">
        <ele>972.51</ele>
        <time>2011-11-11T12:57:43Z</time>
      </trkpt>
      <trkpt lat="45.46384" lon="4.04439">
        <ele>972.03</ele>
        <time>2011-11-11T12:57:44Z</time>
      </trkpt>
      <trkpt lat="45.46385" lon="4.04445">
        <ele>971.07</ele>
        <time>2011-11-11T12:57:45Z</time>
      </trkpt>
      <trkpt lat="45.46385" lon="4.0445">
        <ele>970.59</ele>
        <time>2011-11-11T12:57:46Z</time>
      </trkpt>
      <trkpt lat="45.46384" lon="4.04455">
        <ele>970.11</ele>
        <time>2011-11-11T12:57:47Z</time>
      </trkpt>
      <trkpt lat="45.46381" lon="4.04459">
        <ele>969.15</ele>
        <time>2011-11-11T12:57:48Z</time>
      </trkpt>
      <trkpt lat="45.46378" lon="4.04464">
        <ele>968.67</ele>
        <time>2011-11-11T12:57:49Z</time>
      </trkpt>
      <trkpt lat="45.46375" lon="4.0447">
        <ele>968.18</ele>
        <time>2011-11-11T12:57:50Z</time>
      </trkpt>
      <trkpt lat="45.46371" lon="4.04476">
        <ele>967.7</ele>
        <time>2011-11-11T12:57:51Z</time>
      </trkpt>
      <trkpt lat="45.4635" lon="4.04506">
        <ele>964.82</ele>
        <time>2011-11-11T12:57:56Z</time>
      </trkpt>
      <trkpt lat="45.46346" lon="4.04509">
        <ele>964.34</ele>
        <time>2011-11-11T12:57:57Z</time>
      </trkpt>
      <trkpt lat="45.46344" lon="4.0451">
        <ele>964.34</ele>
        <time>2011-11-11T12:57:58Z</time>
      </trkpt>
      <trkpt lat="45.46342" lon="4.04509">
        <ele>964.34</ele>
        <time>2011-11-11T12:57:59Z</time>
      </trkpt>
      <trkpt lat="45.46341" lon="4.04508">
        <ele>964.34</ele>
        <time>2011-11-11T12:58:00Z</time>
      </trkpt>
      <trkpt lat="45.46339" lon="4.04506">
        <ele>964.34</ele>
        <time>2011-11-11T12:58:03Z</time>
      </trkpt>
      <trkpt lat="45.46336" lon="4.04504">
        <ele>963.86</ele>
        <time>2011-11-11T12:58:05Z</time>
      </trkpt>
      <trkpt lat="45.46331" lon="4.045">
        <ele>964.34</ele>
        <time>2011-11-11T12:58:10Z</time>
      </trkpt>
      <trkpt lat="45.4633" lon="4.04499">
        <ele>964.34</ele>
        <time>2011-11-11T12:58:11Z</time>
      </trkpt>
      <trkpt lat="45.46328" lon="4.04495">
        <ele>965.78</ele>
        <time>2011-11-11T12:58:13Z</time>
      </trkpt>
      <trkpt lat="45.46326" lon="4.04493">
        <ele>966.26</ele>
        <time>2011-11-11T12:58:21Z</time>
      </trkpt>
      <trkpt lat="45.46319" lon="4.04492">
        <ele>969.15</ele>
        <time>2011-11-11T12:58:27Z</time>
      </trkpt>
      <trkpt lat="45.46317" lon="4.04492">
        <ele>969.15</ele>
        <time>2011-11-11T12:58:28Z</time>
      </trkpt>
      <trkpt lat="45.46315" lon="4.04492">
        <ele>969.63</ele>
        <time>2011-11-11T12:58:29Z</time>
      </trkpt>
      <trkpt lat="45.46309" lon="4.04493">
        <ele>970.59</ele>
        <time>2011-11-11T12:58:34Z</time>
      </trkpt>
      <trkpt lat="45.46308" lon="4.04494">
        <ele>970.59</ele>
        <time>2011-11-11T12:58:35Z</time>
      </trkpt>
      <trkpt lat="45.463" lon="4.04495">
        <ele>972.03</ele>
        <time>2011-11-11T12:58:39Z</time>
      </trkpt>
      <trkpt lat="45.46276" lon="4.04507">
        <ele>975.88</ele>
        <time>2011-11-11T12:58:51Z</time>
      </trkpt>
      <trkpt lat="45.46274" lon="4.04508">
        <ele>976.36</ele>
        <time>2011-11-11T12:58:52Z</time>
      </trkpt>
      <trkpt lat="45.46273" lon="4.04508">
        <ele>976.84</ele>
        <time>2011-11-11T12:58:53Z</time>
      </trkpt>
      <trkpt lat="45.46271" lon="4.04508">
        <ele>977.32</ele>
        <time>2011-11-11T12:58:54Z</time>
      </trkpt>
      <trkpt lat="45.4627" lon="4.04509">
        <ele>977.8</ele>
        <time>2011-11-11T12:58:55Z</time>
      </trkpt>
      <trkpt lat="45.46268" lon="4.04509">
        <ele>977.8</ele>
        <time>2011-11-11T12:58:56Z</time>
      </trkpt>
      <trkpt lat="45.46266" lon="4.0451">
        <ele>978.28</ele>
        <time>2011-11-11T12:58:57Z</time>
      </trkpt>
      <trkpt lat="45.46264" lon="4.04511">
        <ele>978.76</ele>
        <time>2011-11-11T12:58:58Z</time>
      </trkpt>
      <trkpt lat="45.46262" lon="4.04512">
        <ele>979.24</ele>
        <time>2011-11-11T12:58:59Z</time>
      </trkpt>
      <trkpt lat="45.46237" lon="4.04535">
        <ele>981.16</ele>
        <time>2011-11-11T12:59:10Z</time>
      </trkpt>
      <trkpt lat="45.46229" lon="4.04552">
        <ele>980.68</ele>
        <time>2011-11-11T12:59:15Z</time>
      </trkpt>
      <trkpt lat="45.46227" lon="4.04554">
        <ele>980.68</ele>
        <time>2011-11-11T12:59:16Z</time>
      </trkpt>
      <trkpt lat="45.46224" lon="4.04558">
        <ele>980.68</ele>
        <time>2011-11-11T12:59:17Z</time>
      </trkpt>
      <trkpt lat="45.46222" lon="4.04561">
        <ele>980.68</ele>
        <time>2011-11-11T12:59:18Z</time>
      </trkpt>
      <trkpt lat="45.4622" lon="4.04563">
        <ele>980.68</ele>
        <time>2011-11-11T12:59:19Z</time>
      </trkpt>
      <trkpt lat="45.46217" lon="4.04565">
        <ele>980.68</ele>
        <time>2011-11-11T12:59:20Z</time>
      </trkpt>
      <trkpt lat="45.46214" lon="4.04566">
        <ele>981.16</ele>
        <time>2011-11-11T12:59:21Z</time>
      </trkpt>
      <trkpt lat="45.46211" lon="4.04568">
        <ele>981.64</ele>
        <time>2011-11-11T12:59:22Z</time>
      </trkpt>
      <trkpt lat="45.46179" lon="4.04602">
        <ele>983.09</ele>
        <time>2011-11-11T12:59:34Z</time>
      </trkpt>
      <trkpt lat="45.46176" lon="4.04605">
        <ele>983.09</ele>
        <time>2011-11-11T12:59:35Z</time>
      </trkpt>
      <trkpt lat="45.46172" lon="4.04606">
        <ele>983.57</ele>
        <time>2011-11-11T12:59:36Z</time>
      </trkpt>
      <trkpt lat="45.46167" lon="4.04607">
        <ele>983.57</ele>
        <time>2011-11-11T12:59:37Z</time>
      </trkpt>
      <trkpt lat="45.46152" lon="4.04614">
        <ele>982.6</ele>
        <time>2011-11-11T12:59:41Z</time>
      </trkpt>
      <trkpt lat="45.46149" lon="4.04619">
        <ele>982.6</ele>
        <time>2011-11-11T12:59:42Z</time>
      </trkpt>
      <trkpt lat="45.46146" lon="4.04623">
        <ele>982.6</ele>
        <time>2011-11-11T12:59:43Z</time>
      </trkpt>
      <trkpt lat="45.46143" lon="4.04627">
        <ele>982.12</ele>
        <time>2011-11-11T12:59:44Z</time>
      </trkpt>
      <trkpt lat="45.46141" lon="4.04632">
        <ele>981.64</ele>
        <time>2011-11-11T12:59:45Z</time>
      </trkpt>
      <trkpt lat="45.46137" lon="4.04637">
        <ele>981.64</ele>
        <time>2011-11-11T12:59:46Z</time>
      </trkpt>
      <trkpt lat="45.46128" lon="4.04645">
        <ele>980.68</ele>
        <time>2011-11-11T12:59:48Z</time>
      </trkpt>
      <trkpt lat="45.46123" lon="4.04647">
        <ele>980.2</ele>
        <time>2011-11-11T12:59:49Z</time>
      </trkpt>
      <trkpt lat="45.46118" lon="4.04649">
        <ele>979.72</ele>
        <time>2011-11-11T12:59:50Z</time>
      </trkpt>
      <trkpt lat="45.46112" lon="4.04651">
        <ele>979.72</ele>
        <time>2011-11-11T12:59:51Z</time>
      </trkpt>
      <trkpt lat="45.46107" lon="4.04653">
        <ele>979.24</ele>
        <time>2011-11-11T12:59:52Z</time>
      </trkpt>
      <trkpt lat="45.46101" lon="4.04654">
        <ele>978.76</ele>
        <time>2011-11-11T12:59:53Z</time>
      </trkpt>
      <trkpt lat="45.46095" lon="4.04655">
        <ele>978.28</ele>
        <time>2011-11-11T12:59:54Z</time>
      </trkpt>
      <trkpt lat="45.4609" lon="4.04657">
        <ele>978.28</ele>
        <time>2011-11-11T12:59:55Z</time>
      </trkpt>
      <trkpt lat="45.46085" lon="4.04661">
        <ele>978.28</ele>
        <time>2011-11-11T12:59:56Z</time>
      </trkpt>
      <trkpt lat="45.46081" lon="4.04665">
        <ele>977.8</ele>
        <time>2011-11-11T12:59:57Z</time>
      </trkpt>
      <trkpt lat="45.46077" lon="4.04667">
        <ele>977.32</ele>
        <time>2011-11-11T12:59:58Z</time>
      </trkpt>
      <trkpt lat="45.46068" lon="4.0467">
        <ele>976.36</ele>
        <time>2011-11-11T13:00:00Z</time>
      </trkpt>
      <trkpt lat="45.46062" lon="4.0467">
        <ele>975.88</ele>
        <time>2011-11-11T13:00:01Z</time>
      </trkpt>
      <trkpt lat="45.46051" lon="4.04667">
        <ele>974.43</ele>
        <time>2011-11-11T13:00:03Z</time>
      </trkpt>
      <trkpt lat="45.46037" lon="4.04662">
        <ele>972.99</ele>
        <time>2011-11-11T13:00:06Z</time>
      </trkpt>
      <trkpt lat="45.46035" lon="4.0466">
        <ele>972.51</ele>
        <time>2011-11-11T13:00:07Z</time>
      </trkpt>
      <trkpt lat="45.46033" lon="4.04657">
        <ele>972.51</ele>
        <time>2011-11-11T13:00:08Z</time>
      </trkpt>
      <trkpt lat="45.46031" lon="4.04654">
        <ele>972.51</ele>
        <time>2011-11-11T13:00:09Z</time>
      </trkpt>
      <trkpt lat="45.4603" lon="4.0465">
        <ele>972.51</ele>
        <time>2011-11-11T13:00:10Z</time>
      </trkpt>
      <trkpt lat="45.46014" lon="4.04612">
        <ele>972.03</ele>
        <time>2011-11-11T13:00:21Z</time>
      </trkpt>
      <trkpt lat="45.46011" lon="4.04608">
        <ele>971.55</ele>
        <time>2011-11-11T13:00:22Z</time>
      </trkpt>
      <trkpt lat="45.46007" lon="4.04605">
        <ele>971.07</ele>
        <time>2011-11-11T13:00:23Z</time>
      </trkpt>
      <trkpt lat="45.46002" lon="4.04602">
        <ele>970.59</ele>
        <time>2011-11-11T13:00:24Z</time>
      </trkpt>
      <trkpt lat="45.45998" lon="4.04599">
        <ele>970.11</ele>
        <time>2011-11-11T13:00:25Z</time>
      </trkpt>
      <trkpt lat="45.45994" lon="4.04596">
        <ele>969.63</ele>
        <time>2011-11-11T13:00:26Z</time>
      </trkpt>
      <trkpt lat="45.45989" lon="4.04592">
        <ele>969.63</ele>
        <time>2011-11-11T13:00:27Z</time>
      </trkpt>
      <trkpt lat="45.45985" lon="4.04588">
        <ele>969.15</ele>
        <time>2011-11-11T13:00:28Z</time>
      </trkpt>
      <trkpt lat="45.45937" lon="4.04552">
        <ele>966.26</ele>
        <time>2011-11-11T13:00:36Z</time>
      </trkpt>
      <trkpt lat="45.45918" lon="4.04544">
        <ele>964.82</ele>
        <time>2011-11-11T13:00:39Z</time>
      </trkpt>
      <trkpt lat="45.45911" lon="4.04546">
        <ele>964.82</ele>
        <time>2011-11-11T13:00:40Z</time>
      </trkpt>
      <trkpt lat="45.45905" lon="4.0455">
        <ele>964.34</ele>
        <time>2011-11-11T13:00:41Z</time>
      </trkpt>
      <trkpt lat="45.45899" lon="4.04552">
        <ele>963.38</ele>
        <time>2011-11-11T13:00:42Z</time>
      </trkpt>
      <trkpt lat="45.45892" lon="4.0455">
        <ele>962.9</ele>
        <time>2011-11-11T13:00:43Z</time>
      </trkpt>
      <trkpt lat="45.45885" lon="4.04546">
        <ele>961.94</ele>
        <time>2011-11-11T13:00:44Z</time>
      </trkpt>
      <trkpt lat="45.45877" lon="4.04541">
        <ele>960.98</ele>
        <time>2011-11-11T13:00:45Z</time>
      </trkpt>
      <trkpt lat="45.4587" lon="4.04536">
        <ele>960.01</ele>
        <time>2011-11-11T13:00:46Z</time>
      </trkpt>
      <trkpt lat="45.45863" lon="4.04533">
        <ele>959.53</ele>
        <time>2011-11-11T13:00:47Z</time>
      </trkpt>
      <trkpt lat="45.45855" lon="4.04531">
        <ele>959.05</ele>
        <time>2011-11-11T13:00:48Z</time>
      </trkpt>
      <trkpt lat="45.45848" lon="4.04531">
        <ele>959.05</ele>
        <time>2011-11-11T13:00:49Z</time>
      </trkpt>
      <trkpt lat="45.4584" lon="4.04533">
        <ele>959.05</ele>
        <time>2011-11-11T13:00:50Z</time>
      </trkpt>
      <trkpt lat="45.45759" lon="4.04556">
        <ele>959.53</ele>
        <time>2011-11-11T13:01:02Z</time>
      </trkpt>
      <trkpt lat="45.45718" lon="4.04563">
        <ele>960.01</ele>
        <time>2011-11-11T13:01:09Z</time>
      </trkpt>
      <trkpt lat="45.45714" lon="4.04566">
        <ele>960.49</ele>
        <time>2011-11-11T13:01:10Z</time>
      </trkpt>
      <trkpt lat="45.45707" lon="4.04573">
        <ele>960.01</ele>
        <time>2011-11-11T13:01:12Z</time>
      </trkpt>
      <trkpt lat="45.45704" lon="4.0458">
        <ele>960.01</ele>
        <time>2011-11-11T13:01:13Z</time>
      </trkpt>
      <trkpt lat="45.45704" lon="4.04586">
        <ele>959.53</ele>
        <time>2011-11-11T13:01:14Z</time>
      </trkpt>
      <trkpt lat="45.45703" lon="4.04593">
        <ele>958.57</ele>
        <time>2011-11-11T13:01:15Z</time>
      </trkpt>
      <trkpt lat="45.45703" lon="4.046">
        <ele>957.61</ele>
        <time>2011-11-11T13:01:16Z</time>
      </trkpt>
      <trkpt lat="45.45702" lon="4.04605">
        <ele>956.65</ele>
        <time>2011-11-11T13:01:17Z</time>
      </trkpt>
      <trkpt lat="45.45699" lon="4.0461">
        <ele>955.69</ele>
        <time>2011-11-11T13:01:18Z</time>
      </trkpt>
      <trkpt lat="45.45696" lon="4.04614">
        <ele>955.21</ele>
        <time>2011-11-11T13:01:19Z</time>
      </trkpt>
      <trkpt lat="45.45692" lon="4.04618">
        <ele>954.73</ele>
        <time>2011-11-11T13:01:20Z</time>
      </trkpt>
      <trkpt lat="45.45688" lon="4.04621">
        <ele>954.25</ele>
        <time>2011-11-11T13:01:21Z</time>
      </trkpt>
      <trkpt lat="45.45684" lon="4.04624">
        <ele>953.77</ele>
        <time>2011-11-11T13:01:22Z</time>
      </trkpt>
      <trkpt lat="45.4568" lon="4.04628">
        <ele>953.77</ele>
        <time>2011-11-11T13:01:23Z</time>
      </trkpt>
      <trkpt lat="45.45676" lon="4.0463">
        <ele>953.28</ele>
        <time>2011-11-11T13:01:24Z</time>
      </trkpt>
      <trkpt lat="45.45671" lon="4.04631">
        <ele>952.8</ele>
        <time>2011-11-11T13:01:25Z</time>
      </trkpt>
      <trkpt lat="45.45665" lon="4.04634">
        <ele>952.32</ele>
        <time>2011-11-11T13:01:26Z</time>
      </trkpt>
      <trkpt lat="45.45659" lon="4.04637">
        <ele>951.84</ele>
        <time>2011-11-11T13:01:27Z</time>
      </trkpt>
      <trkpt lat="45.45654" lon="4.04639">
        <ele>950.88</ele>
        <time>2011-11-11T13:01:28Z</time>
      </trkpt>
      <trkpt lat="45.45648" lon="4.0464">
        <ele>949.92</ele>
        <time>2011-11-11T13:01:29Z</time>
      </trkpt>
      <trkpt lat="45.45642" lon="4.04641">
        <ele>949.44</ele>
        <time>2011-11-11T13:01:30Z</time>
      </trkpt>
      <trkpt lat="45.45637" lon="4.04641">
        <ele>948.48</ele>
        <time>2011-11-11T13:01:31Z</time>
      </trkpt>
      <trkpt lat="45.45632" lon="4.04642">
        <ele>947.52</ele>
        <time>2011-11-11T13:01:32Z</time>
      </trkpt>
      <trkpt lat="45.45627" lon="4.04642">
        <ele>946.56</ele>
        <time>2011-11-11T13:01:33Z</time>
      </trkpt>
      <trkpt lat="45.45622" lon="4.04641">
        <ele>945.59</ele>
        <time>2011-11-11T13:01:34Z</time>
      </trkpt>
      <trkpt lat="45.45617" lon="4.0464">
        <ele>944.63</ele>
        <time>2011-11-11T13:01:35Z</time>
      </trkpt>
      <trkpt lat="45.45613" lon="4.04639">
        <ele>943.67</ele>
        <time>2011-11-11T13:01:36Z</time>
      </trkpt>
      <trkpt lat="45.4561" lon="4.04637">
        <ele>942.23</ele>
        <time>2011-11-11T13:01:37Z</time>
      </trkpt>
      <trkpt lat="45.45607" lon="4.04635">
        <ele>941.27</ele>
        <time>2011-11-11T13:01:38Z</time>
      </trkpt>
      <trkpt lat="45.45605" lon="4.04633">
        <ele>940.31</ele>
        <time>2011-11-11T13:01:39Z</time>
      </trkpt>
      <trkpt lat="45.45604" lon="4.04629">
        <ele>939.35</ele>
        <time>2011-11-11T13:01:40Z</time>
      </trkpt>
      <trkpt lat="45.45604" lon="4.04627">
        <ele>937.9</ele>
        <time>2011-11-11T13:01:41Z</time>
      </trkpt>
      <trkpt lat="45.45603" lon="4.04625">
        <ele>936.46</ele>
        <time>2011-11-11T13:01:42Z</time>
      </trkpt>
      <trkpt lat="45.45601" lon="4.04623">
        <ele>935.02</ele>
        <time>2011-11-11T13:01:43Z</time>
      </trkpt>
      <trkpt lat="45.456" lon="4.04621">
        <ele>934.06</ele>
        <time>2011-11-11T13:01:44Z</time>
      </trkpt>
      <trkpt lat="45.45599" lon="4.04619">
        <ele>932.62</ele>
        <time>2011-11-11T13:01:45Z</time>
      </trkpt>
      <trkpt lat="45.45597" lon="4.04617">
        <ele>931.65</ele>
        <time>2011-11-11T13:01:46Z</time>
      </trkpt>
      <trkpt lat="45.45595" lon="4.04615">
        <ele>930.21</ele>
        <time>2011-11-11T13:01:47Z</time>
      </trkpt>
      <trkpt lat="45.45591" lon="4.04612">
        <ele>928.77</ele>
        <time>2011-11-11T13:01:48Z</time>
      </trkpt>
      <trkpt lat="45.45586" lon="4.0461">
        <ele>927.33</ele>
        <time>2011-11-11T13:01:49Z</time>
      </trkpt>
      <trkpt lat="45.45581" lon="4.04608">
        <ele>925.89</ele>
        <time>2011-11-11T13:01:50Z</time>
      </trkpt>
      <trkpt lat="45.45574" lon="4.04606">
        <ele>924.45</ele>
        <time>2011-11-11T13:01:51Z</time>
      </trkpt>
      <trkpt lat="45.45567" lon="4.04605">
        <ele>922.52</ele>
        <time>2011-11-11T13:01:52Z</time>
      </trkpt>
      <trkpt lat="45.4556" lon="4.04603">
        <ele>921.08</ele>
        <time>2011-11-11T13:01:53Z</time>
      </trkpt>
      <trkpt lat="45.45552" lon="4.04601">
        <ele>919.64</ele>
        <time>2011-11-11T13:01:54Z</time>
      </trkpt>
      <trkpt lat="45.45545" lon="4.046">
        <ele>918.2</ele>
        <time>2011-11-11T13:01:55Z</time>
      </trkpt>
      <trkpt lat="45.45538" lon="4.04598">
        <ele>916.75</ele>
        <time>2011-11-11T13:01:56Z</time>
      </trkpt>
      <trkpt lat="45.45531" lon="4.04598">
        <ele>915.31</ele>
        <time>2011-11-11T13:01:57Z</time>
      </trkpt>
      <trkpt lat="45.45524" lon="4.04597">
        <ele>913.39</ele>
        <time>2011-11-11T13:01:58Z</time>
      </trkpt>
      <trkpt lat="45.45511" lon="4.04594">
        <ele>910.99</ele>
        <time>2011-11-11T13:02:00Z</time>
      </trkpt>
      <trkpt lat="45.45504" lon="4.04593">
        <ele>909.54</ele>
        <time>2011-11-11T13:02:01Z</time>
      </trkpt>
      <trkpt lat="45.45497" lon="4.04592">
        <ele>908.58</ele>
        <time>2011-11-11T13:02:02Z</time>
      </trkpt>
      <trkpt lat="45.4549" lon="4.04593">
        <ele>907.62</ele>
        <time>2011-11-11T13:02:03Z</time>
      </trkpt>
      <trkpt lat="45.45482" lon="4.04595">
        <ele>906.66</ele>
        <time>2011-11-11T13:02:04Z</time>
      </trkpt>
      <trkpt lat="45.45474" lon="4.046">
        <ele>906.18</ele>
        <time>2011-11-11T13:02:05Z</time>
      </trkpt>
      <trkpt lat="45.45465" lon="4.04605">
        <ele>906.18</ele>
        <time>2011-11-11T13:02:06Z</time>
      </trkpt>
      <trkpt lat="45.45443" lon="4.0462">
        <ele>905.7</ele>
        <time>2011-11-11T13:02:09Z</time>
      </trkpt>
      <trkpt lat="45.45435" lon="4.04626">
        <ele>906.66</ele>
        <time>2011-11-11T13:02:10Z</time>
      </trkpt>
      <trkpt lat="45.45429" lon="4.04633">
        <ele>906.18</ele>
        <time>2011-11-11T13:02:11Z</time>
      </trkpt>
      <trkpt lat="45.45423" lon="4.04638">
        <ele>905.7</ele>
        <time>2011-11-11T13:02:12Z</time>
      </trkpt>
      <trkpt lat="45.45416" lon="4.04643">
        <ele>904.74</ele>
        <time>2011-11-11T13:02:13Z</time>
      </trkpt>
      <trkpt lat="45.45408" lon="4.04646">
        <ele>904.74</ele>
        <time>2011-11-11T13:02:14Z</time>
      </trkpt>
      <trkpt lat="45.45393" lon="4.04652">
        <ele>903.78</ele>
        <time>2011-11-11T13:02:16Z</time>
      </trkpt>
      <trkpt lat="45.45387" lon="4.04657">
        <ele>903.3</ele>
        <time>2011-11-11T13:02:17Z</time>
      </trkpt>
      <trkpt lat="45.45382" lon="4.0466">
        <ele>901.85</ele>
        <time>2011-11-11T13:02:18Z</time>
      </trkpt>
      <trkpt lat="45.45375" lon="4.04662">
        <ele>900.41</ele>
        <time>2011-11-11T13:02:19Z</time>
      </trkpt>
      <trkpt lat="45.45369" lon="4.04661">
        <ele>899.93</ele>
        <time>2011-11-11T13:02:20Z</time>
      </trkpt>
      <trkpt lat="45.45363" lon="4.04661">
        <ele>898.97</ele>
        <time>2011-11-11T13:02:21Z</time>
      </trkpt>
      <trkpt lat="45.45358" lon="4.04664">
        <ele>898.01</ele>
        <time>2011-11-11T13:02:22Z</time>
      </trkpt>
      <trkpt lat="45.45355" lon="4.04669">
        <ele>897.05</ele>
        <time>2011-11-11T13:02:23Z</time>
      </trkpt>
      <trkpt lat="45.45352" lon="4.04674">
        <ele>896.09</ele>
        <time>2011-11-11T13:02:24Z</time>
      </trkpt>
      <trkpt lat="45.45346" lon="4.04677">
        <ele>895.61</ele>
        <time>2011-11-11T13:02:25Z</time>
      </trkpt>
      <trkpt lat="45.4534" lon="4.0468">
        <ele>895.61</ele>
        <time>2011-11-11T13:02:26Z</time>
      </trkpt>
      <trkpt lat="45.45335" lon="4.04682">
        <ele>895.12</ele>
        <time>2011-11-11T13:02:27Z</time>
      </trkpt>
      <trkpt lat="45.4533" lon="4.04684">
        <ele>894.64</ele>
        <time>2011-11-11T13:02:28Z</time>
      </trkpt>
      <trkpt lat="45.45326" lon="4.04687">
        <ele>894.16</ele>
        <time>2011-11-11T13:02:29Z</time>
      </trkpt>
      <trkpt lat="45.45323" lon="4.0469">
        <ele>893.2</ele>
        <time>2011-11-11T13:02:30Z</time>
      </trkpt>
      <trkpt lat="45.45312" lon="4.04693">
        <ele>891.28</ele>
        <time>2011-11-11T13:02:32Z</time>
      </trkpt>
      <trkpt lat="45.45307" lon="4.04691">
        <ele>889.84</ele>
        <time>2011-11-11T13:02:33Z</time>
      </trkpt>
      <trkpt lat="45.45301" lon="4.04691">
        <ele>888.88</ele>
        <time>2011-11-11T13:02:34Z</time>
      </trkpt>
      <trkpt lat="45.45295" lon="4.04691">
        <ele>887.43</ele>
        <time>2011-11-11T13:02:35Z</time>
      </trkpt>
      <trkpt lat="45.4529" lon="4.04693">
        <ele>885.99</ele>
        <time>2011-11-11T13:02:36Z</time>
      </trkpt>
      <trkpt lat="45.45285" lon="4.04696">
        <ele>885.03</ele>
        <time>2011-11-11T13:02:37Z</time>
      </trkpt>
      <trkpt lat="45.45275" lon="4.04703">
        <ele>883.11</ele>
        <time>2011-11-11T13:02:39Z</time>
      </trkpt>
      <trkpt lat="45.45269" lon="4.04708">
        <ele>882.15</ele>
        <time>2011-11-11T13:02:40Z</time>
      </trkpt>
      <trkpt lat="45.45264" lon="4.04713">
        <ele>881.19</ele>
        <time>2011-11-11T13:02:41Z</time>
      </trkpt>
      <trkpt lat="45.45259" lon="4.04719">
        <ele>880.71</ele>
        <time>2011-11-11T13:02:42Z</time>
      </trkpt>
      <trkpt lat="45.45254" lon="4.04726">
        <ele>880.22</ele>
        <time>2011-11-11T13:02:43Z</time>
      </trkpt>
      <trkpt lat="45.45241" lon="4.04739">
        <ele>879.26</ele>
        <time>2011-11-11T13:02:46Z</time>
      </trkpt>
      <trkpt lat="45.45212" lon="4.04769">
        <ele>876.86</ele>
        <time>2011-11-11T13:02:54Z</time>
      </trkpt>
      <trkpt lat="45.45209" lon="4.0477">
        <ele>876.38</ele>
        <time>2011-11-11T13:02:55Z</time>
      </trkpt>
      <trkpt lat="45.45206" lon="4.04772">
        <ele>875.42</ele>
        <time>2011-11-11T13:02:56Z</time>
      </trkpt>
      <trkpt lat="45.45204" lon="4.04778">
        <ele>875.42</ele>
        <time>2011-11-11T13:02:57Z</time>
      </trkpt>
      <trkpt lat="45.45202" lon="4.04787">
        <ele>874.46</ele>
        <time>2011-11-11T13:02:58Z</time>
      </trkpt>
      <trkpt lat="45.45199" lon="4.04797">
        <ele>873.5</ele>
        <time>2011-11-11T13:02:59Z</time>
      </trkpt>
      <trkpt lat="45.45192" lon="4.04825">
        <ele>870.61</ele>
        <time>2011-11-11T13:03:02Z</time>
      </trkpt>
      <trkpt lat="45.45189" lon="4.04834">
        <ele>869.65</ele>
        <time>2011-11-11T13:03:03Z</time>
      </trkpt>
      <trkpt lat="45.45186" lon="4.04842">
        <ele>868.69</ele>
        <time>2011-11-11T13:03:04Z</time>
      </trkpt>
      <trkpt lat="45.45183" lon="4.04851">
        <ele>867.73</ele>
        <time>2011-11-11T13:03:05Z</time>
      </trkpt>
      <trkpt lat="45.45178" lon="4.04857">
        <ele>867.25</ele>
        <time>2011-11-11T13:03:06Z</time>
      </trkpt>
      <trkpt lat="45.45173" lon="4.04864">
        <ele>866.29</ele>
        <time>2011-11-11T13:03:07Z</time>
      </trkpt>
      <trkpt lat="45.45169" lon="4.04871">
        <ele>865.8</ele>
        <time>2011-11-11T13:03:08Z</time>
      </trkpt>
      <trkpt lat="45.45165" lon="4.0488">
        <ele>864.84</ele>
        <time>2011-11-11T13:03:09Z</time>
      </trkpt>
      <trkpt lat="45.45161" lon="4.04891">
        <ele>863.88</ele>
        <time>2011-11-11T13:03:10Z</time>
      </trkpt>
      <trkpt lat="45.45141" lon="4.04936">
        <ele>859.56</ele>
        <time>2011-11-11T13:03:14Z</time>
      </trkpt>
      <trkpt lat="45.45134" lon="4.04945">
        <ele>859.08</ele>
        <time>2011-11-11T13:03:15Z</time>
      </trkpt>
      <trkpt lat="45.45128" lon="4.04955">
        <ele>858.11</ele>
        <time>2011-11-11T13:03:16Z</time>
      </trkpt>
      <trkpt lat="45.45118" lon="4.04972">
        <ele>856.19</ele>
        <time>2011-11-11T13:03:18Z</time>
      </trkpt>
      <trkpt lat="45.45112" lon="4.0498">
        <ele>855.23</ele>
        <time>2011-11-11T13:03:19Z</time>
      </trkpt>
      <trkpt lat="45.45105" lon="4.04986">
        <ele>854.75</ele>
        <time>2011-11-11T13:03:20Z</time>
      </trkpt>
      <trkpt lat="45.45098" lon="4.04992">
        <ele>854.27</ele>
        <time>2011-11-11T13:03:21Z</time>
      </trkpt>
      <trkpt lat="45.4509" lon="4.04999">
        <ele>853.79</ele>
        <time>2011-11-11T13:03:22Z</time>
      </trkpt>
      <trkpt lat="45.45083" lon="4.05006">
        <ele>853.79</ele>
        <time>2011-11-11T13:03:23Z</time>
      </trkpt>
      <trkpt lat="45.45075" lon="4.05013">
        <ele>853.79</ele>
        <time>2011-11-11T13:03:24Z</time>
      </trkpt>
      <trkpt lat="45.45067" lon="4.05017">
        <ele>853.79</ele>
        <time>2011-11-11T13:03:25Z</time>
      </trkpt>
      <trkpt lat="45.45058" lon="4.05019">
        <ele>853.79</ele>
        <time>2011-11-11T13:03:26Z</time>
      </trkpt>
      <trkpt lat="45.4505" lon="4.0502">
        <ele>853.79</ele>
        <time>2011-11-11T13:03:27Z</time>
      </trkpt>
      <trkpt lat="45.45035" lon="4.05023">
        <ele>854.27</ele>
        <time>2011-11-11T13:03:29Z</time>
      </trkpt>
      <trkpt lat="45.45028" lon="4.05023">
        <ele>855.23</ele>
        <time>2011-11-11T13:03:30Z</time>
      </trkpt>
      <trkpt lat="45.45021" lon="4.05028">
        <ele>856.19</ele>
        <time>2011-11-11T13:03:31Z</time>
      </trkpt>
      <trkpt lat="45.45015" lon="4.05036">
        <ele>857.15</ele>
        <time>2011-11-11T13:03:32Z</time>
      </trkpt>
      <trkpt lat="45.45009" lon="4.05045">
        <ele>859.08</ele>
        <time>2011-11-11T13:03:33Z</time>
      </trkpt>
      <trkpt lat="45.44927" lon="4.05151">
        <ele>864.84</ele>
        <time>2011-11-11T13:03:45Z</time>
      </trkpt>
      <trkpt lat="45.4492" lon="4.0516">
        <ele>864.36</ele>
        <time>2011-11-11T13:03:46Z</time>
      </trkpt>
      <trkpt lat="45.44915" lon="4.05171">
        <ele>864.36</ele>
        <time>2011-11-11T13:03:47Z</time>
      </trkpt>
      <trkpt lat="45.44898" lon="4.05203">
        <ele>864.84</ele>
        <time>2011-11-11T13:03:50Z</time>
      </trkpt>
      <trkpt lat="45.44887" lon="4.05222">
        <ele>864.84</ele>
        <time>2011-11-11T13:03:52Z</time>
      </trkpt>
      <trkpt lat="45.44884" lon="4.05231">
        <ele>864.36</ele>
        <time>2011-11-11T13:03:53Z</time>
      </trkpt>
      <trkpt lat="45.44882" lon="4.05241">
        <ele>864.36</ele>
        <time>2011-11-11T13:03:54Z</time>
      </trkpt>
      <trkpt lat="45.44882" lon="4.05251">
        <ele>863.88</ele>
        <time>2011-11-11T13:03:55Z</time>
      </trkpt>
      <trkpt lat="45.44883" lon="4.05261">
        <ele>863.88</ele>
        <time>2011-11-11T13:03:56Z</time>
      </trkpt>
      <trkpt lat="45.44885" lon="4.05271">
        <ele>863.4</ele>
        <time>2011-11-11T13:03:57Z</time>
      </trkpt>
      <trkpt lat="45.44888" lon="4.0528">
        <ele>863.4</ele>
        <time>2011-11-11T13:03:58Z</time>
      </trkpt>
      <trkpt lat="45.44897" lon="4.05326">
        <ele>863.4</ele>
        <time>2011-11-11T13:04:03Z</time>
      </trkpt>
      <trkpt lat="45.449" lon="4.05333">
        <ele>863.4</ele>
        <time>2011-11-11T13:04:04Z</time>
      </trkpt>
      <trkpt lat="45.44904" lon="4.0534">
        <ele>862.92</ele>
        <time>2011-11-11T13:04:05Z</time>
      </trkpt>
      <trkpt lat="45.4491" lon="4.05345">
        <ele>862.92</ele>
        <time>2011-11-11T13:04:06Z</time>
      </trkpt>
      <trkpt lat="45.44915" lon="4.05351">
        <ele>862.44</ele>
        <time>2011-11-11T13:04:07Z</time>
      </trkpt>
      <trkpt lat="45.4492" lon="4.05358">
        <ele>861.96</ele>
        <time>2011-11-11T13:04:08Z</time>
      </trkpt>
      <trkpt lat="45.44924" lon="4.05367">
        <ele>861.48</ele>
        <time>2011-11-11T13:04:09Z</time>
      </trkpt>
      <trkpt lat="45.44927" lon="4.05376">
        <ele>861</ele>
        <time>2011-11-11T13:04:10Z</time>
      </trkpt>
      <trkpt lat="45.44929" lon="4.05385">
        <ele>860.52</ele>
        <time>2011-11-11T13:04:11Z</time>
      </trkpt>
      <trkpt lat="45.44932" lon="4.05401">
        <ele>859.56</ele>
        <time>2011-11-11T13:04:13Z</time>
      </trkpt>
      <trkpt lat="45.44937" lon="4.05415">
        <ele>859.08</ele>
        <time>2011-11-11T13:04:15Z</time>
      </trkpt>
      <trkpt lat="45.4494" lon="4.05423">
        <ele>858.59</ele>
        <time>2011-11-11T13:04:16Z</time>
      </trkpt>
      <trkpt lat="45.44942" lon="4.05431">
        <ele>858.11</ele>
        <time>2011-11-11T13:04:17Z</time>
      </trkpt>
      <trkpt lat="45.44943" lon="4.05437">
        <ele>857.63</ele>
        <time>2011-11-11T13:04:18Z</time>
      </trkpt>
      <trkpt lat="45.4494" lon="4.05443">
        <ele>857.63</ele>
        <time>2011-11-11T13:04:19Z</time>
      </trkpt>
      <trkpt lat="45.44937" lon="4.05447">
        <ele>857.63</ele>
        <time>2011-11-11T13:04:20Z</time>
      </trkpt>
      <trkpt lat="45.44933" lon="4.0545">
        <ele>857.63</ele>
        <time>2011-11-11T13:04:21Z</time>
      </trkpt>
      <trkpt lat="45.44929" lon="4.05453">
        <ele>858.11</ele>
        <time>2011-11-11T13:04:22Z</time>
      </trkpt>
      <trkpt lat="45.44919" lon="4.05462">
        <ele>858.59</ele>
        <time>2011-11-11T13:04:25Z</time>
      </trkpt>
      <trkpt lat="45.44916" lon="4.05466">
        <ele>858.59</ele>
        <time>2011-11-11T13:04:26Z</time>
      </trkpt>
      <trkpt lat="45.44912" lon="4.05471">
        <ele>858.59</ele>
        <time>2011-11-11T13:04:27Z</time>
      </trkpt>
      <trkpt lat="45.44909" lon="4.05478">
        <ele>858.11</ele>
        <time>2011-11-11T13:04:28Z</time>
      </trkpt>
      <trkpt lat="45.44907" lon="4.05484">
        <ele>858.11</ele>
        <time>2011-11-11T13:04:29Z</time>
      </trkpt>
      <trkpt lat="45.44904" lon="4.05487">
        <ele>857.63</ele>
        <time>2011-11-11T13:04:30Z</time>
      </trkpt>
      <trkpt lat="45.44899" lon="4.05489">
        <ele>857.15</ele>
        <time>2011-11-11T13:04:31Z</time>
      </trkpt>
      <trkpt lat="45.44895" lon="4.05488">
        <ele>856.67</ele>
        <time>2011-11-11T13:04:32Z</time>
      </trkpt>
      <trkpt lat="45.4489" lon="4.05487">
        <ele>856.67</ele>
        <time>2011-11-11T13:04:33Z</time>
      </trkpt>
      <trkpt lat="45.44884" lon="4.05485">
        <ele>856.19</ele>
        <time>2011-11-11T13:04:34Z</time>
      </trkpt>
      <trkpt lat="45.4483" lon="4.05465">
        <ele>857.63</ele>
        <time>2011-11-11T13:04:43Z</time>
      </trkpt>
      <trkpt lat="45.44799" lon="4.05449">
        <ele>857.63</ele>
        <time>2011-11-11T13:04:49Z</time>
      </trkpt>
      <trkpt lat="45.44784" lon="4.05441">
        <ele>857.63</ele>
        <time>2011-11-11T13:04:52Z</time>
      </trkpt>
      <trkpt lat="45.44779" lon="4.05441">
        <ele>858.11</ele>
        <time>2011-11-11T13:04:53Z</time>
      </trkpt>
      <trkpt lat="45.44761" lon="4.05439">
        <ele>860.04</ele>
        <time>2011-11-11T13:04:57Z</time>
      </trkpt>
      <trkpt lat="45.44752" lon="4.0544">
        <ele>860.52</ele>
        <time>2011-11-11T13:04:59Z</time>
      </trkpt>
      <trkpt lat="45.44748" lon="4.05442">
        <ele>860.52</ele>
        <time>2011-11-11T13:05:00Z</time>
      </trkpt>
      <trkpt lat="45.44701" lon="4.05456">
        <ele>860.04</ele>
        <time>2011-11-11T13:05:09Z</time>
      </trkpt>
      <trkpt lat="45.44672" lon="4.05457">
        <ele>860.04</ele>
        <time>2011-11-11T13:05:14Z</time>
      </trkpt>
      <trkpt lat="45.44666" lon="4.0546">
        <ele>860.04</ele>
        <time>2011-11-11T13:05:15Z</time>
      </trkpt>
      <trkpt lat="45.4466" lon="4.05463">
        <ele>860.04</ele>
        <time>2011-11-11T13:05:16Z</time>
      </trkpt>
      <trkpt lat="45.44656" lon="4.05469">
        <ele>860.04</ele>
        <time>2011-11-11T13:05:17Z</time>
      </trkpt>
      <trkpt lat="45.44651" lon="4.05474">
        <ele>860.04</ele>
        <time>2011-11-11T13:05:18Z</time>
      </trkpt>
      <trkpt lat="45.44616" lon="4.05512">
        <ele>859.56</ele>
        <time>2011-11-11T13:05:25Z</time>
      </trkpt>
      <trkpt lat="45.44566" lon="4.05548">
        <ele>859.56</ele>
        <time>2011-11-11T13:05:35Z</time>
      </trkpt>
      <trkpt lat="45.4449" lon="4.05593">
        <ele>857.15</ele>
        <time>2011-11-11T13:05:47Z</time>
      </trkpt>
      <trkpt lat="45.44394" lon="4.05658">
        <ele>849.94</ele>
        <time>2011-11-11T13:05:59Z</time>
      </trkpt>
      <trkpt lat="45.44366" lon="4.05683">
        <ele>846.1</ele>
        <time>2011-11-11T13:06:03Z</time>
      </trkpt>
      <trkpt lat="45.44362" lon="4.05689">
        <ele>845.14</ele>
        <time>2011-11-11T13:06:04Z</time>
      </trkpt>
      <trkpt lat="45.44362" lon="4.05697">
        <ele>844.18</ele>
        <time>2011-11-11T13:06:05Z</time>
      </trkpt>
      <trkpt lat="45.44363" lon="4.05706">
        <ele>843.21</ele>
        <time>2011-11-11T13:06:06Z</time>
      </trkpt>
      <trkpt lat="45.44365" lon="4.05717">
        <ele>842.25</ele>
        <time>2011-11-11T13:06:07Z</time>
      </trkpt>
      <trkpt lat="45.44368" lon="4.05728">
        <ele>840.81</ele>
        <time>2011-11-11T13:06:08Z</time>
      </trkpt>
      <trkpt lat="45.44372" lon="4.0574">
        <ele>839.37</ele>
        <time>2011-11-11T13:06:09Z</time>
      </trkpt>
      <trkpt lat="45.4438" lon="4.05766">
        <ele>837.45</ele>
        <time>2011-11-11T13:06:11Z</time>
      </trkpt>
      <trkpt lat="45.44385" lon="4.05777">
        <ele>836.48</ele>
        <time>2011-11-11T13:06:12Z</time>
      </trkpt>
      <trkpt lat="45.44394" lon="4.05795">
        <ele>834.56</ele>
        <time>2011-11-11T13:06:14Z</time>
      </trkpt>
      <trkpt lat="45.44394" lon="4.05805">
        <ele>834.08</ele>
        <time>2011-11-11T13:06:15Z</time>
      </trkpt>
      <trkpt lat="45.44392" lon="4.05815">
        <ele>833.12</ele>
        <time>2011-11-11T13:06:16Z</time>
      </trkpt>
      <trkpt lat="45.4438" lon="4.05876">
        <ele>829.27</ele>
        <time>2011-11-11T13:06:21Z</time>
      </trkpt>
      <trkpt lat="45.44374" lon="4.05925">
        <ele>827.83</ele>
        <time>2011-11-11T13:06:25Z</time>
      </trkpt>
      <trkpt lat="45.44371" lon="4.05937">
        <ele>826.87</ele>
        <time>2011-11-11T13:06:26Z</time>
      </trkpt>
      <trkpt lat="45.44369" lon="4.05949">
        <ele>826.39</ele>
        <time>2011-11-11T13:06:27Z</time>
      </trkpt>
      <trkpt lat="45.44368" lon="4.05962">
        <ele>825.91</ele>
        <time>2011-11-11T13:06:28Z</time>
      </trkpt>
      <trkpt lat="45.44365" lon="4.05975">
        <ele>825.43</ele>
        <time>2011-11-11T13:06:29Z</time>
      </trkpt>
      <trkpt lat="45.44349" lon="4.06037">
        <ele>822.06</ele>
        <time>2011-11-11T13:06:34Z</time>
      </trkpt>
      <trkpt lat="45.44344" lon="4.06048">
        <ele>821.58</ele>
        <time>2011-11-11T13:06:35Z</time>
      </trkpt>
      <trkpt lat="45.44339" lon="4.06057">
        <ele>821.58</ele>
        <time>2011-11-11T13:06:36Z</time>
      </trkpt>
      <trkpt lat="45.44333" lon="4.06064">
        <ele>821.58</ele>
        <time>2011-11-11T13:06:37Z</time>
      </trkpt>
      <trkpt lat="45.44326" lon="4.06071">
        <ele>821.1</ele>
        <time>2011-11-11T13:06:38Z</time>
      </trkpt>
      <trkpt lat="45.4432" lon="4.06077">
        <ele>821.1</ele>
        <time>2011-11-11T13:06:39Z</time>
      </trkpt>
      <trkpt lat="45.4431" lon="4.06087">
        <ele>821.1</ele>
        <time>2011-11-11T13:06:41Z</time>
      </trkpt>
      <trkpt lat="45.44306" lon="4.06093">
        <ele>820.14</ele>
        <time>2011-11-11T13:06:42Z</time>
      </trkpt>
      <trkpt lat="45.44302" lon="4.06097">
        <ele>819.66</ele>
        <time>2011-11-11T13:06:43Z</time>
      </trkpt>
      <trkpt lat="45.44299" lon="4.06098">
        <ele>819.18</ele>
        <time>2011-11-11T13:06:44Z</time>
      </trkpt>
      <trkpt lat="45.44296" lon="4.06097">
        <ele>818.7</ele>
        <time>2011-11-11T13:06:45Z</time>
      </trkpt>
      <trkpt lat="45.44293" lon="4.06093">
        <ele>818.22</ele>
        <time>2011-11-11T13:06:46Z</time>
      </trkpt>
      <trkpt lat="45.44291" lon="4.06087">
        <ele>817.26</ele>
        <time>2011-11-11T13:06:47Z</time>
      </trkpt>
      <trkpt lat="45.44291" lon="4.06079">
        <ele>816.3</ele>
        <time>2011-11-11T13:06:48Z</time>
      </trkpt>
      <trkpt lat="45.44291" lon="4.06072">
        <ele>815.82</ele>
        <time>2011-11-11T13:06:49Z</time>
      </trkpt>
      <trkpt lat="45.44291" lon="4.06065">
        <ele>815.34</ele>
        <time>2011-11-11T13:06:50Z</time>
      </trkpt>
      <trkpt lat="45.44291" lon="4.06047">
        <ele>813.89</ele>
        <time>2011-11-11T13:06:52Z</time>
      </trkpt>
      <trkpt lat="45.44287" lon="4.06027">
        <ele>812.45</ele>
        <time>2011-11-11T13:06:54Z</time>
      </trkpt>
      <trkpt lat="45.44277" lon="4.05998">
        <ele>809.57</ele>
        <time>2011-11-11T13:06:57Z</time>
      </trkpt>
      <trkpt lat="45.44272" lon="4.05989">
        <ele>809.09</ele>
        <time>2011-11-11T13:06:58Z</time>
      </trkpt>
      <trkpt lat="45.44267" lon="4.05981">
        <ele>808.13</ele>
        <time>2011-11-11T13:06:59Z</time>
      </trkpt>
      <trkpt lat="45.44261" lon="4.05974">
        <ele>807.64</ele>
        <time>2011-11-11T13:07:00Z</time>
      </trkpt>
      <trkpt lat="45.44253" lon="4.05967">
        <ele>806.68</ele>
        <time>2011-11-11T13:07:01Z</time>
      </trkpt>
      <trkpt lat="45.44246" lon="4.05963">
        <ele>805.72</ele>
        <time>2011-11-11T13:07:02Z</time>
      </trkpt>
      <trkpt lat="45.44238" lon="4.05961">
        <ele>805.24</ele>
        <time>2011-11-11T13:07:03Z</time>
      </trkpt>
      <trkpt lat="45.44232" lon="4.05959">
        <ele>804.76</ele>
        <time>2011-11-11T13:07:04Z</time>
      </trkpt>
      <trkpt lat="45.44228" lon="4.05956">
        <ele>804.28</ele>
        <time>2011-11-11T13:07:05Z</time>
      </trkpt>
      <trkpt lat="45.44225" lon="4.0595">
        <ele>803.8</ele>
        <time>2011-11-11T13:07:06Z</time>
      </trkpt>
      <trkpt lat="45.44223" lon="4.05942">
        <ele>803.32</ele>
        <time>2011-11-11T13:07:07Z</time>
      </trkpt>
      <trkpt lat="45.44217" lon="4.05924">
        <ele>803.32</ele>
        <time>2011-11-11T13:07:09Z</time>
      </trkpt>
      <trkpt lat="45.44209" lon="4.05907">
        <ele>803.32</ele>
        <time>2011-11-11T13:07:11Z</time>
      </trkpt>
      <trkpt lat="45.44193" lon="4.05874">
        <ele>803.8</ele>
        <time>2011-11-11T13:07:15Z</time>
      </trkpt>
      <trkpt lat="45.44188" lon="4.05866">
        <ele>803.8</ele>
        <time>2011-11-11T13:07:16Z</time>
      </trkpt>
      <trkpt lat="45.44133" lon="4.05804">
        <ele>804.28</ele>
        <time>2011-11-11T13:07:25Z</time>
      </trkpt>
      <trkpt lat="45.44071" lon="4.05762">
        <ele>805.72</ele>
        <time>2011-11-11T13:07:35Z</time>
      </trkpt>
      <trkpt lat="45.44067" lon="4.05761">
        <ele>805.72</ele>
        <time>2011-11-11T13:07:36Z</time>
      </trkpt>
      <trkpt lat="45.44033" lon="4.05752">
        <ele>806.68</ele>
        <time>2011-11-11T13:07:45Z</time>
      </trkpt>
      <trkpt lat="45.44028" lon="4.05751">
        <ele>806.68</ele>
        <time>2011-11-11T13:07:46Z</time>
      </trkpt>
      <trkpt lat="45.44023" lon="4.05751">
        <ele>806.68</ele>
        <time>2011-11-11T13:07:47Z</time>
      </trkpt>
      <trkpt lat="45.44018" lon="4.05751">
        <ele>807.16</ele>
        <time>2011-11-11T13:07:48Z</time>
      </trkpt>
      <trkpt lat="45.44013" lon="4.05751">
        <ele>807.16</ele>
        <time>2011-11-11T13:07:49Z</time>
      </trkpt>
      <trkpt lat="45.43992" lon="4.05751">
        <ele>807.64</ele>
        <time>2011-11-11T13:07:53Z</time>
      </trkpt>
      <trkpt lat="45.43953" lon="4.05756">
        <ele>807.64</ele>
        <time>2011-11-11T13:08:01Z</time>
      </trkpt>
      <trkpt lat="45.43949" lon="4.05758">
        <ele>807.64</ele>
        <time>2011-11-11T13:08:02Z</time>
      </trkpt>
      <trkpt lat="45.43944" lon="4.05759">
        <ele>807.64</ele>
        <time>2011-11-11T13:08:03Z</time>
      </trkpt>
      <trkpt lat="45.43939" lon="4.05761">
        <ele>807.64</ele>
        <time>2011-11-11T13:08:04Z</time>
      </trkpt>
      <trkpt lat="45.43934" lon="4.05763">
        <ele>808.13</ele>
        <time>2011-11-11T13:08:05Z</time>
      </trkpt>
      <trkpt lat="45.43907" lon="4.05776">
        <ele>810.05</ele>
        <time>2011-11-11T13:08:11Z</time>
      </trkpt>
      <trkpt lat="45.43903" lon="4.05778">
        <ele>810.53</ele>
        <time>2011-11-11T13:08:12Z</time>
      </trkpt>
      <trkpt lat="45.43899" lon="4.05781">
        <ele>811.01</ele>
        <time>2011-11-11T13:08:13Z</time>
      </trkpt>
      <trkpt lat="45.43879" lon="4.05795">
        <ele>812.45</ele>
        <time>2011-11-11T13:08:18Z</time>
      </trkpt>
      <trkpt lat="45.43871" lon="4.05801">
        <ele>812.45</ele>
        <time>2011-11-11T13:08:20Z</time>
      </trkpt>
      <trkpt lat="45.43848" lon="4.05824">
        <ele>812.93</ele>
        <time>2011-11-11T13:08:26Z</time>
      </trkpt>
      <trkpt lat="45.43835" lon="4.05842">
        <ele>812.45</ele>
        <time>2011-11-11T13:08:30Z</time>
      </trkpt>
      <trkpt lat="45.43827" lon="4.05854">
        <ele>812.45</ele>
        <time>2011-11-11T13:08:33Z</time>
      </trkpt>
      <trkpt lat="45.43816" lon="4.05872">
        <ele>812.45</ele>
        <time>2011-11-11T13:08:37Z</time>
      </trkpt>
      <trkpt lat="45.43797" lon="4.05907">
        <ele>812.45</ele>
        <time>2011-11-11T13:08:44Z</time>
      </trkpt>
      <trkpt lat="45.43786" lon="4.05932">
        <ele>814.37</ele>
        <time>2011-11-11T13:08:49Z</time>
      </trkpt>
      <trkpt lat="45.43765" lon="4.05995">
        <ele>817.74</ele>
        <time>2011-11-11T13:09:03Z</time>
      </trkpt>
      <trkpt lat="45.43755" lon="4.0604">
        <ele>819.18</ele>
        <time>2011-11-11T13:09:16Z</time>
      </trkpt>
      <trkpt lat="45.43752" lon="4.06061">
        <ele>821.1</ele>
        <time>2011-11-11T13:09:22Z</time>
      </trkpt>
      <trkpt lat="45.43754" lon="4.06068">
        <ele>821.58</ele>
        <time>2011-11-11T13:09:25Z</time>
      </trkpt>
      <trkpt lat="45.43749" lon="4.06101">
        <ele>828.79</ele>
        <time>2011-11-11T13:09:37Z</time>
      </trkpt>
      <trkpt lat="45.43747" lon="4.06113">
        <ele>829.27</ele>
        <time>2011-11-11T13:09:42Z</time>
      </trkpt>
      <trkpt lat="45.43745" lon="4.06118">
        <ele>829.27</ele>
        <time>2011-11-11T13:09:44Z</time>
      </trkpt>
      <trkpt lat="45.4374" lon="4.06125">
        <ele>830.24</ele>
        <time>2011-11-11T13:09:57Z</time>
      </trkpt>
      <trkpt lat="45.4374" lon="4.06125">
        <ele>830.24</ele>
        <time>2011-11-11T13:10:26Z</time>
      </trkpt>
      <trkpt lat="45.43738" lon="4.06126">
        <ele>829.76</ele>
        <time>2011-11-11T13:10:28Z</time>
      </trkpt>
      <trkpt lat="45.43729" lon="4.06129">
        <ele>830.24</ele>
        <time>2011-11-11T13:10:34Z</time>
      </trkpt>
      <trkpt lat="45.43702" lon="4.06134">
        <ele>830.72</ele>
        <time>2011-11-11T13:10:49Z</time>
      </trkpt>
      <trkpt lat="45.43696" lon="4.06134">
        <ele>831.2</ele>
        <time>2011-11-11T13:10:52Z</time>
      </trkpt>
      <trkpt lat="45.43669" lon="4.0614">
        <ele>832.64</ele>
        <time>2011-11-11T13:11:04Z</time>
      </trkpt>
      <trkpt lat="45.43645" lon="4.06156">
        <ele>835.52</ele>
        <time>2011-11-11T13:11:17Z</time>
      </trkpt>
      <trkpt lat="45.43631" lon="4.06169">
        <ele>840.81</ele>
        <time>2011-11-11T13:11:27Z</time>
      </trkpt>
      <trkpt lat="45.43617" lon="4.06195">
        <ele>842.73</ele>
        <time>2011-11-11T13:11:37Z</time>
      </trkpt>
      <trkpt lat="45.43617" lon="4.06197">
        <ele>842.73</ele>
        <time>2011-11-11T13:11:38Z</time>
      </trkpt>
      <trkpt lat="45.43617" lon="4.06201">
        <ele>843.21</ele>
        <time>2011-11-11T13:11:41Z</time>
      </trkpt>
      <trkpt lat="45.43599" lon="4.06232">
        <ele>842.25</ele>
        <time>2011-11-11T13:11:52Z</time>
      </trkpt>
      <trkpt lat="45.43593" lon="4.0624">
        <ele>842.25</ele>
        <time>2011-11-11T13:11:55Z</time>
      </trkpt>
      <trkpt lat="45.43585" lon="4.06249">
        <ele>843.69</ele>
        <time>2011-11-11T13:11:59Z</time>
      </trkpt>
      <trkpt lat="45.43551" lon="4.06263">
        <ele>843.69</ele>
        <time>2011-11-11T13:12:12Z</time>
      </trkpt>
      <trkpt lat="45.43523" lon="4.06275">
        <ele>843.21</ele>
        <time>2011-11-11T13:12:23Z</time>
      </trkpt>
      <trkpt lat="45.43496" lon="4.06282">
        <ele>846.58</ele>
        <time>2011-11-11T13:12:35Z</time>
      </trkpt>
      <trkpt lat="45.43477" lon="4.06283">
        <ele>850.42</ele>
        <time>2011-11-11T13:12:45Z</time>
      </trkpt>
      <trkpt lat="45.43466" lon="4.06283">
        <ele>850.9</ele>
        <time>2011-11-11T13:12:51Z</time>
      </trkpt>
      <trkpt lat="45.43437" lon="4.06279">
        <ele>854.75</ele>
        <time>2011-11-11T13:13:07Z</time>
      </trkpt>
      <trkpt lat="45.4342" lon="4.06274">
        <ele>856.67</ele>
        <time>2011-11-11T13:13:17Z</time>
      </trkpt>
      <trkpt lat="45.4341" lon="4.06273">
        <ele>859.08</ele>
        <time>2011-11-11T13:13:23Z</time>
      </trkpt>
      <trkpt lat="45.43394" lon="4.0627">
        <ele>861.96</ele>
        <time>2011-11-11T13:13:32Z</time>
      </trkpt>
      <trkpt lat="45.43383" lon="4.06266">
        <ele>861</ele>
        <time>2011-11-11T13:13:38Z</time>
      </trkpt>
      <trkpt lat="45.43368" lon="4.06258">
        <ele>861.96</ele>
        <time>2011-11-11T13:13:47Z</time>
      </trkpt>
      <trkpt lat="45.43354" lon="4.06249">
        <ele>863.88</ele>
        <time>2011-11-11T13:13:55Z</time>
      </trkpt>
      <trkpt lat="45.43329" lon="4.06233">
        <ele>865.32</ele>
        <time>2011-11-11T13:14:11Z</time>
      </trkpt>
      <trkpt lat="45.43302" lon="4.06231">
        <ele>868.69</ele>
        <time>2011-11-11T13:14:26Z</time>
      </trkpt>
      <trkpt lat="45.43282" lon="4.06248">
        <ele>868.21</ele>
        <time>2011-11-11T13:14:41Z</time>
      </trkpt>
      <trkpt lat="45.43276" lon="4.06253">
        <ele>870.61</ele>
        <time>2011-11-11T13:14:47Z</time>
      </trkpt>
      <trkpt lat="45.43268" lon="4.06239">
        <ele>870.13</ele>
        <time>2011-11-11T13:14:57Z</time>
      </trkpt>
      <trkpt lat="45.43261" lon="4.0621">
        <ele>870.61</ele>
        <time>2011-11-11T13:15:11Z</time>
      </trkpt>
      <trkpt lat="45.43256" lon="4.0619">
        <ele>873.01</ele>
        <time>2011-11-11T13:15:21Z</time>
      </trkpt>
      <trkpt lat="45.43251" lon="4.06161">
        <ele>876.86</ele>
        <time>2011-11-11T13:15:36Z</time>
      </trkpt>
      <trkpt lat="45.4325" lon="4.06158">
        <ele>877.82</ele>
        <time>2011-11-11T13:15:38Z</time>
      </trkpt>
      <trkpt lat="45.43248" lon="4.06147">
        <ele>876.86</ele>
        <time>2011-11-11T13:15:45Z</time>
      </trkpt>
      <trkpt lat="45.43249" lon="4.06139">
        <ele>876.86</ele>
        <time>2011-11-11T13:15:57Z</time>
      </trkpt>
      <trkpt lat="45.43249" lon="4.06139">
        <ele>876.86</ele>
        <time>2011-11-11T13:16:23Z</time>
      </trkpt>
      <trkpt lat="45.43249" lon="4.06139">
        <ele>876.86</ele>
        <time>2011-11-11T13:16:24Z</time>
      </trkpt>
      <trkpt lat="45.43247" lon="4.06148">
        <ele>876.86</ele>
        <time>2011-11-11T13:16:29Z</time>
      </trkpt>
      <trkpt lat="45.43256" lon="4.0619">
        <ele>872.05</ele>
        <time>2011-11-11T13:16:40Z</time>
      </trkpt>
      <trkpt lat="45.43262" lon="4.06219">
        <ele>869.65</ele>
        <time>2011-11-11T13:16:44Z</time>
      </trkpt>
      <trkpt lat="45.43265" lon="4.06236">
        <ele>868.69</ele>
        <time>2011-11-11T13:16:46Z</time>
      </trkpt>
      <trkpt lat="45.43267" lon="4.06243">
        <ele>868.21</ele>
        <time>2011-11-11T13:16:47Z</time>
      </trkpt>
      <trkpt lat="45.43267" lon="4.06251">
        <ele>868.21</ele>
        <time>2011-11-11T13:16:48Z</time>
      </trkpt>
      <trkpt lat="45.43267" lon="4.06258">
        <ele>868.21</ele>
        <time>2011-11-11T13:16:49Z</time>
      </trkpt>
      <trkpt lat="45.43266" lon="4.06264">
        <ele>868.21</ele>
        <time>2011-11-11T13:16:50Z</time>
      </trkpt>
      <trkpt lat="45.43264" lon="4.0627">
        <ele>868.69</ele>
        <time>2011-11-11T13:16:51Z</time>
      </trkpt>
      <trkpt lat="45.43261" lon="4.06274">
        <ele>868.69</ele>
        <time>2011-11-11T13:16:52Z</time>
      </trkpt>
      <trkpt lat="45.43258" lon="4.06276">
        <ele>868.69</ele>
        <time>2011-11-11T13:16:53Z</time>
      </trkpt>
      <trkpt lat="45.43255" lon="4.06277">
        <ele>868.69</ele>
        <time>2011-11-11T13:16:54Z</time>
      </trkpt>
      <trkpt lat="45.43253" lon="4.06278">
        <ele>869.17</ele>
        <time>2011-11-11T13:16:55Z</time>
      </trkpt>
      <trkpt lat="45.43251" lon="4.06279">
        <ele>869.17</ele>
        <time>2011-11-11T13:16:56Z</time>
      </trkpt>
      <trkpt lat="45.43233" lon="4.06286">
        <ele>871.57</ele>
        <time>2011-11-11T13:17:08Z</time>
      </trkpt>
      <trkpt lat="45.43204" lon="4.06301">
        <ele>873.01</ele>
        <time>2011-11-11T13:17:21Z</time>
      </trkpt>
      <trkpt lat="45.43164" lon="4.06323">
        <ele>874.94</ele>
        <time>2011-11-11T13:17:38Z</time>
      </trkpt>
      <trkpt lat="45.43134" lon="4.0634">
        <ele>875.9</ele>
        <time>2011-11-11T13:17:50Z</time>
      </trkpt>
      <trkpt lat="45.43131" lon="4.0634">
        <ele>876.38</ele>
        <time>2011-11-11T13:17:51Z</time>
      </trkpt>
      <trkpt lat="45.43128" lon="4.06341">
        <ele>876.86</ele>
        <time>2011-11-11T13:17:52Z</time>
      </trkpt>
      <trkpt lat="45.43117" lon="4.06343">
        <ele>877.34</ele>
        <time>2011-11-11T13:17:57Z</time>
      </trkpt>
      <trkpt lat="45.43115" lon="4.06342">
        <ele>877.82</ele>
        <time>2011-11-11T13:17:58Z</time>
      </trkpt>
      <trkpt lat="45.43088" lon="4.06324">
        <ele>879.26</ele>
        <time>2011-11-11T13:18:10Z</time>
      </trkpt>
      <trkpt lat="45.43059" lon="4.063">
        <ele>881.19</ele>
        <time>2011-11-11T13:18:23Z</time>
      </trkpt>
      <trkpt lat="45.43025" lon="4.06283">
        <ele>884.07</ele>
        <time>2011-11-11T13:18:37Z</time>
      </trkpt>
      <trkpt lat="45.42988" lon="4.0628">
        <ele>882.63</ele>
        <time>2011-11-11T13:18:46Z</time>
      </trkpt>
      <trkpt lat="45.42982" lon="4.0628">
        <ele>882.15</ele>
        <time>2011-11-11T13:18:47Z</time>
      </trkpt>
      <trkpt lat="45.42976" lon="4.0628">
        <ele>881.19</ele>
        <time>2011-11-11T13:18:48Z</time>
      </trkpt>
      <trkpt lat="45.4297" lon="4.06278">
        <ele>880.71</ele>
        <time>2011-11-11T13:18:49Z</time>
      </trkpt>
      <trkpt lat="45.42965" lon="4.06275">
        <ele>879.74</ele>
        <time>2011-11-11T13:18:50Z</time>
      </trkpt>
      <trkpt lat="45.4296" lon="4.06272">
        <ele>879.26</ele>
        <time>2011-11-11T13:18:51Z</time>
      </trkpt>
      <trkpt lat="45.42954" lon="4.06269">
        <ele>878.3</ele>
        <time>2011-11-11T13:18:52Z</time>
      </trkpt>
      <trkpt lat="45.42949" lon="4.06268">
        <ele>877.82</ele>
        <time>2011-11-11T13:18:53Z</time>
      </trkpt>
      <trkpt lat="45.42944" lon="4.06267">
        <ele>877.34</ele>
        <time>2011-11-11T13:18:54Z</time>
      </trkpt>
      <trkpt lat="45.42938" lon="4.06268">
        <ele>876.86</ele>
        <time>2011-11-11T13:18:55Z</time>
      </trkpt>
      <trkpt lat="45.42926" lon="4.06273">
        <ele>875.9</ele>
        <time>2011-11-11T13:18:57Z</time>
      </trkpt>
      <trkpt lat="45.42921" lon="4.06278">
        <ele>874.94</ele>
        <time>2011-11-11T13:18:58Z</time>
      </trkpt>
      <trkpt lat="45.42915" lon="4.06283">
        <ele>874.46</ele>
        <time>2011-11-11T13:18:59Z</time>
      </trkpt>
      <trkpt lat="45.42899" lon="4.06303">
        <ele>873.01</ele>
        <time>2011-11-11T13:19:02Z</time>
      </trkpt>
      <trkpt lat="45.42867" lon="4.06354">
        <ele>869.65</ele>
        <time>2011-11-11T13:19:08Z</time>
      </trkpt>
      <trkpt lat="45.42859" lon="4.06361">
        <ele>869.17</ele>
        <time>2011-11-11T13:19:09Z</time>
      </trkpt>
      <trkpt lat="45.42761" lon="4.06439">
        <ele>861.48</ele>
        <time>2011-11-11T13:19:21Z</time>
      </trkpt>
      <trkpt lat="45.42737" lon="4.06456">
        <ele>860.52</ele>
        <time>2011-11-11T13:19:25Z</time>
      </trkpt>
      <trkpt lat="45.42731" lon="4.06457">
        <ele>860.52</ele>
        <time>2011-11-11T13:19:26Z</time>
      </trkpt>
      <trkpt lat="45.42727" lon="4.0646">
        <ele>860.04</ele>
        <time>2011-11-11T13:19:27Z</time>
      </trkpt>
      <trkpt lat="45.42723" lon="4.06465">
        <ele>860.04</ele>
        <time>2011-11-11T13:19:28Z</time>
      </trkpt>
      <trkpt lat="45.42719" lon="4.0647">
        <ele>859.56</ele>
        <time>2011-11-11T13:19:29Z</time>
      </trkpt>
      <trkpt lat="45.42715" lon="4.06475">
        <ele>859.56</ele>
        <time>2011-11-11T13:19:30Z</time>
      </trkpt>
      <trkpt lat="45.4271" lon="4.06479">
        <ele>859.08</ele>
        <time>2011-11-11T13:19:31Z</time>
      </trkpt>
      <trkpt lat="45.42704" lon="4.06483">
        <ele>858.59</ele>
        <time>2011-11-11T13:19:32Z</time>
      </trkpt>
      <trkpt lat="45.42698" lon="4.06488">
        <ele>858.11</ele>
        <time>2011-11-11T13:19:33Z</time>
      </trkpt>
      <trkpt lat="45.42641" lon="4.06532">
        <ele>856.19</ele>
        <time>2011-11-11T13:19:44Z</time>
      </trkpt>
      <trkpt lat="45.42637" lon="4.06536">
        <ele>855.71</ele>
        <time>2011-11-11T13:19:45Z</time>
      </trkpt>
      <trkpt lat="45.42634" lon="4.0654">
        <ele>855.71</ele>
        <time>2011-11-11T13:19:46Z</time>
      </trkpt>
      <trkpt lat="45.4263" lon="4.06544">
        <ele>855.71</ele>
        <time>2011-11-11T13:19:47Z</time>
      </trkpt>
      <trkpt lat="45.42626" lon="4.06546">
        <ele>855.71</ele>
        <time>2011-11-11T13:19:48Z</time>
      </trkpt>
      <trkpt lat="45.42621" lon="4.06548">
        <ele>856.19</ele>
        <time>2011-11-11T13:19:49Z</time>
      </trkpt>
      <trkpt lat="45.42616" lon="4.06549">
        <ele>856.19</ele>
        <time>2011-11-11T13:19:50Z</time>
      </trkpt>
      <trkpt lat="45.42611" lon="4.0655">
        <ele>856.19</ele>
        <time>2011-11-11T13:19:51Z</time>
      </trkpt>
      <trkpt lat="45.42601" lon="4.06552">
        <ele>855.71</ele>
        <time>2011-11-11T13:19:53Z</time>
      </trkpt>
      <trkpt lat="45.42576" lon="4.06571">
        <ele>856.67</ele>
        <time>2011-11-11T13:20:00Z</time>
      </trkpt>
      <trkpt lat="45.42548" lon="4.06622">
        <ele>859.08</ele>
        <time>2011-11-11T13:20:12Z</time>
      </trkpt>
      <trkpt lat="45.4254" lon="4.06649">
        <ele>860.04</ele>
        <time>2011-11-11T13:20:17Z</time>
      </trkpt>
      <trkpt lat="45.42533" lon="4.06665">
        <ele>860.04</ele>
        <time>2011-11-11T13:20:20Z</time>
      </trkpt>
      <trkpt lat="45.42531" lon="4.06671">
        <ele>859.56</ele>
        <time>2011-11-11T13:20:21Z</time>
      </trkpt>
      <trkpt lat="45.42524" lon="4.06686">
        <ele>859.56</ele>
        <time>2011-11-11T13:20:24Z</time>
      </trkpt>
      <trkpt lat="45.42511" lon="4.06715">
        <ele>859.08</ele>
        <time>2011-11-11T13:20:30Z</time>
      </trkpt>
      <trkpt lat="45.4251" lon="4.06721">
        <ele>859.08</ele>
        <time>2011-11-11T13:20:31Z</time>
      </trkpt>
      <trkpt lat="45.42507" lon="4.06741">
        <ele>858.59</ele>
        <time>2011-11-11T13:20:34Z</time>
      </trkpt>
      <trkpt lat="45.42506" lon="4.06748">
        <ele>858.11</ele>
        <time>2011-11-11T13:20:35Z</time>
      </trkpt>
      <trkpt lat="45.42505" lon="4.06756">
        <ele>858.11</ele>
        <time>2011-11-11T13:20:36Z</time>
      </trkpt>
      <trkpt lat="45.42494" lon="4.06802">
        <ele>856.67</ele>
        <time>2011-11-11T13:20:41Z</time>
      </trkpt>
      <trkpt lat="45.42491" lon="4.0681">
        <ele>856.19</ele>
        <time>2011-11-11T13:20:42Z</time>
      </trkpt>
      <trkpt lat="45.42487" lon="4.06819">
        <ele>856.19</ele>
        <time>2011-11-11T13:20:43Z</time>
      </trkpt>
      <trkpt lat="45.42482" lon="4.06826">
        <ele>855.71</ele>
        <time>2011-11-11T13:20:44Z</time>
      </trkpt>
      <trkpt lat="45.42477" lon="4.06834">
        <ele>855.23</ele>
        <time>2011-11-11T13:20:45Z</time>
      </trkpt>
      <trkpt lat="45.4247" lon="4.0684">
        <ele>854.75</ele>
        <time>2011-11-11T13:20:46Z</time>
      </trkpt>
      <trkpt lat="45.42463" lon="4.06846">
        <ele>854.27</ele>
        <time>2011-11-11T13:20:47Z</time>
      </trkpt>
      <trkpt lat="45.42435" lon="4.06862">
        <ele>852.83</ele>
        <time>2011-11-11T13:20:51Z</time>
      </trkpt>
      <trkpt lat="45.42376" lon="4.0688">
        <ele>849.46</ele>
        <time>2011-11-11T13:20:59Z</time>
      </trkpt>
      <trkpt lat="45.42352" lon="4.06884">
        <ele>848.02</ele>
        <time>2011-11-11T13:21:02Z</time>
      </trkpt>
      <trkpt lat="45.42344" lon="4.06884">
        <ele>847.54</ele>
        <time>2011-11-11T13:21:03Z</time>
      </trkpt>
      <trkpt lat="45.42336" lon="4.06883">
        <ele>846.58</ele>
        <time>2011-11-11T13:21:04Z</time>
      </trkpt>
      <trkpt lat="45.4232" lon="4.06878">
        <ele>844.66</ele>
        <time>2011-11-11T13:21:06Z</time>
      </trkpt>
      <trkpt lat="45.42312" lon="4.06874">
        <ele>843.69</ele>
        <time>2011-11-11T13:21:07Z</time>
      </trkpt>
      <trkpt lat="45.42268" lon="4.06846">
        <ele>840.33</ele>
        <time>2011-11-11T13:21:13Z</time>
      </trkpt>
      <trkpt lat="45.4226" lon="4.06845">
        <ele>839.85</ele>
        <time>2011-11-11T13:21:14Z</time>
      </trkpt>
      <trkpt lat="45.42215" lon="4.06849">
        <ele>836.96</ele>
        <time>2011-11-11T13:21:20Z</time>
      </trkpt>
      <trkpt lat="45.42209" lon="4.06852">
        <ele>836.48</ele>
        <time>2011-11-11T13:21:21Z</time>
      </trkpt>
      <trkpt lat="45.42204" lon="4.06855">
        <ele>836</ele>
        <time>2011-11-11T13:21:22Z</time>
      </trkpt>
      <trkpt lat="45.422" lon="4.06858">
        <ele>835.52</ele>
        <time>2011-11-11T13:21:23Z</time>
      </trkpt>
      <trkpt lat="45.42196" lon="4.06862">
        <ele>835.04</ele>
        <time>2011-11-11T13:21:24Z</time>
      </trkpt>
      <trkpt lat="45.42185" lon="4.06875">
        <ele>833.6</ele>
        <time>2011-11-11T13:21:27Z</time>
      </trkpt>
      <trkpt lat="45.42174" lon="4.0689">
        <ele>832.16</ele>
        <time>2011-11-11T13:21:31Z</time>
      </trkpt>
      <trkpt lat="45.42173" lon="4.06895">
        <ele>831.68</ele>
        <time>2011-11-11T13:21:32Z</time>
      </trkpt>
      <trkpt lat="45.42175" lon="4.06899">
        <ele>831.2</ele>
        <time>2011-11-11T13:21:33Z</time>
      </trkpt>
      <trkpt lat="45.42178" lon="4.06902">
        <ele>830.72</ele>
        <time>2011-11-11T13:21:34Z</time>
      </trkpt>
      <trkpt lat="45.42181" lon="4.06903">
        <ele>830.24</ele>
        <time>2011-11-11T13:21:35Z</time>
      </trkpt>
      <trkpt lat="45.42185" lon="4.06905">
        <ele>829.27</ele>
        <time>2011-11-11T13:21:36Z</time>
      </trkpt>
      <trkpt lat="45.42189" lon="4.06908">
        <ele>828.79</ele>
        <time>2011-11-11T13:21:37Z</time>
      </trkpt>
      <trkpt lat="45.42194" lon="4.06911">
        <ele>827.83</ele>
        <time>2011-11-11T13:21:38Z</time>
      </trkpt>
      <trkpt lat="45.42198" lon="4.06915">
        <ele>826.87</ele>
        <time>2011-11-11T13:21:39Z</time>
      </trkpt>
      <trkpt lat="45.42199" lon="4.0692">
        <ele>826.39</ele>
        <time>2011-11-11T13:21:40Z</time>
      </trkpt>
      <trkpt lat="45.422" lon="4.06925">
        <ele>825.91</ele>
        <time>2011-11-11T13:21:41Z</time>
      </trkpt>
      <trkpt lat="45.42213" lon="4.06941">
        <ele>823.51</ele>
        <time>2011-11-11T13:21:47Z</time>
      </trkpt>
      <trkpt lat="45.42217" lon="4.06942">
        <ele>823.03</ele>
        <time>2011-11-11T13:21:48Z</time>
      </trkpt>
      <trkpt lat="45.42222" lon="4.06943">
        <ele>822.55</ele>
        <time>2011-11-11T13:21:49Z</time>
      </trkpt>
      <trkpt lat="45.42264" lon="4.06957">
        <ele>819.66</ele>
        <time>2011-11-11T13:21:58Z</time>
      </trkpt>
      <trkpt lat="45.42267" lon="4.06959">
        <ele>819.18</ele>
        <time>2011-11-11T13:21:59Z</time>
      </trkpt>
      <trkpt lat="45.42269" lon="4.0696">
        <ele>819.18</ele>
        <time>2011-11-11T13:22:00Z</time>
      </trkpt>
      <trkpt lat="45.42281" lon="4.06968">
        <ele>818.7</ele>
        <time>2011-11-11T13:22:09Z</time>
      </trkpt>
      <trkpt lat="45.42282" lon="4.06971">
        <ele>818.7</ele>
        <time>2011-11-11T13:22:12Z</time>
      </trkpt>
      <trkpt lat="45.42284" lon="4.06977">
        <ele>819.66</ele>
        <time>2011-11-11T13:22:18Z</time>
      </trkpt>
      <trkpt lat="45.42289" lon="4.06979">
        <ele>819.18</ele>
        <time>2011-11-11T13:22:22Z</time>
      </trkpt>
      <trkpt lat="45.42291" lon="4.06978">
        <ele>820.62</ele>
        <time>2011-11-11T13:22:33Z</time>
      </trkpt>
      <trkpt lat="45.42291" lon="4.06978">
        <ele>820.62</ele>
        <time>2011-11-11T13:22:36Z</time>
      </trkpt>
    </trkseg>
  </trk>
</gpx>